GFSSGP_sfc_wetblb_000.txt.gz
Wetbulb
67.52 64.13 58.41 52.16 43.28 41.88 38.90 42.55 43.81 45.50 47.55 49.06 50.63 49.43 48.01 48.77 49.29 46.70 59.66 65.09 68.37 70.63 72.46 73.19 74.48 73.78 73.55 72.68 70.81 69.94 69.18 67.85 67.38 67.26 67.00 67.42 67.01 67.67 67.89 67.69 67.17 66.52 65.92 64.86 64.64 64.39 64.20 65.02 65.44
66.39 63.12 54.19 47.26 39.60 35.36 38.34 43.41 44.59 46.32 48.28 50.25 51.14 50.52 49.03 50.48 57.41 58.63 60.13 67.83 70.02 71.42 72.34 72.48 74.58 74.12 73.59 72.19 70.85 69.99 69.17 68.33 67.25 66.96 66.95 66.98 67.68 67.77 67.34 67.63 66.30 66.13 65.77 64.76 64.27 64.08 63.24 63.74 64.89
61.34 60.35 49.45 43.58 39.24 35.96 38.13 44.05 45.50 48.15 49.89 50.63 49.90 52.27 51.43 52.27 59.19 59.74 61.69 68.40 70.09 70.81 71.68 72.68 74.67 74.68 73.86 72.28 70.95 70.10 69.28 68.30 67.12 66.98 66.51 67.39 68.05 69.03 68.36 68.22 67.13 66.90 66.35 65.11 64.50 64.47 64.74 64.92 64.49
56.83 52.93 47.92 41.08 38.79 42.18 43.34 45.74 46.81 48.06 49.83 51.15 50.39 50.20 54.25 56.45 57.67 62.13 63.45 68.38 68.67 69.21 70.31 73.44 74.57 74.59 74.05 72.81 71.02 70.43 69.68 68.46 67.57 66.88 67.20 67.29 68.82 69.40 69.56 68.54 68.96 68.08 66.81 65.74 64.77 64.78 65.34 66.00 66.48
53.52 48.34 42.03 38.75 40.34 43.25 45.11 47.63 46.69 46.37 47.36 49.16 50.48 48.30 51.10 57.28 60.59 62.58 62.62 67.28 67.42 68.20 70.57 73.36 74.48 74.68 73.62 72.56 71.69 70.75 69.77 69.29 67.86 67.77 67.63 68.28 68.80 69.26 70.10 69.38 68.85 67.65 66.74 65.80 65.44 65.73 65.71 65.81 66.47
49.60 46.77 39.03 37.43 40.12 44.65 46.11 48.53 47.22 46.97 47.21 49.88 48.81 48.41 50.69 57.16 60.85 61.82 62.99 63.21 69.72 69.56 71.69 72.70 73.99 73.82 73.15 72.74 72.37 71.72 70.56 69.59 68.56 68.26 67.99 68.11 67.52 68.36 69.37 68.88 68.26 67.29 66.73 66.02 66.56 66.58 66.80 66.46 66.12
47.73 43.67 39.81 39.80 41.23 43.57 47.02 48.60 44.33 46.25 47.81 48.86 50.58 46.83 50.25 55.03 60.72 63.06 62.29 64.09 70.00 71.08 71.72 71.66 72.49 72.45 72.78 72.75 72.39 71.99 71.68 70.87 69.68 68.75 67.99 68.33 67.76 66.95 67.69 69.51 68.35 67.54 66.78 66.76 66.93 66.96 66.38 66.51 66.83
49.79 45.98 41.15 41.06 41.87 43.05 48.71 49.09 48.07 47.22 47.11 51.84 52.55 47.01 48.35 54.31 59.84 62.51 62.63 65.74 68.80 70.56 71.05 70.62 70.59 71.50 70.41 70.80 71.61 71.33 71.36 70.94 70.59 69.54 68.81 68.21 67.49 67.48 67.83 69.12 68.30 67.59 67.59 67.51 66.92 66.47 66.84 67.01 67.09
52.73 43.24 40.97 42.62 43.07 45.80 49.27 47.74 50.51 51.28 49.84 50.83 51.64 50.71 52.82 55.50 60.75 60.72 60.32 61.42 64.86 68.18 68.82 69.94 69.53 69.43 69.83 69.18 69.77 70.37 70.31 70.06 69.58 68.22 67.28 65.99 62.72 62.29 64.04 65.92 66.82 68.20 67.50 67.18 67.47 67.53 67.83 68.27 67.49
49.15 44.28 44.40 47.38 47.92 46.96 49.44 48.56 49.22 47.84 48.21 48.50 49.48 52.55 53.89 57.31 58.02 59.45 59.55 60.52 61.25 63.43 65.69 67.90 68.63 68.23 68.75 69.48 67.54 67.21 67.53 67.02 66.09 65.49 63.92 63.62 62.34 61.59 62.78 63.93 66.16 67.36 67.83 68.10 68.07 68.19 68.77 67.66 64.26
49.83 46.21 47.98 48.96 50.94 49.94 48.97 47.91 50.29 48.64 46.64 49.47 49.57 50.86 51.85 54.66 56.18 57.59 58.41 59.89 62.09 63.78 64.57 66.36 67.41 67.61 67.72 66.79 66.45 65.59 65.34 65.10 64.79 64.09 63.62 63.21 61.62 60.37 60.85 60.84 61.63 61.53 62.72 62.78 63.67 62.71 62.04 62.08 62.51
45.64 50.30 51.03 51.53 52.73 51.41 48.64 50.25 48.39 48.44 49.22 52.47 52.45 53.29 53.24 53.40 52.95 53.36 53.26 56.55 59.20 62.10 64.13 64.95 66.65 66.70 65.75 66.00 65.76 64.51 64.13 63.82 63.14 63.82 63.52 61.47 60.39 60.80 60.65 60.78 61.24 61.48 62.10 62.32 63.60 62.66 61.34 58.92 57.73
46.03 47.46 51.36 52.63 52.83 52.44 52.73 49.47 48.71 49.00 51.90 52.55 53.07 53.56 52.75 53.06 53.04 53.66 53.67 53.35 54.59 60.81 63.49 64.10 65.12 65.75 64.72 64.76 64.06 63.09 62.47 62.89 61.85 61.77 61.54 61.64 61.57 61.47 61.67 61.58 61.70 61.59 62.40 60.32 55.81 52.80 52.58 51.87 52.47
47.34 48.76 49.58 50.81 50.95 51.63 50.80 50.71 47.96 49.81 51.99 51.73 52.52 52.37 51.96 52.35 53.34 51.04 53.58 56.38 57.01 60.25 63.14 63.83 65.05 65.16 64.90 64.10 63.80 63.19 62.15 63.03 61.57 61.66 62.12 62.54 62.10 61.72 60.49 54.78 54.54 55.24 52.20 51.18 49.90 49.07 48.62 47.84 48.48
47.77 45.00 47.13 47.72 49.74 49.39 51.13 47.53 47.77 50.38 51.24 51.09 51.14 51.11 51.26 51.34 51.31 51.77 54.39 55.66 56.22 58.22 61.68 63.25 64.79 65.34 64.85 64.36 63.91 62.42 63.74 63.31 62.21 61.45 59.78 59.97 59.25 55.68 53.33 51.84 49.53 49.82 49.63 48.43 47.34 46.43 45.82 45.82 46.84
43.08 42.96 39.71 45.74 48.91 49.90 49.26 42.85 49.08 50.73 48.83 49.19 49.57 49.39 49.60 50.40 51.44 52.14 54.09 54.74 54.79 56.31 58.31 60.81 65.57 64.92 64.59 63.71 63.14 61.43 61.24 58.65 54.20 53.20 53.31 53.01 52.64 51.54 49.63 47.69 46.69 47.56 46.69 45.51 44.84 44.07 43.04 43.29 42.58
40.34 34.92 37.12 41.40 48.63 48.24 47.09 44.50 48.80 51.08 48.50 48.43 48.37 48.13 48.44 48.32 49.29 51.13 52.69 53.65 55.44 56.18 56.45 57.58 63.59 63.89 62.99 60.17 58.13 54.69 52.89 52.05 51.14 49.24 49.19 48.98 48.94 48.16 46.65 45.44 45.08 45.52 44.12 42.87 43.03 41.43 40.89 40.91 40.73
36.09 35.43 37.43 37.66 44.17 47.03 45.94 45.51 48.06 49.25 48.22 47.91 48.61 46.19 45.87 47.97 49.31 50.48 52.11 52.33 55.60 55.77 56.06 57.11 62.78 58.99 53.90 53.83 53.32 51.83 50.09 47.17 46.84 46.16 46.74 46.01 45.21 45.29 44.47 43.20 43.31 43.75 42.08 40.99 40.53 39.38 40.14 40.26 39.66
38.95 37.35 35.76 38.63 44.06 43.61 43.63 44.77 47.54 49.52 46.77 46.79 46.19 44.48 44.94 47.22 48.95 49.56 50.93 53.43 55.35 56.61 56.56 58.98 57.43 52.51 52.86 52.50 51.23 49.73 45.81 44.80 44.01 43.93 43.84 43.61 43.37 43.28 42.43 41.80 41.50 41.87 40.16 38.79 39.61 39.08 38.87 38.99 39.51
37.93 35.59 35.27 39.13 43.10 42.19 42.45 42.71 46.77 48.76 48.78 48.01 47.79 43.89 45.36 46.22 47.39 49.25 51.86 53.47 55.45 56.38 57.13 57.14 54.64 52.62 52.80 52.13 49.08 47.97 46.28 44.52 43.33 42.13 41.23 41.63 41.85 42.28 42.17 40.42 39.93 39.62 39.12 37.83 37.76 37.54 37.19 38.14 38.34
36.08 34.53 34.63 35.33 40.47 42.72 41.38 38.96 42.92 47.25 48.04 49.43 47.76 46.45 47.59 47.85 47.34 48.49 51.08 52.96 53.78 54.37 54.34 54.96 53.57 52.60 52.58 51.04 49.48 47.16 46.48 44.78 42.55 41.07 40.08 40.01 40.72 40.99 40.56 39.57 38.80 38.29 37.61 36.41 36.17 35.81 35.44 34.51 36.40
31.96 38.88 38.83 37.84 36.50 31.45 43.20 33.15 39.38 44.08 45.48 46.68 46.65 44.69 46.76 46.56 47.53 48.44 50.46 50.26 51.44 51.13 51.89 52.59 52.90 52.03 51.39 50.64 48.27 46.72 44.59 42.81 42.89 41.54 39.41 38.79 39.46 39.41 39.49 38.89 37.82 36.92 36.64 35.04 35.32 36.82 34.99 34.40 32.94
34.53 39.49 37.50 37.75 35.34 34.04 35.51 33.83 38.54 42.42 42.02 44.85 46.16 44.69 46.78 47.60 48.30 49.15 50.39 50.61 50.26 50.01 50.28 50.83 51.07 50.68 49.14 48.34 46.70 45.01 43.83 43.17 42.16 39.79 37.63 37.10 37.19 38.03 38.08 37.47 36.33 35.66 35.48 34.41 34.00 33.66 32.95 33.83 33.05
40.26 37.21 36.43 36.56 34.83 28.45 33.30 35.28 34.90 38.72 41.72 43.94 43.61 44.21 46.20 47.06 46.99 48.71 48.86 49.38 47.67 46.81 47.05 47.52 48.37 46.93 47.20 46.45 45.36 44.67 42.89 40.81 39.32 37.65 36.70 36.36 36.15 36.32 36.19 36.49 35.02 34.41 34.10 33.77 33.66 33.16 32.54 32.10 32.31
37.08 33.20 27.47 24.59 24.10 24.98 34.31 34.11 35.02 40.93 44.14 46.65 43.84 43.59 45.79 47.04 46.82 47.62 48.06 47.54 45.63 44.98 45.10 45.63 46.04 44.20 44.71 44.43 43.68 42.53 40.70 38.90 37.23 36.42 35.83 35.11 34.63 34.30 33.99 34.32 33.40 33.01 32.99 33.48 32.98 32.16 31.62 31.57 30.81
34.54 33.53 27.09 18.57 20.66 24.27 36.79 31.47 35.76 44.55 46.66 47.53 47.62 45.91 46.26 46.04 47.68 48.00 47.75 46.84 45.76 45.30 44.24 43.88 43.80 41.71 41.73 41.10 39.37 38.27 37.74 36.87 36.02 35.42 34.80 34.29 33.80 33.63 33.49 33.10 32.69 32.37 32.47 32.22 31.67 31.28 31.07 31.36 30.20
33.17 29.66 36.02 30.53 30.90 27.82 32.20 36.08 42.26 45.06 41.88 42.66 43.17 44.47 44.86 46.18 47.21 47.32 46.77 46.23 45.42 44.40 43.02 43.05 42.03 39.98 39.21 38.37 37.46 35.91 35.75 35.59 34.60 33.98 33.88 33.38 33.45 35.57 32.76 32.21 31.76 31.50 31.45 31.34 30.58 30.29 29.84 29.76 29.54
35.90 37.58 28.90 30.09 21.86 22.16 30.08 32.59 36.16 40.41 39.20 41.28 42.58 43.53 44.90 46.22 46.64 46.83 46.91 46.03 45.30 43.72 42.08 41.12 40.61 39.21 37.28 36.21 35.71 35.01 34.14 33.90 33.33 33.07 32.46 32.40 32.31 32.31 31.96 31.53 31.16 30.89 30.73 30.54 29.86 29.51 30.09 29.22 29.17
34.00 32.35 33.59 32.36 31.42 27.82 28.49 32.72 41.18 42.37 41.60 42.19 43.37 44.64 44.63 45.44 46.24 46.92 46.94 46.46 44.11 42.44 41.09 39.70 38.72 37.40 35.72 34.83 33.69 33.13 32.85 32.77 32.38 32.08 31.68 31.74 31.49 31.29 31.22 31.14 30.75 30.35 30.25 30.12 29.13 28.87 29.42 29.02 28.30
37.12 34.28 34.43 28.77 27.22 32.95 31.59 30.61 40.36 44.99 43.53 44.75 44.56 45.04 45.24 46.29 46.50 47.07 46.91 44.64 43.37 41.72 39.95 38.61 37.11 36.03 34.71 33.75 33.03 32.40 32.17 31.89 31.63 31.19 31.20 31.43 30.81 31.06 30.78 30.64 30.57 30.50 30.27 29.76 28.67 28.21 28.54 27.91 27.16

GFSSGP_sfc_wetblb_003.txt.gz
Wetbulb
68.67 63.98 54.66 50.71 42.55 39.72 36.78 41.28 42.23 45.08 46.27 47.52 48.42 47.65 47.88 48.26 48.19 45.65 59.23 64.73 67.23 69.20 72.22 73.58 75.08 74.00 72.74 71.98 70.65 69.54 68.49 67.87 67.57 66.61 66.61 66.99 66.72 67.60 67.41 67.77 67.43 66.73 65.96 64.62 64.23 64.62 64.47 65.07 65.35
64.31 61.13 52.84 45.82 39.17 33.09 35.64 40.57 43.29 45.97 47.74 48.42 48.64 48.33 47.97 50.14 56.50 57.21 60.66 66.21 69.28 70.93 72.27 72.19 74.81 73.64 73.10 72.20 70.64 69.88 68.87 67.55 67.25 67.30 67.26 67.49 67.67 68.04 66.92 67.16 65.75 65.50 65.81 64.82 64.01 64.07 63.81 63.42 64.34
60.72 56.95 48.62 42.59 37.14 35.45 35.98 41.71 43.01 47.04 48.69 49.65 48.55 51.12 49.79 52.94 58.37 58.58 60.67 68.24 70.45 70.61 71.76 72.05 74.40 73.91 73.52 72.11 70.82 70.05 69.16 68.05 67.01 66.84 66.64 67.24 67.63 68.40 68.56 66.71 67.04 66.85 66.26 65.04 64.39 64.43 64.87 65.33 65.31
55.67 52.19 47.06 40.43 37.93 40.75 40.52 43.93 44.56 45.88 48.58 50.38 49.10 48.54 53.33 55.73 57.55 61.00 65.18 68.72 69.38 69.57 70.41 72.96 74.34 74.38 73.70 72.55 71.00 70.09 69.23 68.23 66.82 66.80 66.70 66.82 68.35 69.40 68.90 69.12 69.37 68.40 66.95 65.57 64.75 64.71 65.27 65.69 66.39
52.17 47.64 41.26 37.96 39.29 41.47 43.36 46.47 44.96 44.55 46.96 47.66 48.69 47.81 50.38 56.83 60.31 61.66 66.55 68.34 67.78 68.24 69.93 72.89 74.80 74.62 73.86 72.62 71.45 70.29 69.48 68.42 67.25 66.58 67.25 67.39 68.19 68.31 69.83 69.75 68.58 67.67 66.65 65.42 65.25 65.68 66.07 66.19 65.95
49.29 45.84 38.41 37.19 38.95 42.63 44.59 46.90 45.61 45.21 46.20 47.96 47.87 48.21 50.82 56.33 59.70 60.64 65.54 66.37 67.91 68.34 70.65 72.99 73.86 74.18 73.64 72.69 71.92 71.23 69.62 68.91 67.35 67.65 67.62 68.05 67.15 68.17 68.98 68.96 68.43 67.60 66.60 66.42 66.35 66.78 67.01 66.94 66.58
47.24 42.51 38.98 38.52 39.56 42.34 45.49 47.94 42.47 43.82 45.48 47.78 50.48 46.16 50.19 53.82 59.74 61.37 61.84 65.78 68.36 69.35 71.07 71.59 72.32 72.76 72.29 72.04 71.77 71.38 70.74 70.18 68.90 68.72 68.14 68.19 68.09 66.69 67.58 69.03 68.42 67.76 67.21 66.95 67.24 67.63 66.85 66.55 66.95
49.20 45.35 39.60 40.10 40.34 42.05 47.33 48.17 47.09 45.19 46.20 49.81 50.91 46.55 47.81 53.49 58.01 61.35 60.57 66.47 68.53 69.86 70.80 70.94 71.17 71.07 70.55 70.58 71.49 71.23 70.92 70.41 70.17 69.15 68.39 68.14 67.60 67.69 67.00 68.93 68.06 67.75 67.70 67.82 67.65 67.03 67.38 67.71 67.67
50.48 42.66 40.28 41.55 41.61 44.01 47.26 46.20 49.15 49.36 46.75 49.09 49.54 50.18 51.67 53.88 60.15 60.79 59.54 63.82 66.87 69.79 70.12 70.70 70.38 70.11 69.51 69.76 69.89 70.55 70.56 69.92 69.59 68.25 67.32 65.81 61.88 61.66 63.38 65.88 66.74 67.58 67.99 67.54 67.73 68.05 68.25 68.46 67.66
48.53 43.69 43.12 46.01 45.52 44.96 47.40 47.30 47.68 46.61 47.19 46.87 48.09 51.22 53.87 57.51 58.99 59.49 59.30 60.33 64.46 67.34 68.12 69.70 68.85 68.55 67.97 69.43 67.76 67.22 67.82 67.28 66.49 65.34 63.59 62.56 61.25 60.59 61.87 63.35 65.97 67.41 67.76 67.80 67.62 68.04 67.33 64.62 62.82
48.31 45.02 48.03 47.83 49.42 49.55 47.57 46.40 48.77 46.69 44.92 48.22 48.66 49.63 51.18 55.21 57.65 59.03 59.45 59.85 62.23 66.13 66.68 67.77 67.75 67.53 67.60 67.21 65.75 65.51 65.13 65.07 64.37 63.59 62.56 62.21 61.16 59.54 60.57 60.22 60.77 60.66 62.36 62.58 63.03 62.04 60.53 57.57 57.14
44.28 48.18 49.38 50.21 51.59 50.27 48.02 49.06 47.26 46.88 47.39 50.26 50.53 50.75 50.48 53.79 55.42 57.00 57.75 58.98 59.38 61.38 64.67 66.46 66.65 66.35 66.38 65.67 65.08 64.62 63.82 63.51 62.82 63.04 62.70 61.35 59.43 59.53 59.77 60.52 61.75 62.21 61.77 61.76 58.35 53.31 51.44 50.36 50.41
44.53 46.08 48.81 50.86 51.72 51.77 51.98 49.70 47.71 48.38 50.29 51.73 51.29 51.30 51.09 51.32 51.79 52.97 55.06 54.54 57.75 60.07 63.02 64.37 65.65 65.84 66.03 64.71 64.16 63.54 63.03 63.13 62.64 62.49 62.39 60.52 60.30 60.28 60.69 60.82 58.13 54.86 54.11 51.69 48.92 48.15 46.91 46.34 46.84
45.83 46.41 47.44 49.30 49.43 49.59 49.50 49.93 48.86 48.15 50.02 49.61 50.20 50.66 51.18 50.57 50.98 50.11 52.21 53.15 51.79 55.69 62.23 63.41 64.76 65.45 64.73 63.84 63.13 62.31 61.67 62.30 60.90 60.60 60.72 61.97 61.47 58.46 51.15 51.71 53.39 52.02 48.77 47.66 45.77 44.53 43.86 43.68 43.72
46.41 42.59 45.16 46.06 47.09 47.39 49.13 46.45 46.49 49.63 50.08 48.32 48.78 49.09 50.84 50.64 50.84 50.68 52.15 53.13 55.20 56.91 61.38 63.41 64.48 64.88 64.01 63.39 63.13 61.94 61.78 62.43 61.65 60.51 60.16 58.85 55.00 52.89 52.09 51.08 49.39 47.09 45.48 44.63 42.92 42.38 42.60 41.93 42.33
42.34 40.55 36.83 43.14 46.62 47.84 48.45 40.90 47.22 50.70 49.21 47.98 48.02 47.72 48.75 49.74 50.51 49.94 51.59 53.37 54.87 57.01 61.33 63.31 65.96 64.61 63.96 63.55 62.90 60.75 59.80 55.11 53.14 53.49 53.47 53.13 52.32 51.15 48.25 46.34 45.44 43.89 42.76 42.43 41.32 40.61 40.58 40.14 39.10
40.14 33.50 35.19 39.53 46.27 46.75 45.94 42.80 47.11 50.25 49.57 46.57 46.76 46.99 48.56 48.56 48.43 49.69 52.29 53.25 54.32 55.87 59.26 61.99 64.42 64.27 63.12 59.60 55.79 53.71 52.69 51.85 51.26 51.21 50.63 48.79 49.52 47.50 44.63 44.03 43.30 42.15 41.36 40.64 40.24 39.11 38.49 38.43 38.86
32.70 34.04 37.16 35.88 41.81 44.47 43.34 42.85 45.99 48.36 47.30 47.65 47.33 48.01 46.22 46.82 48.35 49.39 51.28 52.10 54.70 55.20 55.89 61.11 63.53 60.82 54.68 52.89 52.29 50.88 49.80 48.70 48.96 48.07 47.22 45.09 44.40 43.48 42.38 41.97 41.71 41.01 40.07 39.17 38.25 37.26 37.62 38.21 37.26
37.24 36.35 36.49 39.37 42.20 39.86 39.91 40.68 43.58 46.82 47.27 47.63 45.38 47.74 45.69 45.40 46.72 48.83 49.90 52.01 54.09 54.35 54.48 60.16 57.76 52.99 53.33 52.13 50.44 49.48 47.09 46.45 45.02 45.04 42.89 42.40 42.28 42.04 41.03 40.63 40.27 39.67 38.08 36.82 37.14 36.98 36.36 36.54 37.29
36.49 36.05 35.76 39.12 42.01 41.29 39.07 38.53 42.28 44.34 45.80 47.69 47.88 48.55 46.03 44.24 46.65 47.63 48.96 52.34 54.55 54.88 55.19 55.09 52.42 52.13 52.91 52.43 48.53 48.48 47.21 44.72 41.17 40.53 40.22 40.94 41.09 41.18 40.86 39.51 38.52 37.64 36.83 35.69 35.15 35.27 34.79 34.94 36.34
34.63 33.02 34.44 34.94 38.09 39.61 37.38 35.43 38.73 42.93 46.11 48.16 49.23 48.75 48.05 46.11 46.40 46.20 48.80 52.03 53.66 54.13 54.47 51.27 51.13 51.19 51.00 49.02 48.32 47.08 45.55 42.43 39.90 38.75 38.50 38.97 39.95 39.95 39.23 38.22 37.34 36.31 35.60 34.45 33.89 33.56 32.97 32.15 33.48
31.24 37.12 37.05 35.55 33.05 28.13 37.39 27.83 36.02 39.60 42.23 45.69 47.61 44.69 45.27 45.10 46.39 47.18 49.93 51.65 53.06 53.36 53.59 51.39 51.58 51.09 49.73 50.26 48.77 46.47 42.71 40.24 39.78 38.56 37.41 37.61 38.54 38.29 38.31 37.39 36.22 35.25 34.81 33.34 33.29 34.71 32.49 32.30 30.72
33.17 38.00 36.02 36.48 33.93 31.51 32.59 29.97 32.00 40.17 39.00 42.03 44.49 44.12 44.22 46.02 47.27 48.08 50.96 52.58 52.79 51.45 52.12 51.67 51.18 50.32 48.45 47.15 46.65 44.48 42.57 41.58 39.69 37.20 36.02 35.91 36.13 36.81 36.80 36.06 34.88 34.20 33.85 32.67 32.15 31.61 30.90 31.73 30.84
38.50 35.47 34.83 34.22 32.12 25.70 30.08 30.19 29.99 34.99 38.95 41.02 43.61 44.47 44.40 45.57 46.22 48.15 49.36 50.06 49.40 49.64 50.52 50.62 50.19 47.67 46.98 46.02 44.52 44.48 42.41 40.46 38.04 35.62 35.04 34.92 35.02 35.11 34.91 35.09 33.79 33.09 32.62 32.04 31.71 31.14 30.72 30.28 30.20
35.41 31.70 26.20 24.43 23.84 22.81 31.41 29.50 31.94 37.29 40.95 42.81 43.69 43.22 42.52 44.99 45.92 47.58 48.30 49.16 47.93 47.78 48.61 49.31 49.00 46.05 45.22 44.56 44.06 43.10 41.39 40.22 37.89 36.17 35.46 34.47 33.84 33.55 33.13 33.21 32.31 31.83 31.62 31.90 31.21 30.53 29.92 29.77 28.85
32.89 31.29 24.40 19.07 19.15 20.99 31.22 26.02 32.30 41.19 43.96 45.04 46.07 43.62 42.99 44.25 46.79 48.26 49.25 48.80 47.60 46.72 47.17 47.68 46.98 44.22 43.94 43.46 42.14 40.84 39.18 38.15 36.86 35.94 34.92 33.95 33.41 33.09 32.76 32.18 31.67 31.30 31.27 30.85 30.19 29.96 29.63 29.81 28.62
32.88 30.33 33.98 27.69 29.21 26.61 27.90 32.84 39.29 42.65 43.19 44.25 43.04 42.64 42.74 44.21 46.24 47.91 47.55 46.37 45.18 44.55 44.25 45.26 43.82 41.21 41.15 39.92 37.93 36.54 35.97 35.72 34.69 33.76 33.49 33.01 32.84 34.47 31.94 31.35 30.89 30.42 30.39 30.20 29.48 29.22 28.72 28.43 28.19
33.75 36.00 28.36 28.96 20.82 20.02 24.44 28.83 31.52 36.86 40.68 42.63 41.01 42.12 43.26 44.66 46.47 46.89 45.63 44.27 43.71 42.48 40.99 40.95 42.03 40.31 37.50 36.44 35.71 35.03 33.97 33.68 33.22 32.96 32.28 32.12 31.68 31.61 31.17 30.59 30.18 30.03 29.87 29.52 28.82 28.46 28.92 28.04 28.25
32.74 30.70 31.72 29.95 26.78 18.75 20.79 26.17 37.55 38.00 40.92 39.57 40.35 42.11 43.27 44.73 45.88 45.36 45.05 43.99 42.61 40.93 39.86 38.25 38.27 37.27 35.39 34.59 33.52 32.97 32.47 32.38 32.05 31.59 31.22 31.16 30.94 30.80 30.52 30.25 29.91 29.48 29.17 28.97 28.10 27.86 28.78 27.95 27.42
36.47 32.00 31.45 26.76 19.94 26.38 27.95 28.33 40.96 40.06 39.47 41.38 41.98 44.33 45.52 46.24 45.56 45.52 44.50 42.50 41.85 40.29 38.43 37.00 35.79 35.34 33.77 32.98 32.48 31.87 31.69 31.43 30.94 30.67 30.62 30.91 30.28 30.36 29.99 29.77 29.52 29.23 29.14 28.51 27.53 27.20 27.53 27.14 26.56

GFSSGP_sfc_wetblb_006.txt.gz
Wetbulb
66.16 61.08 52.77 49.95 42.43 38.83 35.85 39.20 41.80 42.91 44.62 47.14 46.97 49.42 48.53 47.34 49.05 46.29 58.26 63.64 65.53 66.43 69.53 73.31 74.79 74.04 72.83 71.57 70.60 69.55 68.53 68.82 67.23 67.31 67.68 66.96 66.83 67.20 66.91 67.34 67.12 66.43 65.75 65.24 64.42 64.56 64.27 64.87 65.62
62.86 59.40 51.70 45.03 38.56 33.02 35.36 39.50 40.99 43.83 45.60 47.80 49.10 49.30 48.07 51.72 55.95 57.02 60.73 64.12 67.82 69.00 71.54 72.34 74.79 73.73 72.71 71.79 70.81 69.61 68.65 67.78 67.37 66.89 66.83 67.39 66.75 67.66 66.79 68.01 65.86 65.46 65.52 64.84 64.24 64.30 64.34 63.78 63.64
58.72 54.36 48.08 41.89 36.31 34.55 35.95 40.09 41.93 45.78 46.58 46.98 48.20 51.20 49.57 52.06 57.79 58.19 60.62 65.97 69.35 70.26 71.57 72.22 74.76 73.83 73.14 71.87 70.79 70.14 68.99 67.68 67.29 67.45 66.62 67.20 67.66 68.51 68.06 66.80 66.72 66.35 66.04 64.98 64.36 64.33 64.82 65.52 65.77
54.61 51.44 46.31 39.60 37.09 39.66 40.03 41.42 44.21 45.29 47.34 47.85 47.86 48.20 52.52 55.45 56.74 59.54 64.77 68.65 69.04 69.75 70.10 72.75 74.07 73.86 73.79 72.36 70.98 70.30 69.33 68.31 67.09 67.10 66.80 66.87 68.11 68.80 68.87 69.45 69.37 68.80 66.81 65.30 64.67 64.76 64.99 65.20 65.81
51.25 47.12 40.41 37.14 38.37 40.08 41.89 44.64 45.07 44.27 44.71 45.11 47.34 46.83 50.58 55.40 60.25 62.19 66.40 68.47 67.84 68.21 69.72 72.10 74.25 73.98 73.58 72.40 71.25 70.26 69.36 68.41 67.12 66.92 66.83 67.08 68.00 68.35 69.88 69.38 68.47 67.45 66.57 65.41 65.26 65.65 66.20 66.36 66.51
48.62 45.24 37.40 35.93 38.20 41.08 43.14 45.50 44.87 44.31 44.59 46.00 45.93 47.88 50.65 55.54 59.42 61.58 66.41 66.48 68.09 68.22 69.92 71.88 73.47 74.02 73.52 72.66 71.73 70.86 69.53 68.49 67.30 66.73 67.37 67.45 67.29 68.27 69.61 69.50 68.54 67.64 66.43 66.60 66.35 67.02 67.27 66.95 66.72
46.39 41.87 37.78 36.61 37.98 40.48 43.68 46.51 42.20 43.72 42.84 45.96 47.80 46.37 50.02 52.25 59.78 61.51 64.79 65.52 67.04 68.48 70.03 71.12 71.96 72.69 72.69 72.20 71.57 71.17 70.34 69.37 68.11 68.55 68.23 68.48 67.86 66.73 68.02 69.02 68.48 67.51 67.26 66.94 67.41 67.54 67.12 67.21 67.53
48.38 44.33 38.09 38.85 39.35 40.17 46.12 47.59 47.28 43.94 44.33 48.42 48.87 46.12 47.59 51.28 58.39 60.66 62.36 65.81 66.32 68.02 69.81 70.25 70.64 71.01 70.18 69.85 71.06 70.68 70.38 70.12 69.58 69.24 68.36 67.90 67.68 67.51 67.00 68.60 68.07 67.40 67.17 67.53 67.51 67.66 67.96 68.07 68.04
49.03 42.13 39.45 40.07 40.62 42.65 46.26 44.77 48.08 48.26 45.49 47.84 48.48 48.05 50.91 52.48 59.43 59.17 60.44 64.59 67.50 68.63 69.38 70.80 70.95 70.36 68.99 69.05 69.52 70.38 70.12 69.43 69.05 67.71 67.01 65.48 61.39 60.96 62.22 65.37 66.65 66.84 67.38 67.42 67.69 68.30 68.14 66.17 64.93
47.73 42.35 42.04 45.27 44.52 44.07 46.30 46.33 46.29 46.16 46.05 46.31 47.89 50.49 52.73 55.36 57.62 58.12 58.46 60.88 65.41 66.80 68.14 69.90 69.32 69.15 68.09 70.02 68.14 67.37 68.08 67.10 66.39 65.10 63.36 61.69 60.02 59.48 61.33 62.60 65.12 66.43 66.15 65.68 66.60 66.10 63.31 59.21 57.64
46.57 43.61 46.45 47.19 48.28 48.52 47.39 45.98 47.77 45.42 45.00 47.50 47.72 49.39 50.95 54.63 57.27 58.03 58.29 59.36 62.76 66.06 67.98 68.78 68.74 68.65 67.17 67.32 66.12 65.57 65.60 65.23 64.59 63.40 61.99 61.41 60.18 58.89 59.83 59.75 60.15 60.08 62.20 63.19 60.21 53.16 51.48 49.45 49.52
42.09 47.25 48.51 49.15 50.51 49.33 47.17 48.81 46.54 46.31 47.20 49.59 49.41 49.63 49.71 52.28 56.14 57.70 57.99 58.54 59.21 62.46 65.74 67.66 68.10 67.45 66.38 65.74 65.13 64.85 64.06 63.80 62.93 62.61 61.86 60.95 58.98 58.96 59.15 60.39 60.94 60.18 60.85 51.12 49.51 47.91 46.76 46.03 45.36
43.32 45.15 47.91 49.13 49.66 49.80 50.79 49.26 48.56 48.53 50.58 51.72 51.65 50.29 50.02 50.20 52.38 54.39 56.84 56.28 57.89 59.57 62.11 65.25 66.57 66.40 66.29 64.87 64.33 63.71 63.02 63.00 62.54 62.13 62.06 60.91 59.42 59.64 59.47 57.22 54.34 52.60 49.32 47.22 45.25 43.91 43.71 42.11 42.56
44.86 45.26 45.50 47.11 47.91 48.49 47.79 48.05 47.91 50.05 50.35 48.92 49.34 49.25 49.81 49.56 50.54 49.14 50.91 51.77 51.41 54.69 59.33 63.48 65.61 65.96 65.55 64.76 63.42 63.40 62.61 62.56 61.38 61.07 60.85 61.47 62.46 56.31 53.26 52.50 50.50 48.74 46.40 43.96 42.21 41.37 41.39 39.99 39.92
45.31 41.33 43.32 44.43 45.79 45.60 47.85 44.81 45.48 50.14 50.16 48.66 47.90 48.00 49.13 49.92 49.99 50.26 51.54 51.40 52.29 51.63 53.99 62.17 64.50 65.50 65.03 64.59 63.71 63.24 63.00 62.01 61.82 61.99 62.91 61.41 54.45 52.88 51.90 49.75 46.74 43.64 42.59 41.45 40.39 39.97 40.34 39.03 39.41
41.59 40.26 35.01 41.11 44.25 45.90 46.56 38.99 45.11 48.19 49.08 49.37 50.41 47.54 47.43 49.16 50.40 49.42 50.31 50.29 50.86 53.43 57.91 61.54 64.90 64.64 63.91 63.15 62.67 62.74 62.23 59.07 56.43 55.91 55.12 53.26 51.94 50.46 48.57 45.19 42.58 41.03 40.65 40.07 39.16 38.44 38.51 37.86 36.69
38.24 30.86 33.63 37.44 43.53 43.87 44.26 39.30 45.48 48.44 48.14 47.16 46.35 46.08 47.12 47.51 48.89 48.71 49.70 50.64 52.85 54.20 58.95 61.67 63.39 63.42 63.27 60.57 57.71 56.74 53.99 54.33 52.55 52.16 51.36 49.82 47.05 47.11 45.29 42.09 40.49 40.25 39.63 38.54 38.27 37.48 36.58 36.65 36.34
30.37 32.55 34.91 36.46 40.39 41.21 41.06 41.58 45.20 45.85 46.33 45.71 45.86 45.63 46.13 46.61 48.53 50.04 49.40 51.13 53.90 54.76 59.10 62.07 63.34 62.32 55.78 53.98 52.98 51.73 50.16 49.35 49.26 48.40 47.47 46.37 44.10 42.63 41.59 40.28 39.37 39.23 38.39 36.98 36.27 35.46 35.47 36.68 35.48
35.10 34.09 34.06 36.96 41.26 39.92 37.69 38.27 40.78 42.91 43.93 44.35 46.72 45.85 47.30 46.44 48.97 48.14 48.58 50.95 53.42 53.79 58.31 61.65 60.13 55.04 53.81 53.33 51.37 50.28 48.23 46.50 45.32 45.16 44.62 43.78 41.47 41.12 40.34 39.50 38.47 37.58 36.41 34.61 35.10 34.77 34.21 34.30 35.90
37.24 35.26 34.25 36.51 39.94 39.16 37.04 36.47 39.86 41.55 43.38 44.20 45.23 46.70 46.77 47.51 45.39 47.14 47.79 50.03 52.73 53.01 56.58 58.66 56.22 53.24 54.14 54.72 51.48 48.92 46.98 43.85 43.08 43.00 42.37 40.78 40.21 40.32 39.89 38.15 36.88 36.03 35.09 33.93 33.28 33.12 32.77 32.76 33.75
32.72 32.15 31.78 31.93 36.13 37.52 34.98 32.50 35.65 40.48 42.89 44.32 45.65 46.47 48.34 49.11 46.06 46.05 46.34 49.48 52.12 52.40 54.43 54.22 52.65 53.41 53.17 49.16 46.50 44.91 43.89 42.84 41.66 40.37 38.19 38.38 39.08 38.81 37.98 36.89 35.89 34.84 34.32 32.95 32.29 31.99 31.52 30.92 31.64
30.35 35.93 35.91 34.42 31.28 25.18 33.54 23.45 31.40 35.12 38.43 41.22 43.50 44.44 46.79 47.17 45.37 46.25 46.25 49.31 51.78 52.40 52.13 50.35 50.91 51.96 50.42 49.80 47.58 44.82 42.76 42.09 40.46 37.18 36.46 36.75 37.58 37.29 37.01 36.12 35.05 34.14 33.55 32.07 32.43 32.85 30.88 30.96 29.27
32.48 36.91 35.29 35.03 32.41 28.99 30.50 27.53 27.90 34.06 34.87 39.51 41.84 43.09 45.12 47.17 46.33 46.02 47.36 50.44 51.94 52.27 49.37 49.86 50.91 51.17 50.10 50.66 48.85 46.66 43.50 40.91 37.20 35.78 35.06 34.82 35.03 35.76 35.69 34.91 33.89 33.16 32.86 31.46 30.93 30.24 29.56 30.25 29.45
37.70 34.03 33.80 33.08 32.62 24.25 27.93 28.02 27.17 30.18 33.23 37.92 40.96 42.67 44.75 45.04 44.65 46.13 48.00 51.14 51.08 50.90 49.25 50.09 51.00 49.58 49.37 48.73 47.42 45.99 43.02 38.42 36.28 34.13 33.99 33.98 33.99 34.13 34.00 34.08 32.72 32.04 31.65 30.91 30.49 29.97 29.53 29.07 28.76
35.12 31.62 24.32 23.97 23.60 20.97 28.94 27.06 29.66 34.09 37.26 38.53 40.52 41.77 43.22 43.30 43.32 45.89 48.42 51.00 50.46 50.30 49.41 50.28 51.24 48.05 47.06 45.57 43.40 44.34 41.11 38.71 36.56 34.97 34.39 33.45 33.19 32.68 32.18 32.10 31.45 30.91 30.76 30.94 30.43 29.71 28.92 28.64 27.70
31.97 30.86 24.23 16.42 20.99 19.91 29.00 23.89 28.73 37.67 40.94 42.02 42.74 43.90 42.20 41.96 42.96 46.61 48.98 51.19 50.79 50.42 49.57 50.36 49.93 46.48 44.67 43.50 41.86 40.71 39.55 38.45 36.19 35.48 34.34 33.54 32.78 32.23 31.53 31.14 30.77 30.45 30.52 30.09 29.39 29.20 28.81 28.49 27.55
33.85 28.80 32.79 27.26 27.55 23.97 24.61 28.88 35.18 39.83 40.03 41.24 40.21 41.64 41.12 42.02 43.37 46.15 48.55 49.93 49.38 49.26 49.22 48.46 46.97 44.18 43.21 41.80 40.29 37.93 37.28 36.89 35.82 33.91 33.08 32.24 32.08 33.22 30.70 30.44 30.09 29.85 29.79 29.41 28.65 28.29 27.86 27.28 27.26
35.30 36.50 28.36 28.29 19.10 15.72 21.68 23.98 26.95 34.46 36.54 38.81 40.19 41.65 40.82 42.17 43.55 46.17 47.09 45.82 46.18 46.23 44.21 44.62 45.24 43.34 39.90 38.24 37.45 35.77 34.34 33.82 32.86 32.34 31.66 31.30 30.74 30.58 30.23 29.84 29.61 29.44 29.13 28.59 27.81 27.38 27.80 27.23 27.40
32.60 30.79 31.21 30.57 27.67 16.61 16.83 21.87 33.98 35.74 37.22 38.84 40.29 41.62 41.97 42.22 44.03 46.10 45.55 44.43 42.46 41.31 41.91 40.47 39.90 38.47 36.25 35.38 34.21 33.76 32.62 32.18 31.49 30.85 30.42 30.25 29.99 29.87 29.72 29.68 29.32 28.77 28.20 27.68 26.94 26.67 27.92 27.11 26.83
34.72 31.56 30.79 25.02 18.82 23.82 19.52 23.97 38.04 38.73 38.98 40.48 41.44 40.47 40.49 42.75 44.42 44.10 42.59 42.16 41.67 39.64 38.98 37.61 36.95 35.68 34.12 33.35 33.15 32.23 32.18 31.03 30.21 29.66 29.65 30.07 29.33 29.43 29.31 29.10 28.79 28.29 28.01 27.14 26.27 26.77 27.18 26.54 26.11

GFSSGP_sfc_wetblb_009.txt.gz
Wetbulb
66.10 62.55 56.62 55.40 48.79 45.55 42.12 43.90 47.17 47.18 48.73 51.71 51.08 51.96 52.29 53.08 53.16 52.10 63.85 66.38 66.59 68.92 71.76 73.86 74.74 74.14 72.93 71.62 70.87 69.85 69.45 68.27 67.51 68.61 67.87 66.98 66.99 66.96 67.06 67.36 66.73 66.52 65.81 65.73 64.96 65.07 64.68 65.00 65.87
63.19 60.38 56.12 50.64 44.53 40.24 41.80 44.73 45.37 48.33 50.68 50.48 51.19 52.59 52.42 54.02 59.67 61.01 63.80 66.08 67.87 69.85 71.67 73.65 74.83 73.98 72.81 71.60 70.83 69.66 68.98 68.77 67.22 67.45 67.34 67.02 67.05 67.94 67.09 67.78 66.97 65.57 65.84 65.50 64.73 64.98 65.34 64.47 64.03
60.21 56.03 53.34 47.78 42.36 40.19 41.65 44.91 47.80 49.40 50.11 49.67 51.92 54.69 54.29 56.14 61.02 61.95 64.69 66.78 69.13 69.79 71.90 73.38 74.56 74.16 73.17 71.84 70.91 69.77 68.92 67.91 67.54 67.64 67.20 67.56 67.61 68.09 67.62 67.54 66.54 65.85 66.25 65.44 64.97 64.96 65.40 65.83 66.04
57.52 55.53 50.77 44.85 41.81 43.78 44.73 46.48 48.11 49.08 51.68 51.66 52.03 51.75 56.45 59.68 61.14 63.06 66.30 69.27 69.75 70.64 72.59 73.56 74.15 74.01 73.44 72.55 71.06 70.37 69.06 67.95 67.46 67.43 66.75 66.68 67.86 68.49 68.70 69.22 69.31 68.51 66.67 65.31 65.13 65.19 65.67 65.93 66.17
54.68 51.68 45.40 42.23 42.35 44.38 46.32 47.80 49.28 48.63 49.18 49.93 51.68 51.79 54.63 59.21 63.24 65.04 67.83 69.50 69.40 70.21 72.52 73.18 74.14 74.01 73.65 72.62 71.34 70.54 69.51 68.50 67.25 67.37 67.00 66.76 68.26 69.06 69.63 69.03 68.48 67.65 66.57 65.62 65.83 66.67 67.03 67.11 67.05
51.54 49.57 41.90 39.77 42.82 44.86 47.58 49.52 49.39 49.21 49.46 50.12 51.02 51.79 54.92 59.07 63.04 66.44 68.91 69.28 70.02 70.35 72.10 72.83 73.22 73.77 73.44 72.69 71.98 70.93 69.53 68.64 67.45 67.01 66.87 66.84 67.78 68.38 69.86 69.44 68.48 67.86 66.54 67.02 66.65 67.35 67.48 67.06 67.02
49.62 45.96 42.23 41.32 41.76 43.41 46.81 50.13 48.45 48.99 48.22 49.41 52.94 50.99 54.87 56.96 63.37 67.04 68.42 69.03 69.81 70.90 71.51 72.32 72.68 72.80 72.59 72.22 71.64 71.22 70.13 69.11 68.20 68.27 68.13 68.41 67.77 67.39 69.32 69.35 68.41 67.72 67.40 67.18 67.49 67.78 67.73 67.93 68.22
50.86 48.32 42.33 42.53 42.49 43.40 49.17 49.25 51.44 48.82 49.05 52.53 53.88 51.06 52.52 56.86 63.10 65.69 67.32 67.78 68.40 69.91 71.15 71.87 72.85 72.79 72.43 71.64 71.07 70.67 70.23 69.92 69.14 69.11 68.41 67.70 67.32 67.10 67.40 68.37 68.33 67.52 67.26 67.46 67.64 68.38 68.55 67.78 67.13
51.62 45.92 42.38 43.07 42.76 45.59 49.45 48.45 51.76 52.12 50.30 52.01 53.26 52.97 55.29 57.68 61.85 62.67 64.09 66.82 67.39 68.52 70.34 70.47 71.60 72.23 71.97 71.31 70.15 70.19 69.78 69.33 68.74 67.95 66.80 66.23 65.54 64.79 65.14 65.55 66.44 66.87 67.27 67.40 67.74 67.16 64.53 62.49 60.66
50.15 45.42 44.53 47.27 47.06 47.00 49.01 49.30 49.97 50.47 50.27 51.39 52.74 54.79 55.81 58.66 60.62 61.03 61.84 63.55 66.06 67.26 68.89 70.48 70.68 71.10 71.25 70.37 70.42 70.01 69.43 69.38 68.67 67.39 67.03 65.79 64.12 63.52 63.94 63.86 65.01 65.55 65.16 65.81 64.12 60.01 57.53 56.79 56.01
48.50 44.75 47.87 48.71 49.66 50.17 49.33 49.27 51.17 49.18 48.32 51.04 52.04 52.70 54.09 57.06 59.29 60.37 61.26 62.76 64.86 67.56 68.55 69.06 69.64 69.64 69.94 70.29 69.92 69.38 69.44 69.00 68.34 67.17 66.24 65.40 64.18 64.51 64.89 65.08 65.22 65.44 63.92 58.75 56.69 54.91 53.62 52.71 52.08
45.42 48.22 49.20 50.12 51.73 50.82 49.48 51.11 50.21 49.40 51.06 53.67 52.45 53.20 53.03 54.29 55.61 59.31 60.63 61.73 63.11 65.90 68.17 68.88 69.37 68.94 69.10 70.23 69.42 68.82 68.33 68.39 67.56 66.90 65.63 65.19 63.50 64.07 64.61 65.40 63.47 61.12 54.64 54.55 53.07 51.99 50.37 49.31 48.74
45.46 46.55 48.74 49.89 49.90 49.95 50.97 49.73 50.29 50.49 52.67 54.37 55.38 54.64 53.82 53.72 53.90 56.22 60.05 61.28 62.17 63.05 66.88 68.66 69.38 68.41 68.56 69.20 68.89 68.27 67.49 67.45 67.24 66.31 65.40 64.97 63.85 64.54 63.02 55.41 53.63 52.99 52.83 51.05 50.08 49.63 48.11 47.20 47.12
45.94 46.21 46.52 47.66 48.02 49.18 48.25 48.81 49.39 51.01 53.85 53.24 52.59 52.98 53.25 52.90 53.99 54.43 54.64 56.10 58.49 61.78 63.24 66.90 68.75 68.05 68.44 68.48 67.63 67.67 66.70 66.56 66.31 65.86 65.45 64.51 63.47 59.33 55.13 52.33 51.21 51.43 49.60 48.44 48.08 47.64 46.98 45.60 45.57
46.42 43.10 44.58 45.23 46.64 46.58 48.94 45.20 45.71 51.52 52.51 51.55 51.94 52.83 53.59 53.71 54.14 53.36 55.52 55.39 56.40 56.39 57.58 62.64 66.81 68.78 68.53 68.30 67.49 67.02 66.09 65.81 65.06 64.40 64.11 63.47 57.30 54.89 52.36 50.63 48.95 48.16 47.78 46.82 46.50 46.06 46.61 44.79 44.31
42.78 42.58 37.49 42.73 44.99 46.46 47.31 38.56 46.80 50.05 49.97 50.01 51.00 50.85 51.75 53.39 54.78 55.28 54.58 54.69 56.04 55.54 56.04 58.70 64.50 67.18 67.80 67.48 67.11 66.21 65.17 63.71 62.34 62.28 60.20 55.09 53.55 52.57 49.53 47.07 46.78 46.61 46.26 45.92 45.21 44.20 44.97 44.14 43.41
39.04 32.99 36.05 38.66 44.81 44.88 44.80 40.77 46.31 49.89 48.50 48.11 49.17 50.30 50.57 51.33 52.45 53.45 53.57 54.40 54.77 55.62 57.05 60.47 64.71 66.10 66.46 65.76 64.65 62.34 60.21 58.76 57.20 55.77 53.49 51.99 50.72 50.18 47.53 46.48 45.69 45.47 44.72 44.10 43.93 43.10 43.39 42.61 42.65
31.38 33.63 35.22 35.61 41.25 42.07 40.53 40.37 44.29 47.49 47.51 48.09 48.14 49.23 49.41 50.09 51.58 53.94 53.42 53.95 54.15 56.22 57.99 62.40 64.81 65.41 63.53 60.85 55.78 53.83 52.91 51.47 52.15 50.94 49.20 48.06 47.66 47.07 45.97 44.93 44.35 44.39 43.46 42.73 42.68 42.00 41.88 41.65 41.15
36.98 35.45 34.42 37.42 41.16 39.03 38.59 39.10 41.53 44.43 44.38 44.76 45.94 47.67 48.83 49.72 52.46 53.50 52.68 53.43 54.62 57.09 59.31 63.23 63.14 60.97 59.03 57.07 53.82 52.19 49.56 48.23 47.28 47.12 46.38 45.78 45.17 45.76 45.15 43.78 43.15 42.92 41.60 40.80 40.81 41.58 40.33 39.80 40.97
36.71 34.86 34.50 37.51 40.02 38.97 37.43 36.12 40.05 41.95 42.75 44.50 45.38 46.33 48.02 49.67 50.96 51.92 51.77 52.61 54.61 56.68 59.99 62.05 61.85 58.46 58.80 58.00 57.10 53.84 49.33 46.10 45.17 44.97 44.30 44.12 44.52 44.68 43.92 43.21 41.90 41.57 40.76 40.06 39.71 39.79 39.85 39.03 39.63
35.40 33.67 33.78 33.51 36.65 37.96 35.52 32.89 36.28 39.70 41.73 43.87 45.34 46.52 47.98 48.22 49.38 51.51 50.77 51.86 54.21 55.84 59.02 60.37 58.12 57.64 57.95 54.57 51.29 46.00 44.52 43.77 43.00 42.48 42.17 42.52 43.87 43.11 42.59 41.98 41.29 40.49 40.62 39.05 38.65 38.84 38.42 37.23 38.15
30.88 36.48 35.92 34.50 32.48 26.91 34.53 24.59 33.71 37.69 38.78 40.42 42.27 44.32 45.91 47.34 49.34 51.24 50.68 50.52 53.23 55.65 58.24 57.63 56.23 56.95 53.39 53.02 50.78 48.50 48.58 45.41 44.28 42.20 41.44 42.00 42.38 41.70 41.28 40.81 40.35 39.74 39.25 38.61 38.20 37.91 37.81 38.14 35.62
33.07 36.94 35.01 34.89 32.88 31.13 31.32 28.02 31.21 35.35 35.09 38.51 41.23 43.17 44.95 46.96 48.99 50.16 50.58 51.56 53.10 54.95 55.59 55.09 55.07 54.40 52.02 52.10 51.86 48.36 45.95 44.93 41.77 40.45 40.46 40.31 40.40 40.60 39.98 39.75 39.27 38.69 38.27 37.54 37.52 36.98 36.83 36.85 36.29
38.19 35.22 34.45 34.03 32.36 25.45 29.17 28.89 29.10 33.16 35.48 37.66 40.81 42.88 44.81 47.49 48.59 49.83 50.64 51.28 53.23 54.40 53.02 53.57 53.35 53.25 51.64 50.85 50.21 47.70 43.37 41.55 39.51 39.44 38.97 38.96 39.10 38.89 38.63 38.10 38.00 37.67 37.42 37.18 36.89 36.63 36.33 35.85 35.44
35.58 32.91 25.22 23.78 23.93 22.26 30.16 28.20 30.77 36.34 38.94 39.65 40.52 42.72 44.21 46.22 46.84 46.99 48.54 51.01 52.89 52.92 51.93 52.71 53.12 50.78 51.45 50.89 48.22 46.57 44.11 43.15 41.44 39.99 39.25 38.14 37.74 37.58 37.16 37.26 36.91 36.64 36.74 36.44 36.70 36.30 35.77 35.38 35.20
32.59 31.58 25.78 18.72 19.42 22.90 28.87 25.44 30.54 37.94 41.05 41.62 42.52 43.10 43.60 45.31 46.23 46.20 48.95 51.52 52.97 52.94 51.83 52.95 51.84 49.67 49.60 47.38 46.68 45.35 43.56 42.18 41.35 40.41 39.55 38.98 38.49 37.49 36.77 36.17 36.22 35.93 35.99 35.90 35.78 35.98 35.78 35.27 35.13
32.69 29.00 34.34 27.82 28.38 24.37 26.55 30.03 34.99 37.81 39.44 40.85 42.18 43.56 43.53 43.68 45.66 46.56 48.84 51.55 52.84 52.29 51.88 52.68 51.72 49.35 46.83 45.07 43.30 41.72 41.26 41.28 40.35 39.46 39.10 38.04 37.29 36.18 35.75 35.91 35.48 35.37 35.36 35.08 34.82 35.17 34.70 34.50 34.59
35.47 36.58 27.78 28.71 20.24 18.74 22.89 24.99 27.53 32.85 36.21 40.06 40.34 42.88 44.44 43.93 44.62 46.24 48.80 51.07 52.29 52.68 51.68 52.30 50.75 47.06 45.05 43.23 43.44 41.97 40.89 40.41 39.04 38.16 36.94 36.59 36.03 35.48 35.20 35.02 35.00 34.76 34.59 34.32 34.17 34.09 34.03 33.81 34.31
32.65 31.50 32.42 31.52 28.98 21.49 19.28 24.41 32.90 34.14 38.55 38.86 40.63 43.16 44.21 43.61 44.17 46.30 48.85 49.86 50.63 49.83 49.97 49.05 45.92 43.36 41.75 41.76 40.51 39.62 38.29 37.55 37.16 36.53 35.59 35.26 34.99 34.87 34.66 34.49 34.16 33.98 33.73 33.58 33.50 33.16 33.44 32.83 32.91
35.35 32.30 31.96 25.82 22.77 25.97 22.78 24.87 37.59 38.97 40.63 40.16 41.30 42.86 43.98 44.36 43.91 46.80 46.34 45.26 46.56 47.14 46.42 46.22 43.18 41.27 40.06 38.91 38.26 37.19 36.40 35.73 35.14 34.57 34.43 34.72 33.99 34.35 33.97 33.75 33.45 33.13 32.81 32.63 32.29 32.32 32.82 32.26 31.55

GFSSGP_sfc_wetblb_012.txt.gz
Wetbulb
67.83 65.62 64.29 60.85 51.53 50.68 47.06 47.52 51.15 50.75 52.17 55.47 54.87 54.63 55.83 56.89 57.34 55.12 67.54 69.89 69.61 71.09 73.66 74.41 74.54 73.91 72.81 71.65 70.80 70.17 69.27 68.16 68.34 68.88 67.85 67.15 67.77 67.39 68.16 67.70 66.88 66.30 66.26 65.74 65.34 65.29 65.30 65.40 66.03
66.03 62.99 62.70 57.91 48.35 45.14 46.62 50.73 48.89 51.99 54.22 55.05 55.38 55.68 55.28 56.05 61.03 63.92 65.91 69.07 70.15 71.55 74.04 73.52 74.63 74.08 72.68 71.65 70.80 69.97 69.62 67.85 68.54 68.55 67.63 66.88 67.52 67.78 67.19 67.64 67.37 66.23 66.11 65.59 65.14 65.57 66.07 65.52 65.19
63.98 61.00 56.88 52.64 48.83 45.22 46.42 50.64 51.23 53.33 54.90 53.67 55.04 58.04 57.73 58.09 63.44 64.80 68.37 69.84 70.32 71.84 73.74 73.76 74.63 73.96 72.86 71.67 70.80 69.64 69.26 68.20 67.66 67.61 67.44 67.36 67.74 67.20 68.43 67.48 66.65 66.59 66.35 65.37 65.46 65.53 65.83 65.85 66.10
62.13 60.05 57.12 48.64 46.30 49.44 49.69 51.27 52.66 52.96 54.70 55.35 55.03 54.72 59.67 62.61 64.40 66.37 68.69 70.21 70.05 71.57 73.58 74.01 74.16 73.98 73.25 72.26 70.86 69.97 68.84 68.08 67.93 68.01 67.07 67.07 67.71 68.12 67.45 67.00 68.28 67.59 66.41 65.63 65.63 65.73 66.44 66.56 66.76
61.89 57.83 49.29 47.08 47.48 50.51 52.17 53.24 53.46 52.43 53.38 54.22 55.22 54.33 56.64 62.84 66.32 67.30 69.35 70.62 69.95 71.08 72.86 74.09 74.44 74.09 73.38 72.18 71.13 70.47 69.05 68.14 67.73 67.52 66.98 67.29 68.67 69.40 69.25 68.56 68.18 67.58 66.43 65.95 66.26 67.15 67.30 67.17 66.89
54.70 55.28 46.34 44.30 47.14 50.43 52.33 53.96 53.49 53.24 54.02 54.44 53.92 54.32 56.94 63.54 65.98 68.44 70.15 70.59 71.14 71.05 72.53 73.06 73.53 73.79 73.31 72.51 71.66 70.76 69.61 68.65 67.51 67.61 66.79 66.95 68.08 68.76 69.74 69.05 68.22 67.60 66.81 67.25 67.10 67.72 67.71 67.52 67.83
52.64 50.27 46.02 46.79 47.03 48.62 50.94 54.34 52.59 52.78 53.24 53.56 56.05 53.50 57.80 60.83 67.10 69.75 70.36 71.03 71.34 71.42 72.26 72.50 73.29 72.82 72.40 72.14 71.78 71.21 69.84 69.23 67.90 67.39 67.12 67.98 67.83 68.09 69.83 69.47 68.48 67.55 67.62 67.36 67.74 68.01 68.36 68.58 68.46
55.88 52.16 46.87 47.59 46.27 46.98 51.91 52.79 54.08 53.29 52.93 55.45 57.08 53.29 55.02 59.92 66.84 69.45 69.87 70.32 70.74 71.09 71.71 71.93 72.28 71.75 72.29 72.03 71.09 70.76 70.30 69.57 69.16 69.10 68.47 67.80 67.37 67.01 68.69 68.86 68.35 67.49 67.32 67.65 68.13 68.53 66.96 66.29 65.04
57.27 48.42 45.14 46.71 47.17 48.67 52.69 51.39 54.83 55.50 54.15 55.44 56.50 56.55 58.20 60.65 65.77 67.58 68.01 68.76 69.30 69.92 71.04 71.84 71.71 72.26 72.80 71.91 70.57 70.14 69.60 68.95 68.40 68.08 66.85 65.92 67.62 66.32 65.85 65.76 66.43 66.91 67.46 67.22 67.02 63.50 61.32 60.02 59.55
52.41 47.61 47.10 51.13 51.89 50.32 52.22 52.50 53.23 53.13 53.57 54.44 55.90 58.30 58.48 60.64 63.04 64.51 65.54 66.44 67.70 68.69 69.94 71.28 71.79 72.22 72.17 71.00 70.93 69.81 68.84 69.26 68.70 68.15 67.99 67.58 66.07 64.82 66.01 64.98 65.49 65.55 65.71 63.95 61.15 58.69 56.99 61.13 60.15
51.44 47.50 50.83 51.45 52.89 53.24 52.13 52.54 54.64 52.73 51.39 54.58 54.98 56.65 58.02 58.58 60.17 62.26 63.96 65.40 67.21 68.98 70.22 71.00 71.01 72.02 71.67 71.26 70.50 69.74 69.21 69.45 69.31 68.57 68.32 66.22 65.47 65.85 66.27 66.76 66.79 68.16 64.56 63.77 61.93 60.78 58.36 56.70 55.59
46.82 50.53 51.25 51.58 53.39 53.28 52.11 54.41 52.90 53.49 53.69 56.61 57.51 57.58 58.54 59.24 59.63 59.28 62.31 64.26 65.94 68.06 69.59 70.80 71.09 70.92 71.18 71.56 70.32 70.06 69.19 69.21 69.01 68.65 68.09 66.30 65.33 66.05 66.24 67.43 67.37 65.28 61.47 60.46 59.38 58.28 55.34 53.34 52.11
48.14 49.24 50.72 52.13 52.47 52.49 53.05 51.37 52.10 52.75 56.23 58.14 58.47 58.63 58.98 59.47 59.87 60.44 60.49 63.44 65.69 66.47 68.75 70.26 70.56 70.37 70.67 70.76 70.28 69.53 69.22 69.06 69.18 68.36 68.04 67.08 66.44 66.59 66.43 62.22 60.01 59.15 59.04 57.69 56.53 54.65 52.36 51.15 50.46
48.51 48.98 49.59 50.53 50.49 51.11 49.44 50.15 51.35 52.69 55.63 55.39 56.04 56.56 58.15 58.98 59.59 60.04 60.20 60.22 63.13 65.52 67.02 69.78 70.48 70.67 70.55 70.34 70.47 70.05 69.66 69.11 69.14 68.75 67.32 67.40 67.13 66.78 61.02 55.72 54.69 56.75 55.21 53.37 52.30 51.31 50.97 50.10 49.29
48.95 45.35 47.70 48.40 49.02 48.46 50.83 46.85 47.68 52.66 53.96 53.02 54.34 55.55 56.36 57.63 59.54 59.78 60.56 60.63 61.18 62.42 64.55 66.55 69.52 70.85 69.00 70.05 70.81 70.27 69.58 69.00 68.61 68.20 67.85 67.47 65.80 60.89 56.52 52.30 52.53 53.36 52.13 51.05 50.93 50.46 50.41 49.46 48.58
44.58 44.94 40.83 46.34 47.63 48.48 47.84 41.63 48.44 53.24 53.00 52.53 53.55 54.35 54.91 56.05 57.16 59.37 60.58 61.08 61.42 61.46 61.09 61.54 64.60 69.00 70.04 70.87 70.51 70.06 69.47 68.92 68.07 68.18 67.42 63.54 59.00 55.52 52.47 52.49 52.44 51.36 51.00 50.86 49.57 48.21 48.73 48.15 47.94
42.26 37.93 39.62 42.02 47.27 47.15 46.67 44.09 48.90 52.05 52.17 51.71 52.65 54.07 54.97 55.79 56.66 58.17 59.63 60.61 60.86 61.06 61.14 61.02 62.44 65.09 68.37 69.75 69.60 69.61 69.05 67.48 65.01 64.35 61.01 57.40 55.21 51.71 50.13 51.42 50.63 50.25 49.32 48.65 47.76 47.02 46.81 46.36 46.65
37.25 37.23 39.01 39.10 43.79 44.91 43.56 43.80 47.85 50.42 50.00 49.91 51.35 53.39 54.40 54.81 55.99 58.14 59.07 60.15 60.51 60.92 61.00 61.41 63.51 65.30 67.51 68.14 68.19 67.93 65.49 62.29 60.60 58.97 56.62 53.39 52.08 52.43 52.42 50.76 49.49 49.18 48.10 47.02 46.80 45.79 45.88 45.11 45.04
39.51 38.59 38.26 41.43 44.35 42.24 41.49 42.42 44.90 47.79 48.27 48.19 49.36 50.50 51.83 53.66 56.54 57.69 59.07 60.16 60.20 60.51 60.91 61.91 63.98 66.15 67.06 65.87 63.84 59.83 57.93 55.62 54.13 51.92 51.20 49.83 49.06 49.96 51.10 49.85 48.65 48.17 46.87 45.72 45.28 45.45 44.28 44.02 44.46
39.29 37.50 37.68 41.01 42.97 41.35 40.92 40.18 43.70 45.13 45.58 47.04 48.09 49.30 50.52 52.07 53.98 55.84 57.38 58.86 58.83 59.92 61.27 62.65 64.74 65.93 66.39 65.15 64.77 62.74 58.77 55.91 53.52 47.62 46.87 46.83 47.37 48.79 50.19 49.21 47.71 46.87 45.85 45.03 44.51 44.52 44.28 43.63 43.39
38.30 37.18 37.37 36.68 40.24 41.44 39.32 37.70 41.92 44.81 45.90 46.49 47.05 48.15 49.06 49.88 51.48 53.87 55.58 57.26 58.58 59.34 60.98 62.87 64.55 65.15 65.20 64.70 63.60 59.13 53.67 50.15 45.45 44.00 43.80 44.81 46.46 47.63 48.54 47.71 46.69 46.04 45.73 44.15 43.97 43.66 42.69 42.00 42.76
34.58 39.83 38.19 36.37 34.47 30.84 38.23 30.57 39.21 42.63 43.24 44.70 46.45 47.66 48.44 49.64 50.84 52.06 54.22 55.48 57.32 58.87 61.29 63.48 64.25 63.90 64.32 63.42 58.20 54.99 55.39 52.47 47.53 45.05 43.10 44.45 46.04 47.36 46.80 46.19 45.84 44.99 44.59 43.66 42.61 42.53 42.40 42.48 40.51
35.63 39.26 37.42 37.17 35.13 33.14 34.60 29.32 36.42 40.93 40.01 42.71 45.68 47.46 48.98 50.12 50.82 51.68 52.58 54.23 56.76 58.81 60.67 63.12 63.48 63.11 62.35 59.25 58.44 59.40 56.92 53.47 46.23 42.96 42.73 43.76 46.04 46.21 45.40 45.19 44.69 43.84 43.39 42.82 42.32 41.81 41.62 41.84 41.26
40.28 37.31 36.66 35.96 33.27 26.80 33.21 31.73 33.09 37.85 40.82 42.58 44.84 47.04 48.54 49.59 51.07 52.08 54.38 54.90 55.80 58.75 60.36 62.16 61.91 61.85 59.33 57.96 60.00 58.54 54.46 46.29 41.81 42.52 41.87 43.56 45.12 44.49 44.10 43.81 43.72 43.21 42.56 42.06 41.80 41.49 40.68 41.31 40.74
38.32 33.87 28.41 24.91 24.49 25.61 35.21 32.05 34.76 40.26 42.28 43.64 44.48 46.28 47.99 49.40 50.33 51.31 52.74 54.18 55.16 57.01 59.05 60.79 61.15 58.92 57.58 56.30 56.07 53.35 49.94 45.38 42.92 43.63 43.62 44.71 43.81 43.25 42.67 42.81 42.31 42.16 41.76 41.42 41.36 41.12 41.05 40.54 39.80
34.77 34.53 28.68 21.42 24.31 27.92 34.73 28.71 34.63 42.53 44.53 45.70 46.38 46.89 49.48 50.42 51.26 50.78 52.43 54.13 55.16 56.65 58.18 59.56 60.09 57.10 56.48 56.17 52.45 48.98 45.71 47.16 45.42 46.16 46.41 45.74 44.80 43.71 42.82 42.19 41.66 41.01 40.70 40.54 40.72 41.09 40.95 40.35 39.77
33.92 30.10 37.08 30.15 31.59 26.21 30.41 35.12 39.72 42.14 42.05 43.83 44.82 47.31 48.22 49.36 50.29 50.64 52.37 53.79 55.48 56.62 57.60 58.47 59.33 58.08 56.39 54.65 51.23 48.20 46.42 46.88 46.20 45.58 46.84 45.70 44.32 42.09 41.69 41.37 40.59 40.39 39.99 39.77 39.88 40.50 39.68 39.15 39.19
37.20 38.48 29.56 30.59 21.58 20.95 28.67 30.10 31.79 37.73 39.62 42.17 44.75 45.92 47.05 48.80 49.70 50.79 51.26 53.46 55.62 57.15 57.64 58.51 58.60 57.05 55.03 51.81 49.65 43.70 46.25 46.37 45.13 45.69 44.60 43.43 42.17 41.13 40.67 40.27 39.98 39.59 39.27 39.25 39.25 39.22 38.84 38.09 38.95
33.44 31.44 33.37 32.72 31.12 22.93 22.30 29.03 39.78 38.49 40.70 41.08 43.94 45.42 46.63 48.38 49.49 50.35 50.77 53.24 55.62 56.82 57.16 57.24 56.72 54.86 51.74 49.16 43.13 43.35 43.00 43.34 43.56 44.42 43.31 42.13 40.99 40.36 39.83 39.47 39.08 38.79 38.56 38.58 38.58 38.11 37.70 37.02 37.21
38.52 34.81 33.45 27.63 25.92 29.47 28.03 28.97 41.13 41.55 42.63 44.82 44.12 45.47 47.60 48.76 49.30 49.90 50.67 53.17 54.76 55.40 55.93 55.73 54.29 51.76 49.29 43.55 43.25 41.99 42.55 43.29 43.31 42.15 41.37 40.80 39.67 39.72 39.06 38.62 38.40 37.94 37.57 37.62 37.16 36.62 37.08 36.43 35.88

GFSSGP_sfc_wetblb_015.txt.gz
Wetbulb
68.63 65.76 64.66 61.28 51.86 51.58 47.96 49.62 52.59 51.27 51.82 55.85 56.82 55.24 56.21 57.82 57.27 54.93 68.31 70.24 70.74 72.76 74.01 73.57 74.24 73.55 72.47 71.47 70.54 69.88 68.97 68.13 69.60 69.01 68.47 69.39 68.83 68.83 68.60 67.69 67.21 66.96 66.56 66.07 66.14 66.37 66.03 66.02 66.07
66.14 63.59 62.49 57.49 48.87 45.53 47.87 52.31 50.17 51.53 54.71 56.54 56.29 56.57 55.99 56.40 61.84 65.36 66.68 69.64 70.76 72.67 73.66 73.31 74.36 73.81 72.59 71.55 70.59 70.00 68.40 68.69 69.05 68.54 67.46 67.67 67.76 67.62 67.74 67.73 67.12 67.19 66.29 65.90 65.94 66.41 66.56 66.62 66.79
64.98 62.73 56.67 52.89 49.15 45.58 47.47 52.12 52.58 53.66 55.52 55.40 55.57 58.47 58.37 58.58 64.07 65.94 69.51 69.88 70.76 72.39 73.61 73.79 74.32 73.93 72.77 71.62 70.51 70.07 68.70 67.90 68.75 67.70 67.48 67.24 67.79 67.19 67.95 67.40 67.01 67.37 66.09 65.92 66.25 66.53 66.62 66.69 66.75
61.84 59.90 56.77 49.10 47.19 50.43 51.03 52.77 53.54 53.40 54.84 56.46 56.64 54.88 60.32 63.65 65.13 67.25 69.82 70.03 70.41 72.27 73.59 73.18 74.06 73.76 73.08 71.72 70.43 69.72 69.02 67.87 67.84 67.65 67.85 67.84 67.50 67.63 68.02 67.49 67.70 67.43 66.38 66.43 66.49 66.92 67.13 67.11 67.06
61.52 56.84 49.84 47.75 47.62 50.47 53.29 54.02 54.00 52.88 53.75 54.86 56.10 55.10 57.48 64.10 67.37 69.00 69.60 69.61 69.82 71.49 74.19 73.50 74.07 73.71 73.15 71.94 70.72 69.92 68.82 68.29 68.31 67.76 67.20 68.54 68.91 69.06 69.27 68.36 68.23 67.45 66.79 66.63 66.90 67.44 67.69 67.35 67.06
54.57 54.82 46.81 44.64 47.71 51.41 53.22 54.99 54.28 53.49 54.40 54.90 54.28 55.52 57.81 65.22 66.48 68.77 70.22 69.90 70.16 70.95 72.78 73.10 73.19 73.39 73.07 72.21 71.37 70.31 69.06 68.39 67.99 67.66 67.16 68.08 68.01 69.82 69.90 69.01 68.33 67.70 67.68 67.29 67.66 68.03 67.89 68.08 68.70
53.35 50.95 46.54 47.47 47.75 49.30 51.89 55.45 53.28 53.39 53.56 54.05 56.34 53.82 58.80 61.98 68.12 69.62 70.15 70.36 70.40 71.13 71.77 73.45 73.02 72.72 72.25 72.03 71.74 71.05 69.90 69.11 68.44 68.18 67.30 68.67 67.83 69.56 69.99 69.23 68.63 68.10 67.63 67.63 68.07 68.89 68.99 68.36 67.74
55.95 52.55 47.69 48.30 46.51 47.66 53.03 53.91 55.04 53.86 53.33 57.44 57.46 53.12 55.20 63.32 67.83 69.31 69.61 69.86 70.03 70.55 71.32 71.79 72.80 72.88 71.78 71.53 71.15 70.64 70.28 69.81 69.03 68.92 68.86 68.22 67.67 68.72 69.54 69.72 68.65 67.86 67.68 67.96 68.33 66.92 66.46 64.84 62.71
58.32 49.51 45.75 47.54 47.72 49.25 53.78 52.12 55.37 56.45 54.51 55.52 57.04 57.16 59.66 62.16 66.55 67.57 67.75 68.52 69.07 69.55 70.70 71.29 71.35 71.19 71.64 71.52 70.40 70.14 69.64 68.74 68.60 68.14 67.15 66.08 66.60 66.24 65.96 66.01 67.21 67.56 67.33 67.57 64.53 62.17 60.11 60.14 60.48
52.41 47.31 47.29 51.17 51.75 51.11 52.74 52.91 53.88 53.45 53.36 53.47 55.90 58.50 59.61 61.36 63.08 64.71 65.46 66.13 67.20 68.27 69.62 70.91 71.11 70.96 71.53 71.09 70.48 69.61 68.42 67.50 66.29 66.77 66.48 66.68 65.81 65.14 65.98 65.31 66.58 66.30 66.35 63.54 61.25 58.61 58.39 61.10 60.57
51.81 47.10 50.83 51.72 53.61 54.24 52.89 52.60 54.63 52.85 51.87 54.35 54.22 56.86 58.98 59.39 61.05 62.26 63.87 65.14 66.92 68.48 69.58 70.56 71.30 71.68 71.05 69.75 70.21 69.38 68.78 68.77 68.29 67.89 67.60 65.65 64.16 63.83 65.35 65.81 65.16 65.96 64.61 64.06 61.30 60.82 59.26 57.42 55.68
47.88 50.80 51.57 52.54 53.37 53.14 51.86 53.78 52.27 53.42 53.82 56.72 57.32 58.58 59.08 58.85 59.56 60.12 61.64 63.44 65.05 67.57 69.04 70.44 71.41 71.61 71.87 71.31 70.04 69.47 68.67 68.81 68.39 68.01 67.78 65.37 64.51 65.57 65.07 65.31 66.64 65.54 63.76 62.10 60.73 59.50 57.06 54.63 53.12
48.86 50.15 51.05 52.15 52.53 52.64 53.45 51.68 52.25 53.36 56.48 57.53 57.78 58.02 58.28 58.63 59.68 61.17 61.43 62.62 64.57 65.96 68.21 69.89 71.24 70.60 71.41 70.96 70.56 69.62 68.70 68.45 68.69 68.32 68.02 66.31 64.98 65.27 65.70 65.25 63.48 62.22 60.75 59.13 57.86 55.82 53.41 52.32 51.57
50.72 50.32 50.67 51.87 51.63 52.12 50.27 50.50 51.38 52.46 55.47 55.37 55.97 56.50 57.77 58.69 59.57 60.53 61.13 60.97 62.41 65.21 67.05 69.13 70.23 71.20 70.46 70.42 70.36 69.83 69.33 68.96 68.68 68.13 68.03 66.52 66.39 66.02 63.90 61.59 60.18 59.37 57.61 55.27 53.36 52.05 51.90 51.32 50.62
50.42 46.75 49.02 49.73 50.32 49.58 51.26 47.10 48.15 52.98 54.14 53.15 54.05 55.23 56.05 57.11 58.68 59.30 60.90 61.13 61.80 62.95 65.69 67.29 69.28 70.56 70.47 69.63 70.25 69.92 69.59 68.93 68.17 67.61 67.75 66.73 66.86 65.21 61.60 57.86 56.77 56.38 54.10 52.60 52.30 51.35 51.15 50.39 49.67
45.67 46.68 42.56 48.63 48.94 49.92 48.90 42.32 49.77 53.07 53.27 52.76 53.60 54.13 54.71 55.60 56.99 58.60 60.27 61.51 62.22 62.37 62.50 64.96 67.37 69.40 70.04 68.89 70.39 69.78 69.67 68.92 67.67 67.60 66.68 66.74 65.80 63.04 59.20 56.65 55.61 53.95 52.80 52.21 50.59 49.10 49.43 49.11 48.58
43.82 39.82 42.58 45.00 49.29 48.13 47.53 44.97 50.39 52.79 52.40 51.88 53.10 54.13 55.03 55.71 56.39 57.53 58.92 60.44 61.72 62.35 62.35 62.32 63.37 66.28 69.09 69.55 70.59 69.88 69.08 67.56 67.60 67.79 67.66 65.72 61.09 57.24 53.72 53.94 53.55 52.52 51.43 50.24 48.92 48.19 47.64 47.02 47.29
39.65 39.55 41.78 41.23 45.57 46.43 44.84 44.77 48.56 50.82 50.92 51.32 52.11 52.71 53.75 54.82 55.86 58.01 58.46 59.13 60.67 62.02 62.25 62.50 62.54 62.95 66.34 69.53 69.70 68.62 67.54 67.32 67.07 66.73 63.24 60.11 56.00 52.81 54.18 53.77 52.16 51.48 50.01 48.95 48.46 47.56 47.50 46.10 45.65
41.99 40.44 40.00 43.36 45.97 43.76 42.81 43.52 45.79 48.49 49.07 49.08 49.89 51.11 51.98 52.96 55.66 58.04 58.82 59.54 59.43 60.96 61.18 61.74 61.87 63.55 64.82 67.14 67.92 66.46 65.02 65.02 64.22 60.98 58.02 55.89 53.49 53.68 53.83 52.59 51.08 50.73 49.12 47.76 47.51 47.14 46.05 45.22 45.28
41.33 39.07 38.94 42.44 44.65 42.87 41.87 41.49 45.14 46.70 47.31 48.47 48.54 49.20 50.27 51.64 53.44 55.20 57.12 58.64 59.31 60.13 61.25 61.31 62.12 63.73 65.57 68.11 67.73 65.76 64.39 61.98 59.59 55.61 51.92 50.57 50.16 51.18 51.73 51.89 50.42 49.29 48.16 47.19 46.81 46.74 45.83 44.99 44.35
39.97 38.45 38.96 38.92 42.21 42.26 40.36 39.12 43.02 46.83 48.14 48.79 49.23 49.72 49.84 50.10 51.15 53.26 54.86 56.74 59.50 59.76 60.72 61.31 62.58 64.67 66.46 67.40 65.97 62.82 59.41 53.59 52.56 50.89 48.82 47.55 48.36 49.46 50.27 50.79 49.26 48.78 48.58 46.60 46.07 45.64 44.43 43.56 43.99
36.41 42.40 40.75 38.79 36.70 33.28 40.07 31.62 39.72 43.30 44.53 46.49 47.73 48.55 49.06 49.66 50.46 51.67 52.88 54.92 57.63 59.78 61.68 62.19 63.48 64.97 66.28 66.82 64.46 61.08 56.00 53.01 53.17 49.37 46.67 46.07 47.45 47.60 48.88 49.07 48.42 47.66 46.81 45.81 44.61 44.30 43.91 44.37 41.69
37.82 40.73 38.75 38.12 35.92 34.24 35.45 31.86 37.37 42.37 41.06 43.64 46.34 48.14 49.53 50.59 51.25 51.48 52.40 54.12 56.04 58.80 61.12 62.51 63.50 64.64 65.56 65.24 65.27 61.36 57.83 58.43 53.01 46.90 44.62 44.63 45.29 46.78 47.29 47.73 47.32 46.36 46.01 45.01 44.20 43.72 42.86 42.56 41.72
41.47 38.38 36.97 36.40 32.99 26.55 33.64 34.30 35.18 39.04 41.03 42.58 45.30 46.98 48.30 49.66 50.67 52.08 53.26 54.18 55.15 57.89 61.08 62.25 62.98 63.75 64.97 64.93 63.15 59.39 60.28 53.37 47.75 44.72 42.77 43.37 44.17 45.40 46.82 46.48 46.28 45.60 44.56 43.84 43.38 43.17 42.46 41.77 41.12
38.80 33.26 29.78 27.29 26.21 26.68 37.10 33.95 36.41 41.80 43.45 43.93 44.25 46.48 47.62 48.93 50.24 50.96 51.88 52.98 55.04 56.36 59.35 61.51 62.47 62.69 63.67 63.19 60.68 60.87 59.63 51.56 47.82 45.56 43.56 42.88 43.53 43.96 45.05 45.52 44.47 44.19 43.93 43.31 43.04 42.45 41.76 41.26 40.45
34.73 34.25 29.87 23.37 26.52 30.00 36.88 30.88 36.09 43.51 45.06 45.31 46.04 46.97 47.87 48.99 51.36 52.11 53.03 52.45 54.99 56.97 58.95 59.92 61.51 62.06 62.05 60.90 60.93 61.24 54.04 51.65 48.32 45.80 44.14 44.99 44.48 45.65 45.11 44.71 44.23 43.17 42.48 42.15 42.08 41.83 41.49 40.93 40.47
35.43 31.05 38.07 30.62 32.13 27.43 31.44 36.05 40.82 42.73 42.76 44.14 44.76 45.79 46.46 48.80 50.53 51.38 52.96 53.49 53.74 55.94 57.31 59.68 61.06 62.11 60.51 59.65 58.53 54.31 51.54 48.44 47.03 46.22 45.63 46.04 46.20 45.17 44.24 43.62 42.55 42.09 41.69 41.46 41.05 40.90 40.08 39.81 40.00
38.31 39.87 29.52 31.16 22.46 22.81 30.30 32.40 33.65 38.80 40.48 42.69 43.45 44.79 46.15 48.86 49.27 50.90 52.24 53.26 54.27 56.38 57.75 59.60 61.05 60.44 59.56 57.41 52.02 49.78 47.38 46.43 46.76 46.48 46.04 45.24 44.58 43.77 42.87 42.21 41.73 41.10 40.79 40.51 40.03 40.02 39.76 38.68 39.46
34.67 32.82 33.91 33.92 31.81 25.37 24.19 30.21 40.38 39.57 41.43 41.89 43.25 45.20 47.15 47.61 49.32 50.59 51.75 53.19 54.37 56.74 57.88 58.85 60.32 59.10 57.97 53.33 49.34 47.13 45.79 47.08 45.14 45.28 44.48 43.35 43.36 42.69 41.75 41.22 40.77 40.24 39.97 39.68 39.11 38.96 38.66 38.00 38.17
39.22 35.64 34.52 28.38 27.87 30.01 29.23 29.11 42.13 42.15 43.04 43.53 43.75 46.18 46.42 47.20 49.09 50.71 51.24 52.93 54.12 56.38 57.52 58.11 59.44 58.22 55.62 51.50 47.52 44.97 44.54 44.14 44.28 43.39 43.23 43.02 41.95 41.86 40.95 40.48 39.96 39.56 38.91 38.50 37.97 37.60 38.02 37.30 36.73

GFSSGP_sfc_wetblb_018.txt.gz
Wetbulb
68.31 65.94 62.90 58.78 48.30 47.49 43.80 46.87 48.01 48.91 48.48 51.08 53.79 52.03 50.74 52.71 54.57 52.35 65.47 67.34 71.32 71.34 72.69 72.70 73.82 73.43 72.34 71.24 70.51 69.78 68.77 69.66 70.42 70.71 71.01 70.71 70.25 69.93 68.46 67.93 67.48 66.84 66.38 66.73 67.02 67.16 67.14 67.19 67.41
65.71 63.97 59.87 54.58 44.96 40.96 43.28 49.96 48.42 49.62 51.14 53.33 53.18 52.19 51.40 52.19 62.55 62.52 64.27 67.77 71.86 72.41 71.78 71.66 73.89 73.51 72.16 71.16 70.45 69.33 68.67 69.78 68.96 68.12 68.56 68.40 68.15 68.37 68.41 68.08 67.87 66.59 66.32 66.24 66.64 66.87 66.74 66.86 67.05
64.62 63.11 53.25 49.26 45.58 41.43 43.11 49.36 49.55 51.84 53.00 51.50 50.80 53.60 53.16 56.32 61.92 63.58 66.56 67.84 71.20 71.22 71.39 72.25 73.90 73.49 72.49 71.19 70.66 69.19 69.00 69.44 69.76 68.46 68.56 68.58 68.20 68.26 68.35 68.07 68.06 66.78 66.44 66.55 66.94 67.24 67.33 67.33 67.20
59.65 57.31 53.85 44.87 43.35 47.43 47.85 50.19 51.40 51.31 51.86 52.38 53.03 50.73 55.77 60.77 61.96 65.53 66.97 67.87 68.98 70.94 71.56 73.02 73.73 73.46 72.87 71.67 70.66 70.13 68.25 68.91 68.49 68.79 68.80 68.35 68.09 68.47 68.31 68.06 68.19 67.14 66.86 67.06 67.72 67.79 67.70 67.45 67.33
58.62 54.48 46.16 43.61 44.30 47.85 50.13 51.71 51.79 49.59 50.57 50.86 52.38 50.85 54.10 61.63 65.43 66.24 66.22 67.38 68.31 70.44 71.31 72.46 73.94 73.44 72.94 71.54 70.67 69.99 68.75 68.39 68.58 68.37 69.25 69.59 69.30 68.93 68.25 68.81 68.25 67.53 67.38 67.55 67.80 68.37 68.25 67.85 67.94
51.29 51.31 42.43 41.26 44.88 48.76 50.34 51.80 51.48 50.52 51.16 51.51 49.62 50.41 53.69 62.67 63.92 65.85 66.78 65.67 68.97 70.79 71.30 71.89 72.90 73.16 72.79 71.95 71.40 70.54 69.28 68.75 68.72 68.29 68.22 68.82 68.42 69.49 69.89 68.95 68.35 68.03 67.87 67.71 68.32 68.33 68.44 69.08 68.93
50.29 47.72 43.26 43.63 44.56 46.39 49.18 52.39 48.84 49.04 49.86 50.35 51.95 47.83 54.48 61.40 65.10 66.94 66.44 66.27 67.65 70.92 71.24 70.89 71.12 71.79 71.89 71.60 71.43 70.63 70.00 69.60 69.30 69.30 68.96 68.61 69.38 71.23 70.02 69.14 68.70 68.60 67.78 68.22 69.22 68.81 68.24 67.73 66.60
52.75 49.70 45.06 44.94 43.96 44.56 50.49 51.21 52.94 49.91 49.92 53.75 53.81 47.51 49.61 61.26 65.25 66.73 66.31 66.35 66.15 68.10 70.87 70.68 70.96 70.73 70.11 70.19 70.97 70.47 70.19 69.46 69.29 69.04 69.40 67.94 68.26 69.92 70.09 69.55 69.24 67.99 68.04 68.51 67.40 66.90 65.85 64.27 62.33
55.49 45.99 42.71 44.46 45.45 47.25 51.29 49.49 52.10 53.17 50.72 52.30 52.49 52.12 57.17 62.95 64.93 64.22 63.99 65.00 65.11 67.41 68.08 70.25 70.50 70.26 70.23 69.37 69.49 69.80 69.58 68.81 68.23 68.26 67.35 66.37 64.16 66.35 67.56 67.09 67.53 68.23 67.93 66.80 64.57 62.44 61.08 61.80 62.30
49.24 45.05 45.81 50.13 49.58 48.36 51.40 49.93 50.28 49.50 50.36 49.58 50.93 54.67 58.27 59.38 60.24 62.56 62.54 62.76 64.02 64.90 66.55 67.74 70.14 69.93 69.60 70.25 68.32 67.11 67.25 65.46 64.84 64.90 64.44 63.70 62.51 62.80 64.96 64.81 66.96 67.45 66.79 64.94 62.59 60.35 61.85 61.03 54.72
49.21 44.17 48.81 49.46 50.39 51.76 51.26 51.07 52.09 49.71 47.92 50.83 49.90 52.89 55.71 56.34 57.94 59.59 61.56 62.87 63.59 65.25 66.13 67.29 67.42 68.71 69.56 69.48 67.78 67.05 65.93 64.24 63.50 63.60 63.47 62.60 61.53 61.38 62.85 62.57 63.60 63.54 63.02 59.88 59.39 57.08 54.24 51.65 50.19
45.62 49.50 49.89 50.48 51.66 51.36 49.67 52.22 49.94 50.19 49.75 53.74 53.85 54.63 54.27 55.09 55.72 57.55 58.54 59.53 62.58 64.60 65.99 67.23 68.06 68.76 69.17 69.42 68.15 66.67 66.13 66.06 64.82 64.59 64.27 60.12 59.88 59.43 60.57 62.40 63.23 63.57 61.75 57.46 55.32 53.86 51.14 48.85 47.55
46.32 47.99 49.95 50.55 50.72 50.01 51.82 49.55 49.59 50.21 53.18 54.47 54.91 55.10 54.08 54.04 54.93 56.44 57.49 58.97 59.90 63.28 65.33 67.02 67.68 68.18 69.12 68.40 68.45 66.40 66.50 65.65 65.14 64.48 64.92 61.94 61.20 61.17 60.96 61.24 59.53 57.55 55.11 53.50 51.56 48.69 47.70 46.70 46.50
49.51 49.33 49.31 50.26 49.75 50.25 48.64 48.31 49.08 49.71 52.47 52.66 53.64 53.40 53.46 54.26 55.72 56.10 56.92 57.03 56.58 60.56 64.17 66.69 67.95 68.67 68.54 68.65 68.37 67.31 66.13 65.36 65.27 65.41 65.69 63.05 61.98 61.75 59.62 57.32 56.50 53.65 51.51 49.07 47.41 45.96 45.76 45.05 44.45
49.31 44.96 47.30 47.92 48.51 47.75 49.32 45.16 45.89 50.76 51.94 50.86 50.94 51.76 53.50 53.95 54.99 55.56 56.99 56.89 57.34 58.41 63.13 64.73 67.38 69.04 68.53 68.72 68.60 68.36 66.44 67.11 65.41 66.29 65.96 63.25 63.96 61.68 57.41 54.49 53.36 50.44 48.49 47.93 46.57 45.30 45.25 44.28 44.91
44.78 44.55 39.08 46.13 47.99 48.59 47.06 39.07 47.13 50.43 50.12 49.45 50.38 50.82 51.41 52.77 54.23 55.39 56.67 57.41 57.65 57.76 59.75 63.96 67.67 68.05 68.54 68.39 68.75 68.49 67.17 66.23 65.68 65.74 65.07 64.36 62.62 58.53 54.00 52.31 50.68 48.74 48.01 46.54 44.45 43.22 43.36 42.58 42.05
41.22 35.13 38.49 42.30 47.66 46.58 44.63 40.43 47.35 50.30 49.23 47.86 48.93 49.20 50.95 51.68 52.63 53.12 54.46 55.44 56.78 57.78 57.90 60.06 65.45 66.76 67.68 67.69 68.30 68.60 67.50 66.44 65.67 65.76 64.80 64.01 60.48 56.51 53.36 51.29 48.65 47.81 46.18 44.42 43.93 42.41 41.69 40.17 40.61
36.03 36.48 39.03 38.63 43.26 43.97 42.06 41.78 45.60 47.80 47.65 46.58 47.71 48.53 49.11 50.35 51.80 53.76 54.47 54.55 55.34 56.20 57.47 58.15 59.26 63.90 66.65 67.31 67.36 67.56 66.88 66.03 66.32 65.63 64.01 58.43 54.83 51.37 49.98 51.13 47.57 46.84 44.68 43.15 42.76 41.67 41.56 40.13 39.88
41.24 38.71 36.89 40.30 44.17 40.96 39.58 40.41 42.83 45.42 45.36 45.33 46.39 47.49 48.68 49.95 52.15 52.64 54.09 54.60 54.27 54.69 55.57 57.41 57.62 58.05 62.35 66.50 65.91 66.33 64.54 64.52 63.95 60.66 58.59 54.45 52.12 50.41 49.98 49.56 46.72 45.73 43.44 41.96 42.31 41.44 40.61 39.27 39.13
40.09 37.26 36.43 40.17 43.26 40.74 38.74 38.14 41.68 43.69 44.39 45.46 45.64 46.11 47.20 48.05 48.95 50.59 52.08 53.36 54.59 54.36 54.29 56.06 57.03 58.37 59.35 64.30 66.92 66.18 64.39 63.37 59.39 56.70 53.48 51.06 50.25 50.30 50.57 48.82 45.29 43.73 42.58 41.99 41.30 40.81 40.29 39.21 38.50
37.70 36.40 36.40 36.43 40.18 40.48 37.94 35.35 38.36 43.22 44.66 45.63 46.66 47.39 47.57 47.21 47.57 48.71 49.27 51.43 53.27 54.93 54.51 56.13 56.79 57.75 60.30 61.72 65.32 61.35 56.77 54.83 52.31 49.91 46.28 47.00 47.29 48.13 49.66 48.12 45.14 43.46 42.86 41.04 40.25 39.59 39.05 37.98 37.81
34.36 40.42 39.70 38.46 34.07 27.90 37.44 25.56 34.65 38.81 40.17 43.41 43.67 43.69 44.40 45.34 47.04 48.34 49.02 49.13 50.58 54.56 56.16 55.70 56.87 58.13 60.85 65.28 62.64 58.82 57.41 52.58 51.34 49.13 48.53 44.67 45.79 46.65 48.27 47.41 45.63 42.72 42.06 40.14 39.30 40.39 38.30 38.29 36.06
36.65 40.46 37.95 37.16 33.05 29.49 30.89 26.21 30.84 37.95 36.90 39.33 40.20 42.95 44.12 45.59 46.27 46.55 47.24 49.04 49.82 50.12 54.56 56.36 56.78 58.63 62.41 64.75 62.25 58.53 54.00 54.52 49.30 46.27 45.80 43.98 46.24 46.64 46.98 46.52 44.72 41.64 40.97 38.93 38.92 38.32 37.40 37.18 36.32
40.97 38.46 36.06 34.02 30.50 19.83 28.73 28.94 29.44 33.81 37.49 38.77 38.86 41.27 42.48 43.49 44.56 45.75 47.07 49.03 48.83 49.40 51.02 55.44 56.82 58.51 61.65 64.16 61.91 58.89 54.93 52.77 45.17 44.51 43.71 44.89 45.17 45.17 43.64 45.49 43.91 40.45 39.63 39.01 38.40 37.93 37.33 36.54 36.09
39.06 33.69 23.41 22.12 24.19 19.68 32.88 29.29 31.66 37.68 40.17 40.13 38.42 39.21 42.36 42.95 43.43 45.40 47.45 48.33 48.74 48.89 49.90 55.50 56.75 58.69 60.97 62.28 62.07 58.64 56.01 48.76 44.03 43.29 43.73 43.09 43.30 43.60 44.05 43.80 42.64 39.19 39.39 39.31 38.84 37.73 36.97 36.21 35.03
35.07 33.86 24.76 19.36 19.13 23.26 32.55 25.28 31.38 39.07 40.78 41.96 42.37 41.96 42.32 42.89 43.80 46.07 46.74 48.75 48.93 49.70 51.40 54.42 56.62 58.26 60.05 61.64 58.61 57.02 50.52 46.49 45.13 44.58 43.35 43.44 43.34 43.32 43.72 42.55 39.92 38.77 38.85 38.38 37.94 37.10 36.63 35.75 34.84
34.63 28.60 34.23 28.42 27.56 20.47 25.98 30.42 37.10 40.24 40.28 41.34 41.16 41.87 41.33 42.26 44.83 44.43 45.73 48.19 49.22 49.09 51.41 54.74 57.72 58.62 59.94 60.43 57.50 53.40 49.01 46.70 45.16 44.76 44.13 43.92 43.53 43.43 42.73 41.40 37.87 37.53 37.59 37.42 36.85 36.08 35.32 34.78 34.45
36.52 37.97 28.52 29.73 14.46 17.64 24.42 27.24 29.50 35.08 36.19 39.09 39.40 39.60 41.00 42.97 44.49 44.91 46.48 47.86 49.40 49.78 50.84 54.84 57.81 58.74 59.70 59.00 56.89 50.44 47.72 46.03 45.05 44.76 44.18 44.14 43.19 42.88 41.18 38.79 37.06 36.77 36.63 36.39 36.00 35.26 35.36 34.26 33.85
33.63 31.81 32.65 31.15 28.47 20.28 20.22 24.79 35.25 36.91 37.97 37.80 38.58 40.89 42.14 43.22 43.56 45.29 46.54 47.61 49.27 49.55 51.19 53.11 55.99 57.35 58.14 49.92 49.66 47.94 45.25 45.60 45.47 45.02 44.20 42.48 42.24 41.40 40.12 37.27 36.48 36.10 35.85 35.93 34.97 34.56 34.93 33.99 33.71
37.30 33.78 32.94 27.13 22.00 26.89 24.89 26.21 40.19 40.01 38.62 40.08 39.17 40.17 41.33 42.65 43.40 45.42 46.04 47.09 48.53 48.76 51.41 53.27 56.85 57.31 49.88 47.92 46.60 45.18 45.88 45.32 44.50 42.92 42.10 41.76 40.78 40.20 39.50 36.74 36.56 36.05 35.89 34.61 34.30 33.31 33.75 33.55 32.45

GFSSGP_sfc_wetblb_021.txt.gz
Wetbulb
67.19 64.78 60.43 54.14 44.56 42.11 38.79 43.40 45.68 46.44 46.05 47.91 49.97 49.42 47.73 49.57 51.44 50.40 62.85 69.17 71.19 71.40 72.25 72.32 73.71 73.46 72.08 71.17 70.37 69.62 69.57 69.77 70.23 71.05 72.02 71.36 70.82 69.28 68.57 67.82 66.95 66.62 67.00 67.34 67.83 67.88 67.96 68.03 67.82
64.17 63.43 55.36 49.83 41.45 36.64 38.97 44.87 46.05 46.70 49.14 49.58 50.87 49.65 48.58 54.27 60.21 61.45 62.90 70.74 71.56 71.66 71.80 71.44 73.70 73.21 71.72 70.92 70.22 69.32 70.75 69.59 70.06 70.73 70.43 70.00 69.84 68.92 68.24 67.93 66.86 66.72 66.66 66.93 66.98 66.78 66.92 66.95 67.06
64.07 61.94 49.60 45.45 40.80 37.60 39.48 45.13 46.64 48.93 50.33 49.68 48.55 50.29 49.33 55.70 60.74 62.54 64.39 70.82 71.73 70.88 71.29 71.72 73.60 73.04 71.82 70.93 69.80 69.73 70.23 69.18 69.68 70.02 69.70 68.97 68.75 69.00 68.71 68.57 67.06 66.88 67.01 67.31 67.59 67.45 67.33 67.15 67.12
57.37 52.63 49.31 41.17 39.53 43.58 44.96 46.36 48.56 48.88 49.64 51.06 49.92 48.90 54.61 59.87 61.39 64.40 66.09 71.28 70.22 70.02 70.48 72.58 73.20 73.03 72.38 71.67 70.30 69.85 69.91 69.06 69.00 69.34 69.84 69.54 69.05 68.92 68.70 68.54 67.52 67.27 67.51 67.86 68.01 67.98 67.65 67.41 67.64
53.92 48.97 41.20 38.76 40.34 43.52 46.20 48.14 49.58 47.44 48.36 48.61 49.51 47.83 53.20 60.82 63.72 64.44 65.17 70.50 69.14 69.57 71.07 72.05 73.49 73.24 72.52 72.04 71.28 69.96 70.03 69.14 69.38 69.75 69.42 69.19 69.02 69.28 68.80 68.67 67.92 67.63 67.74 67.85 68.50 68.54 68.31 68.32 68.65
47.68 46.43 37.69 38.47 40.74 44.54 46.32 48.91 48.36 48.30 47.83 48.54 47.51 46.72 52.42 61.32 62.51 63.58 64.83 67.17 70.08 69.82 70.93 71.69 72.73 72.97 72.35 71.84 71.48 70.47 70.15 70.13 69.14 69.52 69.74 69.27 69.59 69.58 69.48 68.80 68.33 68.39 67.71 68.57 68.69 68.72 69.17 69.21 68.58
45.27 41.65 38.15 38.18 39.99 42.42 46.35 49.49 45.73 47.80 47.60 47.43 48.94 45.26 54.14 60.15 62.67 64.51 63.93 69.17 70.15 70.32 70.36 71.19 71.23 71.55 71.54 71.17 70.78 70.30 70.21 70.14 69.98 69.82 69.70 68.86 70.48 71.06 69.91 69.05 68.87 68.28 68.05 69.00 69.38 69.01 68.40 67.64 66.06
48.20 44.72 40.55 39.92 40.95 41.19 47.62 48.27 49.96 48.34 47.90 50.99 51.53 45.48 53.79 60.21 64.03 64.65 63.27 67.31 69.69 69.72 70.07 69.69 70.11 70.61 69.98 69.63 70.37 69.80 69.62 69.76 69.80 69.57 69.31 67.97 69.39 69.96 70.24 69.49 69.45 68.12 68.51 68.54 67.92 67.55 66.53 64.80 62.41
50.80 41.37 38.99 41.80 42.92 44.52 49.36 47.46 49.87 50.82 48.82 49.67 49.74 49.88 58.44 63.14 64.10 62.67 61.89 62.82 68.37 69.27 69.18 69.40 69.40 69.26 69.07 68.90 69.09 69.54 69.33 68.63 68.66 68.52 67.40 66.01 66.13 67.50 67.68 67.29 67.96 68.57 68.46 67.24 65.89 64.58 63.17 62.63 62.54
45.49 41.54 42.81 47.25 46.87 45.98 48.92 48.61 48.30 47.69 47.96 46.92 47.61 54.68 58.02 61.43 61.53 61.46 61.41 61.33 62.77 67.11 68.59 69.23 69.23 68.90 68.76 69.69 67.74 66.59 67.23 65.64 65.15 65.38 64.85 63.68 62.41 64.69 66.13 65.27 67.04 68.17 67.91 66.22 64.41 62.34 61.83 58.90 53.18
46.02 41.39 47.17 49.06 49.28 48.84 49.22 48.78 50.60 46.87 44.95 47.94 48.02 50.32 54.63 56.67 58.47 61.06 61.40 62.09 62.33 64.16 68.31 69.20 69.19 69.19 68.58 68.49 67.33 65.76 64.80 63.35 63.18 63.40 63.26 61.90 61.31 62.53 62.56 63.27 64.03 63.71 63.59 61.01 59.53 56.26 52.24 49.23 47.29
43.00 47.10 48.35 49.09 50.25 48.89 47.27 50.27 48.29 47.78 47.20 51.41 50.81 51.75 52.58 52.76 55.49 57.97 59.66 61.03 61.73 63.49 65.44 67.28 69.37 68.74 68.26 67.93 67.11 65.85 64.82 62.98 61.55 62.29 62.70 59.39 58.55 60.47 60.58 60.94 61.63 61.61 61.09 57.34 54.13 50.58 46.81 45.83 45.09
43.42 45.61 48.56 48.96 48.88 47.95 49.54 47.32 47.08 47.63 50.64 51.87 52.60 52.81 50.64 52.70 53.54 54.22 56.58 57.58 60.51 63.41 64.85 65.77 67.79 68.17 68.39 67.87 67.09 66.16 64.80 64.43 63.00 63.05 62.92 59.36 58.75 57.84 59.20 60.40 61.07 58.03 53.68 51.01 46.92 45.82 45.28 44.18 43.94
46.49 47.10 46.87 48.10 47.87 48.00 47.20 46.31 46.39 47.52 50.51 49.59 50.16 50.55 50.28 51.55 53.22 54.13 54.30 54.98 54.82 63.15 64.66 66.14 66.81 68.37 67.98 68.07 66.73 66.48 65.32 65.25 64.47 63.83 62.49 60.52 60.77 59.68 58.15 56.51 54.23 51.16 48.46 46.33 45.39 44.34 43.74 42.63 42.29
47.53 43.27 45.12 45.95 47.14 45.93 48.04 43.44 44.05 48.43 49.31 48.79 48.41 48.06 50.16 50.73 52.20 53.13 54.67 54.55 55.43 56.81 64.04 65.95 66.84 67.99 67.55 66.93 67.25 67.12 65.23 66.30 65.33 64.65 64.30 61.33 61.23 59.14 55.64 53.43 50.23 47.64 46.16 45.81 44.05 43.34 42.68 42.15 42.69
43.11 42.18 37.17 44.05 46.63 47.26 45.92 37.73 45.76 48.78 47.05 47.55 49.14 49.59 49.07 50.92 51.42 52.09 53.70 54.16 54.54 55.12 59.98 66.11 68.18 68.06 67.70 67.21 67.27 67.65 67.05 65.03 65.61 65.99 65.52 63.07 60.36 57.30 53.96 51.71 47.99 46.89 45.96 44.15 42.42 41.77 41.18 40.08 39.56
38.80 32.73 35.86 39.66 46.04 45.64 43.77 38.90 45.84 48.34 47.07 45.16 46.90 48.10 49.10 50.46 50.75 50.84 52.76 54.14 55.55 54.27 55.43 62.62 67.28 67.55 67.40 67.40 67.04 67.91 66.58 65.28 65.71 65.37 64.07 61.84 59.17 56.06 53.20 49.94 46.88 45.88 44.15 42.80 42.86 40.63 39.99 38.39 38.51
33.01 33.16 35.85 35.96 41.74 42.99 40.82 39.52 43.68 45.84 44.66 43.13 44.32 45.17 45.79 47.98 49.61 52.48 52.51 51.68 53.62 54.83 54.71 58.04 65.22 67.53 67.55 67.32 67.35 66.32 66.38 64.58 64.71 64.86 63.45 59.43 57.67 54.24 51.27 47.38 46.00 44.98 42.94 41.72 41.38 40.08 39.36 38.08 37.42
37.97 35.49 34.36 37.65 42.07 39.12 37.75 37.94 40.19 43.17 42.22 43.18 44.28 43.62 45.98 47.13 49.71 50.13 50.93 51.33 50.89 51.57 51.80 54.23 60.65 65.95 66.87 65.99 65.16 65.28 64.91 64.07 63.86 63.61 59.41 54.47 52.40 51.31 49.24 46.59 44.69 43.84 42.35 40.83 40.77 40.01 38.57 37.68 36.97
38.06 35.22 33.52 37.59 41.06 38.91 37.13 37.16 40.51 42.10 42.93 44.00 44.30 43.20 42.94 44.80 46.73 48.81 49.50 48.99 50.75 52.07 51.86 51.88 56.01 63.51 66.25 66.16 65.95 66.04 64.86 61.96 61.89 58.15 55.38 53.40 51.91 50.09 48.11 46.68 44.69 42.77 41.23 40.43 39.99 40.19 38.68 37.53 36.49
34.96 33.86 34.04 34.14 37.72 37.04 34.94 32.50 35.95 40.14 42.18 43.76 44.66 45.72 44.74 44.70 44.75 45.90 46.62 48.12 48.15 49.87 51.54 52.84 53.67 56.73 65.28 65.91 65.10 59.55 56.46 53.73 51.93 53.49 51.84 50.76 50.77 49.35 46.91 45.57 44.22 43.96 41.33 39.72 38.70 38.45 38.74 36.67 36.45
32.08 38.10 37.87 36.24 31.76 26.10 34.15 23.87 30.87 36.29 38.03 41.10 41.91 42.71 44.50 45.52 46.43 46.98 46.59 45.90 46.63 47.59 50.97 52.38 54.38 55.01 57.49 64.89 64.00 61.65 60.73 57.61 52.50 50.18 47.74 49.12 49.05 47.65 46.21 44.97 44.14 44.33 41.25 38.93 38.28 39.13 37.19 37.46 35.20
35.09 38.93 36.18 35.05 30.17 26.99 27.59 24.36 27.94 33.44 34.25 37.48 38.60 40.24 41.31 42.66 43.47 44.16 45.09 46.60 47.91 46.79 48.89 51.79 52.85 54.65 56.86 64.23 63.02 62.37 60.36 52.76 49.36 47.35 46.20 47.54 47.39 47.01 45.42 44.67 43.34 43.40 41.97 37.86 37.87 36.80 36.29 36.20 35.31
39.86 35.60 34.10 32.23 27.72 16.74 25.97 26.44 24.63 30.31 34.71 35.89 37.90 38.26 40.07 41.67 42.38 43.55 44.87 46.02 46.03 46.42 45.75 49.65 51.86 53.52 60.41 62.95 61.71 61.69 56.48 48.06 46.47 46.63 45.00 46.61 46.21 46.07 46.30 44.91 43.13 42.30 40.22 38.81 37.15 36.42 35.96 35.49 35.18
35.85 29.31 17.49 17.22 20.08 18.28 29.44 27.01 28.52 35.14 38.30 38.57 38.87 39.56 40.18 41.02 40.19 42.79 45.59 46.46 46.73 47.19 47.81 47.52 51.62 52.68 60.71 61.90 60.09 57.05 54.00 49.73 48.32 46.85 45.98 45.25 44.84 45.15 44.33 44.15 41.83 39.42 40.46 37.88 37.34 36.45 35.55 34.95 34.23
32.44 30.53 20.13 17.49 16.71 22.06 30.53 24.51 29.73 38.12 40.39 40.45 40.91 39.52 40.17 40.82 40.76 43.97 46.37 46.42 46.36 47.22 48.01 48.14 49.76 52.48 59.86 61.17 59.15 56.29 52.90 49.16 48.02 47.84 46.98 46.16 45.28 44.85 44.56 42.83 41.77 40.98 40.27 37.39 36.67 35.85 35.25 34.49 33.92
32.19 27.29 32.85 24.74 24.86 16.45 23.71 28.31 34.43 37.93 38.18 38.15 38.68 38.68 38.15 39.28 40.67 44.57 45.79 46.10 46.47 46.84 47.22 47.83 49.71 53.76 58.90 60.96 58.99 55.06 49.73 47.48 46.17 45.68 45.48 46.05 45.14 44.83 43.80 42.10 40.98 39.95 39.24 36.58 35.90 35.04 33.95 33.51 33.33
34.13 35.88 23.69 22.04 11.74 16.31 21.90 23.47 27.88 32.70 34.23 37.21 37.18 37.50 39.93 40.79 39.23 42.36 44.81 46.01 46.63 46.82 47.22 47.84 50.38 55.78 58.07 57.35 56.40 50.75 47.80 47.06 45.53 44.03 44.52 44.51 43.88 43.73 42.12 40.64 39.46 38.42 37.86 35.54 34.97 33.66 33.60 33.21 32.81
31.75 28.78 30.40 28.70 24.77 17.36 18.47 22.90 32.46 33.89 34.97 35.14 36.00 37.69 37.80 41.15 42.39 43.66 44.79 45.81 46.47 46.85 47.02 47.67 52.16 55.91 55.90 53.57 50.03 48.31 47.24 46.03 45.23 44.26 44.19 43.93 43.77 42.27 40.63 40.14 39.11 38.07 35.61 34.36 33.90 33.47 33.46 33.00 32.69
34.93 31.83 31.09 25.03 19.12 23.59 20.64 25.50 39.19 39.04 37.17 38.91 41.82 43.06 44.74 43.61 42.83 42.43 43.77 45.26 45.62 45.98 46.73 47.83 51.26 53.75 49.94 49.21 47.63 46.86 46.50 45.71 45.08 44.32 43.77 43.45 41.62 41.38 40.26 39.49 38.19 36.90 34.75 33.66 32.83 32.64 32.70 32.25 32.14

GFSSGP_sfc_wetblb_024.txt.gz
Wetbulb
66.05 63.29 59.19 53.13 43.48 41.17 37.60 41.79 44.00 46.08 44.96 47.76 49.05 49.21 47.13 49.52 49.51 47.42 62.28 68.42 70.68 71.05 71.97 72.04 73.58 73.10 72.16 71.07 70.32 70.39 70.85 71.74 72.28 72.33 71.68 71.11 70.40 69.38 68.04 66.89 66.67 66.95 67.36 68.05 68.71 68.84 68.79 68.35 67.66
63.53 61.79 53.87 48.25 40.70 36.08 38.16 42.47 44.80 46.73 48.18 48.05 48.73 48.39 47.68 53.55 59.06 62.09 64.83 70.27 71.14 71.17 71.49 71.07 73.45 72.48 71.39 70.58 70.00 70.01 70.40 70.45 70.87 72.09 71.63 70.95 69.51 68.45 67.30 66.78 66.56 66.72 66.90 67.01 67.10 67.29 67.30 67.26 67.36
62.41 60.39 49.36 44.74 39.61 37.09 38.42 43.77 44.08 48.17 49.07 48.14 47.20 49.37 50.87 54.33 59.77 62.78 67.02 70.65 70.96 70.65 70.83 71.18 73.22 72.63 71.11 70.47 69.74 70.94 70.27 70.81 71.19 70.83 70.67 70.11 69.25 68.51 68.12 66.91 66.92 66.88 67.04 67.07 67.03 66.96 66.85 66.83 67.15
55.29 51.83 47.99 40.50 38.88 42.01 42.96 43.76 46.98 47.98 49.45 48.98 48.43 47.06 53.85 59.07 60.80 63.29 70.17 70.64 70.03 69.81 70.02 72.14 72.91 72.68 71.95 70.90 70.83 70.49 69.08 69.26 69.52 69.99 69.87 69.51 69.22 68.91 68.66 67.33 66.95 67.15 67.55 67.76 67.70 67.53 67.44 67.44 67.73
52.70 47.22 40.09 37.91 38.88 41.83 43.93 47.33 48.11 47.23 47.91 47.39 48.43 46.24 53.42 60.84 62.17 68.27 69.85 70.35 69.11 69.12 70.12 71.46 73.06 72.26 71.49 70.94 71.24 71.01 69.76 69.27 69.25 69.27 68.98 69.04 69.22 69.00 68.81 67.83 67.36 67.53 67.72 68.02 68.60 68.20 68.22 68.41 68.51
46.69 45.32 37.27 36.64 38.58 43.03 45.02 46.10 45.74 46.75 47.92 47.58 46.79 46.47 53.02 59.42 62.46 66.59 69.98 69.04 69.69 69.22 70.61 71.09 72.34 72.41 72.08 71.17 70.67 71.13 70.61 69.57 69.51 69.72 69.45 69.35 69.53 69.33 69.22 68.22 67.88 67.87 67.75 68.70 68.65 68.83 69.15 68.97 68.11
44.32 40.22 37.88 37.33 38.93 41.68 45.74 47.24 44.56 46.42 47.08 47.85 49.42 45.11 53.49 58.12 61.71 63.75 67.17 68.37 69.28 69.95 70.04 70.47 70.99 71.14 71.41 71.32 70.25 70.19 70.64 70.37 70.75 70.71 70.52 70.37 70.48 70.19 69.53 68.56 68.64 67.75 68.36 68.85 69.17 69.18 68.52 67.46 65.55
47.08 43.29 38.16 38.60 39.51 39.97 46.02 47.00 47.90 46.55 46.99 49.59 50.76 49.64 53.30 59.37 62.50 62.66 67.90 68.19 68.69 69.16 69.76 70.02 70.34 70.20 69.34 69.18 70.21 69.60 69.73 69.94 69.82 70.15 69.31 68.22 69.47 69.87 70.00 69.26 69.31 68.01 68.77 68.54 68.19 67.92 66.71 64.51 62.12
48.97 40.37 37.97 40.47 40.94 42.48 47.17 46.38 49.62 49.80 46.87 47.89 48.30 53.14 58.66 62.43 62.88 61.11 65.25 66.74 67.61 68.30 69.04 69.39 69.42 69.26 68.45 68.13 68.31 69.23 69.27 69.21 68.94 68.74 67.15 66.94 66.83 67.61 67.73 67.30 68.22 68.59 68.68 67.73 67.03 65.55 63.28 62.79 61.93
44.48 39.57 41.53 45.84 45.67 44.25 46.97 46.84 47.84 47.42 46.53 45.77 47.20 54.86 60.70 61.48 61.04 60.43 63.00 65.38 66.23 66.76 67.74 68.74 68.88 68.65 68.29 69.00 67.32 66.26 66.58 65.54 65.52 65.81 64.61 63.07 65.03 65.75 66.48 65.76 66.98 68.39 68.35 67.03 64.94 62.70 61.97 56.37 50.82
44.44 40.40 46.13 47.84 49.09 48.02 47.26 47.51 49.04 46.14 44.63 46.23 46.02 54.44 56.80 56.88 59.15 60.56 61.47 65.06 66.42 67.35 67.85 68.39 68.48 68.50 68.09 68.14 67.18 65.89 65.06 63.77 63.95 64.01 63.63 62.35 62.07 63.48 63.63 63.28 64.34 64.07 64.30 61.31 58.38 54.24 50.20 46.53 45.05
41.46 45.81 47.33 48.12 49.32 47.61 45.74 48.90 46.31 47.19 47.73 50.18 49.59 50.37 51.13 53.68 54.52 57.89 61.29 61.90 62.25 66.81 67.60 68.29 68.52 68.07 67.70 67.95 66.86 65.85 64.92 63.21 62.40 63.12 62.83 60.88 59.47 61.12 60.94 61.60 61.43 61.48 60.12 56.76 54.56 48.70 44.85 44.30 43.27
41.62 43.78 47.07 48.39 48.46 46.97 47.85 46.41 46.64 46.86 50.12 50.98 50.50 51.66 51.03 50.83 51.90 54.91 57.67 60.63 61.72 63.45 67.43 68.13 68.49 68.06 67.86 66.77 66.35 65.47 64.55 63.17 62.20 61.60 61.96 60.09 59.27 60.87 59.96 60.02 60.38 60.30 59.00 51.30 45.91 44.53 44.11 42.63 42.10
44.90 45.39 45.55 46.65 46.88 47.03 46.08 45.62 45.62 46.41 49.30 48.80 49.35 49.04 49.12 50.63 51.72 50.68 52.61 54.14 55.29 62.00 64.29 67.85 68.35 68.36 67.81 66.93 65.92 65.08 64.45 63.55 61.57 61.70 61.82 59.55 59.83 59.62 59.33 59.16 59.53 53.26 49.85 45.59 44.29 43.67 42.63 41.28 41.26
46.58 42.19 43.90 44.84 45.84 45.27 46.60 43.71 42.89 47.95 48.52 47.23 47.31 47.75 49.47 49.40 50.85 51.05 52.42 53.69 53.57 55.92 64.11 64.85 68.28 68.41 67.36 66.99 65.82 65.20 64.75 64.50 63.10 62.48 62.12 59.97 59.57 58.69 57.65 55.99 52.17 47.86 45.15 44.23 43.31 42.48 41.45 40.96 41.22
42.51 41.28 36.51 43.08 45.04 45.86 45.41 37.97 44.30 47.76 45.58 46.03 46.94 47.15 47.68 50.30 50.15 51.04 51.96 52.59 52.95 53.56 59.24 64.58 67.24 67.62 67.21 67.12 66.20 65.61 65.15 64.69 64.24 63.53 63.20 60.71 60.26 57.74 54.39 51.67 47.78 45.63 44.54 43.16 42.25 41.38 39.80 39.04 38.35
37.91 32.29 35.26 38.89 44.72 44.21 42.81 38.30 45.45 48.39 45.85 44.05 44.46 45.26 46.89 48.67 49.68 49.42 51.71 51.95 53.60 52.44 54.47 62.27 64.83 66.49 66.83 66.62 66.50 65.77 65.24 64.30 64.40 64.58 64.05 61.54 59.59 56.76 53.73 50.07 46.41 45.20 43.46 42.37 42.25 39.60 39.06 37.56 37.41
32.64 32.38 34.43 34.76 40.05 40.85 38.76 39.67 43.28 44.44 44.49 43.50 43.31 43.64 44.02 46.47 49.29 50.84 50.25 50.37 53.07 52.79 52.25 59.10 64.71 66.41 66.73 66.47 66.08 64.14 64.79 64.10 64.69 65.07 64.67 61.93 58.72 55.24 52.89 47.48 45.57 44.09 42.53 41.27 40.57 39.02 37.85 37.01 36.47
39.42 37.13 33.31 36.37 41.20 38.02 36.97 36.51 39.38 42.23 40.78 40.91 42.93 42.85 43.57 45.38 48.77 48.94 49.44 49.24 49.14 49.81 50.10 52.16 62.02 65.76 66.12 65.36 64.67 64.10 63.91 63.82 62.85 64.77 62.84 59.47 57.51 55.61 51.18 46.88 44.77 42.92 42.17 40.83 40.06 39.03 37.69 36.53 35.74
37.88 34.08 32.94 36.54 39.51 37.58 36.07 35.76 39.43 41.43 42.27 42.95 44.14 44.79 44.48 44.75 44.81 46.85 48.13 48.19 48.81 50.10 49.50 49.09 55.87 64.56 66.03 66.04 65.90 64.68 64.48 62.65 63.35 60.04 59.29 58.12 56.07 53.11 50.01 47.71 44.24 42.67 41.06 39.96 39.49 39.35 37.67 36.40 35.02
34.05 32.91 32.72 33.38 36.46 35.19 33.79 33.64 35.11 38.57 40.66 42.86 44.69 45.30 45.53 45.47 45.67 45.60 45.44 46.76 46.85 47.13 48.50 50.31 50.67 60.69 65.97 66.11 64.69 59.57 56.99 55.90 54.52 55.47 55.87 54.44 54.17 51.60 49.90 47.44 44.40 41.71 41.11 40.08 38.95 38.90 38.55 36.01 35.13
31.50 36.57 36.68 35.03 31.13 25.74 32.96 23.58 29.77 34.87 36.66 38.66 39.43 39.46 41.67 43.43 43.32 45.78 45.01 44.92 45.33 46.08 47.15 49.05 50.91 53.45 64.08 65.11 64.27 61.55 61.29 59.73 55.85 56.96 52.95 52.71 52.13 49.99 48.29 46.45 44.45 42.31 41.50 41.35 38.32 39.07 37.72 37.13 34.83
34.80 38.02 35.48 33.84 28.86 25.76 26.59 23.99 27.06 31.43 32.85 35.49 37.14 38.79 40.34 41.14 42.23 43.12 43.65 45.08 46.09 45.25 44.68 46.81 49.62 51.90 58.15 64.37 64.37 62.14 61.45 61.45 53.16 50.42 50.91 50.28 49.16 48.31 46.98 45.96 44.49 42.87 41.08 41.05 40.46 36.68 36.88 36.12 35.27
39.51 34.70 32.31 31.00 26.61 16.94 24.40 25.27 23.98 28.11 32.75 34.76 36.58 37.45 39.65 40.76 41.11 41.96 43.26 44.03 43.66 45.00 45.09 44.55 46.70 49.44 52.68 63.25 63.70 62.37 61.32 51.88 49.77 48.55 48.01 47.84 47.26 46.38 46.26 45.48 44.86 44.07 41.61 40.68 39.42 37.34 36.23 35.25 34.80
34.99 28.54 17.00 15.04 13.75 17.45 26.96 24.81 26.18 32.64 36.02 35.59 37.32 38.43 38.63 38.93 39.95 41.00 43.02 45.55 45.93 46.39 46.81 47.45 47.66 48.77 50.68 59.89 62.52 62.24 57.89 53.29 51.93 49.41 48.92 46.92 46.35 45.04 45.25 45.39 43.70 42.73 40.89 38.56 37.53 37.64 36.19 34.30 33.68
31.37 29.36 19.38 16.20 15.78 20.16 28.01 23.41 28.74 36.05 37.79 37.46 37.81 36.94 38.40 39.10 38.65 39.37 42.77 44.67 45.67 47.37 47.34 46.86 47.48 48.05 49.66 58.46 60.51 61.31 57.96 54.05 53.27 51.43 49.82 47.82 46.08 45.50 45.79 45.03 43.15 42.34 41.40 39.47 38.71 37.16 36.83 33.81 32.97
31.24 24.74 31.23 23.55 22.01 14.63 22.20 26.12 32.83 35.46 35.42 36.90 37.08 37.45 38.06 39.43 40.50 39.90 40.36 44.48 45.22 45.60 46.15 46.35 46.93 47.59 49.40 58.15 58.83 56.46 51.80 50.86 50.09 49.27 47.90 46.85 46.89 45.94 44.81 43.36 42.24 42.34 41.18 39.90 38.17 37.00 35.33 33.17 32.49
33.40 34.72 22.83 18.23 9.82 14.62 20.56 22.25 26.93 31.52 32.12 36.14 35.97 36.04 37.99 39.88 41.18 41.60 42.78 44.02 45.22 46.16 46.07 45.94 46.57 47.54 49.61 57.16 58.43 54.92 50.20 50.37 49.34 48.42 47.73 46.94 45.87 44.77 43.02 42.21 41.76 41.38 40.10 38.48 37.67 35.79 35.00 32.75 32.02
30.74 26.63 27.82 26.58 23.27 16.65 18.86 22.41 31.20 32.71 33.43 34.68 35.82 37.64 38.49 41.45 41.85 41.68 42.38 43.15 45.03 45.88 45.53 45.89 46.50 48.53 51.53 55.78 55.94 49.22 48.62 47.68 48.17 47.27 46.76 45.08 44.95 43.18 42.15 41.71 41.16 40.26 38.63 37.16 36.39 35.18 34.53 32.12 31.55
33.70 31.04 29.40 20.43 17.68 21.09 20.15 23.72 36.14 34.06 35.12 37.74 40.74 41.84 43.03 43.74 45.20 43.70 44.60 42.12 43.34 45.04 45.45 45.51 46.86 49.19 52.13 50.90 48.83 47.81 46.94 46.44 46.14 45.43 44.82 44.22 42.23 42.34 41.60 40.70 40.03 39.50 37.39 36.28 35.61 34.31 34.21 31.75 31.26

GFSSGP_sfc_wetblb_027.txt.gz
Wetbulb
64.35 62.23 56.86 51.86 42.78 40.47 36.52 40.23 43.27 44.90 44.97 46.19 47.61 47.34 47.34 48.42 49.08 46.40 61.46 67.77 69.59 70.47 71.40 71.28 72.71 72.39 72.32 72.08 72.27 72.64 72.96 73.09 72.84 72.29 71.83 70.93 69.97 68.72 67.58 66.90 66.90 67.25 67.72 68.64 69.11 69.36 68.98 68.42 67.65
63.06 60.23 52.88 47.28 39.24 34.32 35.98 40.96 43.08 45.62 47.27 47.46 46.47 46.59 48.75 52.08 58.25 61.91 64.60 69.26 70.53 70.76 71.03 70.70 72.80 72.21 71.93 71.10 70.76 71.27 72.04 72.56 72.57 71.92 71.42 70.70 69.61 67.89 66.94 66.64 66.94 67.13 67.58 68.01 68.00 67.96 67.76 67.64 67.53
60.76 57.62 48.64 43.96 38.81 36.24 37.23 42.44 43.71 46.65 48.03 46.43 46.02 47.93 49.37 51.63 58.62 62.86 64.79 70.04 70.55 70.29 70.46 70.89 73.10 72.52 71.02 70.39 70.01 69.91 70.27 70.63 72.16 71.73 71.35 69.92 68.88 67.60 67.05 66.72 66.66 66.75 66.69 66.53 66.60 66.58 66.64 66.79 67.22
54.31 51.95 47.65 40.24 38.57 41.43 41.92 43.25 45.23 47.43 49.16 47.71 47.61 47.51 53.43 58.96 60.52 63.35 69.52 70.22 69.63 69.29 69.41 71.93 72.66 71.91 71.56 70.24 70.54 70.89 71.05 71.25 71.75 71.62 70.60 69.64 68.86 68.27 67.11 66.93 66.81 66.97 67.09 67.17 67.00 66.86 66.93 67.16 67.48
51.15 46.57 39.55 37.23 39.34 41.33 42.43 46.24 46.16 45.69 45.68 46.94 48.16 45.64 51.84 59.20 62.56 68.60 69.19 69.78 68.86 68.31 69.38 71.07 72.72 71.72 70.73 70.46 71.54 70.28 69.77 70.34 70.02 69.68 69.80 69.65 68.95 68.82 67.66 66.96 67.13 67.43 67.66 67.79 67.81 67.62 67.92 68.23 68.28
46.14 44.42 36.51 34.84 38.67 41.29 42.90 45.15 44.83 44.59 45.79 47.75 46.36 48.37 52.99 58.34 65.49 68.04 69.34 68.59 69.33 68.66 69.98 70.60 71.61 71.93 71.26 70.86 71.37 70.80 70.35 69.51 69.61 70.18 69.52 69.50 69.11 69.00 68.26 67.57 67.30 67.45 67.69 68.40 68.36 68.49 68.66 68.50 67.46
44.40 40.59 37.52 36.41 37.86 40.01 43.13 45.90 43.77 45.03 44.67 46.46 46.41 46.72 53.10 57.23 62.83 68.64 68.15 67.99 68.77 69.34 69.57 69.62 70.05 70.62 70.87 70.53 70.89 70.48 70.38 70.14 70.24 70.26 70.35 70.23 69.96 69.73 68.96 68.23 67.93 67.55 68.23 68.50 68.54 69.06 68.26 66.97 63.81
45.70 42.25 36.85 37.45 37.60 39.13 44.03 45.90 46.42 45.05 46.47 48.78 51.42 50.07 51.66 58.23 62.51 66.62 67.25 67.14 67.75 68.70 69.24 68.90 69.29 69.61 69.01 68.51 69.71 70.07 69.97 70.11 70.39 70.33 69.82 69.02 69.05 69.45 69.66 69.01 69.04 67.67 68.41 69.05 68.73 67.97 66.73 63.96 61.25
47.55 39.53 37.06 38.17 38.98 40.87 45.34 44.48 47.99 48.28 45.83 47.23 47.08 53.28 56.63 60.65 63.70 65.78 65.59 66.03 67.16 68.00 68.44 69.38 69.31 68.65 67.93 67.72 67.97 68.98 69.41 69.17 69.21 68.99 67.60 66.47 66.39 67.30 67.36 67.13 68.15 68.45 68.87 68.01 67.72 66.26 63.81 61.95 60.97
44.13 39.01 40.66 44.74 44.03 42.99 45.49 45.53 46.19 46.89 45.63 44.77 47.04 55.14 59.69 60.59 62.02 64.12 64.64 65.18 65.82 66.50 67.88 68.98 69.19 68.25 67.52 68.46 66.54 65.63 66.41 66.32 65.73 65.96 64.18 64.71 65.08 65.79 66.53 65.70 67.14 68.47 68.62 67.66 65.89 63.43 60.93 53.57 47.10
44.08 40.27 44.93 46.71 48.24 47.49 45.90 46.01 47.81 45.30 44.49 44.78 45.09 49.92 54.08 58.39 58.37 63.10 64.54 65.43 65.85 66.73 67.50 68.10 68.71 68.43 67.49 67.36 66.23 64.82 64.45 63.80 63.97 64.08 63.15 62.17 64.19 64.37 64.16 63.75 64.41 63.83 64.79 61.70 57.20 51.89 48.21 44.64 43.82
41.31 45.21 46.59 47.70 49.13 46.77 44.38 46.98 45.06 46.63 47.18 49.16 49.47 50.04 50.35 52.45 56.85 58.56 61.71 64.86 65.48 66.20 66.97 68.05 68.50 68.17 67.44 67.47 66.46 65.38 64.55 62.81 62.10 63.06 62.85 60.84 60.53 61.97 61.78 61.94 61.95 61.63 60.31 56.21 52.90 47.04 43.56 43.02 41.95
41.91 43.31 46.41 47.66 47.89 46.15 46.94 45.02 44.81 45.35 49.51 49.90 49.54 50.49 49.83 50.05 50.51 52.93 59.65 61.24 64.06 65.88 66.79 67.52 68.07 67.80 67.50 66.78 66.59 65.50 64.74 63.71 62.60 62.03 62.34 61.16 59.18 60.44 60.64 60.51 60.33 59.93 58.50 53.54 47.96 43.54 42.93 41.48 41.17
44.61 45.01 45.31 45.80 45.78 46.17 45.21 44.80 44.78 44.79 48.51 48.37 47.98 48.17 48.37 48.84 50.11 49.53 52.43 57.59 59.30 63.76 66.82 67.38 67.66 67.71 67.41 66.71 66.12 65.34 64.91 63.98 62.13 61.33 61.83 60.83 59.46 59.54 60.35 59.11 59.16 58.96 56.57 47.04 43.95 42.87 41.85 40.65 40.39
45.63 41.27 42.61 44.03 45.37 44.64 45.39 42.57 41.67 46.96 47.79 46.56 46.77 46.59 47.63 48.24 49.49 49.50 50.75 52.14 55.05 58.63 63.27 67.04 67.06 67.66 67.14 66.74 66.02 65.24 64.65 64.08 62.24 61.32 61.00 61.10 59.07 58.95 59.84 58.51 57.67 54.03 47.88 43.94 42.39 41.42 40.82 40.26 40.27
41.94 40.39 36.09 42.00 44.48 45.17 44.73 37.59 43.75 46.81 44.45 45.21 45.99 46.61 46.47 47.92 48.94 49.94 50.96 50.93 52.07 52.52 57.20 64.08 68.37 67.76 67.22 66.89 65.88 65.44 64.52 63.62 62.44 61.34 61.37 60.97 58.95 58.51 57.52 56.60 54.61 46.50 43.77 42.88 42.09 40.98 39.48 38.33 37.72
37.02 31.98 34.70 38.30 43.67 43.11 41.90 37.30 43.90 46.60 45.71 44.35 44.94 45.18 45.06 46.11 47.29 48.31 50.66 50.67 50.97 51.73 52.80 60.67 65.15 67.44 67.03 66.63 66.05 65.26 64.33 63.66 63.23 62.27 61.69 60.56 59.27 57.73 55.45 53.63 48.51 44.63 42.97 42.12 42.09 39.52 38.76 36.99 36.81
32.38 32.48 33.37 34.14 38.49 39.98 37.54 37.14 42.43 45.66 43.34 42.50 42.89 43.49 44.01 45.28 46.63 48.09 48.87 49.63 51.32 50.42 51.17 57.13 63.48 65.92 66.93 66.60 65.95 64.73 64.26 63.87 63.40 63.31 62.67 60.12 59.59 56.36 54.01 48.75 45.91 44.28 42.42 41.04 40.35 38.76 36.85 36.42 36.46
36.97 34.54 33.19 35.83 40.06 37.21 35.91 35.39 38.55 41.21 39.89 39.51 40.61 42.43 43.60 44.68 47.33 47.06 48.21 48.79 48.59 48.59 48.51 50.70 60.52 64.26 65.60 65.08 64.46 63.87 62.81 63.06 62.61 63.31 63.25 60.50 60.04 57.28 53.74 50.09 47.00 45.81 44.67 41.09 40.02 38.29 36.84 35.63 35.51
39.75 35.04 32.28 35.92 38.38 36.44 34.93 34.30 38.67 40.75 41.60 42.97 43.50 44.29 44.97 44.07 43.95 45.24 46.90 46.99 47.83 48.84 48.43 47.69 53.25 62.66 65.12 65.53 65.23 64.36 64.31 63.81 63.03 62.66 61.81 60.77 58.48 56.89 52.99 49.99 47.43 45.53 43.23 40.05 39.44 39.12 36.94 35.51 34.31
35.14 32.27 32.06 32.79 35.53 34.02 32.50 31.48 33.99 37.63 39.14 40.59 42.98 44.56 45.34 44.52 44.86 45.40 43.65 45.72 46.36 46.19 47.51 48.85 48.57 55.49 64.20 65.75 63.86 58.93 58.47 56.79 56.57 57.48 57.47 58.04 57.78 56.30 53.98 50.36 48.16 45.56 43.79 41.09 39.69 39.01 38.58 35.60 33.93
31.12 35.76 35.98 33.76 30.49 25.70 32.25 23.60 29.91 34.54 35.39 36.39 37.43 37.72 39.90 41.58 42.78 43.85 44.61 43.70 44.13 45.16 45.96 47.18 48.65 49.90 58.77 65.16 63.59 61.30 61.32 60.11 61.10 57.70 58.41 55.27 55.66 54.87 53.24 50.16 47.24 45.20 44.13 41.26 40.33 39.95 38.21 37.12 34.67
36.20 37.09 34.28 32.50 28.08 24.43 26.03 23.39 27.83 30.07 32.08 34.78 35.66 36.67 37.58 39.29 40.42 41.45 42.26 43.44 44.61 44.52 44.18 44.60 46.17 48.67 51.73 62.70 64.49 62.70 61.27 61.95 60.76 53.96 54.54 53.77 52.85 52.68 50.84 49.78 46.91 44.63 44.06 42.76 40.36 38.08 37.19 36.76 35.57
39.40 33.74 30.62 28.69 26.04 16.67 23.21 23.84 24.95 27.96 30.24 32.78 34.81 36.56 36.80 37.48 37.68 39.36 40.69 42.34 42.56 42.43 43.59 43.34 43.94 45.79 49.26 58.47 63.40 62.56 61.46 55.90 53.46 51.72 53.85 51.31 49.94 47.89 47.31 47.63 46.71 44.94 43.62 43.11 41.81 39.31 38.60 37.25 35.22
34.28 28.60 17.43 15.10 14.62 17.32 25.78 24.12 27.41 32.19 34.17 34.54 35.71 35.41 36.71 37.96 38.52 39.44 40.26 40.91 43.39 45.52 46.20 46.84 47.11 47.81 47.67 50.25 61.26 62.28 61.12 55.96 55.57 54.39 54.32 51.21 47.30 46.22 45.05 45.77 45.29 44.69 43.86 43.56 41.49 39.52 38.08 36.97 35.04
30.91 29.20 20.00 14.84 14.87 19.56 26.70 23.00 28.47 33.65 34.17 35.65 35.74 35.29 37.46 38.69 38.58 40.05 40.43 40.32 41.29 44.01 45.20 45.76 46.01 46.58 47.41 50.81 56.65 61.64 59.73 57.34 55.91 53.99 53.84 52.48 50.77 49.47 46.58 46.13 45.10 43.77 42.85 41.09 40.74 39.18 36.23 36.63 35.86
31.00 23.60 29.88 22.55 20.23 15.30 22.09 25.75 31.47 34.05 34.73 35.52 36.14 37.46 37.70 38.77 40.03 40.65 41.30 42.48 43.37 43.59 44.47 44.39 45.12 46.11 46.81 48.81 55.42 59.18 58.99 54.39 53.98 53.03 52.68 52.29 50.34 47.03 45.98 44.97 42.43 43.12 42.51 40.63 40.31 39.14 36.01 36.41 34.07
32.65 34.06 23.16 18.51 9.59 14.08 19.02 21.16 23.95 29.37 31.63 34.88 34.73 35.71 36.97 38.40 40.26 41.97 41.81 42.00 43.33 44.65 44.85 44.58 44.94 45.69 46.97 47.95 53.25 57.25 55.67 53.18 51.94 49.61 48.93 47.25 46.61 46.14 44.00 43.14 42.47 42.33 41.36 40.35 39.57 37.28 35.53 34.42 34.67
30.93 26.69 27.00 25.57 22.58 15.66 17.07 21.55 29.90 30.36 32.01 33.75 35.43 39.81 39.99 40.58 44.98 45.48 42.59 41.68 41.89 42.68 43.52 43.97 44.12 45.29 46.81 49.04 52.37 52.31 49.86 49.76 48.78 48.38 46.98 45.81 45.84 45.24 43.77 43.08 42.69 41.33 39.90 39.09 37.80 37.42 35.70 34.81 34.11
32.97 30.29 28.34 19.69 16.83 19.65 19.15 23.12 34.55 33.62 33.46 36.08 39.50 39.47 44.09 45.83 46.13 46.81 43.68 42.60 43.28 43.67 45.20 45.21 46.82 47.72 48.58 50.00 53.86 50.34 47.31 46.86 46.81 47.33 45.78 44.67 44.12 43.90 43.11 42.74 41.61 40.37 39.21 38.49 36.91 36.17 35.23 34.13 33.45

GFSSGP_sfc_wetblb_030.txt.gz
Wetbulb
64.07 60.58 54.96 50.97 42.50 39.64 35.47 38.75 41.37 43.40 42.81 44.63 46.09 45.98 46.55 47.35 49.63 46.59 61.09 67.30 69.09 69.82 71.08 71.36 73.96 73.53 73.20 73.87 73.74 73.72 73.73 73.84 73.36 72.26 71.54 70.58 69.68 68.78 67.53 67.07 67.32 67.57 68.36 70.32 70.37 70.12 69.30 68.52 67.59
62.34 58.98 52.37 46.02 37.96 32.66 34.43 39.67 41.68 44.09 45.60 46.77 46.04 45.96 48.52 51.64 58.09 61.05 63.35 67.81 69.92 70.37 70.40 69.55 72.81 73.03 72.40 72.73 72.80 72.99 73.18 73.28 72.68 72.15 71.43 70.42 69.24 67.50 66.94 67.24 67.38 67.68 68.42 69.32 68.92 68.49 68.32 68.02 67.44
59.58 55.55 48.45 43.62 37.73 34.20 34.93 40.80 42.45 45.67 47.21 45.22 44.53 46.83 48.10 51.20 58.31 62.12 63.15 69.21 69.92 69.55 69.86 69.48 72.61 72.43 71.84 71.71 71.65 71.99 72.52 72.89 72.68 71.97 71.28 70.24 68.63 67.31 67.18 67.28 67.23 67.33 67.36 67.38 67.40 67.16 67.11 67.25 67.54
54.70 51.84 47.14 40.09 37.82 40.78 40.87 42.29 43.43 45.75 47.55 46.62 46.12 47.63 52.39 58.52 59.57 63.48 68.47 69.73 69.08 68.44 68.82 71.13 72.72 72.31 71.68 70.98 70.43 70.61 70.73 71.49 72.50 71.71 70.64 69.67 68.42 67.53 67.38 67.19 67.09 67.11 67.05 66.99 66.90 66.97 67.16 67.56 67.88
50.20 46.57 39.95 37.25 38.97 41.07 42.28 44.63 44.55 43.95 44.22 44.70 45.27 45.30 50.39 57.93 63.28 67.99 68.92 69.59 68.97 67.51 68.97 70.76 72.66 71.62 70.72 70.55 71.39 71.55 70.91 71.12 72.08 71.70 70.39 69.57 68.78 67.61 67.22 67.16 67.25 67.64 67.71 67.72 67.66 68.02 68.46 68.62 68.36
45.29 43.98 36.10 35.93 38.39 40.13 42.39 44.34 43.66 43.48 44.21 46.43 44.02 46.78 51.24 58.35 64.73 67.46 69.09 68.85 69.12 68.21 69.67 70.05 71.29 71.73 71.12 71.24 71.31 71.01 71.04 70.99 70.70 70.86 70.54 69.72 69.05 68.48 67.58 67.30 67.52 67.74 68.07 68.59 68.51 68.71 68.93 68.25 66.28
43.52 40.97 36.99 35.57 39.74 38.38 42.23 44.87 43.03 43.76 43.19 44.97 46.66 45.57 51.97 55.75 64.93 67.73 68.07 67.89 68.40 68.93 69.09 68.76 69.25 70.12 70.60 70.85 70.79 70.30 70.61 70.52 70.54 70.61 70.50 70.21 69.91 69.29 68.13 67.59 67.50 67.75 68.35 68.58 68.71 69.13 68.09 65.19 62.41
44.65 42.20 36.86 36.96 36.99 37.89 43.45 44.87 45.44 44.65 45.58 47.82 49.45 46.67 48.91 55.82 67.15 67.62 67.39 67.05 67.27 68.30 68.70 67.87 67.98 68.66 67.84 68.22 70.36 69.98 69.90 69.80 70.10 70.10 69.65 68.84 68.83 69.37 68.96 68.73 68.62 67.59 68.31 68.45 69.01 68.14 65.93 62.36 61.54
46.47 38.89 35.01 37.52 38.76 40.43 44.16 42.97 47.22 47.14 44.82 46.48 46.50 48.86 54.70 61.23 66.64 65.75 66.18 66.88 67.44 67.79 68.18 67.88 67.49 67.53 67.25 66.60 67.78 69.38 69.42 69.06 69.09 68.88 67.96 66.93 65.63 66.76 66.96 66.80 67.87 68.32 68.72 68.29 67.96 66.52 63.41 61.27 59.71
43.72 38.23 39.56 43.11 42.54 42.34 44.19 44.16 44.60 45.70 44.99 44.08 44.81 55.07 58.48 63.36 65.24 64.28 64.24 64.88 65.35 66.15 67.31 68.58 68.73 67.63 67.10 68.23 66.81 66.20 66.61 66.24 65.99 66.16 64.69 63.81 64.35 65.28 66.22 65.40 67.12 68.25 68.52 67.89 66.60 63.50 59.03 52.52 45.03
43.69 39.65 44.09 46.12 46.98 47.34 45.42 44.91 46.32 43.79 43.03 44.65 43.80 47.31 52.92 56.35 60.22 63.70 64.40 65.04 65.53 65.99 66.60 67.45 67.80 68.49 67.07 67.15 65.50 64.96 64.44 64.58 64.36 64.47 63.28 62.63 64.17 64.35 64.24 63.92 64.35 63.84 64.21 60.87 55.47 49.70 46.08 43.63 43.04
41.16 44.76 45.76 47.39 48.90 46.98 44.01 45.41 43.28 45.42 45.69 48.19 48.04 48.51 49.29 51.64 57.33 59.82 62.67 64.39 65.62 66.18 66.47 67.39 67.62 67.71 67.34 66.73 65.96 64.72 64.19 63.72 63.64 63.69 62.92 60.93 62.11 62.65 62.46 62.46 62.14 61.76 60.27 56.25 51.20 45.16 42.62 41.97 41.19
42.20 43.26 46.09 47.40 47.46 46.05 46.38 44.02 43.84 43.96 47.74 48.86 49.29 49.64 48.48 48.63 49.83 52.03 57.55 62.05 64.05 65.49 66.38 67.15 67.64 67.43 67.12 65.93 66.34 64.57 64.11 63.70 64.13 63.31 62.70 60.99 60.73 61.55 61.38 61.07 60.76 60.09 58.11 54.28 48.22 42.92 41.96 40.73 40.54
44.63 44.96 44.79 45.32 45.38 45.40 44.21 43.55 43.71 44.41 46.50 46.86 47.03 47.93 47.88 47.79 49.20 48.33 50.49 55.98 62.68 65.54 66.35 67.26 67.38 67.43 67.46 66.74 66.55 64.84 64.39 63.64 62.13 61.86 62.54 61.41 59.92 60.56 60.93 59.84 59.60 59.00 57.40 49.72 45.00 42.30 41.09 40.29 39.85
44.60 40.44 41.62 43.25 44.25 43.97 44.64 41.08 40.82 46.02 47.27 46.06 45.34 45.49 47.35 48.18 48.60 49.02 49.83 51.41 57.12 62.21 66.55 66.42 67.20 67.84 67.18 66.54 66.66 65.29 64.76 64.28 62.86 61.85 61.35 61.82 60.03 59.10 60.12 59.54 58.57 58.04 54.03 44.71 42.25 40.96 40.24 39.93 39.58
41.31 40.11 35.41 41.54 43.97 44.65 43.87 35.08 42.74 46.15 44.43 44.23 44.78 44.49 45.00 47.40 48.81 48.96 50.10 49.80 50.77 53.43 60.67 65.98 67.88 67.69 67.20 66.91 66.75 65.91 64.90 64.17 63.13 61.80 61.19 61.54 60.23 59.34 58.66 58.91 58.40 53.47 46.74 43.24 41.83 40.67 39.30 38.19 37.91
36.28 31.79 34.13 38.32 43.13 42.21 41.25 36.52 42.78 44.69 42.93 42.78 43.13 43.69 44.57 45.14 46.56 47.69 48.97 49.22 49.51 50.52 51.54 58.96 66.39 67.01 67.00 67.20 66.46 65.70 64.67 63.70 63.07 61.49 60.79 60.72 59.71 59.17 58.66 58.41 56.26 47.16 43.60 42.39 41.97 39.33 39.03 37.17 36.49
34.00 31.17 32.96 34.14 37.45 39.49 37.63 36.25 40.66 42.09 41.61 41.89 42.33 42.56 42.73 43.94 45.83 47.57 48.08 48.61 49.75 49.14 50.01 51.64 60.77 66.45 66.83 66.94 66.38 65.70 64.13 63.63 62.78 61.99 60.64 60.39 59.80 58.26 57.80 55.83 51.50 45.49 42.59 41.21 40.41 38.79 36.83 36.59 36.62
36.23 34.15 32.64 34.96 39.20 36.51 35.41 34.24 38.03 41.14 39.39 39.17 40.24 41.52 42.83 44.33 46.92 46.45 46.73 47.77 48.05 48.12 47.90 49.34 54.62 61.93 66.13 66.34 65.15 64.59 63.30 63.32 62.13 62.92 61.89 60.39 59.55 57.70 56.06 53.36 50.10 45.50 43.85 43.35 42.37 38.56 36.81 35.50 36.08
37.80 34.10 31.93 35.87 37.65 35.37 34.24 33.19 37.91 40.37 39.78 41.14 42.26 42.86 43.80 43.99 43.74 44.05 45.24 45.62 46.21 47.68 47.43 47.50 50.04 57.91 63.74 65.52 65.44 64.64 64.64 64.14 63.73 63.20 62.61 61.43 59.63 58.30 56.20 53.63 50.71 47.90 45.27 42.97 41.82 38.86 36.67 35.13 34.93
36.76 34.39 31.86 32.73 34.89 33.31 31.82 31.26 32.82 37.07 37.84 39.19 40.26 41.01 41.46 42.03 42.84 43.97 42.89 43.55 44.22 44.86 46.50 47.41 47.58 52.77 61.52 64.77 64.85 59.91 59.11 58.24 59.32 59.58 61.13 60.40 59.67 58.09 55.99 52.93 50.83 48.30 47.44 44.50 42.60 39.85 38.71 35.30 33.49
33.33 35.71 35.36 33.31 30.16 26.23 31.64 23.98 30.26 33.59 33.55 35.08 34.71 35.17 36.05 37.25 38.77 40.57 41.14 41.32 42.30 43.65 44.72 46.25 47.25 48.02 54.12 62.95 63.51 62.60 62.10 61.12 60.97 61.77 61.88 58.56 58.70 57.78 55.48 53.31 52.28 49.35 47.13 45.18 43.02 41.97 39.45 37.12 34.30
35.77 36.54 33.61 31.76 28.08 24.33 26.04 23.65 28.30 29.22 30.82 32.60 34.65 34.85 35.80 36.26 36.73 38.70 39.14 40.70 42.07 42.49 42.11 43.28 45.17 46.54 48.92 57.39 63.70 62.14 61.78 62.13 60.10 60.86 60.40 58.68 57.13 56.91 55.82 53.38 52.06 48.68 48.05 46.30 44.47 41.49 40.73 38.37 35.66
38.31 33.63 30.31 28.08 25.66 16.68 22.63 22.97 25.16 27.31 28.23 31.84 33.41 33.62 36.06 37.25 38.15 40.01 41.66 42.93 43.09 42.29 43.85 42.69 42.04 44.00 46.12 50.09 61.20 62.49 61.73 61.07 56.01 54.96 57.65 56.53 55.06 54.57 53.92 52.36 49.57 48.74 47.05 45.33 44.01 42.65 41.58 40.16 38.75
34.74 31.80 19.40 16.20 13.56 16.90 25.07 23.45 26.05 30.55 32.84 32.61 33.17 34.21 36.39 37.18 38.01 39.80 41.05 42.19 43.35 42.58 42.92 45.00 45.25 44.94 45.22 46.41 55.90 62.05 61.79 60.94 56.80 56.33 57.30 54.98 52.75 50.37 49.59 50.15 48.06 46.25 46.09 45.21 44.18 43.03 41.21 39.41 38.47
29.86 29.06 19.87 14.79 13.25 18.56 25.84 22.11 27.69 32.46 33.14 34.15 34.52 35.14 38.09 39.69 38.33 40.16 41.50 41.66 42.08 43.28 43.58 43.89 44.21 44.01 44.92 46.24 48.21 57.16 61.36 59.50 57.79 56.16 57.04 55.91 54.41 53.26 51.90 48.43 48.28 46.52 45.10 43.91 43.84 43.32 41.08 39.65 38.66
29.98 23.23 28.73 21.33 19.17 15.43 20.30 24.95 30.39 32.84 32.86 32.96 34.35 36.46 37.25 37.70 38.73 40.40 42.12 42.37 42.18 42.85 43.07 43.57 44.18 44.21 44.41 45.30 46.96 51.21 56.56 56.14 55.55 54.67 55.65 55.58 54.32 52.98 47.99 48.41 47.56 45.58 44.38 43.20 42.83 40.53 38.98 38.13 37.14
32.66 33.59 24.05 19.97 10.55 14.00 18.66 20.17 23.59 28.37 30.62 33.99 34.83 34.90 38.74 39.49 40.19 42.87 45.53 43.70 41.88 42.14 42.43 42.22 43.48 43.88 45.00 45.69 46.60 49.70 53.48 57.63 53.95 51.63 52.03 51.90 50.78 48.20 47.61 46.31 45.17 44.69 42.90 41.42 41.09 38.60 37.91 37.06 35.35
30.41 26.73 26.22 24.76 22.04 15.54 16.43 21.70 29.04 29.73 30.60 32.94 34.74 37.12 38.19 38.55 42.41 44.45 44.79 43.47 42.17 43.04 43.82 44.39 45.16 45.72 47.12 47.28 47.34 48.51 51.78 55.00 51.17 49.65 48.80 47.29 46.31 46.04 45.02 44.70 44.02 42.96 42.16 41.00 39.36 37.43 36.69 35.70 35.41
31.88 29.51 27.15 18.45 16.15 19.32 18.46 22.09 32.94 32.44 33.40 34.80 39.09 37.95 40.33 43.94 44.98 43.86 42.17 41.99 41.67 42.37 43.91 44.64 44.40 44.87 45.21 46.29 47.52 49.16 52.81 48.46 49.00 49.18 46.08 45.53 44.00 43.58 44.11 43.22 42.48 41.02 40.26 39.02 37.55 36.64 36.42 35.66 34.73

GFSSGP_sfc_wetblb_033.txt.gz
Wetbulb
65.07 60.68 58.18 55.71 48.20 45.61 41.47 43.06 46.78 47.41 48.36 50.21 50.72 51.23 51.90 53.30 54.91 52.68 65.93 69.35 69.72 70.37 72.84 72.20 74.22 74.26 74.04 74.46 74.42 74.63 74.46 74.20 73.41 72.75 71.89 70.71 69.88 68.72 67.81 67.67 68.02 68.64 71.17 71.56 71.58 70.54 69.57 68.60 67.20
62.58 59.77 56.28 51.34 44.12 38.98 40.43 44.66 45.27 48.12 50.44 50.40 49.86 52.27 53.25 55.50 61.25 63.20 65.82 69.20 70.48 71.52 72.25 71.68 73.74 74.11 74.22 74.40 74.59 74.33 74.06 73.49 73.42 72.40 71.33 70.51 69.17 67.62 67.40 67.57 67.70 68.15 70.54 70.30 69.74 69.10 68.82 67.98 67.50
60.03 56.70 53.27 48.68 42.21 39.13 40.40 44.31 46.86 49.00 50.19 49.66 50.20 52.51 52.57 56.01 61.71 64.74 67.17 70.23 70.95 71.34 71.30 71.04 73.16 73.26 73.00 73.10 73.22 73.58 73.64 73.35 72.82 72.11 71.19 70.14 68.26 67.33 67.68 67.71 67.94 68.18 68.97 68.73 68.06 67.96 67.87 68.06 67.88
57.32 54.92 50.70 44.83 41.43 43.75 44.27 46.82 47.84 48.48 50.50 50.58 50.63 51.10 57.19 61.49 62.40 66.10 69.47 70.78 70.52 70.81 70.77 71.45 72.82 72.67 72.58 72.59 72.24 72.63 72.92 73.32 72.80 72.15 70.99 69.48 68.02 67.63 67.65 67.55 67.39 67.30 67.33 67.32 67.15 67.22 67.57 67.87 68.04
53.54 51.01 43.90 41.48 42.33 44.79 46.81 48.01 48.74 47.99 48.35 49.56 49.87 50.06 54.40 61.10 67.15 68.96 69.72 70.39 69.85 70.24 70.66 70.82 72.90 72.43 71.85 71.69 71.66 71.95 71.67 72.22 72.71 71.75 70.69 69.44 68.07 67.85 67.66 67.54 67.62 67.65 67.51 67.46 67.61 68.30 68.86 68.77 68.07
49.28 48.55 41.04 39.83 42.05 44.18 46.36 48.58 48.23 48.02 48.72 50.17 49.53 50.56 55.11 63.88 66.82 67.48 69.05 69.68 70.29 70.02 70.76 70.82 71.80 71.78 71.59 71.37 71.61 71.57 71.38 71.08 72.41 71.95 70.58 69.78 68.50 67.81 67.58 67.65 68.04 68.11 68.33 68.40 68.77 68.94 68.74 67.07 65.19
47.84 45.50 42.13 40.98 42.79 43.02 45.34 48.60 47.49 48.07 48.62 49.42 51.16 49.99 54.84 60.87 67.04 67.90 68.35 68.74 69.54 70.62 70.70 70.84 70.78 70.63 70.73 71.29 71.22 71.22 71.69 71.96 71.80 71.63 71.27 70.25 69.85 68.71 67.63 67.71 67.89 68.22 68.99 68.92 68.96 68.87 66.61 63.49 63.49
48.34 46.93 40.73 40.58 41.29 42.58 46.64 47.80 49.31 48.58 48.54 51.61 51.56 49.38 52.02 60.47 66.83 67.71 67.74 67.56 69.74 70.36 70.35 70.26 70.48 70.31 69.54 70.30 70.10 69.90 70.43 70.37 70.58 70.30 69.67 68.86 68.71 69.04 68.74 68.46 68.48 68.09 68.65 68.43 69.04 67.57 63.80 62.43 61.93
48.66 42.57 38.89 41.54 40.43 43.38 46.85 45.85 50.22 50.93 49.63 50.14 51.27 53.45 57.78 63.38 66.80 66.15 65.76 66.87 67.95 68.90 69.84 70.12 69.89 69.93 69.27 69.88 69.25 69.28 69.38 69.06 69.05 68.79 67.92 67.62 68.52 68.71 68.20 67.19 67.73 68.41 68.83 68.77 67.97 65.73 62.79 60.74 59.94
46.39 41.37 40.71 44.34 45.43 44.45 47.17 48.09 48.65 49.38 48.31 49.31 50.47 53.48 61.51 64.36 64.74 64.02 63.97 64.92 65.41 66.82 67.56 69.12 69.66 69.56 68.95 68.49 69.44 69.09 68.53 68.50 68.71 68.75 68.91 68.54 68.70 68.98 68.19 66.40 67.05 68.14 68.52 68.12 66.40 63.18 59.07 53.62 52.73
45.58 41.50 44.86 46.72 46.91 48.63 47.43 47.99 49.56 48.18 46.98 49.19 49.11 51.58 57.50 62.21 63.75 63.56 63.90 64.80 65.33 66.48 66.66 68.06 68.16 69.37 69.24 68.31 68.39 68.53 68.14 67.89 68.44 68.68 68.30 67.75 67.58 68.21 68.50 68.01 68.08 68.00 65.61 64.12 60.03 55.88 52.97 51.68 51.43
43.57 45.95 46.54 48.38 49.56 48.48 47.09 48.69 47.26 48.54 49.52 51.09 51.82 52.33 52.88 59.67 61.34 62.76 63.52 64.56 65.23 66.23 66.64 67.42 67.68 67.72 68.42 69.26 67.98 67.24 67.02 67.50 67.17 67.52 67.73 66.10 66.80 67.33 67.80 67.38 67.62 67.14 66.21 62.33 58.07 53.66 50.71 49.66 49.29
44.01 44.95 47.33 48.49 48.36 48.04 48.25 46.69 47.27 46.90 49.82 51.22 50.95 51.91 52.42 52.78 55.02 60.47 63.71 65.60 66.01 65.81 66.78 67.24 67.68 67.60 68.00 67.78 68.34 67.48 66.46 66.96 67.22 66.91 66.86 65.58 66.42 66.98 67.23 66.97 66.70 66.17 64.70 61.95 56.06 51.71 49.92 48.93 48.46
46.15 46.26 46.15 47.05 46.91 47.30 45.66 45.75 46.24 47.74 49.52 49.24 48.94 50.56 51.31 51.60 53.06 53.26 54.12 58.90 65.47 67.24 67.39 67.70 67.45 68.05 68.07 67.37 67.56 67.54 67.14 66.45 66.66 66.62 66.38 65.53 65.81 66.87 66.53 66.03 65.63 64.97 64.06 60.55 55.11 51.23 49.60 49.02 48.32
45.16 42.41 44.14 44.61 45.62 45.45 46.68 42.53 42.73 48.30 49.09 48.58 48.85 49.13 50.40 51.11 51.94 52.19 54.00 54.23 58.30 65.18 67.84 67.93 68.07 68.18 67.85 67.48 67.08 67.21 67.38 66.54 65.85 65.67 66.09 65.68 64.65 65.81 66.20 65.65 64.75 64.40 62.89 57.09 51.85 48.86 48.39 47.84 46.75
42.48 42.56 37.99 43.49 44.47 45.52 45.46 37.27 44.81 47.54 46.59 46.83 47.50 47.47 47.75 49.38 50.85 51.97 52.70 53.16 54.80 55.70 63.20 67.75 68.47 68.23 67.88 67.62 67.27 66.82 67.18 67.11 66.18 65.39 65.18 65.38 64.98 64.07 64.86 64.88 64.33 63.67 60.23 53.83 50.48 48.55 47.63 47.43 46.99
39.60 33.81 36.00 39.64 44.60 43.90 43.13 39.15 44.61 46.60 46.10 45.74 46.50 47.08 47.03 47.99 49.43 50.63 52.07 52.49 53.26 54.19 54.70 60.49 67.46 68.31 68.13 67.72 67.51 66.71 66.44 66.96 66.85 65.68 64.80 64.59 64.52 63.99 63.33 63.31 63.97 62.02 57.74 52.10 49.27 47.24 47.86 46.30 45.51
34.31 34.27 36.48 36.45 40.32 41.24 39.89 39.37 42.90 44.43 43.15 43.82 44.99 45.75 45.74 46.77 48.77 51.23 51.27 51.84 52.77 52.89 53.36 54.24 60.52 66.94 68.62 68.36 66.80 66.69 66.03 65.88 66.73 65.57 64.81 64.01 63.83 63.32 62.95 62.46 62.35 59.34 55.22 51.23 48.34 47.24 45.27 45.97 45.41
37.71 36.24 35.47 37.71 40.42 39.12 37.79 37.06 39.65 42.69 42.02 42.04 43.03 44.37 45.73 46.13 47.97 49.49 50.32 50.88 50.97 51.49 51.61 52.19 53.44 60.00 67.06 66.99 65.75 65.15 64.78 64.66 64.64 65.41 64.84 63.48 63.53 62.48 62.18 62.16 60.70 56.93 54.48 51.63 48.83 46.23 43.78 43.47 45.14
37.89 35.21 34.77 37.87 39.11 38.19 35.80 35.54 39.89 41.87 41.70 42.53 42.96 43.49 44.26 44.66 45.47 46.24 47.11 47.92 48.31 49.36 50.62 51.25 51.74 54.39 61.58 66.37 66.40 65.89 65.41 65.34 65.23 65.01 64.74 63.57 63.05 61.87 61.38 60.74 58.56 55.36 53.42 49.82 47.13 44.42 41.37 43.71 44.66
37.26 35.39 34.41 35.18 36.65 36.00 33.73 33.99 35.84 39.33 39.83 40.66 39.08 38.81 39.94 41.07 41.79 43.48 44.23 45.01 46.11 46.80 48.22 49.71 51.01 52.20 57.01 64.23 66.54 64.66 63.81 62.63 63.86 63.32 63.73 63.67 63.11 61.61 61.32 60.15 59.15 56.73 54.15 49.51 46.30 44.61 43.25 42.92 42.36
35.25 38.42 36.62 34.63 33.23 29.96 33.59 28.17 33.43 35.03 36.04 37.21 36.70 38.51 39.58 40.68 42.53 43.47 44.11 45.84 46.12 46.43 46.56 47.57 49.46 50.98 53.14 62.48 64.83 64.10 62.25 61.50 62.94 63.63 64.22 64.40 63.08 61.60 61.15 60.04 58.50 56.58 54.62 52.55 49.29 47.21 45.94 45.40 41.83
36.13 37.40 34.56 33.18 30.42 29.53 29.48 28.11 31.80 33.70 34.11 35.35 36.57 38.23 39.82 40.82 41.28 43.06 44.63 45.67 46.54 47.00 47.49 46.95 46.75 48.26 50.66 54.79 64.16 64.39 63.28 63.79 64.39 63.86 63.60 63.39 61.96 61.99 60.81 59.24 57.66 55.78 54.62 53.42 50.74 46.73 45.95 45.01 43.02
37.55 33.99 31.63 30.11 28.60 23.66 26.39 27.10 29.12 31.23 33.69 35.82 37.05 37.93 39.50 40.27 41.23 43.25 45.33 46.89 48.04 48.28 48.26 48.45 48.65 47.63 47.95 49.34 53.63 63.26 63.48 63.19 62.99 62.05 62.22 62.22 60.67 60.71 60.05 58.23 57.20 56.36 54.09 51.41 50.01 48.39 47.50 45.39 44.29
36.71 34.42 24.32 21.15 20.97 23.60 27.29 25.86 29.24 33.32 35.58 36.69 37.56 38.67 39.84 40.58 41.26 43.22 45.56 46.41 47.48 47.44 48.30 48.25 48.25 48.62 48.86 49.51 49.64 53.58 61.54 63.23 62.53 61.78 61.72 60.90 58.71 58.16 58.39 57.60 56.17 55.72 53.66 52.64 50.66 48.80 47.52 46.40 44.58
33.13 32.37 24.65 20.12 18.89 22.20 26.93 24.07 30.67 35.28 36.92 37.87 38.64 39.24 39.67 41.40 41.91 43.46 45.75 46.59 46.60 46.42 47.24 47.17 47.29 47.70 48.50 49.03 49.74 51.43 53.78 60.93 62.03 61.20 60.83 60.69 59.45 58.98 59.31 57.16 56.52 55.10 52.82 51.44 49.89 48.62 48.00 46.36 44.14
32.27 28.26 30.58 22.91 21.14 20.37 23.83 26.94 32.05 35.56 35.40 37.09 38.47 39.17 39.93 42.07 42.70 44.26 46.65 47.09 46.70 45.98 46.27 45.69 46.01 46.81 47.71 48.46 49.73 50.32 51.89 55.33 58.60 59.23 59.76 60.41 59.96 58.49 57.81 55.52 54.78 53.12 51.24 50.19 48.72 47.69 45.36 44.27 42.36
34.04 33.57 26.52 23.10 16.55 18.06 21.67 22.94 27.38 31.29 33.91 36.47 37.08 38.32 39.91 41.39 42.76 45.79 46.21 46.37 46.15 45.81 46.28 47.83 48.00 47.89 48.61 49.76 50.18 50.68 51.85 53.08 56.65 57.17 57.64 57.93 57.90 56.17 53.21 52.58 51.86 50.62 49.70 48.34 47.35 45.48 42.95 41.24 40.57
31.27 28.92 27.53 27.05 24.19 19.86 19.36 24.44 31.13 32.83 35.03 35.81 37.10 39.09 39.87 41.73 45.18 45.05 44.22 44.85 45.47 45.91 46.27 46.82 47.38 47.16 48.04 48.23 48.66 49.89 51.89 53.46 55.06 53.75 54.40 54.75 53.54 51.91 50.86 50.19 48.84 47.98 46.61 46.18 45.46 43.89 41.09 37.99 37.57
33.52 30.68 28.58 23.49 20.13 22.17 22.12 24.97 35.10 34.91 35.11 36.10 37.79 39.33 41.69 44.80 44.57 42.21 41.79 43.54 45.10 44.59 44.82 45.07 45.02 45.59 46.39 46.81 47.90 49.03 51.59 52.47 51.02 51.76 51.12 49.79 48.89 47.80 47.75 46.66 46.01 45.41 44.54 43.82 42.41 40.25 38.92 37.32 35.74

GFSSGP_sfc_wetblb_036.txt.gz
Wetbulb
67.67 64.91 65.06 61.43 51.82 50.51 46.34 46.92 51.30 51.03 51.92 53.88 54.54 54.49 54.62 56.70 56.41 55.09 68.74 71.40 71.41 72.72 73.18 72.52 74.75 74.94 75.33 75.62 75.47 75.31 75.15 74.75 73.65 72.86 71.97 71.07 69.82 68.90 68.26 68.35 68.64 71.34 72.24 71.74 71.49 70.37 69.20 67.74 67.11
66.34 62.50 62.70 58.57 48.58 44.67 45.85 49.79 48.53 52.21 53.95 55.08 54.38 54.45 57.29 56.92 63.57 66.05 68.17 71.01 71.57 72.75 72.94 72.54 73.83 73.78 74.35 75.08 74.98 74.93 74.57 74.37 73.33 72.47 71.53 70.40 68.87 67.87 67.74 67.99 68.61 71.09 71.21 70.61 70.03 69.45 68.44 67.70 67.97
62.97 61.59 57.00 52.88 49.03 45.28 45.74 49.38 50.45 52.63 53.72 53.58 53.54 55.91 55.93 58.94 64.75 67.08 70.15 71.64 71.95 72.69 73.11 72.83 73.42 73.57 74.33 74.57 74.72 74.59 74.35 73.89 73.18 72.54 71.15 69.72 67.90 67.88 67.96 68.05 68.50 69.83 69.59 69.18 68.83 68.43 68.34 68.05 68.24
60.26 59.19 57.38 49.31 46.52 49.68 49.55 51.20 52.03 52.25 53.84 54.34 54.41 53.74 60.24 65.12 65.28 68.77 71.68 71.92 72.06 72.44 72.75 72.08 73.11 73.31 73.83 73.35 74.04 74.25 73.87 73.35 72.68 72.06 70.80 69.05 67.80 67.86 67.88 67.96 67.88 68.12 68.34 68.05 67.55 67.50 67.76 67.87 68.39
60.32 57.59 49.62 47.45 47.83 50.70 52.24 52.56 52.82 51.66 52.31 53.04 54.06 53.26 57.23 65.51 69.46 70.35 71.62 71.95 71.61 71.68 72.05 71.92 73.03 73.04 72.71 72.30 72.38 73.02 73.39 73.42 72.60 71.60 70.43 68.98 68.01 67.95 67.72 67.45 67.44 67.46 67.42 67.41 67.67 68.30 68.74 68.42 67.94
54.92 56.01 47.16 44.52 47.08 51.01 52.72 53.64 52.47 52.03 52.42 52.71 53.20 53.83 57.88 67.33 68.99 70.09 71.66 71.74 72.12 71.45 71.59 71.51 71.80 72.42 71.98 71.87 71.98 72.13 72.05 72.95 72.89 72.04 70.37 69.13 68.29 68.06 67.79 67.83 67.88 67.94 67.90 68.14 68.76 69.20 68.24 66.56 65.22
53.57 51.58 47.79 47.40 46.83 48.66 51.02 54.22 52.39 52.29 52.11 51.74 55.00 52.74 58.52 64.99 69.49 69.22 70.57 72.17 72.07 71.97 71.33 71.08 71.14 71.01 70.98 71.38 71.46 71.59 71.47 71.75 72.69 71.76 71.28 70.27 69.27 68.23 67.87 68.22 68.28 68.63 68.96 69.01 69.23 68.21 64.87 64.15 63.60
54.85 53.49 48.91 49.21 46.65 46.93 52.54 52.42 53.43 52.32 51.11 55.42 55.53 52.88 54.99 63.81 68.86 68.70 68.88 69.16 71.53 71.77 71.37 71.12 71.20 70.79 70.29 70.47 70.81 70.65 71.35 71.93 71.84 71.01 70.29 69.13 68.67 68.64 68.42 68.70 68.63 68.73 69.17 69.15 68.68 65.57 63.27 63.04 63.42
54.66 49.21 46.58 47.74 47.57 49.30 51.29 50.34 52.70 53.85 52.73 54.14 54.98 55.95 61.35 64.45 67.53 67.07 66.61 67.56 69.81 70.35 71.11 71.12 70.47 70.05 69.81 70.24 69.67 69.53 69.72 69.64 69.62 69.47 68.37 67.84 68.80 68.49 67.77 67.26 67.98 68.75 68.62 69.23 67.55 64.39 62.48 60.97 60.37
50.76 47.68 47.96 51.94 51.97 50.32 50.60 50.62 52.05 51.80 51.97 52.69 53.77 57.48 64.39 65.85 65.48 64.88 64.66 65.09 66.31 67.95 69.51 70.65 70.36 69.63 69.68 69.29 70.05 68.81 68.61 69.45 69.61 69.40 69.14 68.83 68.66 68.57 67.66 66.45 67.10 68.57 68.99 68.57 66.40 63.94 59.17 57.84 58.85
49.97 46.36 50.34 49.78 51.42 51.04 51.11 51.17 53.10 51.33 50.02 52.61 52.63 55.00 61.60 63.93 65.23 64.89 65.03 66.14 66.19 67.30 68.18 69.00 69.76 70.08 69.75 69.06 69.59 69.33 68.59 68.73 69.06 68.96 68.47 68.67 68.52 69.05 68.83 68.12 67.96 67.89 66.40 67.60 65.05 60.87 60.53 58.55 58.12
45.97 49.12 49.79 50.18 51.08 50.76 50.08 52.45 51.01 52.01 51.57 54.80 56.01 55.58 56.49 62.87 64.37 64.41 64.51 65.55 66.32 67.02 67.86 68.23 68.93 69.49 69.58 69.93 69.34 69.50 68.56 68.38 68.28 68.50 68.54 68.76 68.65 68.59 68.46 68.30 67.51 67.39 67.42 66.53 64.86 61.77 58.59 56.43 55.24
46.84 48.47 49.81 50.75 51.40 51.42 51.68 50.70 50.75 51.51 54.48 55.33 55.14 55.11 55.94 56.49 61.34 66.03 66.94 67.22 67.89 66.84 67.40 68.24 68.94 69.18 68.59 68.78 70.22 69.56 69.14 68.31 67.88 68.58 68.46 68.46 68.29 68.26 68.60 68.03 67.81 67.41 67.22 65.89 64.05 60.95 57.60 55.66 54.35
49.21 48.74 49.31 50.41 50.18 50.34 49.27 50.03 50.27 51.94 54.20 53.73 54.07 54.17 55.31 56.23 56.92 58.50 63.52 66.40 67.98 68.87 68.86 68.96 68.84 69.03 68.83 67.92 68.53 70.26 69.94 69.25 68.56 68.11 68.28 68.45 68.13 68.05 68.04 67.40 67.03 67.18 67.42 65.83 64.00 60.57 57.61 55.90 54.63
49.23 45.42 47.78 48.40 49.22 48.60 50.07 46.39 46.79 52.32 53.51 52.24 52.72 53.53 54.32 55.49 57.05 56.87 58.55 59.52 62.40 66.62 69.27 70.06 70.11 70.14 69.09 68.98 68.78 68.61 70.56 69.91 68.81 68.40 68.19 67.99 67.71 67.64 67.95 67.60 66.89 67.35 67.45 65.60 63.13 59.42 56.90 55.06 53.68
45.80 45.37 40.56 46.67 48.68 48.71 48.08 41.98 47.21 51.06 51.34 50.71 51.67 52.54 53.28 54.41 55.26 56.85 57.82 58.16 59.06 59.44 61.68 66.38 69.13 70.26 69.57 68.92 69.03 69.00 68.62 70.07 69.82 69.15 68.56 67.86 67.32 67.12 67.40 67.37 67.00 67.87 66.95 64.83 61.48 58.40 55.93 54.92 53.53
43.83 37.89 39.50 41.72 47.85 46.97 46.36 42.49 47.50 49.89 49.60 49.69 50.98 51.93 52.46 53.37 54.53 55.93 56.92 57.62 58.32 58.92 59.29 60.05 65.23 68.32 69.57 69.53 68.91 68.88 68.85 68.13 70.35 70.02 68.89 68.16 67.50 66.91 66.24 66.61 66.93 67.29 66.12 63.18 60.50 57.75 56.52 54.11 52.85
36.79 37.56 39.48 39.26 43.66 45.62 44.08 43.23 47.09 49.61 49.13 48.86 49.99 51.01 51.87 52.25 53.50 55.82 56.51 57.28 57.58 58.36 58.78 59.25 60.06 63.92 67.77 69.65 68.42 68.19 67.99 67.62 68.14 69.75 69.39 68.84 68.00 67.17 66.19 65.55 65.94 66.37 65.17 62.38 59.58 57.12 54.92 54.57 53.09
41.76 39.39 37.98 41.38 43.16 42.62 42.68 43.06 45.16 47.83 48.45 48.17 49.09 50.18 50.96 51.96 53.50 53.13 53.64 54.10 54.60 55.57 56.87 57.77 57.95 59.08 62.17 66.29 66.81 66.05 65.28 66.34 66.34 67.28 69.40 69.04 68.25 67.46 66.54 65.49 65.10 65.40 64.01 62.58 59.61 57.21 52.69 50.81 51.62
41.50 38.74 38.29 40.91 42.39 42.48 41.97 41.31 45.17 46.85 47.25 47.92 47.70 48.44 49.41 50.03 49.82 49.43 51.09 51.55 51.89 53.13 54.57 55.65 56.43 57.27 58.50 62.00 66.25 67.64 67.26 66.72 66.82 66.55 66.32 68.59 68.04 67.57 66.43 65.64 65.05 64.55 63.11 62.36 59.68 55.66 51.73 50.65 49.79
40.67 38.52 38.29 38.51 40.60 41.09 39.70 40.25 41.84 41.69 43.76 42.78 43.55 44.17 45.64 47.19 48.56 50.47 51.90 52.84 53.53 52.72 52.50 52.96 54.30 55.64 57.05 58.75 63.44 66.59 67.61 67.35 66.40 65.68 65.35 65.62 68.01 67.25 66.82 65.92 65.38 64.46 62.91 61.84 59.78 55.59 53.11 48.96 48.11
37.61 41.88 40.44 38.28 38.29 35.29 38.90 36.08 40.01 40.53 39.92 42.58 44.31 45.55 46.68 47.96 49.47 50.94 51.97 53.08 53.78 53.72 53.79 53.46 52.98 53.37 54.92 56.80 58.85 62.40 63.90 63.11 64.38 64.98 66.02 65.46 65.87 66.84 66.81 65.75 65.05 63.88 61.96 60.72 59.11 56.54 54.29 53.67 48.05
38.78 41.86 39.15 37.87 37.05 35.96 35.30 34.89 37.55 39.69 38.40 40.69 43.62 45.35 46.69 47.55 48.25 49.74 51.39 52.38 53.96 54.22 54.30 54.33 54.32 53.15 53.36 54.97 57.64 61.43 62.99 63.42 64.06 64.68 65.38 65.27 64.99 65.03 65.69 65.07 64.58 63.26 61.25 61.11 59.26 56.45 54.69 54.28 52.25
40.67 38.87 37.23 37.01 36.05 31.76 33.89 33.11 35.00 36.91 39.26 40.78 42.78 44.45 46.83 47.69 48.38 50.14 52.42 53.38 53.68 55.03 55.13 55.16 54.09 54.17 54.55 53.56 54.80 57.66 61.50 63.01 62.81 63.96 64.53 64.98 64.81 63.54 63.85 63.83 64.05 63.32 61.65 60.75 60.09 57.89 55.14 53.30 53.16
39.33 38.40 31.92 30.29 30.56 30.95 31.53 30.52 36.37 38.71 40.55 42.13 42.72 44.31 46.87 47.92 48.83 50.10 51.45 51.96 52.53 53.05 53.57 53.69 53.67 53.40 54.17 54.28 54.65 54.42 55.89 60.82 62.71 63.29 63.66 63.64 63.60 62.25 61.81 62.61 62.41 62.56 62.10 61.14 60.52 57.25 53.11 51.27 49.27
37.44 38.40 33.66 26.25 26.43 29.54 30.88 29.63 35.88 40.58 41.74 41.82 43.29 44.57 46.21 47.49 49.38 50.46 51.15 51.51 51.69 51.75 52.32 52.63 52.71 52.41 52.81 53.27 53.89 54.69 55.50 55.81 57.90 62.08 62.68 63.00 62.95 63.37 63.11 61.90 61.98 61.90 61.46 60.72 59.48 57.32 54.84 53.18 51.37
34.90 34.58 35.20 30.43 28.46 29.51 32.74 33.79 37.40 39.18 39.34 41.45 43.19 44.35 46.05 47.46 48.95 50.12 50.43 50.61 50.80 51.12 51.29 51.67 52.09 52.65 53.28 53.74 54.57 54.86 55.48 55.46 56.10 58.41 60.69 61.28 62.63 62.74 63.10 62.38 61.29 60.95 60.14 59.53 58.02 56.57 55.14 53.62 52.71
38.19 38.44 31.96 32.67 25.41 26.10 30.17 30.25 34.02 36.16 38.68 41.51 42.37 44.28 46.02 47.55 49.36 49.47 48.80 48.84 50.19 50.82 51.13 51.76 51.79 51.41 52.17 52.91 53.29 53.58 54.70 55.53 56.55 57.47 58.18 58.60 60.76 61.05 60.55 60.89 60.41 59.14 57.64 55.78 54.57 53.50 53.34 51.46 48.82
34.65 34.57 33.25 34.19 31.10 28.22 28.06 31.99 39.17 39.94 41.22 41.37 43.09 45.04 45.72 47.79 48.37 47.32 46.72 47.76 49.43 49.98 49.92 49.87 49.81 49.62 50.43 51.33 51.99 53.01 54.30 55.69 55.48 55.07 54.52 54.66 56.14 57.10 57.30 57.22 56.89 56.41 53.77 52.16 51.08 50.24 48.53 46.99 43.44
37.48 35.91 35.48 31.79 27.26 29.73 30.43 33.04 40.39 41.38 41.68 41.93 43.92 45.29 46.74 47.97 46.43 45.74 45.10 46.30 46.91 46.71 47.05 47.17 47.35 47.19 47.85 49.23 50.69 52.15 53.65 54.54 54.24 52.91 53.17 53.79 53.85 54.03 53.17 52.42 52.29 52.23 51.04 49.84 48.53 47.27 45.79 43.19 41.39

GFSSGP_sfc_wetblb_039.txt.gz
Wetbulb
67.46 67.74 64.73 61.53 52.07 51.33 48.19 48.66 52.12 51.62 51.82 55.21 56.01 54.79 54.24 56.80 56.97 55.89 69.79 71.74 71.82 73.26 73.02 72.95 75.51 75.56 75.82 75.86 75.43 75.52 75.30 74.91 73.85 73.06 72.24 71.26 69.98 68.93 68.48 68.30 71.15 71.88 71.82 71.82 71.16 69.85 68.32 67.82 67.67
66.61 64.90 62.25 58.32 49.00 46.07 47.48 51.93 49.66 52.76 55.09 56.18 56.15 55.78 54.88 55.21 64.53 67.21 69.08 71.57 72.13 73.05 72.54 72.72 74.56 74.91 75.64 75.55 75.71 75.30 74.84 74.26 73.32 72.38 71.49 70.51 68.98 68.23 68.07 68.57 71.22 71.70 71.58 71.07 70.04 68.99 68.02 68.07 68.35
66.11 63.73 57.22 52.91 49.80 46.14 47.85 51.38 51.54 54.18 55.01 55.07 54.82 57.37 57.17 60.12 65.67 67.82 71.49 71.79 72.56 72.52 72.35 73.01 73.89 74.29 75.21 75.36 75.07 74.82 74.88 74.07 73.01 72.09 70.83 69.46 68.22 68.03 68.08 69.04 70.64 70.38 70.01 69.60 69.15 68.68 68.26 68.43 68.58
62.04 59.58 57.84 50.30 47.69 51.06 51.95 51.90 52.33 53.56 55.02 55.64 55.56 54.55 60.60 66.55 66.62 70.02 71.92 71.71 72.09 72.33 72.75 71.98 72.89 73.43 73.76 74.24 74.71 74.49 73.94 73.35 72.29 71.58 70.27 68.55 68.23 68.35 68.50 68.91 68.89 69.02 68.73 68.38 68.06 67.85 68.08 68.40 68.73
61.40 57.62 49.96 48.10 48.55 51.78 53.93 53.80 53.66 52.96 53.61 54.25 55.02 54.54 59.34 67.67 69.92 71.43 71.37 71.66 71.55 71.79 72.65 71.98 73.16 73.48 73.19 73.35 73.99 74.40 74.10 73.29 72.28 71.46 69.77 68.45 68.29 68.30 68.03 67.88 68.11 68.16 68.03 67.77 68.04 68.55 68.59 68.45 67.76
54.33 55.70 47.54 45.87 48.39 51.80 53.98 54.82 53.73 53.36 54.32 53.86 54.06 54.65 60.96 69.18 69.64 70.98 71.62 71.84 72.04 71.29 71.97 71.58 71.70 72.20 72.55 72.15 72.02 73.22 73.44 73.41 72.39 71.56 69.81 68.66 68.41 68.06 67.76 67.74 67.68 67.67 67.67 68.20 69.04 68.95 67.87 66.34 65.75
52.80 51.39 47.63 48.74 48.51 50.07 52.62 55.77 53.14 52.76 53.59 53.49 55.72 53.44 61.11 67.11 70.18 71.09 71.78 71.99 71.99 71.70 71.18 71.12 70.90 70.92 71.28 71.60 71.64 72.01 71.90 72.92 72.69 71.61 70.83 69.78 69.16 68.27 67.92 68.04 68.12 68.25 68.33 68.87 69.40 67.32 65.16 64.76 64.32
55.90 52.38 47.91 49.83 47.94 48.34 54.03 54.36 55.08 53.78 52.90 56.65 56.43 53.13 56.01 65.97 69.77 70.20 71.14 71.65 71.81 71.65 70.99 70.77 70.97 70.72 70.29 70.19 70.92 71.04 70.93 71.20 72.12 70.94 70.18 68.81 68.39 68.61 68.58 68.95 68.78 69.11 69.20 69.23 68.03 64.84 64.10 63.64 64.53
57.26 47.89 45.72 48.89 49.22 50.20 54.53 52.71 55.55 56.03 54.00 54.36 55.49 56.93 62.40 67.18 68.99 67.52 67.22 68.34 70.66 70.87 70.97 70.97 70.57 70.27 69.78 69.56 69.65 69.80 70.41 70.94 70.43 69.69 68.46 67.46 67.46 67.09 67.21 67.44 68.29 68.80 69.04 69.43 66.54 64.00 63.15 62.12 62.64
51.27 48.76 49.33 53.43 53.31 51.94 53.52 52.55 53.44 52.33 52.35 52.71 54.27 58.64 64.27 66.79 66.65 65.33 65.23 65.70 68.64 69.11 70.30 70.62 70.23 69.65 69.39 69.48 69.96 69.10 69.49 69.96 70.08 69.83 69.31 68.44 67.84 67.28 66.49 66.39 67.39 68.61 69.55 68.69 66.16 63.33 61.66 60.79 59.34
50.21 47.19 51.94 53.00 53.08 54.03 53.12 51.87 53.53 51.96 50.32 52.85 52.86 55.78 62.17 64.38 65.94 65.58 65.60 66.99 66.57 68.08 69.33 70.50 70.45 69.86 69.24 68.98 69.72 68.35 68.29 68.45 69.02 69.18 69.24 68.29 67.66 67.94 67.38 67.34 66.09 67.59 66.76 67.43 65.55 63.17 61.01 61.12 59.85
46.95 50.00 51.04 52.67 51.83 50.86 51.03 53.49 51.65 52.35 52.28 55.07 56.15 57.08 57.88 62.84 64.13 65.30 66.17 67.42 68.18 67.61 67.88 68.82 70.35 70.12 69.63 69.52 69.01 69.31 68.32 68.07 68.18 68.42 68.27 67.36 67.78 68.21 67.23 66.85 66.58 65.83 67.63 67.11 65.96 63.70 61.46 59.69 58.60
47.49 49.26 50.87 51.58 51.20 51.10 52.64 51.17 51.19 51.77 54.72 56.18 56.62 56.06 56.36 57.35 61.63 65.75 66.86 67.79 68.12 68.30 68.22 68.28 69.04 69.99 69.90 69.58 69.50 69.51 69.22 68.21 68.10 68.05 68.39 67.97 68.18 68.25 67.87 67.12 66.83 66.70 66.62 66.24 65.20 63.36 60.27 58.56 57.08
49.93 50.02 49.64 50.43 50.52 51.23 49.96 50.56 51.48 52.44 55.04 54.74 54.71 54.64 55.52 56.47 57.84 59.76 65.05 66.63 67.47 68.48 69.00 69.27 68.67 69.57 70.38 68.79 69.72 70.43 70.13 69.83 68.69 68.01 68.02 67.73 67.99 68.12 68.44 67.72 66.50 66.19 67.14 66.36 65.04 63.04 60.43 58.47 56.81
50.00 46.40 48.22 48.38 49.42 49.00 51.16 47.59 48.67 53.39 54.40 53.32 53.50 54.25 54.59 55.10 56.39 57.54 59.63 62.24 66.42 68.33 69.67 69.98 70.04 70.42 69.97 69.81 68.71 69.42 70.96 70.35 69.51 68.72 68.27 67.87 67.73 67.50 67.28 67.43 66.94 66.64 66.53 66.63 65.06 63.12 60.55 58.38 56.72
45.86 46.46 41.05 46.88 48.30 49.44 48.83 42.82 49.96 53.51 52.84 52.24 52.88 53.60 53.88 54.55 55.21 56.30 58.78 60.06 61.23 61.98 63.44 68.26 70.11 70.32 70.31 70.18 70.15 68.53 69.90 70.91 70.36 69.78 69.18 68.18 67.71 67.46 67.04 67.11 67.09 66.64 66.45 66.87 64.97 62.30 58.80 57.62 56.23
44.18 38.02 40.72 42.69 48.33 47.93 46.64 43.95 49.68 51.30 50.70 50.81 51.81 52.42 52.99 53.69 54.88 55.80 56.52 58.43 59.39 60.10 60.79 61.37 63.72 67.69 69.72 70.46 70.01 68.98 68.61 68.77 70.82 70.68 69.92 69.16 68.20 67.41 66.73 66.90 67.48 66.67 66.22 65.70 64.88 61.84 58.97 57.54 56.42
37.81 38.19 41.05 40.93 45.11 46.02 45.03 44.54 48.47 49.53 49.55 49.94 50.66 51.38 51.90 52.51 53.48 55.73 56.66 57.55 58.25 58.95 59.62 60.05 60.89 61.51 65.20 68.54 69.57 68.99 68.23 68.20 68.20 70.30 70.65 69.84 69.17 68.41 67.46 66.67 66.58 67.10 66.36 64.72 64.07 61.45 59.57 58.51 56.60
42.38 40.59 39.52 42.56 45.11 43.96 43.27 44.00 46.09 48.67 49.27 49.07 49.90 50.49 51.10 51.73 54.25 55.34 55.58 55.89 56.16 56.98 57.61 58.34 59.04 59.92 60.79 63.73 65.89 67.81 66.96 66.93 67.11 67.63 69.76 70.17 69.59 68.83 67.94 66.88 66.19 66.26 65.60 64.97 63.84 61.28 58.19 56.77 56.70
42.11 39.97 38.89 42.29 44.50 42.76 42.28 42.46 45.76 47.26 47.74 48.76 49.17 49.87 50.65 51.53 52.56 52.64 52.58 53.70 53.80 53.98 55.52 56.87 57.76 58.84 59.57 60.44 62.70 67.19 67.96 66.63 66.77 67.37 67.37 68.63 69.64 69.31 68.45 67.28 66.20 65.66 64.97 64.80 63.40 60.68 57.30 55.28 54.47
41.05 39.50 38.97 38.74 42.12 43.61 41.72 39.79 42.30 46.08 46.58 46.94 46.30 47.27 48.00 48.88 49.58 51.21 52.53 53.77 54.85 54.42 54.29 54.25 54.99 56.30 57.82 59.11 60.21 61.86 66.80 68.13 67.06 66.15 66.23 67.12 67.95 69.28 68.01 67.70 66.91 66.06 65.20 63.95 63.37 61.04 57.69 53.77 52.85
37.57 43.28 42.00 39.99 38.45 34.01 41.99 33.42 41.36 42.37 41.74 43.68 45.46 47.06 48.12 49.40 50.86 51.77 52.55 53.47 54.61 55.32 56.44 55.97 55.56 55.04 55.14 56.65 57.05 58.27 61.10 63.03 65.76 66.03 67.32 67.34 67.34 67.39 67.85 66.55 66.22 65.90 65.13 63.96 63.17 61.71 57.80 55.64 50.66
40.22 44.48 41.84 40.50 38.38 37.75 37.97 35.37 39.87 41.99 39.06 41.88 44.85 46.87 48.24 49.54 50.47 51.23 52.78 53.93 55.27 56.23 56.41 56.93 56.50 55.67 55.99 54.82 55.35 56.19 57.71 61.31 64.60 64.99 64.77 65.23 66.84 65.96 66.15 66.28 65.94 64.48 64.71 64.11 62.62 61.14 56.87 56.73 54.53
44.34 41.32 40.68 40.23 38.16 31.98 37.52 36.64 37.19 38.27 40.72 42.13 44.66 46.94 48.27 49.41 50.57 51.94 53.57 54.66 54.80 56.08 56.14 56.28 55.73 55.66 56.02 56.01 55.04 55.06 56.45 59.52 61.94 63.16 63.11 63.79 65.10 66.20 64.64 64.14 64.55 64.53 63.60 62.97 61.90 61.10 58.25 56.63 56.43
42.31 38.77 31.84 29.86 30.75 30.33 35.20 33.21 39.19 41.84 43.76 44.27 44.32 46.24 48.41 49.80 50.53 51.21 52.57 53.05 53.67 53.87 54.32 54.55 54.51 54.28 55.23 55.11 55.48 55.79 55.40 55.97 58.00 61.34 62.82 63.29 63.85 64.77 63.50 63.17 63.17 62.92 62.90 62.70 61.74 60.84 58.86 57.17 55.70
39.21 39.07 34.26 26.61 28.99 31.93 33.09 30.00 37.36 42.66 44.49 44.93 45.97 46.53 48.11 49.27 50.90 51.46 52.18 52.30 52.75 52.90 53.23 53.31 53.41 53.45 54.52 54.85 54.64 55.31 55.80 55.70 56.07 56.65 58.65 62.01 62.63 63.31 64.75 63.48 62.16 62.29 62.35 61.77 61.26 60.14 59.81 58.10 55.94
36.82 34.76 38.59 32.91 32.60 31.39 33.32 36.46 39.34 41.44 41.64 42.68 44.23 45.67 47.37 48.73 50.03 51.18 51.36 51.27 51.51 52.07 52.28 52.48 52.59 52.79 53.36 53.66 54.20 54.70 55.45 55.74 55.88 56.42 57.36 58.86 60.82 61.49 62.47 63.39 62.25 61.17 61.58 60.95 60.05 58.98 57.74 55.54 54.50
38.40 40.62 33.09 34.89 27.60 26.78 31.75 33.65 34.68 36.90 38.95 41.85 43.46 45.29 47.31 48.52 50.13 50.40 49.90 49.67 50.85 51.53 51.96 52.33 52.21 51.45 51.97 52.81 53.47 53.46 54.47 55.52 56.47 56.72 56.76 57.71 58.74 59.37 60.57 60.78 60.02 59.41 59.67 59.63 58.57 57.14 56.13 54.53 53.45
34.29 34.19 35.47 36.14 33.48 29.40 29.58 32.50 41.26 39.81 41.98 42.39 44.06 46.05 46.99 48.29 49.36 48.82 48.47 48.91 49.93 50.25 50.12 50.04 50.05 49.58 49.96 50.69 51.65 52.62 53.74 54.78 55.72 55.39 55.27 54.57 54.75 55.42 56.17 56.43 56.62 56.86 57.20 56.05 54.37 53.76 53.04 52.71 51.10
39.56 37.98 38.23 32.96 30.32 32.14 31.26 32.41 41.81 43.69 43.91 43.49 44.65 46.39 47.69 48.92 48.13 47.89 47.21 47.28 47.46 46.50 46.81 47.64 48.37 47.86 48.20 49.13 50.36 51.66 53.05 53.95 54.44 53.94 53.22 53.14 52.96 53.17 52.55 52.44 52.49 52.68 52.90 52.43 51.47 50.04 48.35 48.43 44.61

GFSSGP_sfc_wetblb_042.txt.gz
Wetbulb
66.59 65.58 64.86 58.88 48.42 47.48 44.28 45.89 48.81 49.13 48.34 51.21 52.73 50.54 49.32 51.85 57.60 54.00 66.49 68.88 72.15 71.08 72.33 73.55 75.58 75.78 75.91 76.22 75.81 75.54 75.02 75.23 74.51 73.35 72.31 71.43 70.20 69.40 68.78 70.67 71.74 71.97 72.11 71.74 70.38 69.14 68.57 68.19 68.29
64.67 64.63 60.62 54.57 45.54 41.59 43.38 48.69 47.91 49.45 51.90 52.77 52.54 51.34 50.37 56.62 64.52 64.42 66.39 70.00 72.01 71.21 71.51 72.49 75.43 75.85 76.05 76.01 75.62 75.37 75.21 74.65 73.57 72.41 71.51 70.31 69.16 68.48 68.46 71.86 72.24 72.34 71.88 70.76 69.60 68.52 68.42 68.61 68.77
64.25 64.48 54.38 49.65 46.21 42.41 44.37 49.53 48.86 52.10 52.27 51.97 51.45 52.48 52.67 58.70 64.32 65.67 69.19 69.71 71.41 70.12 70.92 72.41 74.52 75.57 75.70 75.81 75.55 75.33 74.86 73.92 73.08 71.68 70.58 69.28 68.45 68.33 69.48 71.54 71.26 70.97 70.42 69.90 69.21 68.63 68.69 68.96 69.04
60.98 57.75 54.32 46.59 44.46 48.26 48.86 48.89 50.35 51.73 51.81 52.73 52.04 51.07 59.99 65.16 64.54 67.88 69.48 69.91 69.90 69.46 70.81 72.36 73.57 74.73 75.09 74.89 74.92 75.04 74.26 73.19 72.45 71.16 69.63 68.79 68.51 68.60 70.12 70.04 69.84 69.46 69.19 68.92 68.32 68.41 68.65 69.09 68.48
60.22 55.00 46.41 44.63 46.04 49.42 51.61 51.88 50.54 50.61 50.59 51.55 50.84 51.23 59.03 64.68 68.19 68.58 68.42 69.86 68.79 69.56 70.02 70.44 73.52 73.99 73.74 73.90 74.35 74.12 73.44 73.32 72.23 70.77 69.22 68.74 68.75 68.63 68.90 68.73 68.82 68.76 68.53 68.30 68.62 68.80 68.89 68.43 67.57
52.76 52.79 44.16 41.99 45.60 49.63 51.47 52.06 50.05 49.44 51.32 50.57 49.38 51.96 59.45 66.04 67.22 67.74 68.76 68.55 69.38 69.59 69.96 69.92 72.22 72.83 72.91 72.96 73.36 73.93 73.66 73.21 72.38 70.93 69.32 68.78 68.65 68.21 68.11 68.28 68.36 68.22 68.11 68.80 69.37 68.73 67.54 66.59 66.55
50.79 47.98 43.20 45.27 46.53 48.19 50.45 53.02 49.59 49.11 49.57 50.10 51.15 49.23 60.57 65.10 67.69 68.53 68.15 68.66 68.61 69.59 69.33 68.82 69.43 70.58 71.49 71.68 71.88 72.48 73.49 73.21 72.41 71.46 70.38 69.84 69.09 68.27 68.15 68.19 68.09 68.15 68.81 69.44 68.78 66.84 65.82 65.08 65.48
53.43 49.81 45.64 45.98 45.91 47.09 51.98 52.97 52.89 50.65 49.39 53.20 52.84 50.37 56.53 64.61 67.46 68.44 68.38 68.26 68.02 67.90 68.87 67.84 68.10 68.51 67.82 68.71 70.47 70.57 70.65 72.35 71.63 70.82 69.52 68.56 68.24 68.41 68.78 68.96 69.28 69.49 69.36 69.63 67.12 65.47 64.81 65.17 65.11
55.54 46.24 43.00 45.63 46.64 49.41 52.78 50.83 52.67 52.97 50.42 50.50 51.60 57.68 62.67 67.06 67.00 65.86 65.83 66.99 67.37 68.00 67.63 67.76 68.01 67.80 67.36 67.40 68.61 69.74 69.74 69.99 70.16 69.42 67.66 66.56 64.76 65.66 66.45 66.78 68.05 69.40 70.08 69.14 65.87 64.67 63.52 64.14 63.88
49.96 45.64 45.77 49.93 51.88 51.09 52.55 50.93 50.47 49.29 49.50 48.79 50.13 59.45 63.93 65.62 64.65 63.68 63.40 63.65 65.22 66.22 66.80 67.72 67.38 66.73 66.16 67.88 67.47 66.39 68.43 68.13 68.55 68.12 66.29 64.92 64.19 63.85 65.42 65.76 67.41 68.74 69.51 68.50 65.95 64.07 63.02 61.72 54.89
49.32 45.35 50.25 52.07 53.66 52.01 52.38 50.97 51.68 48.76 47.14 49.34 49.00 54.55 60.82 62.93 62.80 63.56 63.53 64.01 64.04 65.76 66.83 67.14 66.71 66.08 65.64 66.02 66.73 65.20 66.77 66.30 67.47 67.66 66.60 65.84 64.72 63.47 64.48 64.16 64.50 65.55 66.02 64.92 63.69 60.74 56.70 54.54 54.71
45.46 49.26 50.14 51.79 52.46 50.93 50.04 52.54 49.58 49.58 48.68 52.13 53.28 54.35 57.11 60.19 61.88 63.04 63.32 64.59 65.00 66.18 66.38 67.45 67.62 66.26 65.45 65.71 65.94 64.86 64.52 65.15 65.03 65.87 67.20 65.85 62.96 63.85 63.25 64.12 62.28 63.40 65.31 64.51 62.37 60.13 58.11 56.04 54.27
46.53 48.11 49.71 50.78 50.34 49.28 51.55 50.06 48.62 49.18 51.67 53.70 54.35 54.25 52.21 52.73 58.46 62.25 64.22 65.10 65.60 65.30 66.94 67.54 67.27 66.84 66.22 65.50 65.15 65.07 64.63 64.59 64.80 64.89 65.03 64.26 63.32 63.88 63.68 63.02 63.44 62.20 64.42 63.39 62.44 59.98 56.26 53.98 52.98
48.25 48.96 48.90 49.32 49.17 50.07 48.63 48.44 47.88 49.37 51.69 52.23 52.57 51.19 51.47 52.51 53.60 53.96 62.66 63.51 64.12 65.71 66.54 67.55 67.80 67.23 67.21 65.92 66.00 65.88 66.33 65.57 64.70 64.33 64.64 64.53 64.15 64.88 63.99 63.38 64.16 62.73 62.99 61.99 61.27 59.62 55.56 53.48 51.59
49.28 44.70 46.86 46.86 48.29 47.72 49.45 45.28 45.54 49.61 50.82 50.49 50.73 51.22 52.48 52.48 53.01 53.64 55.06 59.43 64.25 65.25 67.35 67.17 67.30 67.81 67.08 66.37 66.19 66.44 67.28 67.92 65.47 64.85 64.89 64.64 64.08 64.04 64.63 64.10 63.41 63.65 64.35 63.26 61.07 59.23 56.27 53.34 51.84
45.02 44.23 39.27 45.64 47.12 48.28 47.41 39.57 47.31 50.32 49.30 49.01 49.53 49.59 50.62 52.26 52.96 52.82 53.91 56.19 57.16 58.02 62.20 67.86 69.09 68.33 67.57 67.23 66.66 66.60 66.63 67.28 67.16 66.05 64.97 64.88 64.63 64.16 63.30 63.01 63.72 64.16 63.91 64.42 61.34 58.60 54.62 52.30 50.46
42.56 35.82 38.33 41.63 47.50 46.54 45.12 41.06 47.42 49.55 49.71 47.98 48.43 49.85 49.74 50.03 51.09 51.60 52.67 52.27 55.74 56.02 56.40 57.46 60.98 67.47 67.76 67.74 67.33 67.47 67.49 67.38 67.46 68.62 67.29 65.31 65.20 64.62 63.72 62.72 63.54 64.40 63.63 63.87 63.96 59.02 53.84 51.53 50.49
36.02 36.82 38.98 38.64 44.09 45.31 43.22 42.32 46.34 47.48 46.43 45.45 45.79 46.15 46.68 48.79 50.05 51.03 52.42 52.47 53.18 53.70 54.27 55.22 57.36 58.18 60.09 66.43 67.51 66.92 66.84 67.48 67.69 67.40 67.53 66.78 65.56 65.07 63.61 62.59 62.54 64.79 63.70 63.25 63.47 59.14 54.88 52.91 51.37
40.86 38.76 37.41 41.33 45.16 42.85 41.86 42.89 44.92 46.23 45.52 44.45 45.16 45.79 46.57 47.33 49.33 50.08 51.50 50.93 50.65 51.23 52.13 52.83 53.80 55.20 55.57 56.69 60.98 65.61 65.23 65.20 66.07 67.06 66.74 66.79 67.60 65.51 64.23 63.69 62.65 62.91 63.52 63.54 62.52 58.53 54.92 52.71 51.17
40.39 36.45 37.34 39.60 43.57 41.93 40.62 40.67 44.03 44.52 45.28 46.09 45.67 45.36 45.91 46.46 47.00 47.90 49.50 49.70 50.36 49.60 49.93 50.75 52.05 53.46 54.72 54.75 55.65 59.70 65.58 65.69 65.88 65.39 66.50 66.77 66.43 66.14 64.95 64.31 63.23 62.42 61.81 61.60 61.35 59.02 53.99 51.84 50.28
38.45 36.47 36.66 36.54 40.78 41.39 39.08 36.37 39.36 43.63 45.50 46.40 43.54 43.15 44.37 44.24 45.49 47.11 48.22 49.28 50.00 49.92 50.30 50.89 50.97 51.46 51.73 52.71 54.24 54.73 55.73 63.97 63.05 63.01 64.50 65.90 66.61 65.75 65.69 65.72 63.55 62.68 61.36 61.17 61.13 59.56 56.33 52.33 49.04
35.67 41.12 40.36 38.91 35.91 30.40 39.23 26.11 36.90 41.17 41.36 41.72 40.10 40.67 42.18 44.67 47.26 49.05 49.44 49.67 49.41 51.25 52.51 53.13 53.05 52.25 52.31 51.39 50.82 50.88 51.51 53.04 60.85 64.20 64.76 64.87 65.23 65.46 66.17 65.71 65.09 64.78 62.05 60.77 60.71 60.51 57.70 52.94 49.72
39.34 42.90 40.39 39.37 35.68 33.73 34.50 29.51 34.24 38.57 36.48 38.69 40.71 42.50 43.56 44.92 46.62 48.19 49.44 50.84 50.96 52.58 52.27 52.83 53.20 52.66 51.89 51.46 50.12 49.37 49.99 51.88 53.81 59.25 61.48 63.00 64.41 65.25 64.84 65.08 64.89 64.44 63.94 62.76 59.94 59.47 57.89 54.79 51.66
44.53 40.04 38.85 37.27 34.81 26.41 33.61 32.02 31.97 35.54 38.02 39.44 41.40 42.87 44.50 45.17 46.69 48.02 50.45 50.39 50.57 51.39 51.37 51.35 51.24 51.37 51.93 51.46 51.36 49.61 48.70 49.62 50.91 54.66 58.16 59.55 59.78 62.10 63.17 63.52 64.03 63.64 63.44 63.22 62.70 60.48 59.08 55.67 53.56
40.96 35.62 26.48 25.04 24.43 23.29 33.51 32.06 33.96 38.35 40.55 41.24 41.33 42.79 44.54 45.94 46.37 47.15 48.01 48.51 49.05 48.90 49.78 50.38 50.07 50.02 50.85 50.69 50.30 50.26 50.20 49.87 49.38 49.94 52.22 57.22 59.81 59.90 61.01 61.56 61.59 62.25 62.88 62.82 62.21 60.27 59.27 56.06 54.58
37.08 35.36 28.11 21.88 22.58 24.72 31.16 26.76 33.02 39.39 42.13 43.58 43.30 43.80 44.69 44.97 45.98 47.70 47.88 47.48 47.59 48.87 49.10 48.96 49.09 49.10 49.77 49.86 50.09 50.62 50.80 50.76 50.77 50.93 51.34 51.76 54.34 58.06 60.14 60.66 60.13 60.04 60.68 61.99 61.55 60.65 59.82 58.27 55.90
36.35 30.58 35.40 28.85 27.92 23.78 27.01 30.93 36.19 38.93 39.11 39.96 41.15 42.86 43.12 44.54 45.85 46.77 47.02 46.62 46.81 47.44 47.82 47.97 48.11 48.19 48.57 48.93 49.41 49.20 49.75 50.49 50.86 51.30 51.87 52.23 53.70 57.01 56.65 56.94 59.22 59.03 60.94 60.86 60.33 59.94 58.86 58.59 56.60
37.66 38.67 31.77 28.49 20.06 21.37 25.94 27.81 28.58 33.93 36.23 38.81 39.72 41.22 43.66 44.90 45.96 46.39 45.71 45.40 46.40 47.06 46.96 46.98 47.32 46.59 47.06 47.36 47.47 48.71 48.84 50.41 51.32 51.74 51.45 51.82 52.20 53.22 53.34 54.41 54.90 56.18 58.28 59.11 58.59 57.58 57.15 55.47 53.70
35.00 33.25 33.73 32.35 28.97 23.18 21.62 25.58 35.07 35.91 37.62 37.91 40.49 43.02 43.62 44.68 45.68 44.95 44.55 44.75 45.41 45.06 44.63 45.05 45.46 45.32 44.89 45.36 45.92 46.70 48.17 49.94 51.01 50.78 50.25 50.70 52.29 52.83 52.65 52.53 52.03 53.81 54.22 54.95 54.06 53.43 52.76 52.24 50.97
39.11 36.61 35.94 28.30 25.71 25.85 25.07 26.29 37.97 38.68 39.99 41.22 41.95 43.82 44.78 46.61 45.31 44.84 43.97 43.55 43.27 42.42 42.62 42.97 43.94 43.45 43.22 43.96 44.42 45.83 47.37 48.36 50.20 48.15 48.14 49.96 51.10 51.11 49.75 50.00 49.74 49.72 49.94 50.63 50.06 49.43 48.41 48.78 45.78

GFSSGP_sfc_wetblb_045.txt.gz
Wetbulb
65.70 63.67 60.38 54.88 44.63 42.30 39.17 43.22 43.48 45.99 46.13 47.84 49.69 49.64 48.68 52.78 56.50 52.68 64.27 69.11 69.98 71.72 73.84 74.32 76.04 76.38 76.46 76.18 75.83 75.39 75.37 75.23 74.70 73.21 72.00 71.18 70.31 69.24 69.89 71.85 71.71 72.29 71.75 70.43 69.64 68.82 68.37 68.34 67.89
65.28 63.33 56.63 49.95 41.55 36.54 39.30 44.13 44.50 47.15 49.39 49.21 51.12 49.69 52.87 56.81 62.33 63.41 64.70 70.15 71.16 71.74 72.37 73.36 75.55 76.08 76.27 75.93 75.47 75.10 75.21 74.62 73.88 72.27 71.22 70.06 69.28 68.64 72.12 72.47 72.49 72.20 71.18 69.84 68.81 68.31 68.51 68.74 68.54
64.02 62.05 51.20 45.35 41.22 38.36 39.90 45.19 45.64 48.59 50.75 49.99 48.55 50.75 55.00 57.40 63.56 64.49 66.84 70.34 70.76 70.38 71.57 73.18 75.57 75.95 76.00 75.64 75.26 75.28 74.67 73.91 72.86 71.24 70.12 69.22 68.52 69.89 72.45 72.25 71.98 71.03 70.19 69.31 68.50 68.63 68.95 69.00 68.73
59.57 55.23 50.37 42.86 40.83 44.92 45.56 46.81 48.37 48.82 50.21 50.80 49.67 54.32 59.84 63.34 63.76 67.03 68.28 69.89 69.14 68.98 70.39 73.51 74.91 75.49 75.41 75.24 75.09 74.91 74.03 73.10 71.88 70.38 69.43 68.78 68.69 70.44 71.30 70.80 70.30 69.93 69.54 68.76 68.62 68.63 69.18 68.57 68.22
58.16 51.83 44.07 40.43 42.75 46.47 46.51 49.66 48.66 48.12 48.65 48.59 49.08 52.25 58.26 63.48 66.64 67.25 67.18 68.81 68.17 69.02 70.00 71.02 74.44 74.94 74.90 74.83 74.74 73.94 73.98 72.93 71.40 69.96 69.31 68.84 69.07 69.81 69.78 69.60 69.35 69.12 68.73 68.50 68.63 68.96 68.89 67.93 67.52
51.85 51.67 41.19 39.96 42.60 47.72 48.00 50.16 48.94 47.44 48.60 48.02 50.84 56.05 58.14 63.66 64.81 65.76 67.53 67.94 69.40 68.43 69.09 70.79 72.83 73.26 73.49 73.72 73.78 73.36 73.81 73.18 71.69 70.32 69.27 69.01 68.75 68.79 68.93 68.89 68.81 68.62 68.56 68.87 68.90 68.41 67.57 67.11 66.92
49.28 47.37 42.26 42.80 43.94 46.84 50.07 50.45 46.92 46.74 46.24 47.26 49.97 54.48 58.49 63.09 65.03 66.42 66.46 68.27 68.56 68.43 68.23 68.68 69.72 71.17 71.79 71.85 72.64 72.84 72.96 72.95 71.82 70.72 70.23 69.60 68.74 68.26 68.60 68.61 68.50 68.38 69.01 69.45 68.49 67.06 66.28 65.88 66.07
52.67 49.01 43.42 44.13 43.39 44.67 51.70 51.25 50.04 48.64 46.86 51.02 52.25 53.17 57.39 62.69 66.04 66.93 66.37 67.31 67.69 67.68 67.92 66.47 66.87 68.46 68.52 69.36 70.71 71.07 71.91 71.87 71.43 70.12 69.53 68.43 68.05 68.45 68.53 68.83 68.94 69.28 69.50 69.18 66.85 66.12 65.46 65.46 65.38
55.92 46.13 42.42 43.61 44.87 47.09 52.69 50.74 50.23 50.97 48.93 50.14 53.61 58.53 63.62 65.84 65.88 65.10 65.01 65.19 65.63 66.91 67.12 66.92 66.47 66.47 66.62 67.63 68.65 69.44 69.89 70.50 69.96 68.71 67.45 66.63 64.86 65.86 66.70 66.59 68.15 69.38 70.00 68.37 66.18 65.40 65.01 65.37 64.65
50.28 45.38 44.72 49.86 49.99 49.06 51.19 51.96 50.40 47.65 47.40 47.64 55.07 63.60 65.23 64.93 63.66 62.48 63.07 63.89 63.09 64.19 65.51 66.87 66.86 66.48 66.09 68.57 66.96 66.26 67.22 67.96 67.72 66.39 65.14 64.08 63.56 63.89 65.45 64.96 67.06 69.37 69.54 68.12 66.25 65.01 64.12 61.80 55.61
49.21 44.68 48.93 49.79 51.18 52.15 51.23 51.46 52.85 47.79 44.92 47.05 51.41 60.19 62.72 62.86 62.20 62.11 61.63 62.88 61.58 64.16 64.71 65.23 66.56 65.95 65.39 66.26 65.47 64.36 66.12 65.88 67.19 66.09 64.30 63.52 63.51 62.31 63.02 63.93 65.18 65.12 66.12 64.67 63.81 61.51 57.59 54.21 52.72
44.64 49.38 50.28 51.70 53.12 51.91 50.35 52.17 49.61 48.43 47.59 50.84 50.20 58.57 60.60 60.91 61.97 62.27 62.37 63.25 63.85 64.28 65.64 66.38 65.50 64.06 63.76 66.02 64.79 64.43 65.71 64.94 65.86 66.48 65.32 64.17 62.03 61.46 62.85 63.06 62.89 63.88 64.42 62.75 61.05 59.00 55.84 53.74 53.50
45.32 47.12 50.31 51.12 50.44 50.51 51.96 50.40 49.26 48.29 50.70 52.24 52.57 52.76 54.64 58.53 60.87 62.58 63.56 64.10 64.19 64.30 65.31 65.68 66.40 65.71 63.52 64.73 63.80 62.90 63.93 65.02 65.12 65.73 66.39 65.29 62.33 62.04 62.86 62.37 61.44 62.60 63.88 63.51 61.38 59.96 57.88 55.16 52.19
47.47 48.07 48.19 48.54 48.70 49.22 47.98 49.03 47.73 48.20 50.16 50.93 51.42 50.04 50.12 50.20 52.92 57.97 62.38 62.85 63.96 64.68 65.01 65.89 66.34 66.30 66.01 63.56 63.22 63.17 63.22 64.75 63.52 63.49 64.19 64.58 63.14 63.05 62.75 61.90 61.41 60.28 62.68 63.14 62.97 60.80 56.50 52.68 51.44
46.81 44.14 45.92 46.68 47.11 46.89 47.83 45.06 46.53 48.36 48.61 49.43 48.37 48.86 50.45 50.26 49.75 51.14 59.43 61.75 63.02 65.07 65.75 65.89 66.30 66.66 65.84 65.42 64.65 65.17 65.89 65.28 63.18 63.20 63.59 63.50 62.89 63.38 63.64 62.38 61.67 61.81 61.87 62.21 59.94 59.02 55.44 52.00 50.60
43.78 42.66 37.80 44.71 46.32 47.40 46.02 38.87 45.60 49.20 45.58 47.15 47.14 47.57 48.76 50.72 51.33 50.52 52.09 53.84 59.37 62.51 65.65 66.21 67.70 66.88 66.34 65.90 65.54 65.35 65.72 65.90 66.32 65.14 63.54 63.66 63.63 62.90 63.11 62.87 62.28 62.62 61.92 61.56 60.99 58.09 54.93 51.89 49.25
41.03 34.12 36.77 40.70 46.08 45.71 44.02 38.71 46.02 48.19 46.64 46.71 46.51 47.11 48.36 48.39 50.26 51.06 51.46 50.68 51.28 54.17 60.95 65.89 66.81 66.73 66.71 66.19 66.04 65.91 65.85 65.57 66.17 66.81 65.20 63.93 64.10 63.50 62.59 62.38 62.49 63.24 62.99 62.30 61.85 59.36 55.80 51.00 48.93
34.50 34.86 37.38 37.53 42.90 44.05 41.51 40.44 45.55 45.87 45.95 45.38 45.33 45.05 45.23 47.42 49.16 50.68 51.02 50.30 50.79 50.68 51.54 52.48 56.04 63.76 66.92 67.11 66.24 65.82 65.51 65.70 65.93 65.69 65.93 66.40 64.39 63.84 63.05 62.00 61.62 63.70 63.04 62.63 61.20 59.50 54.53 53.39 50.38
38.90 37.01 35.38 39.48 44.00 41.87 40.78 40.63 44.57 44.69 42.57 43.01 43.60 44.52 45.18 46.22 48.14 48.76 48.11 48.40 49.60 49.31 49.59 49.51 50.90 51.77 53.48 55.97 62.66 64.05 64.55 63.92 63.25 65.27 65.94 65.03 65.45 64.55 62.87 62.95 61.53 63.52 63.01 62.86 62.44 60.44 55.57 51.65 50.11
38.55 35.57 34.64 38.13 43.28 42.34 38.83 39.52 43.03 45.03 42.84 43.87 44.33 44.38 44.84 44.33 45.02 47.06 48.27 48.68 48.89 48.91 49.21 49.34 49.61 49.90 50.23 51.91 52.87 59.43 64.06 64.23 65.60 65.53 65.42 65.90 65.11 64.99 64.61 64.01 61.84 61.25 62.84 62.01 61.66 59.69 54.13 53.06 49.94
36.05 33.33 33.23 35.17 39.45 40.05 36.12 34.49 38.22 42.30 42.84 44.57 44.67 42.99 43.39 43.98 44.25 44.34 46.88 48.27 49.16 49.36 49.88 50.97 50.40 50.33 50.49 49.81 50.33 50.78 52.76 60.87 61.95 62.03 62.46 63.89 64.70 64.91 64.76 63.71 62.31 61.22 60.24 61.31 61.98 60.56 57.66 54.47 51.23
32.92 38.62 38.59 37.53 34.30 29.60 37.36 25.04 32.71 39.85 41.13 42.26 40.59 40.15 41.03 42.73 45.41 47.16 48.21 48.86 49.14 49.78 51.06 51.79 52.17 51.53 51.17 49.86 48.46 47.20 47.75 48.75 56.38 61.57 63.10 63.48 64.18 64.70 64.82 64.40 63.58 62.63 62.29 60.92 59.67 60.68 59.14 55.36 51.82
36.51 40.92 38.56 36.80 33.02 32.24 32.29 26.83 31.79 36.70 36.19 37.44 38.90 39.24 40.26 42.97 45.28 46.98 48.53 50.30 50.95 51.09 50.97 50.90 51.13 50.75 50.66 50.34 49.72 47.24 46.45 47.84 49.63 51.34 55.98 61.76 63.47 64.12 64.17 64.19 63.66 61.74 62.30 62.20 61.11 59.69 57.38 55.66 54.90
42.19 38.59 36.86 34.87 31.82 22.24 31.36 29.39 29.16 32.68 37.45 37.38 38.79 40.29 42.24 43.62 45.00 47.01 48.92 49.46 49.81 49.91 49.98 49.85 49.75 50.15 50.28 49.73 49.02 48.38 47.65 46.82 47.00 47.83 48.74 51.89 57.42 60.53 63.19 64.08 63.95 62.61 61.61 61.99 61.61 60.67 59.17 57.97 55.10
40.74 34.70 26.67 24.34 19.89 21.48 29.51 29.18 32.93 36.99 38.15 39.38 39.26 40.22 41.81 42.73 44.11 45.38 46.64 46.94 47.99 48.04 48.51 49.51 48.61 48.56 48.83 48.99 49.53 49.15 48.41 47.98 47.68 47.92 47.97 48.94 50.86 55.46 58.70 61.31 60.86 60.46 60.49 60.64 60.53 60.21 59.96 59.04 56.47
37.34 33.79 26.53 19.44 18.79 23.32 29.52 25.17 32.06 36.86 40.63 42.81 42.56 42.05 42.92 43.24 43.31 45.95 46.21 45.50 45.79 46.89 46.74 46.96 47.19 47.03 47.61 47.43 47.67 48.12 48.07 48.76 49.50 49.57 49.54 49.97 51.21 53.82 55.63 56.52 59.60 59.14 59.01 59.72 60.97 58.65 58.34 56.75 56.14
36.86 32.81 36.37 28.48 26.44 21.14 25.63 28.46 34.79 36.73 39.19 41.28 40.59 41.68 41.93 42.92 45.30 45.60 44.90 44.80 45.33 45.67 45.77 45.65 45.64 45.58 45.85 45.88 45.91 46.18 46.75 47.78 48.97 50.27 50.72 50.92 51.06 53.29 52.46 53.66 54.54 57.43 58.67 57.78 58.07 59.38 58.66 57.25 55.45
37.86 38.68 29.85 27.42 21.18 18.99 23.17 24.52 27.35 32.02 34.88 38.88 39.57 40.73 41.72 43.95 44.96 44.17 43.69 43.97 44.61 43.97 43.66 44.20 44.64 44.03 43.93 44.10 44.15 45.81 46.21 48.06 49.86 49.72 49.11 49.30 49.92 50.56 50.55 50.58 51.10 52.36 53.59 55.14 56.40 56.75 55.56 55.85 54.64
35.31 33.85 33.14 31.75 27.37 21.83 18.91 24.13 33.09 34.81 36.29 36.57 39.02 41.37 42.27 43.57 43.56 42.86 42.53 42.96 42.36 42.18 42.29 42.61 42.92 42.30 41.74 42.31 42.86 43.85 45.53 47.40 48.98 47.02 47.26 48.14 49.11 48.35 48.03 48.46 48.48 48.59 49.55 50.36 50.83 50.86 52.13 51.96 50.94
39.05 35.61 34.03 25.39 25.12 24.05 22.32 24.90 36.31 36.20 37.38 38.13 39.49 42.64 43.69 44.84 43.74 43.16 42.49 41.29 40.50 40.56 40.92 40.31 40.72 40.66 40.71 41.57 41.83 42.75 43.50 43.85 45.76 44.40 42.91 44.31 44.22 42.51 41.83 42.16 43.01 44.12 45.79 46.51 47.96 47.54 47.26 47.39 45.30

GFSSGP_sfc_wetblb_048.txt.gz
Wetbulb
65.86 63.63 59.07 53.48 44.27 41.37 38.40 42.27 41.71 44.18 44.48 46.92 48.38 54.56 54.93 53.86 54.97 49.14 64.00 68.54 71.31 71.83 73.49 74.94 76.16 76.26 76.29 75.93 75.36 75.30 75.21 74.89 74.15 72.52 71.84 71.10 69.96 69.06 71.72 71.18 72.00 71.37 70.56 69.90 68.91 68.47 68.10 67.77 67.54
64.16 61.66 54.79 48.15 41.03 36.13 38.06 42.74 44.38 46.06 48.74 49.20 49.10 48.39 54.82 56.33 61.13 63.75 64.93 69.85 71.23 72.01 73.24 74.42 76.07 76.24 75.96 75.76 75.34 75.31 75.23 74.29 72.98 71.88 70.83 69.97 68.78 71.39 72.66 72.13 72.35 71.26 70.03 68.94 68.22 68.22 68.25 67.93 67.63
63.82 60.14 50.36 44.67 40.40 37.46 38.67 43.60 44.52 47.60 48.61 48.89 48.07 53.87 55.80 57.32 62.58 63.91 67.61 69.87 71.29 71.26 72.43 74.19 75.70 76.04 75.91 75.34 75.19 75.33 74.74 73.10 72.00 70.93 69.96 68.93 69.51 72.73 72.88 72.57 71.68 70.29 69.33 68.54 68.29 68.70 68.62 68.44 68.10
57.92 54.85 49.05 42.45 40.30 43.41 42.93 45.00 48.37 47.42 48.21 49.54 51.53 54.88 59.48 62.26 63.11 66.07 69.44 70.07 69.24 69.16 70.68 74.17 75.28 75.62 75.34 74.94 75.07 74.60 73.89 72.38 71.36 70.15 69.18 68.62 70.92 72.29 71.73 71.39 70.61 69.72 69.28 68.65 68.56 68.96 68.56 68.19 68.20
56.76 51.04 43.61 39.40 41.45 44.47 47.10 49.11 48.02 46.85 46.77 47.32 49.73 53.32 57.06 63.60 65.55 68.57 68.70 69.21 68.49 69.16 71.32 73.61 75.35 75.42 75.01 74.80 74.70 74.12 73.94 72.17 70.85 69.76 68.92 68.87 70.53 71.12 70.56 70.19 69.78 69.19 68.74 68.45 68.60 68.91 68.19 67.70 67.77
51.23 50.81 40.89 39.28 42.15 46.60 48.16 49.28 46.75 46.88 46.32 47.82 56.09 56.47 56.24 63.07 63.96 66.88 67.38 68.00 69.46 68.98 69.72 71.34 73.64 74.48 74.51 74.38 73.89 73.74 73.55 72.40 70.84 69.96 69.06 69.02 69.59 69.71 69.90 69.61 69.32 68.98 68.63 68.68 68.75 68.57 67.73 67.20 67.10
49.27 46.37 41.80 41.19 43.03 45.54 49.51 52.07 45.35 45.94 45.55 45.77 56.28 54.48 57.65 61.12 65.22 65.58 67.29 68.12 68.52 68.57 68.80 69.53 70.07 71.86 72.27 72.74 72.72 72.96 73.04 72.20 71.26 70.68 70.00 69.17 68.97 68.79 69.09 69.06 68.90 68.77 68.79 68.95 68.33 67.44 66.87 66.63 66.31
51.04 47.93 42.33 43.48 42.48 43.99 51.20 51.77 51.76 47.58 45.52 49.11 56.81 55.65 56.75 61.38 65.47 65.51 66.85 66.64 66.46 67.03 67.95 67.52 68.02 68.65 69.46 70.39 71.31 71.28 71.93 71.28 70.75 70.02 69.45 68.33 67.88 68.44 68.83 68.96 69.06 69.05 69.52 68.81 67.51 66.61 65.81 65.87 65.56
55.26 45.37 40.71 42.72 43.99 45.85 51.95 49.20 52.38 51.90 49.64 53.71 57.08 58.63 62.67 65.08 65.20 64.44 63.72 64.49 65.14 66.14 66.34 65.91 65.81 66.12 66.92 68.01 69.12 70.45 70.65 70.34 69.65 68.75 67.50 66.59 64.76 65.81 66.51 66.47 67.85 69.19 69.91 68.16 66.56 65.90 65.84 66.26 65.37
49.93 44.26 43.76 48.15 48.80 47.94 51.12 50.55 50.89 49.04 48.40 53.15 59.10 63.10 64.36 64.35 63.68 62.85 62.37 62.25 63.48 64.08 65.02 65.73 65.27 65.38 66.07 68.43 67.12 66.62 68.51 68.42 67.26 65.83 65.08 64.28 63.51 64.09 65.82 64.97 67.07 68.82 69.43 68.13 66.56 65.66 65.38 63.71 56.26
50.03 44.38 48.34 49.39 50.95 51.57 50.55 50.60 53.13 48.74 45.93 50.46 57.40 60.48 61.91 61.53 61.69 62.32 62.77 62.94 62.93 64.47 65.19 65.78 65.72 65.44 65.14 66.18 65.59 64.77 65.18 66.47 66.17 64.60 63.81 62.90 63.11 62.42 62.83 62.69 64.72 65.62 66.16 64.73 64.23 61.88 58.22 54.38 51.59
45.83 49.56 50.16 51.04 52.58 51.72 49.90 52.34 50.02 49.33 48.76 50.90 57.60 62.01 60.90 60.51 60.66 61.51 62.24 63.03 63.36 63.26 63.86 64.37 65.31 64.84 64.21 64.80 64.62 63.71 64.51 64.29 65.59 65.10 63.67 62.22 61.29 60.83 61.53 62.11 62.90 63.20 64.42 62.63 61.17 58.94 56.30 52.79 52.05
44.64 48.39 50.55 51.99 52.58 52.04 52.36 50.21 50.33 49.49 52.63 51.26 57.31 59.63 59.81 59.92 60.70 61.79 62.62 63.31 63.64 63.89 64.74 64.77 64.30 62.59 63.56 63.93 63.23 63.10 64.33 64.23 66.03 65.69 64.88 63.63 61.80 60.81 61.63 61.89 61.79 62.48 63.31 62.37 60.73 59.60 58.42 54.96 53.68
47.53 47.87 48.43 49.65 49.55 51.29 48.83 49.15 50.04 50.82 51.40 49.88 51.16 50.97 52.70 57.53 60.21 60.12 61.89 62.44 62.89 63.83 64.41 65.19 65.59 64.95 62.88 63.37 62.75 63.04 63.59 64.49 63.86 65.74 66.02 65.16 63.42 61.66 61.98 61.93 61.38 61.59 63.27 63.60 62.14 60.79 59.24 56.78 53.32
46.36 44.35 45.34 46.16 47.49 46.70 49.24 45.54 47.07 51.73 51.15 48.40 47.33 48.75 50.65 50.49 51.16 59.11 62.27 62.14 63.27 64.14 64.52 64.55 65.63 66.07 65.03 63.00 62.64 62.00 62.37 63.46 62.78 63.83 64.37 65.74 64.42 62.18 62.04 61.95 61.56 61.04 61.33 62.77 61.81 61.11 59.17 55.72 53.21
41.24 42.30 37.75 43.88 45.90 47.24 46.34 39.84 47.98 52.46 48.25 46.33 46.41 46.34 48.30 49.97 50.37 49.35 56.89 61.28 62.51 64.33 64.36 65.15 66.79 66.05 65.39 65.11 64.27 64.16 64.91 65.14 63.50 62.31 62.79 63.64 64.34 62.95 62.12 62.18 61.71 62.02 60.69 61.28 60.66 59.67 57.09 53.36 50.25
37.85 33.74 36.73 39.94 46.16 45.35 43.60 39.64 45.95 49.10 46.14 45.13 44.72 45.87 47.04 48.12 48.45 49.47 49.49 51.12 54.06 60.64 62.13 64.39 65.43 65.67 65.60 65.28 65.41 64.74 64.77 64.73 65.75 65.74 63.70 62.54 63.08 62.76 63.08 62.92 62.75 61.79 61.15 60.46 60.77 59.16 56.11 53.07 50.32
34.70 33.86 37.99 37.24 42.56 43.96 41.94 39.83 44.52 45.31 44.00 44.03 44.18 45.11 45.98 46.74 48.41 49.59 49.19 49.00 48.96 49.43 51.37 55.42 62.56 64.95 65.34 65.45 65.30 64.82 64.53 64.81 64.66 65.44 66.11 66.18 63.32 62.46 61.77 62.19 62.61 62.26 61.78 61.58 60.19 59.65 56.03 53.44 52.24
38.19 34.74 35.66 38.66 43.16 41.76 41.25 40.53 43.83 45.05 41.44 41.17 42.83 43.56 44.55 45.27 45.74 46.58 46.76 46.90 48.37 48.35 48.38 48.97 50.24 49.97 56.63 62.12 63.12 63.02 64.06 63.98 63.62 64.22 65.22 65.12 65.88 64.54 61.81 61.38 60.64 61.34 62.06 62.29 61.68 60.40 57.98 53.76 50.33
38.36 35.03 32.92 37.75 42.17 41.75 39.92 40.10 42.95 44.31 42.52 42.66 42.35 42.52 44.00 43.45 44.19 46.17 46.86 47.14 48.37 48.81 49.65 49.16 49.11 49.61 49.81 50.76 51.95 59.87 63.23 63.65 64.57 64.45 64.05 64.60 64.48 64.33 64.36 62.07 61.18 60.48 62.14 61.07 60.57 60.01 57.05 56.22 51.50
34.81 33.58 32.76 34.00 38.71 39.30 36.87 35.07 38.21 41.85 42.45 43.25 43.47 43.30 43.59 43.98 44.00 44.85 45.73 47.41 48.53 48.99 49.71 50.89 50.95 50.21 49.72 49.50 49.82 50.05 50.81 58.13 61.13 61.41 61.99 63.75 64.17 64.27 63.26 63.50 62.22 60.43 61.20 61.61 61.25 60.57 58.18 58.15 51.96
31.91 37.51 36.96 36.10 34.22 30.21 36.53 26.32 32.93 38.95 39.66 41.22 42.80 40.03 41.63 41.90 42.96 45.86 47.00 47.69 48.46 49.01 49.75 50.62 50.82 50.01 50.46 49.28 48.12 46.65 46.70 47.04 51.52 58.37 60.88 62.29 62.52 63.20 63.73 63.58 62.93 62.65 60.91 60.21 60.62 61.35 60.51 56.80 53.81
35.92 38.98 37.15 35.32 31.81 31.03 30.34 26.73 30.63 34.37 34.11 39.14 40.73 38.69 39.44 41.57 44.58 46.08 47.45 48.92 50.03 49.57 48.64 48.55 48.95 49.25 49.06 48.70 48.24 47.01 46.25 46.25 47.31 48.48 49.38 52.13 56.91 61.14 62.86 63.52 63.28 61.71 61.53 61.19 60.17 58.27 58.63 58.51 58.97
40.78 37.18 35.29 33.61 30.30 21.90 29.19 28.26 28.05 32.39 34.63 35.87 36.76 38.40 39.49 42.02 44.09 46.08 47.40 49.08 48.67 48.61 48.14 47.89 48.18 47.82 48.28 48.37 48.10 47.35 46.52 46.40 46.88 46.79 46.99 47.94 50.34 54.15 57.58 60.87 62.10 62.00 60.70 59.91 59.80 59.01 57.73 58.49 57.34
37.44 32.24 21.24 22.62 22.08 22.49 28.66 27.67 34.03 36.35 38.00 37.84 36.87 38.18 40.64 42.15 43.43 45.01 45.68 46.22 46.80 46.76 46.81 47.95 47.08 46.37 46.82 46.81 46.89 46.88 46.48 46.92 47.57 47.62 48.03 48.86 49.80 51.98 53.31 55.11 57.70 59.27 59.56 59.81 59.24 58.47 58.16 57.38 56.92
36.32 31.99 23.40 19.32 19.83 22.10 28.10 24.81 30.63 37.32 38.81 40.52 40.75 41.20 41.07 41.53 42.09 44.92 45.00 44.45 45.28 45.76 45.58 45.52 45.32 44.94 45.14 44.84 45.01 45.54 45.97 46.82 48.47 49.03 49.60 49.96 50.29 51.37 52.08 53.01 54.24 55.86 57.33 57.73 57.96 57.66 57.34 57.66 56.83
36.45 31.17 34.00 25.51 23.04 18.34 24.14 28.14 33.81 34.35 35.26 39.11 39.57 40.52 40.90 41.76 43.32 44.57 43.97 43.87 44.05 43.72 43.39 43.75 43.70 43.36 43.36 43.41 43.63 44.45 45.61 46.95 48.69 48.91 48.91 48.96 49.25 51.52 50.34 50.69 51.47 52.55 53.73 55.55 56.44 57.91 57.22 55.17 54.56
36.13 38.46 30.32 25.20 19.60 17.73 22.13 23.35 27.08 30.04 34.15 38.53 39.67 40.38 41.23 42.97 44.44 43.10 42.56 43.12 42.71 42.55 42.40 42.69 42.41 41.66 41.70 42.20 42.57 44.69 45.60 48.58 48.41 47.66 46.93 47.64 47.77 47.59 47.52 47.81 48.16 48.79 50.19 51.25 52.23 54.01 54.03 53.29 53.72
35.51 34.45 34.76 32.87 29.10 21.09 19.23 22.97 31.51 32.87 35.57 37.61 39.86 41.31 41.22 43.13 43.03 41.68 41.70 42.02 41.37 41.38 41.24 41.00 40.89 40.63 40.54 41.15 41.80 42.74 43.23 44.65 44.48 43.42 43.91 44.82 42.74 42.16 41.93 43.29 44.22 44.89 45.45 46.45 47.45 47.27 47.45 48.57 49.25
39.49 35.57 34.64 28.87 23.33 24.01 22.20 24.28 34.31 35.10 37.01 39.51 39.75 41.27 42.99 44.58 42.98 41.78 41.08 40.33 39.92 39.74 39.35 39.11 39.52 39.68 39.78 40.35 40.85 41.42 41.47 41.69 41.67 40.92 40.71 41.01 39.78 39.66 39.22 39.35 39.64 40.43 41.25 41.44 42.35 43.46 43.83 45.06 44.17

GFSSGP_sfc_wetblb_051.txt.gz
Wetbulb
65.92 62.87 57.74 52.11 44.05 41.28 38.11 41.46 42.68 43.19 43.21 45.90 48.07 51.51 51.18 54.57 53.66 48.05 63.21 68.10 71.18 72.14 73.92 74.50 75.66 75.84 76.19 76.03 75.14 75.19 74.98 74.34 73.59 72.45 71.82 70.96 69.68 70.16 70.70 72.16 71.44 70.66 69.93 68.90 68.47 68.29 68.15 68.05 68.44
64.19 60.19 53.22 46.92 39.88 35.89 37.98 42.28 43.41 44.97 46.34 47.72 52.59 51.68 55.82 55.30 60.82 62.91 64.79 70.03 71.87 72.39 73.69 74.26 75.79 76.07 75.73 75.43 74.79 75.01 74.37 73.32 72.37 71.68 70.94 69.70 69.24 72.01 71.44 72.33 71.43 70.35 69.19 68.02 67.79 67.64 67.35 67.40 68.19
63.29 58.56 49.31 43.65 39.09 36.98 38.14 43.41 44.64 46.75 47.70 46.87 48.74 55.14 55.88 57.59 62.63 63.97 65.96 70.52 71.31 71.84 73.55 74.41 75.83 75.81 75.63 75.06 74.98 74.87 73.81 72.64 71.79 70.84 69.89 68.78 72.00 72.92 72.39 72.41 71.07 69.76 68.61 68.00 68.19 68.23 67.99 67.91 67.95
56.88 53.65 48.27 41.80 38.75 42.44 42.41 44.60 46.83 46.97 47.84 48.26 52.52 54.39 58.76 62.44 62.84 65.51 69.19 70.40 70.24 70.49 72.10 74.67 75.42 75.54 75.28 75.14 75.15 74.87 73.18 72.14 71.07 69.95 68.84 69.78 72.62 72.93 72.71 71.62 70.38 69.21 68.62 68.19 68.63 68.51 68.29 68.10 68.19
56.16 51.05 42.82 38.88 40.35 43.86 45.30 48.00 47.70 46.03 45.99 46.19 51.53 53.98 55.91 62.32 65.64 68.08 68.68 69.43 68.91 69.58 72.22 73.74 75.40 75.43 75.03 74.83 74.63 74.07 73.12 71.68 70.66 69.39 68.42 70.50 71.91 71.46 71.51 70.80 69.59 69.10 68.64 68.18 68.69 68.41 67.89 67.80 67.86
50.81 49.61 39.86 38.55 40.84 44.76 46.55 49.00 47.71 45.19 45.91 51.79 55.64 55.07 55.13 61.79 65.36 66.96 68.10 67.76 69.61 69.66 71.55 72.93 74.22 74.68 74.50 74.51 74.27 73.83 73.11 71.65 70.46 69.40 68.74 69.17 70.79 70.72 70.18 70.05 69.55 68.93 68.33 68.13 68.57 68.11 67.25 66.82 67.04
49.76 46.34 41.21 41.43 42.42 44.07 46.94 50.91 47.12 46.24 45.11 46.43 57.35 53.67 56.55 60.17 62.84 65.67 66.62 67.73 68.62 69.37 69.57 70.41 72.10 72.87 73.02 73.13 73.40 73.16 72.81 71.76 71.18 70.49 70.00 70.08 69.61 69.67 69.71 69.40 69.08 68.76 68.32 68.30 68.17 67.45 66.71 66.36 66.22
51.29 47.66 43.02 42.96 42.03 43.44 48.90 50.47 51.15 48.76 45.16 50.89 56.91 54.96 55.27 60.41 63.84 65.83 66.54 66.02 66.34 67.32 68.20 67.82 68.83 70.74 71.12 70.70 71.60 71.63 71.61 71.05 70.79 70.09 69.38 68.39 68.05 68.60 69.05 69.05 69.16 68.83 68.75 68.48 67.53 66.33 65.73 65.51 65.32
55.41 44.84 41.40 42.10 43.44 45.44 49.71 49.58 51.47 52.93 48.96 52.48 59.94 57.32 61.10 64.06 65.02 64.20 63.56 63.56 64.76 66.30 66.52 66.76 66.99 67.00 67.43 68.36 69.63 70.52 70.44 69.92 69.54 68.81 67.61 66.41 64.07 65.39 66.32 66.43 67.54 68.93 69.63 68.30 66.62 65.75 65.29 66.27 64.86
49.77 44.58 43.56 46.79 48.35 47.56 49.43 50.26 49.83 48.66 49.04 51.99 57.46 62.31 63.63 63.38 63.59 62.48 62.70 62.36 63.03 63.71 64.91 65.47 65.13 65.37 66.19 68.58 67.51 67.98 68.99 67.90 66.84 65.86 64.89 63.84 63.08 63.55 65.28 64.64 66.76 68.70 69.30 68.32 66.83 66.03 65.52 62.95 55.22
49.40 44.02 47.58 48.57 49.84 51.72 50.31 50.36 51.91 48.49 46.16 46.42 46.61 59.73 61.55 61.92 61.74 62.20 62.02 63.30 63.39 63.64 64.31 65.05 64.57 64.88 65.44 66.11 65.73 65.21 66.37 66.54 65.55 64.40 63.73 62.81 62.86 62.43 63.13 62.39 64.12 64.31 65.68 64.64 64.54 62.32 58.56 54.94 51.29
45.76 48.79 49.56 50.24 52.19 51.08 49.38 51.67 49.94 49.03 49.67 52.19 52.08 53.72 60.35 60.40 61.70 62.00 61.72 62.20 62.19 62.55 63.72 64.64 64.78 64.46 64.24 64.84 64.80 64.35 64.12 65.31 64.74 64.00 63.43 61.76 60.97 60.50 60.94 60.96 61.99 62.88 64.15 63.07 61.17 59.32 57.22 53.64 51.75
43.40 48.09 49.82 52.07 52.03 51.36 52.28 50.16 49.94 49.15 52.18 53.75 52.61 59.12 59.22 59.50 60.02 61.40 62.63 63.04 62.67 62.53 63.49 63.88 64.47 64.10 63.86 63.60 63.59 63.04 63.12 63.97 65.45 64.25 63.47 62.19 60.72 60.09 60.58 60.64 61.27 61.77 62.52 62.25 60.63 59.39 58.26 55.78 52.60
46.73 48.43 49.05 51.03 50.49 51.20 49.43 49.56 49.90 50.88 52.10 51.88 50.53 58.82 58.48 58.56 59.48 59.41 61.43 62.34 62.46 63.43 64.01 64.42 64.07 63.61 63.24 63.26 62.43 62.34 62.78 63.54 64.06 65.15 64.80 63.11 62.15 60.83 60.57 60.73 60.90 60.99 61.79 62.41 61.46 60.11 59.25 58.43 55.87
46.36 43.78 45.84 48.34 49.69 49.19 50.54 46.12 46.88 50.85 51.51 50.05 49.35 49.83 55.24 57.57 59.29 59.88 61.02 61.56 62.56 63.14 64.63 64.52 64.83 64.36 62.65 63.74 62.97 61.63 62.41 64.01 63.24 64.64 65.21 65.09 63.56 61.87 61.25 61.10 60.55 61.16 61.09 61.88 61.57 60.69 59.84 58.48 56.41
40.71 41.13 37.30 44.54 47.70 48.16 48.88 41.33 48.20 51.49 49.83 49.28 48.89 45.91 48.00 49.87 52.82 57.74 60.84 61.75 62.27 63.30 63.53 64.49 66.50 65.26 63.10 63.04 63.26 62.54 62.26 62.26 62.88 62.98 63.33 64.47 64.87 62.88 61.54 61.32 61.11 61.22 59.87 60.68 60.68 60.79 59.53 57.94 56.20
36.12 32.38 35.07 39.34 47.09 45.64 45.44 39.95 47.89 51.15 50.06 49.25 49.83 44.84 46.21 47.37 47.93 48.47 49.82 59.39 60.72 62.36 63.40 63.60 64.48 64.79 65.07 64.47 63.87 63.00 63.22 63.53 63.48 62.92 62.49 62.78 63.75 63.78 62.73 61.90 61.65 60.93 60.48 59.71 60.14 59.24 58.32 56.56 55.11
33.91 31.67 37.31 36.81 42.36 43.48 42.64 39.76 45.38 49.42 49.47 49.24 50.11 45.33 45.04 46.36 48.03 47.36 48.84 47.68 49.49 53.11 57.89 62.14 63.72 64.43 64.70 64.75 64.43 63.89 63.55 63.52 64.06 64.69 64.66 62.82 62.58 62.19 61.74 62.19 61.74 61.11 60.77 60.10 58.86 59.16 56.72 55.56 54.83
36.26 34.14 34.11 36.80 42.70 42.38 41.16 40.72 43.24 45.27 43.26 43.15 42.13 41.97 43.85 45.33 44.77 44.29 45.15 45.92 47.19 47.25 47.42 48.32 51.80 50.02 60.84 62.73 62.50 62.21 62.97 63.16 63.18 64.11 64.94 65.37 65.30 62.87 61.22 61.38 60.82 61.13 61.20 61.26 60.62 59.27 58.55 56.97 51.04
37.40 33.42 32.35 36.53 41.67 41.95 40.10 39.40 43.07 44.93 44.35 44.03 44.51 41.42 42.42 42.60 42.82 44.34 45.35 45.52 47.38 47.50 47.84 48.16 48.27 48.53 48.58 51.10 53.56 61.01 62.12 62.99 63.51 63.75 63.96 64.45 64.55 64.51 63.53 61.45 60.80 60.25 60.76 60.24 60.00 59.58 57.47 56.10 52.35
33.56 33.11 31.70 33.26 37.82 39.08 37.90 36.01 39.34 42.91 43.19 44.43 43.35 42.88 42.12 42.95 43.01 43.98 44.49 45.93 46.98 47.83 48.83 49.73 49.60 49.09 48.78 48.31 48.52 48.81 49.40 54.62 60.32 61.10 61.90 62.95 63.93 63.86 63.34 63.66 62.40 60.80 59.88 60.13 60.08 59.42 58.54 58.81 51.79
31.44 36.88 36.56 35.70 33.32 29.82 37.31 28.67 34.49 39.45 40.22 41.69 44.77 41.61 42.04 41.55 42.08 44.18 45.36 45.82 47.15 48.07 49.06 49.33 48.91 48.82 48.94 48.39 47.55 46.41 46.22 46.28 48.06 51.40 54.70 53.96 59.62 61.63 62.39 62.46 62.10 61.92 60.36 59.49 60.07 60.54 60.09 57.07 56.42
34.89 37.69 35.50 34.23 30.69 29.31 30.75 29.33 32.69 33.72 33.34 39.19 42.34 43.85 40.58 40.64 42.15 44.35 45.66 47.11 48.22 48.34 47.46 47.39 47.94 48.39 48.34 48.07 47.53 46.66 46.24 46.48 47.36 47.58 47.82 48.68 50.45 52.76 57.84 60.23 61.10 60.94 60.50 60.34 59.29 57.95 57.97 58.14 59.03
39.80 35.87 34.06 32.44 29.39 21.60 29.41 29.48 29.27 32.32 35.02 34.22 37.96 40.56 39.82 39.72 42.18 44.62 46.16 47.94 47.24 46.76 46.39 46.51 46.82 46.59 47.26 47.55 47.27 46.73 46.29 46.49 47.01 47.11 47.36 48.58 49.56 52.61 53.94 55.19 57.72 60.43 60.10 59.33 59.25 58.08 57.30 58.05 57.87
37.06 32.76 26.31 24.80 26.30 21.25 27.47 28.26 33.88 36.01 36.64 37.17 37.75 37.69 38.05 40.38 42.94 44.05 45.52 45.70 45.67 45.35 45.64 46.33 45.77 45.01 45.09 45.02 45.35 45.61 45.47 45.96 46.65 47.14 47.37 48.33 49.95 50.96 50.97 52.42 53.56 55.86 59.72 60.35 59.50 57.35 57.33 56.68 57.13
33.90 31.83 23.37 19.36 19.83 21.79 27.49 25.29 31.66 36.36 39.33 39.82 40.16 38.57 38.46 40.46 42.15 44.01 44.72 44.49 44.59 44.75 44.45 44.44 44.24 43.55 43.60 43.45 43.77 44.40 45.27 46.05 47.74 48.31 48.88 48.83 48.90 49.76 50.13 50.47 51.33 52.22 54.16 55.94 56.02 55.98 56.12 56.25 57.32
33.58 27.87 31.63 24.15 21.15 17.16 23.44 26.90 32.91 35.19 36.05 36.81 37.05 38.52 38.94 40.27 42.33 43.61 43.30 43.41 43.38 42.86 42.84 42.96 42.58 42.03 42.24 42.22 42.98 44.24 45.28 46.28 47.49 46.88 47.17 47.40 47.40 49.73 48.39 48.43 48.82 49.45 51.18 52.41 55.84 57.72 56.85 56.41 55.40
34.85 36.61 28.59 22.96 15.52 17.18 20.65 22.36 26.61 30.04 33.14 35.66 36.66 38.50 39.71 40.79 42.62 42.55 42.18 42.57 41.94 41.88 41.70 41.31 41.24 40.56 40.65 41.21 42.00 43.32 43.94 45.63 45.22 45.25 45.21 44.79 43.67 43.71 44.13 45.33 45.45 45.92 46.40 47.87 49.49 50.38 50.74 51.90 51.43
35.33 33.35 32.80 30.60 25.24 19.96 19.13 23.38 30.41 31.33 32.98 34.44 36.45 39.85 41.09 42.28 42.97 41.61 41.50 41.43 40.92 40.76 40.23 39.88 39.79 39.66 39.50 40.17 41.18 41.29 41.78 42.38 41.97 41.63 41.62 40.96 40.23 40.06 39.96 40.49 41.23 41.58 41.58 42.67 44.31 44.62 44.80 46.20 46.47
38.54 36.08 33.39 28.89 24.32 22.20 20.36 23.75 33.05 32.60 33.43 36.79 38.23 40.16 41.14 43.80 42.81 41.46 41.36 40.18 39.91 39.10 38.81 38.65 38.67 38.63 38.68 39.52 40.54 40.19 40.41 40.52 40.34 39.81 39.62 39.56 38.62 38.69 38.52 38.77 38.74 38.77 39.01 39.02 39.43 40.28 40.64 40.76 40.27

GFSSGP_sfc_wetblb_054.txt.gz
Wetbulb
66.23 62.18 56.52 51.23 42.80 40.46 35.37 39.57 42.49 43.44 41.65 45.17 46.41 48.49 49.13 53.85 52.65 46.99 62.21 67.31 70.44 72.13 73.63 74.31 75.55 75.64 75.79 75.72 75.01 74.95 74.64 74.08 73.36 72.43 71.70 70.62 69.92 71.10 72.57 71.42 70.86 70.20 69.00 68.68 68.79 68.84 68.91 69.30 69.89
64.34 58.24 52.59 46.19 38.44 33.80 36.06 41.43 42.57 43.97 44.92 50.93 51.20 52.36 54.25 53.49 60.39 62.36 64.65 68.95 71.26 72.42 73.20 73.41 75.45 75.80 75.99 75.59 74.87 74.70 74.06 73.19 72.27 71.64 70.91 69.66 70.42 71.22 72.55 71.76 70.85 69.62 68.13 67.91 67.68 67.52 67.72 68.65 68.93
62.12 57.80 49.13 43.14 37.40 35.08 36.27 42.38 44.03 46.40 47.01 46.22 50.17 55.59 55.22 56.19 61.97 63.57 65.06 71.04 71.59 71.72 73.09 73.65 75.18 75.83 75.56 75.10 74.96 74.43 73.33 72.43 71.53 70.68 69.55 69.65 72.21 71.74 72.71 71.77 70.38 69.03 67.95 68.10 68.13 67.82 67.89 68.31 68.19
56.87 52.59 48.80 40.62 37.06 40.77 41.11 43.09 46.03 46.84 46.75 46.22 51.19 52.42 57.85 61.99 63.27 64.82 69.80 70.78 70.70 71.93 72.25 74.39 75.32 75.48 75.17 75.07 74.94 74.14 72.87 72.05 70.89 69.69 68.75 72.04 72.76 72.38 72.52 71.39 69.71 68.84 68.02 68.37 68.36 68.29 68.19 68.21 68.40
55.79 50.40 42.77 38.86 39.92 42.22 43.79 46.83 47.69 45.03 45.39 44.56 51.09 52.16 54.33 61.89 65.45 68.40 69.15 70.05 69.93 71.50 72.47 73.93 75.33 75.36 75.06 74.99 74.72 73.88 72.60 71.50 70.30 69.09 68.88 71.99 72.64 72.64 71.79 70.85 69.49 68.84 68.14 68.53 68.58 68.28 68.07 68.15 68.10
50.26 48.70 39.57 36.83 39.79 44.17 45.37 48.33 46.75 46.79 44.76 49.22 53.95 52.37 53.62 60.60 64.19 67.03 68.79 68.73 70.39 71.06 72.11 73.35 74.21 74.72 74.52 74.60 74.15 73.52 72.78 71.22 70.10 69.32 69.32 71.46 71.70 71.54 71.15 70.24 69.31 68.79 68.15 68.08 68.27 67.83 67.39 67.42 67.53
48.22 44.76 39.21 39.99 42.17 43.81 46.33 49.69 46.93 46.99 45.47 44.22 55.94 50.67 54.47 58.58 63.87 66.27 66.56 67.73 69.01 70.16 70.33 71.46 72.18 72.93 73.15 73.49 73.31 72.99 72.57 71.73 70.79 70.25 70.12 70.77 70.68 70.70 70.19 69.70 69.14 68.60 68.01 67.96 67.98 67.30 66.89 66.70 66.72
51.43 47.53 41.14 41.26 41.82 43.04 48.53 49.60 49.98 48.95 46.36 50.75 55.85 52.13 53.94 60.39 64.36 65.82 66.06 66.32 66.95 67.94 68.64 69.14 70.08 71.05 70.93 71.37 72.17 71.89 71.53 71.14 70.79 69.99 69.49 68.74 68.25 68.99 69.86 69.17 69.12 68.62 68.33 68.15 67.38 66.34 65.88 66.03 65.81
53.29 44.85 41.07 41.66 43.04 44.89 49.45 47.51 50.91 51.85 49.29 51.05 59.08 58.73 61.32 63.11 64.83 63.69 63.35 63.25 64.87 66.55 66.60 67.01 67.78 68.39 68.73 69.31 70.36 70.67 70.31 69.86 69.48 68.59 67.46 66.28 63.99 64.67 64.87 66.48 67.55 68.92 69.25 68.35 66.97 65.97 65.33 65.28 63.46
49.35 44.42 43.66 46.79 47.94 46.68 49.80 49.59 49.24 48.79 48.65 46.64 50.79 54.73 61.53 62.54 63.85 62.64 62.05 62.32 63.19 64.13 65.16 65.98 66.05 66.25 66.47 68.65 68.05 69.38 68.64 67.23 66.44 65.70 64.57 63.21 62.32 63.10 65.00 64.37 66.34 68.34 69.21 68.46 66.54 65.66 65.46 61.17 54.74
49.15 44.28 47.89 47.61 49.29 51.22 49.69 50.00 51.29 48.14 46.02 46.99 48.60 51.29 55.54 61.22 60.90 61.73 61.96 62.75 63.70 63.05 64.48 65.06 64.87 65.20 65.69 66.26 65.94 66.18 66.71 65.93 65.18 64.24 63.34 62.42 62.32 61.83 62.54 61.85 63.47 63.53 64.82 64.32 64.27 61.57 58.50 54.83 51.23
44.44 47.22 49.30 49.69 51.24 50.66 48.75 50.70 48.17 48.55 49.24 51.70 51.60 52.11 52.99 59.27 59.86 61.09 61.53 62.19 62.10 62.90 63.67 64.42 64.42 64.20 64.31 65.06 64.99 64.67 65.45 65.26 64.22 63.72 63.12 61.64 60.73 60.32 60.53 60.44 61.16 61.94 62.82 62.67 60.93 59.36 58.02 54.70 51.69
43.94 46.35 48.57 51.25 51.16 50.45 51.76 49.87 49.76 49.45 52.23 52.96 51.84 52.07 56.12 59.44 60.28 61.37 62.47 62.79 62.17 62.25 62.99 63.74 64.00 63.59 63.82 63.60 63.84 63.46 63.26 64.64 64.60 63.48 62.94 61.80 60.44 59.74 59.71 59.47 59.93 60.83 61.82 62.15 61.08 59.40 58.31 56.60 54.00
47.92 48.69 48.17 50.28 50.07 51.09 48.99 49.44 50.29 50.82 52.51 51.12 51.19 51.04 52.34 58.22 59.82 60.17 61.51 62.05 61.83 62.71 63.01 63.80 64.03 63.98 63.60 63.03 62.85 63.01 62.71 63.31 64.16 63.88 63.11 62.21 61.12 60.19 59.69 59.78 59.81 60.11 61.15 61.70 61.38 60.12 59.01 58.25 57.28
47.50 44.90 46.88 47.92 49.41 48.95 49.69 45.94 46.42 51.12 52.20 49.94 49.56 49.99 49.45 52.64 59.13 60.36 61.67 61.48 61.99 62.33 63.73 63.83 63.87 64.12 62.81 62.86 62.86 62.14 62.48 63.41 62.57 64.26 64.12 63.17 62.20 60.91 60.55 60.05 59.68 60.17 60.48 60.95 60.86 60.32 59.36 58.41 58.13
42.57 42.66 39.97 44.74 47.90 48.69 47.48 40.58 46.92 51.42 50.22 48.52 48.72 49.53 48.94 48.76 51.32 58.75 61.05 62.16 62.41 62.63 63.17 64.21 65.73 64.26 62.61 62.82 62.95 62.36 61.59 62.17 62.58 62.57 63.51 64.42 63.97 62.57 60.92 60.37 60.12 60.59 60.04 60.09 59.83 59.68 58.95 58.20 57.68
38.85 34.15 33.79 39.61 47.88 47.43 45.17 40.84 47.98 51.13 49.89 48.02 48.60 49.10 48.81 46.92 48.19 49.15 52.28 59.97 61.34 62.06 62.47 63.03 64.15 64.18 63.26 62.58 62.49 62.18 61.89 61.36 61.89 62.16 62.33 63.03 64.30 63.91 62.66 61.68 61.61 60.47 59.79 59.03 59.48 58.93 58.71 57.45 57.38
33.94 30.50 33.33 34.33 43.63 45.63 43.50 39.38 46.79 49.65 48.09 47.73 49.10 49.42 47.00 46.28 47.57 48.74 48.05 48.34 54.92 57.78 60.63 62.05 63.09 63.65 63.93 63.67 63.09 62.26 61.83 62.00 62.60 62.76 62.12 61.93 62.42 62.89 62.83 62.67 61.75 60.50 59.84 59.40 58.33 58.76 57.19 58.55 57.61
35.13 33.81 33.58 35.19 41.45 41.20 42.87 42.44 42.76 48.27 47.37 46.72 47.96 49.23 44.90 45.18 47.75 45.45 45.20 45.25 46.01 47.83 51.44 55.87 60.35 59.38 62.70 62.19 61.71 61.37 61.74 61.97 62.03 63.16 63.98 64.29 62.80 61.52 60.84 61.22 60.59 60.66 60.40 60.62 59.76 58.63 58.32 56.52 53.09
35.92 32.99 30.46 35.26 40.11 41.17 39.16 40.18 43.81 43.85 46.66 47.90 48.20 48.51 46.49 43.51 43.11 44.41 43.76 44.40 46.63 46.40 46.98 47.49 48.45 48.34 52.14 57.48 59.06 61.50 61.30 61.66 62.20 62.63 62.98 63.73 63.85 63.97 62.85 60.75 60.36 59.99 60.39 59.75 59.45 58.47 56.14 56.21 52.63
32.34 32.60 31.46 33.33 36.91 37.14 37.42 36.36 39.38 43.32 43.49 44.90 47.07 48.09 44.78 42.83 42.65 42.90 43.41 44.88 45.80 46.64 47.30 48.40 48.49 48.28 48.20 48.01 48.14 48.36 48.97 51.65 57.97 59.80 60.77 61.81 62.91 63.48 63.28 63.27 62.50 60.69 59.58 59.49 59.18 58.61 58.21 58.09 52.36
30.68 36.55 35.76 34.96 33.58 28.23 35.28 28.17 35.90 41.23 42.14 42.46 44.61 45.70 43.67 42.44 41.49 42.73 43.64 44.66 45.98 47.12 48.24 48.35 48.31 48.20 48.28 48.03 47.15 46.12 45.94 45.94 46.96 48.54 50.31 50.04 52.45 56.14 60.13 61.51 61.88 61.63 60.50 59.26 59.54 59.38 59.13 56.99 58.55
34.02 37.18 35.22 33.65 30.08 28.28 27.85 28.17 32.68 34.40 36.45 42.68 45.02 44.11 43.96 42.41 42.11 42.45 44.02 45.67 46.33 47.43 46.68 46.64 47.60 47.90 47.84 47.82 47.26 46.55 45.87 46.15 46.77 47.16 47.62 48.07 49.21 51.29 54.45 55.39 56.83 59.33 60.58 61.15 59.24 58.03 57.01 57.43 58.60
37.89 34.78 33.48 31.10 29.49 20.64 27.79 28.42 30.37 32.38 34.52 37.07 39.16 42.98 44.17 41.72 41.31 42.49 44.41 46.42 46.23 45.46 45.51 45.95 46.32 46.25 46.81 46.84 46.60 46.37 46.22 46.39 46.87 47.09 47.31 48.40 49.46 52.14 52.03 53.03 53.62 57.30 59.03 59.71 60.39 59.53 57.79 57.14 58.17
35.77 32.51 23.03 23.82 21.68 20.71 26.15 26.60 32.48 35.15 36.99 37.20 38.74 39.63 40.24 39.43 39.01 41.94 44.39 45.31 44.62 44.45 44.71 45.25 45.11 44.14 44.47 44.66 44.96 45.16 45.28 45.61 46.31 46.96 47.32 48.33 49.66 50.30 50.24 50.74 50.98 51.96 54.26 58.21 59.97 59.51 58.76 57.55 57.46
34.12 32.88 23.47 18.73 19.47 21.10 26.65 24.34 29.86 35.81 37.29 38.91 40.60 40.05 39.11 38.59 39.68 43.27 45.00 44.30 44.08 44.26 44.10 44.02 43.36 42.60 42.87 43.04 43.62 44.54 45.28 45.86 47.29 48.06 48.37 48.02 48.12 48.70 49.09 48.80 49.13 49.72 51.38 52.99 57.52 57.82 57.76 57.45 57.19
32.89 30.70 30.56 22.90 19.25 16.61 23.30 26.28 31.60 33.66 35.07 36.63 37.12 37.00 36.84 39.19 41.60 42.78 43.47 43.40 43.10 42.82 42.72 42.59 41.87 41.31 41.41 41.81 42.94 43.45 45.09 45.83 46.61 46.08 46.43 46.39 45.43 47.43 45.77 46.11 46.31 46.92 47.85 49.66 54.60 55.37 54.75 55.80 54.89
34.18 35.55 27.08 22.83 14.37 16.84 20.14 21.12 25.68 30.89 33.22 34.70 36.15 36.57 37.14 39.93 42.31 42.43 42.10 42.21 41.80 41.81 41.16 40.85 40.80 40.20 40.06 40.81 41.66 42.40 42.79 43.72 43.84 44.29 43.22 41.77 41.16 41.28 41.44 42.08 42.56 42.73 43.48 45.52 47.40 49.59 50.76 50.42 49.21
33.50 30.84 31.54 29.25 24.31 18.25 17.72 23.07 29.54 31.37 33.09 32.28 33.55 36.98 38.12 40.03 42.09 41.72 41.38 40.93 40.54 40.12 39.62 39.26 39.29 39.23 39.05 39.66 40.21 40.30 40.89 40.99 40.80 40.26 39.61 39.26 38.94 39.13 39.28 39.70 39.83 39.82 39.68 40.62 42.32 42.60 43.76 45.64 44.26
38.90 33.60 31.87 23.93 21.91 21.09 19.78 25.89 33.58 32.54 33.04 33.03 34.67 36.79 38.78 41.44 42.21 41.10 40.76 39.40 39.06 38.55 38.30 38.08 38.30 38.31 38.31 38.91 39.16 39.14 39.37 39.38 38.94 38.47 38.29 38.32 37.68 37.96 37.97 38.04 37.71 37.58 37.70 37.45 38.02 38.56 38.78 38.81 38.43

GFSSGP_sfc_wetblb_057.txt.gz
Wetbulb
66.26 62.69 58.85 55.52 47.56 45.69 40.44 42.97 47.02 46.87 47.21 50.60 51.60 52.43 54.08 57.52 55.30 50.93 65.88 69.71 70.40 72.15 74.14 74.33 75.39 75.58 75.74 75.73 75.34 75.11 74.57 74.14 73.22 72.32 71.48 70.40 71.78 72.78 71.49 71.30 70.48 69.16 69.32 69.64 69.74 70.03 70.59 70.51 70.11
65.30 60.39 56.06 50.77 43.18 38.82 40.30 45.33 45.29 48.17 50.21 51.29 53.99 56.28 57.90 57.57 62.91 63.15 66.51 69.61 71.71 72.84 73.79 73.89 75.34 75.57 75.86 75.69 75.12 74.88 74.01 73.15 72.21 71.63 70.73 70.17 71.58 72.88 72.00 71.40 70.05 68.53 68.49 68.19 68.25 68.62 69.51 69.63 69.25
63.09 58.08 52.60 47.61 41.91 38.54 39.73 45.82 47.67 49.85 50.79 50.33 53.24 59.23 59.52 59.49 63.96 65.28 68.11 71.28 72.44 72.88 73.75 74.17 75.18 75.81 75.74 75.30 74.98 74.30 73.23 72.37 71.54 70.62 69.56 70.75 71.50 72.79 72.14 71.09 69.58 68.37 68.51 68.29 68.14 68.26 68.93 68.78 69.05
58.47 54.73 51.56 44.39 40.35 44.05 44.65 47.30 48.95 49.63 50.40 50.26 55.25 57.10 61.65 64.19 64.99 67.08 70.65 71.12 72.22 72.76 73.62 74.11 75.25 75.47 75.27 75.13 74.93 73.90 72.70 71.86 70.87 69.45 70.06 72.40 71.87 72.88 72.29 70.55 69.16 68.42 68.80 68.61 68.59 68.62 68.66 68.84 68.87
57.05 51.87 44.56 42.32 42.40 45.34 47.33 49.33 50.09 49.06 48.05 50.11 55.56 56.04 59.59 64.49 67.64 69.77 70.95 71.48 70.94 72.16 73.46 73.99 75.39 75.37 75.11 74.94 74.47 73.70 72.36 71.45 70.16 69.32 70.62 73.14 72.41 73.00 71.87 70.17 69.23 68.57 68.83 68.85 68.49 68.43 68.59 68.47 68.61
51.83 50.66 41.66 39.62 42.31 45.99 48.30 50.87 49.90 49.59 49.04 49.99 57.12 58.13 59.67 64.83 66.41 68.74 70.06 70.93 71.07 71.58 73.50 73.92 74.13 74.64 74.61 74.59 73.87 73.28 72.59 71.02 69.80 70.28 72.16 72.88 73.05 72.32 71.11 70.03 69.35 68.76 68.34 68.71 68.46 68.05 67.92 67.94 67.89
49.89 46.87 41.62 41.37 42.88 44.94 48.15 51.68 50.07 49.74 48.40 50.24 56.84 56.70 60.49 64.17 66.98 68.56 69.76 70.94 70.72 72.26 73.25 73.65 73.81 73.52 73.39 73.45 73.17 72.84 72.43 71.55 70.68 70.45 71.57 71.98 71.75 71.32 70.92 70.05 69.19 68.70 68.20 68.44 68.33 67.66 67.32 67.28 66.87
52.18 48.20 43.06 43.52 42.63 43.81 49.80 51.09 51.81 51.06 50.15 54.04 60.85 55.46 57.51 62.98 66.52 68.17 69.46 70.20 71.16 72.14 72.53 73.01 73.39 73.01 73.24 73.38 72.01 71.69 71.53 71.07 70.65 69.95 69.61 68.56 68.71 70.14 70.43 69.26 69.45 68.71 68.28 68.22 67.60 66.91 66.41 66.57 66.00
54.63 45.88 41.76 42.93 43.83 45.79 50.88 49.57 52.16 53.05 52.75 53.46 56.48 56.11 59.46 64.37 65.86 66.12 66.65 67.40 68.92 70.00 71.17 71.89 72.15 72.45 72.54 72.89 71.64 70.74 70.37 69.92 69.23 68.75 67.49 67.31 68.25 68.50 68.62 67.25 67.97 69.06 68.92 68.20 66.87 65.93 65.69 65.02 64.10
50.38 44.43 44.60 47.97 48.23 47.67 50.24 50.39 50.72 50.66 49.74 49.87 52.43 55.25 56.15 63.84 63.53 64.30 64.69 64.78 67.08 68.20 68.89 70.07 70.68 71.05 71.26 71.35 72.09 70.44 69.60 69.94 69.11 68.40 68.01 67.38 67.13 67.67 67.48 66.07 66.48 68.36 69.15 68.56 66.55 65.69 65.10 61.62 61.82
49.53 44.52 48.01 49.19 50.31 51.81 50.25 50.01 52.03 49.87 48.11 49.89 50.41 52.26 54.43 58.08 62.45 62.77 64.29 65.46 66.30 67.57 68.04 68.36 69.05 69.58 69.94 70.22 70.60 70.05 68.96 69.14 68.60 67.87 67.12 66.24 65.74 66.77 67.39 67.24 67.40 68.34 66.33 68.81 67.51 66.19 64.55 61.11 59.56
46.37 48.73 49.43 50.03 51.44 50.73 48.95 51.35 49.55 50.32 50.83 52.94 53.49 52.84 54.40 56.28 60.93 62.18 63.25 64.29 65.22 66.20 67.59 67.74 68.18 68.31 68.59 69.05 69.14 69.41 69.03 68.67 68.07 67.51 66.77 65.81 65.06 65.21 65.65 65.55 66.05 66.84 67.60 67.61 67.40 66.28 64.87 62.68 59.19
46.11 47.83 49.54 51.15 51.08 50.84 51.79 50.07 50.09 50.44 52.92 54.52 53.13 53.47 52.93 55.53 60.46 63.29 63.88 64.21 65.20 65.69 66.49 66.93 67.31 67.41 67.50 67.94 68.17 68.36 68.99 68.89 68.60 67.51 66.72 66.07 65.16 64.56 64.59 64.73 64.80 65.66 66.65 66.71 66.72 66.07 64.93 64.01 62.58
47.98 48.35 48.11 50.18 50.12 51.11 49.34 49.32 50.27 51.28 53.01 52.52 52.67 52.62 52.83 52.46 58.30 62.11 63.05 63.84 63.62 65.46 65.84 66.67 66.71 66.88 66.87 67.06 67.24 67.48 67.53 68.36 68.63 68.22 67.25 66.08 65.65 64.99 64.12 63.76 63.56 63.96 65.21 66.07 66.48 66.11 65.32 64.55 63.86
47.39 44.96 47.02 48.04 49.13 49.33 50.79 46.41 47.16 51.50 52.64 50.94 51.28 51.85 52.60 52.80 53.47 60.63 62.98 63.77 64.27 65.02 65.94 65.92 66.61 66.79 66.48 66.59 66.83 66.85 66.95 66.65 66.94 67.87 67.86 66.75 65.95 65.33 64.78 64.09 63.60 63.99 64.46 64.65 65.19 65.22 64.97 64.32 63.99
43.01 43.78 40.11 46.56 48.65 49.32 48.97 40.55 48.12 51.59 51.33 50.53 50.63 51.25 51.56 53.01 52.36 53.25 61.25 63.69 64.57 64.58 65.03 66.06 66.54 66.44 66.38 66.26 66.51 66.45 66.22 66.42 66.72 66.62 67.07 67.36 66.90 66.13 65.32 64.62 64.29 64.89 64.49 64.34 64.22 64.26 63.89 63.69 63.60
40.22 36.22 37.27 41.33 48.31 47.68 46.34 42.37 48.00 51.31 50.70 50.17 51.44 51.10 51.13 52.31 53.06 52.04 52.94 60.99 64.06 64.75 64.90 65.37 66.35 66.46 66.25 66.18 66.19 66.18 65.86 65.29 65.67 65.77 65.60 65.90 66.52 66.73 66.12 65.64 65.64 65.30 64.68 64.24 63.97 63.57 63.36 63.17 63.04
34.56 34.54 36.29 38.22 45.39 46.54 43.85 41.65 47.46 49.79 49.83 49.67 50.74 51.44 51.74 51.41 52.01 52.79 51.70 51.45 54.26 63.17 64.45 65.36 65.75 66.49 66.40 65.69 65.19 65.29 65.18 65.34 65.40 65.32 65.52 65.80 65.96 66.26 66.33 66.12 65.80 65.46 64.70 64.34 63.67 63.21 62.91 62.45 62.55
37.16 36.59 36.17 38.70 44.93 44.86 43.89 43.52 44.28 48.98 48.20 47.87 49.48 49.86 49.68 50.55 52.07 50.99 50.55 49.90 50.59 53.29 58.32 63.65 64.29 64.99 65.62 65.15 64.65 64.34 64.10 64.77 64.97 65.41 65.77 65.59 65.32 65.06 65.06 65.30 65.27 64.91 64.18 64.40 64.05 63.15 61.75 61.57 60.62
38.77 34.46 35.16 38.30 42.62 43.37 42.12 42.66 45.61 46.65 47.69 48.11 48.46 50.57 51.82 49.99 48.08 48.23 48.84 49.15 49.60 50.55 52.33 54.54 60.79 61.13 63.53 64.49 64.60 65.16 65.21 65.62 66.01 66.19 66.07 66.22 66.40 66.49 65.75 64.66 64.12 63.82 63.43 63.30 63.24 62.48 61.53 61.27 59.48
35.06 35.75 33.46 35.27 39.28 40.66 39.12 38.06 40.55 44.70 46.98 48.60 49.07 50.24 50.68 50.40 47.94 47.36 47.83 48.07 49.23 49.56 50.12 50.80 51.29 51.71 52.62 54.84 54.04 54.04 54.63 56.20 61.25 63.48 64.36 63.22 61.83 65.01 65.50 65.93 65.54 64.68 63.15 62.88 63.18 62.67 61.56 60.98 59.30
33.74 37.65 37.33 36.36 35.47 32.37 38.48 30.70 36.72 41.89 41.77 44.15 47.45 48.84 49.36 49.38 45.95 46.67 47.05 47.39 48.53 49.87 51.22 51.12 50.92 50.80 50.93 51.36 51.15 51.18 51.58 51.50 51.25 52.06 52.82 52.96 53.48 54.81 58.01 62.35 63.60 64.02 63.60 62.32 62.45 62.52 61.94 61.14 59.82
35.56 38.38 36.53 35.24 32.73 32.54 32.84 32.17 34.15 38.78 39.78 42.74 44.98 46.59 47.10 48.36 47.37 46.36 46.99 48.27 48.76 50.16 49.95 50.11 50.21 50.29 50.50 50.79 50.79 50.62 50.01 50.44 50.92 51.29 51.54 52.63 53.43 56.00 56.48 56.98 57.90 59.15 59.42 60.22 60.65 60.67 60.69 60.63 60.69
37.99 35.77 34.66 32.94 31.65 26.94 30.38 31.76 31.36 34.31 36.78 39.54 43.40 47.06 47.17 47.76 48.23 47.57 47.45 48.33 49.35 49.01 48.76 49.26 49.27 48.75 49.63 49.99 50.02 50.36 50.41 50.14 50.81 51.03 51.50 52.04 52.97 55.01 54.09 54.41 55.13 56.39 58.30 58.86 59.49 59.89 60.58 59.96 59.71
37.43 33.82 28.24 27.23 26.93 24.28 28.42 28.33 33.82 36.86 39.24 39.95 40.87 41.70 43.59 45.38 44.04 44.62 45.47 47.48 47.93 47.35 47.86 48.39 48.24 46.82 47.58 48.33 48.50 48.80 48.91 49.18 49.62 50.14 50.67 51.33 52.58 53.07 52.72 52.37 52.46 53.40 54.43 56.50 58.84 60.12 60.36 59.88 58.68
35.40 34.19 25.82 20.62 21.65 24.84 28.47 26.44 32.94 37.90 39.57 39.43 40.22 41.42 41.33 41.97 41.52 43.07 46.01 47.81 47.41 47.12 47.15 47.26 46.46 45.47 46.11 46.81 47.23 47.84 48.28 49.07 49.85 51.08 51.54 51.05 50.96 51.20 50.35 50.48 50.85 51.21 51.90 53.83 57.26 58.78 59.04 58.61 58.06
35.19 31.62 32.02 24.31 22.75 22.00 26.51 29.12 33.82 35.48 36.92 38.59 39.02 39.60 40.13 40.42 41.52 42.69 45.87 46.59 46.02 46.04 46.08 46.27 45.52 44.83 45.14 45.73 46.67 47.37 49.06 49.15 49.98 49.20 49.71 48.80 47.42 47.69 47.20 47.44 47.86 47.93 49.15 51.14 54.82 55.25 55.22 53.90 53.62
35.50 36.07 29.75 26.74 18.34 19.64 23.40 24.07 29.08 33.31 35.85 37.10 36.96 37.52 39.38 40.47 42.16 44.09 45.17 45.06 45.17 45.41 44.87 44.77 44.71 44.14 43.98 44.71 45.56 45.93 46.19 46.78 47.22 47.69 45.72 44.48 43.97 43.85 44.29 44.79 44.77 44.89 45.83 47.78 50.42 51.27 51.49 50.22 49.92
33.76 31.58 31.77 30.85 26.94 22.51 20.51 25.84 32.02 33.69 36.18 35.24 35.84 36.32 38.48 40.42 42.90 43.84 44.03 43.84 43.67 43.23 43.02 42.62 42.68 42.51 42.56 43.42 43.89 44.40 44.23 43.90 43.77 43.24 42.63 42.25 42.07 42.13 42.07 42.18 42.19 42.20 42.64 44.15 45.97 46.15 46.34 45.73 45.29
38.38 33.99 32.46 26.98 23.55 23.85 23.23 25.93 36.08 35.21 35.62 35.07 36.61 38.09 40.24 42.02 43.43 43.45 43.11 42.18 41.80 41.49 41.35 41.66 41.46 41.72 41.82 42.23 42.57 42.44 42.58 42.43 41.97 41.33 41.09 41.21 40.90 41.00 40.69 40.37 40.28 40.26 40.40 41.06 42.28 41.93 41.94 41.99 41.41

GFSSGP_sfc_wetblb_060.txt.gz
Wetbulb
67.63 65.76 64.36 59.77 50.28 49.89 46.35 47.34 51.87 50.26 49.84 53.97 55.14 54.71 57.08 60.98 56.91 55.32 69.26 71.56 72.03 72.35 74.56 75.21 76.05 76.10 75.82 75.57 74.92 74.62 74.31 73.52 72.84 72.03 70.90 72.58 72.68 71.65 71.58 70.41 69.36 69.56 70.19 70.21 70.75 71.23 70.66 70.56 70.09
67.55 62.84 61.53 56.28 46.85 43.76 45.35 49.86 49.01 51.93 53.55 55.32 57.94 59.07 58.30 58.45 65.38 66.12 68.06 71.15 72.24 72.94 73.96 74.47 75.76 75.90 75.89 75.49 74.85 74.71 73.70 72.89 72.16 71.52 70.43 71.71 73.00 72.06 71.71 69.99 68.85 68.88 68.88 69.21 69.70 70.17 70.03 69.58 69.37
65.04 62.53 56.11 50.94 46.76 44.08 45.21 49.80 51.62 53.95 55.24 55.02 56.55 61.90 61.91 61.90 66.42 67.79 70.41 71.78 72.63 73.20 73.52 74.21 75.05 75.74 75.86 75.23 74.82 74.07 73.08 72.25 71.58 70.73 70.01 71.29 72.97 72.48 71.46 69.71 68.68 68.66 68.52 68.34 68.88 69.43 69.29 69.55 69.40
61.82 59.71 56.55 47.24 44.77 48.14 48.16 51.77 53.23 53.32 53.66 55.81 56.25 59.14 64.69 67.23 67.25 69.33 71.90 72.21 72.68 73.18 73.67 73.89 74.73 75.65 75.43 75.19 74.82 73.46 72.57 71.68 70.82 69.70 70.57 71.57 72.54 72.65 71.34 69.43 68.68 68.91 68.75 68.75 68.98 69.07 69.23 69.17 68.90
60.91 57.31 47.64 45.65 46.25 48.88 52.01 53.45 53.60 52.82 52.29 54.72 57.81 58.48 62.24 67.55 70.21 71.27 71.47 71.26 71.72 72.73 73.51 74.14 75.49 75.47 75.32 75.06 74.30 73.54 72.06 71.15 69.78 70.05 72.16 72.71 72.72 72.48 71.05 69.59 68.68 69.07 68.90 68.68 68.93 69.00 68.88 68.89 68.27
54.65 55.23 45.51 43.12 45.78 49.32 51.72 54.18 53.73 53.01 52.32 56.15 58.31 59.77 62.89 68.24 67.70 69.60 70.72 72.08 72.19 72.30 73.18 74.21 74.35 74.70 74.85 74.38 73.80 73.32 72.06 70.75 69.40 71.16 73.86 73.07 73.38 72.03 70.98 69.86 69.00 68.57 69.01 68.78 68.35 68.19 68.37 68.22 67.17
52.36 49.99 46.30 46.35 46.10 47.52 50.19 54.23 53.22 52.97 53.36 55.20 59.52 58.51 63.48 66.66 67.65 69.52 70.68 71.90 72.29 72.93 72.61 73.17 74.03 73.92 73.51 73.32 73.03 72.83 72.21 71.16 70.26 71.75 72.37 72.80 72.30 71.96 70.94 69.92 69.23 68.53 68.68 68.70 68.13 67.68 67.53 67.41 66.30
54.57 50.77 45.92 47.44 45.42 45.56 52.46 52.90 54.01 53.70 53.84 60.22 63.17 56.91 59.87 64.20 66.80 69.56 70.75 70.58 70.27 72.84 72.70 72.54 73.73 73.31 73.24 73.74 71.94 71.66 71.48 70.91 70.62 70.54 69.85 69.18 69.83 70.42 70.73 69.53 69.39 68.59 68.53 68.28 67.44 66.90 66.70 66.42 65.67
57.89 46.99 44.22 46.15 46.61 48.01 53.18 51.97 53.69 56.32 56.20 57.02 57.74 56.78 57.76 65.07 67.07 68.39 69.19 69.15 70.09 71.99 72.70 72.83 72.02 72.31 73.13 73.28 71.63 70.62 70.36 69.88 69.22 68.89 67.70 67.83 69.58 69.73 69.05 67.58 68.37 68.81 68.35 67.99 66.86 66.06 65.83 64.85 64.58
51.87 45.38 46.96 50.90 51.08 50.30 51.53 52.96 52.95 52.97 53.99 54.53 56.54 58.30 59.93 64.95 64.62 66.30 66.48 66.71 68.11 69.72 71.28 72.41 72.37 72.13 72.40 72.69 72.55 70.68 70.24 71.02 70.57 69.84 68.60 67.51 66.95 68.00 68.20 67.16 67.09 68.23 68.87 68.20 66.46 65.78 65.11 63.27 65.02
51.89 46.63 51.30 51.57 52.11 53.12 51.76 52.05 53.78 52.66 51.32 54.32 53.98 56.21 57.99 58.67 63.31 64.25 66.13 67.21 67.68 69.30 70.71 71.42 72.21 72.18 72.17 71.98 72.21 70.54 70.13 71.02 71.07 70.20 69.61 68.41 66.97 66.67 67.11 67.68 67.34 68.47 66.69 68.69 67.71 67.19 66.52 63.89 63.23
47.52 51.85 51.58 52.48 52.81 51.76 50.68 52.56 50.90 52.15 53.34 55.78 56.31 56.85 58.17 58.22 59.82 63.16 65.21 67.23 68.20 69.20 70.27 71.01 71.34 71.47 71.66 71.80 72.09 71.06 70.51 70.76 70.76 70.36 69.79 69.10 68.34 67.58 66.86 65.95 66.72 67.19 67.30 67.41 68.30 68.15 67.64 66.53 64.45
48.36 50.83 52.40 53.19 52.87 53.03 53.56 50.86 50.89 51.89 55.18 56.61 56.17 56.68 57.26 57.74 59.05 64.12 64.68 66.86 68.12 67.96 69.02 70.39 71.10 70.71 71.50 71.51 71.39 71.49 70.89 70.63 70.75 70.67 70.24 69.74 68.87 68.19 67.97 66.59 65.43 65.74 66.69 66.95 67.12 67.35 66.97 66.50 65.92
50.91 50.20 51.07 52.32 51.56 52.57 50.83 51.34 52.00 53.16 55.98 55.44 55.46 55.75 56.60 57.14 57.27 61.19 65.26 66.28 66.83 67.97 69.38 70.57 70.50 70.86 71.48 71.05 71.23 70.91 70.89 70.98 71.01 70.79 70.50 69.87 69.39 68.79 68.15 67.60 66.36 65.35 66.12 66.75 67.40 67.82 67.72 67.39 67.13
50.22 47.19 49.04 49.08 50.57 48.82 52.42 48.61 49.25 53.89 55.71 54.19 54.99 55.81 55.96 56.88 57.53 57.28 63.04 65.86 67.23 67.95 68.56 69.23 69.90 70.46 70.60 70.59 70.59 70.40 70.26 70.22 70.22 70.40 70.69 70.04 69.46 68.83 68.10 67.78 67.41 67.37 67.20 66.79 67.14 67.36 67.52 67.15 67.19
45.77 46.90 41.71 47.67 49.82 50.18 49.94 43.96 50.95 53.81 53.83 53.52 54.69 55.65 56.00 56.29 57.25 57.89 57.70 65.00 67.71 68.04 67.59 68.38 68.48 69.18 69.65 69.69 69.74 69.56 69.74 69.66 69.67 69.88 70.10 69.99 69.43 69.08 68.56 67.84 67.80 68.36 68.17 67.84 67.34 67.16 66.71 66.65 66.68
43.79 38.61 40.97 43.77 50.24 49.95 49.23 45.53 50.17 52.91 52.50 52.48 54.11 55.32 55.95 56.71 57.42 58.57 57.69 60.32 66.81 68.14 68.09 67.77 67.94 68.17 68.88 69.44 69.59 69.63 69.63 69.43 69.53 69.73 69.61 69.32 68.93 68.78 68.68 68.51 68.51 68.77 68.24 68.00 67.64 67.35 67.13 66.53 66.71
37.84 39.36 41.26 41.82 46.96 48.40 47.21 46.34 48.31 51.93 52.16 51.63 53.23 54.58 55.35 56.01 56.38 58.26 58.01 57.09 62.34 67.16 68.32 68.09 67.93 68.17 68.90 69.40 69.30 69.44 69.29 69.34 69.60 69.27 69.11 68.93 68.88 68.81 68.83 68.81 68.76 68.82 68.17 67.87 67.80 66.96 67.56 66.91 66.57
41.69 40.75 40.55 44.06 47.94 46.53 45.44 46.16 48.16 50.34 51.07 51.71 52.89 53.34 54.44 55.68 57.45 56.26 57.11 56.70 56.40 57.92 66.19 67.47 67.55 67.92 68.09 68.05 67.37 67.15 67.49 68.45 68.98 69.41 69.17 68.82 68.83 68.71 68.46 68.49 68.59 68.74 67.95 67.68 67.67 67.35 66.38 65.94 66.60
41.02 39.13 39.58 42.59 47.48 46.81 45.74 45.23 48.64 50.10 50.67 51.58 52.14 52.92 54.43 55.63 56.03 55.26 54.67 54.81 55.18 56.23 59.15 64.49 66.24 67.77 68.36 69.00 68.96 68.88 68.66 68.76 68.92 69.17 68.75 68.71 68.63 68.80 68.54 68.42 68.29 68.34 67.67 67.48 67.22 66.84 65.27 64.99 65.81
40.59 39.02 39.52 40.06 45.18 45.71 44.49 42.85 45.75 49.59 50.96 51.54 52.96 53.52 53.70 54.72 55.61 55.76 53.04 53.00 53.94 53.93 55.09 57.23 60.74 64.73 66.57 68.12 67.25 66.00 65.35 65.60 66.73 67.50 68.01 67.81 66.18 67.38 67.17 67.40 67.39 67.38 67.07 65.64 66.38 66.07 64.61 62.69 64.48
36.99 43.31 42.12 41.36 40.62 36.14 44.24 34.75 42.15 46.03 46.99 48.87 50.60 52.17 52.69 54.01 53.10 53.10 52.38 52.25 52.71 53.91 54.94 55.35 55.65 56.82 58.12 61.01 63.15 63.98 64.54 64.14 62.23 60.47 58.84 58.20 56.91 57.50 58.57 62.33 64.57 65.12 64.89 63.45 63.86 64.17 63.60 62.98 60.88
38.68 42.88 41.80 41.32 38.86 37.80 37.98 35.49 40.05 43.41 43.26 45.99 48.80 50.69 52.67 54.16 53.26 53.22 53.44 53.65 53.04 53.81 54.64 54.96 55.15 54.89 54.88 55.28 56.38 56.91 56.14 56.11 56.20 56.28 55.73 56.56 57.30 58.56 58.52 58.86 59.41 59.93 61.02 61.40 61.17 61.31 61.00 61.99 61.48
42.53 40.95 40.57 40.66 38.82 31.35 36.81 36.30 37.64 40.46 42.40 45.26 47.94 50.14 51.60 52.43 53.42 54.24 55.47 53.91 53.46 54.54 54.22 54.44 54.42 54.31 54.82 55.27 55.61 55.82 55.66 55.17 55.26 55.42 55.62 56.22 56.89 58.24 57.56 57.09 58.14 58.68 59.63 60.25 60.45 60.26 59.62 59.64 59.68
42.30 39.09 31.38 29.53 29.84 29.75 34.63 34.79 38.78 42.97 44.61 46.11 46.05 47.26 49.47 52.05 53.02 52.95 54.08 52.50 53.05 52.91 53.28 53.28 53.50 53.02 54.20 54.62 54.63 54.48 54.65 54.60 54.32 54.61 55.08 54.79 55.76 56.44 56.72 55.72 56.07 56.48 56.93 57.85 59.31 59.34 59.28 59.89 59.92
38.90 38.82 32.45 24.11 26.50 30.58 33.77 31.68 38.71 44.20 45.73 47.27 46.29 47.11 48.02 48.29 48.86 48.99 51.13 52.75 53.20 52.48 52.96 52.73 52.94 51.94 52.51 53.22 53.08 53.42 53.16 54.37 54.30 54.31 55.23 55.53 55.42 55.20 54.12 53.93 54.09 54.33 54.59 55.53 57.26 58.33 59.46 60.01 60.25
38.20 35.60 37.41 32.16 30.45 31.51 34.72 36.22 41.45 44.22 43.49 44.95 45.03 45.54 46.34 47.02 48.16 48.75 47.71 50.48 52.66 52.77 52.32 52.64 52.16 51.81 51.77 52.10 52.41 52.43 53.52 53.18 53.30 53.46 54.23 54.01 52.63 51.40 51.31 51.46 51.49 51.61 52.30 53.65 55.69 57.11 57.34 56.50 55.49
40.61 41.11 33.12 35.13 26.15 24.62 30.45 31.91 35.60 39.27 41.74 43.51 44.54 44.83 45.59 46.14 46.60 47.34 47.98 49.16 50.90 52.21 52.31 52.54 52.05 50.96 50.78 51.10 51.71 51.74 52.01 52.46 52.76 52.96 51.90 50.73 50.07 49.32 49.41 49.55 49.52 49.54 50.19 51.60 53.24 53.37 52.60 52.94 52.51
37.47 36.39 36.93 37.18 34.65 29.24 28.20 32.96 40.89 40.69 42.28 42.54 43.78 45.26 45.83 46.50 46.78 47.16 47.89 49.11 49.69 49.46 50.02 50.37 50.11 49.35 49.40 49.60 49.83 50.10 50.03 50.07 50.65 50.91 49.92 49.05 48.09 47.63 47.32 47.14 47.40 47.34 47.88 49.49 51.19 49.18 48.80 48.53 48.12
40.76 39.13 39.29 32.92 30.38 32.92 32.00 33.38 42.68 42.32 41.97 41.53 44.17 45.80 46.28 46.44 47.23 47.71 48.45 48.81 48.26 48.02 48.00 47.48 48.49 48.47 48.64 48.27 48.34 48.49 48.53 48.41 48.55 48.34 47.51 47.15 46.90 46.22 45.77 45.56 45.44 45.68 45.91 47.20 48.12 47.21 47.38 47.49 46.68

GFSSGP_sfc_wetblb_063.txt.gz
Wetbulb
69.08 67.94 64.48 61.14 50.56 49.77 47.03 49.72 53.41 52.11 51.17 55.56 56.39 55.97 57.72 61.65 58.22 57.35 69.62 71.39 72.51 73.26 74.26 74.83 75.91 75.89 75.70 75.30 74.45 74.28 73.65 73.17 72.43 71.23 72.60 72.38 71.84 71.64 70.08 69.56 70.15 70.71 71.03 71.89 72.05 71.24 70.48 70.18 69.68
68.46 64.51 62.12 56.24 47.03 43.97 45.26 52.27 50.38 53.23 55.68 55.92 57.54 57.49 57.10 60.48 66.57 66.94 68.42 71.59 72.17 73.56 74.49 73.98 75.96 75.78 75.47 75.09 74.30 74.04 73.41 72.55 71.92 70.89 71.71 72.83 72.12 71.70 69.79 69.14 69.29 69.48 69.87 70.42 70.60 70.00 69.84 69.73 69.52
67.43 64.22 55.66 50.36 46.62 44.26 45.60 51.16 52.15 54.52 56.67 55.41 55.66 60.42 61.25 62.62 67.15 67.76 71.08 71.76 71.88 73.09 73.71 75.06 75.75 75.93 75.48 74.98 74.36 73.72 72.83 72.06 71.47 70.60 70.96 72.96 72.50 71.72 69.69 68.98 68.93 68.75 68.73 69.48 69.78 69.66 69.71 69.48 69.37
62.83 59.33 57.01 47.92 45.47 48.85 49.85 52.14 53.58 53.83 54.63 57.74 56.79 57.41 65.04 68.44 67.91 70.56 71.45 71.52 71.68 72.53 73.53 74.20 75.26 75.57 75.28 74.95 74.58 73.30 72.26 71.43 70.73 69.96 71.24 72.42 72.75 71.46 69.69 69.00 69.05 68.84 68.86 69.15 69.34 69.43 69.40 69.00 69.23
62.59 57.17 48.02 46.50 47.08 50.16 51.88 53.89 54.76 52.83 53.75 56.14 57.79 56.89 62.83 67.46 70.56 71.15 70.87 71.34 71.49 71.96 73.98 73.41 75.20 75.34 74.96 74.87 74.17 73.21 71.78 70.78 69.85 71.04 71.86 71.85 72.83 71.29 70.01 68.92 69.24 68.99 68.91 69.14 69.21 69.09 69.05 68.49 67.93
54.83 54.74 46.11 44.11 46.75 50.48 52.78 54.85 54.47 53.51 54.16 57.51 56.93 59.08 63.24 67.99 69.16 70.54 70.84 71.42 72.21 71.89 73.11 73.12 74.33 74.64 74.46 74.18 73.73 73.01 71.52 69.96 70.24 71.61 73.06 72.50 72.62 71.47 70.40 69.32 68.83 69.16 68.85 68.46 68.59 68.51 68.45 67.98 67.38
52.70 49.38 46.50 47.63 47.44 48.73 51.21 55.53 53.73 53.20 53.59 56.67 61.14 58.61 63.94 64.62 68.26 69.79 71.26 71.35 71.85 72.25 72.44 72.61 73.28 73.54 73.35 73.13 73.00 72.68 71.71 70.28 70.49 72.65 73.55 73.39 72.05 71.61 70.53 69.75 68.80 68.65 68.94 68.45 67.93 67.55 67.58 67.32 66.35
54.95 51.52 46.96 48.07 46.36 47.14 52.60 54.13 54.99 54.89 54.62 62.78 63.71 58.71 60.58 64.08 67.52 69.56 71.59 70.47 70.96 71.64 71.73 71.22 72.80 72.85 72.84 72.89 71.85 71.51 71.16 70.43 71.29 71.06 70.45 69.98 69.97 70.75 70.54 69.80 69.38 68.51 68.65 68.10 67.39 66.79 66.68 66.31 65.41
57.78 45.93 44.74 47.24 47.49 48.87 53.80 52.35 55.15 57.72 57.60 59.22 59.60 58.76 60.48 66.66 67.52 68.79 69.35 68.87 69.30 69.89 71.14 71.85 72.71 71.44 71.88 72.03 70.64 70.45 69.98 69.52 69.12 69.14 68.22 68.50 69.56 69.55 68.37 67.83 68.83 68.76 68.35 67.66 66.71 66.07 65.76 65.01 64.98
51.36 45.81 46.14 52.08 52.77 51.00 52.97 53.06 54.02 54.88 55.40 56.16 57.30 60.20 65.62 66.39 65.66 67.28 67.53 66.60 67.42 68.91 70.83 71.15 71.55 70.81 71.59 72.16 71.09 70.38 69.94 69.91 69.40 67.56 67.41 67.57 67.67 68.24 68.00 67.46 67.52 68.47 68.70 68.00 66.69 65.91 65.33 63.76 64.65
52.09 47.08 50.99 51.93 52.74 53.97 52.86 52.98 55.24 54.00 52.87 56.08 55.26 57.42 60.50 64.95 64.48 65.65 66.25 67.26 68.05 69.12 70.28 70.50 70.97 70.89 71.26 71.09 71.12 70.75 70.06 70.32 70.39 70.16 69.09 67.35 65.84 66.10 65.46 67.10 66.71 67.43 66.85 67.59 66.74 66.23 65.70 64.69 63.25
46.95 52.24 52.52 52.39 53.49 53.56 51.86 54.33 52.71 53.78 54.69 56.77 57.03 57.96 59.29 61.81 64.26 64.26 65.33 66.41 67.42 68.88 70.12 71.15 71.11 70.89 70.74 70.52 71.36 70.89 69.38 69.98 70.41 70.33 69.86 68.61 67.58 67.08 66.02 65.44 66.33 66.99 67.43 66.74 67.65 67.17 66.90 66.44 65.63
48.98 50.39 52.26 53.03 53.25 53.02 53.47 51.75 51.70 52.61 55.47 57.15 56.86 57.19 57.76 59.07 63.14 64.86 65.48 66.83 67.78 67.26 68.27 68.76 70.71 70.46 70.52 69.88 70.40 70.29 69.81 69.91 70.08 70.45 70.25 69.65 68.64 68.06 67.71 66.09 64.90 65.19 65.71 65.90 66.19 66.38 66.19 66.16 65.95
51.25 49.08 50.53 52.73 52.05 52.41 50.54 50.56 52.06 53.51 56.12 55.63 56.06 56.09 57.28 57.88 58.74 63.85 65.47 65.78 67.13 67.98 68.08 69.11 69.13 69.72 69.48 69.56 69.87 70.40 70.35 70.26 69.97 70.01 70.12 69.95 69.10 68.53 67.96 67.38 66.36 65.10 65.20 65.80 65.99 66.84 67.28 67.13 67.14
50.33 45.31 47.88 50.94 50.88 51.41 52.74 47.72 47.77 53.13 54.96 54.49 54.90 56.17 56.79 57.69 58.62 59.08 63.91 66.48 67.66 68.44 69.23 68.92 69.49 69.88 69.37 69.87 69.76 69.71 69.92 69.76 69.56 69.66 69.94 69.76 69.29 68.43 67.91 67.45 67.31 67.30 66.88 66.16 66.52 66.88 67.24 66.98 67.08
46.70 46.66 39.61 48.76 50.52 50.98 50.89 43.96 50.85 54.19 53.54 52.91 54.66 55.48 56.40 57.22 58.03 59.33 59.16 64.54 67.73 68.47 68.70 69.89 69.79 69.55 69.46 69.89 70.40 69.67 69.37 69.17 69.22 69.57 69.99 69.95 69.44 68.92 68.60 67.70 67.66 68.37 68.21 67.84 67.29 66.96 66.54 66.51 66.48
43.46 39.34 39.58 42.83 49.91 49.38 48.42 44.60 50.90 53.21 53.11 52.22 54.03 55.31 55.99 57.06 57.88 59.16 59.81 59.48 66.26 68.11 68.59 68.70 69.39 68.89 69.09 69.14 69.45 69.50 69.47 69.21 69.31 69.71 69.76 69.79 69.61 69.16 68.71 68.63 68.61 68.88 68.49 68.13 67.72 67.31 67.10 66.24 66.22
37.96 39.14 41.88 40.84 46.49 47.92 46.32 44.31 50.16 52.53 53.03 52.28 53.12 54.20 55.16 56.22 57.37 59.07 59.73 58.63 63.62 67.84 68.57 68.89 69.05 68.82 68.95 69.26 69.24 69.63 69.32 69.42 69.55 69.43 69.45 69.57 69.25 69.04 68.76 68.69 68.65 68.85 68.00 67.16 66.92 66.34 66.76 66.20 65.80
42.46 40.48 40.15 43.54 47.68 45.34 43.84 44.98 47.96 51.01 52.46 52.24 52.56 52.99 54.18 55.70 58.07 59.09 58.52 58.96 58.11 64.09 67.58 68.27 68.27 68.58 68.57 68.24 67.79 67.89 67.81 68.83 69.09 69.44 69.65 69.46 69.27 69.17 68.89 68.63 68.25 67.78 66.98 66.88 66.89 66.47 65.15 64.93 66.96
42.22 40.53 40.89 43.87 47.23 46.14 45.01 44.40 48.18 50.73 51.52 52.67 52.89 53.04 54.24 55.41 56.69 57.77 56.75 57.39 57.39 57.73 63.14 67.06 67.94 68.44 68.56 68.55 68.32 68.65 68.52 69.04 69.42 70.23 69.65 69.45 69.15 68.98 68.51 68.22 67.58 67.46 66.98 66.66 66.58 65.68 64.78 64.97 66.01
41.39 40.36 41.10 41.07 44.49 46.50 44.87 42.74 45.66 49.92 51.93 52.64 53.59 54.50 54.25 53.94 55.44 57.27 56.60 56.16 56.66 56.64 57.71 62.77 66.54 67.42 68.48 68.78 69.09 68.66 68.19 67.89 67.65 68.15 68.37 68.62 68.68 68.56 68.21 67.72 67.15 67.23 67.16 66.21 66.13 65.53 64.45 62.75 63.32
36.31 43.01 42.39 41.55 40.72 35.79 44.60 34.88 42.91 46.59 47.97 50.46 52.11 52.30 52.85 54.12 55.07 55.98 56.62 55.46 55.24 56.08 57.46 57.62 60.25 64.11 66.73 67.74 67.39 65.40 64.43 64.57 66.41 66.49 66.48 64.39 60.86 60.86 61.43 63.16 65.13 65.81 65.39 64.22 64.10 64.35 63.95 63.40 61.56
39.89 44.32 42.67 42.75 40.64 39.69 39.89 36.78 40.84 45.04 44.53 47.59 50.06 51.85 52.62 53.91 54.91 55.50 54.96 55.73 56.07 56.61 57.07 57.50 57.36 58.39 59.30 60.48 63.55 64.22 64.09 64.25 60.52 58.27 57.17 57.13 57.62 58.42 58.71 58.66 59.32 59.72 60.33 61.29 61.48 61.62 61.24 61.17 60.64
44.95 42.86 42.01 41.94 39.36 31.76 37.12 36.97 37.78 41.79 43.45 45.45 48.41 50.27 51.63 52.57 54.29 55.75 56.38 56.85 56.18 56.57 56.92 57.02 55.76 55.69 56.59 56.97 57.65 58.24 58.45 56.57 55.83 56.38 56.15 56.51 56.92 57.93 58.09 57.56 58.05 58.49 58.95 59.50 60.42 60.73 60.31 58.96 58.30
42.47 38.95 30.95 29.31 30.30 30.16 37.79 36.39 39.70 44.00 45.47 46.62 47.19 48.46 50.38 52.36 53.17 54.07 54.96 55.80 55.40 55.42 55.42 55.20 54.88 53.95 55.19 55.97 56.32 56.77 57.08 56.79 56.18 56.26 56.10 55.73 55.71 56.50 57.21 56.56 56.50 56.60 57.18 57.23 58.09 58.96 59.23 57.77 57.48
40.18 39.16 32.84 24.96 27.26 31.17 36.68 32.09 38.87 45.28 47.25 47.86 48.30 48.26 49.26 50.02 50.99 50.93 52.78 54.18 55.41 55.31 54.86 54.18 54.17 53.89 54.81 55.21 55.48 55.72 55.70 55.55 55.22 55.18 55.17 55.28 55.40 55.84 55.70 54.70 54.73 54.76 54.72 54.96 55.92 57.00 58.26 58.58 59.62
39.85 36.14 39.82 34.10 35.24 32.79 34.97 38.20 42.79 44.97 44.84 46.03 46.25 46.89 47.52 48.54 49.00 50.59 51.18 50.42 53.91 54.86 54.51 54.05 53.81 53.28 53.47 53.86 54.25 54.24 54.73 54.45 54.27 54.87 55.09 54.90 54.37 53.35 52.40 52.56 52.28 52.65 52.58 53.19 53.96 55.67 56.09 56.97 56.10
41.65 43.29 33.69 35.84 26.55 25.40 31.65 33.40 36.06 40.51 42.37 44.81 45.76 46.67 47.88 48.91 49.22 49.23 49.96 50.31 51.80 54.40 54.52 54.66 54.17 53.11 53.04 53.30 53.51 53.36 53.48 53.56 53.78 53.98 53.59 53.17 52.48 51.08 50.78 50.73 50.69 50.73 50.96 51.75 53.02 53.33 53.41 53.35 52.99
38.45 37.02 38.40 38.28 35.34 29.68 28.87 33.22 42.33 42.32 43.97 43.79 45.50 47.07 47.98 48.78 49.37 49.64 50.10 50.83 51.80 53.28 53.24 53.25 53.03 52.34 51.75 52.29 52.29 52.00 51.67 51.60 52.13 52.26 51.99 51.24 50.33 49.46 48.93 48.54 48.65 48.65 48.86 50.03 51.25 50.59 50.33 49.79 49.02
42.36 39.27 39.32 33.21 31.16 34.37 33.19 34.24 43.93 44.30 44.37 44.16 45.73 47.52 49.11 49.39 49.91 50.04 50.11 50.52 50.64 51.12 51.51 51.00 51.27 50.76 51.16 51.41 51.17 50.94 50.85 50.44 50.28 50.39 49.92 49.37 49.10 48.20 47.53 47.05 46.79 46.92 47.05 47.89 48.76 48.37 48.92 48.95 48.13

GFSSGP_sfc_wetblb_066.txt.gz
Wetbulb
67.90 67.76 65.75 59.28 49.21 46.11 42.98 45.80 51.60 52.43 51.43 54.35 55.34 54.25 53.66 61.29 58.25 54.11 66.50 69.85 72.39 71.48 73.16 74.42 75.55 75.63 75.24 74.94 74.33 74.42 73.60 73.13 72.35 73.17 72.41 72.04 71.39 69.82 69.83 70.94 70.59 70.53 72.49 72.20 71.47 70.69 70.33 69.85 69.52
66.38 65.90 59.30 54.86 43.57 39.84 41.33 48.87 49.36 52.74 52.72 54.29 55.89 55.97 56.38 59.11 64.41 63.52 64.82 70.63 72.18 72.43 72.62 73.48 75.63 75.46 75.17 74.94 74.48 74.11 72.98 72.18 71.50 72.84 72.34 72.44 71.05 69.53 69.71 69.80 70.14 70.23 71.16 71.21 69.94 70.11 70.02 69.78 69.35
66.17 66.22 52.88 48.10 44.15 39.89 42.32 48.17 50.39 53.17 54.44 53.81 54.02 59.98 62.23 61.76 64.73 64.38 67.84 70.45 71.93 71.89 72.24 74.03 75.41 75.38 75.17 74.86 74.39 73.30 72.33 71.87 71.10 72.35 73.42 72.50 71.28 69.58 69.48 69.31 69.15 69.47 69.95 69.31 70.03 69.90 69.60 69.69 69.56
61.94 59.24 54.87 44.95 42.05 45.64 46.54 48.94 51.43 52.73 53.79 55.09 55.43 58.94 64.18 66.60 66.71 67.86 68.56 70.05 71.46 71.15 73.03 74.47 75.09 75.17 74.86 74.61 74.29 72.76 71.93 71.40 70.76 71.98 73.14 72.58 71.28 69.75 69.44 69.18 69.03 69.20 69.63 69.65 69.70 69.58 69.05 69.53 69.32
61.39 55.40 45.91 43.85 44.11 47.53 49.55 52.09 52.33 51.34 51.38 53.38 55.84 55.04 61.69 66.48 69.11 69.53 68.01 69.22 69.90 71.74 72.84 74.15 75.17 75.01 74.61 74.55 73.83 72.96 71.46 70.59 70.27 71.82 72.70 72.84 71.33 70.03 69.16 69.40 69.12 69.25 69.40 69.49 69.45 69.32 68.72 68.21 69.33
53.04 53.94 42.64 40.41 44.28 48.59 50.09 52.62 51.23 51.26 51.84 54.70 53.91 54.17 62.44 67.00 67.94 68.21 68.28 68.32 70.22 70.94 71.71 73.31 74.22 74.42 74.26 74.02 73.30 72.59 71.52 70.63 71.76 72.83 72.86 72.87 71.39 70.57 69.34 69.29 69.30 68.98 69.00 69.06 68.90 68.73 68.43 67.66 68.80
50.61 47.29 43.85 43.98 44.57 46.89 50.39 53.35 49.29 50.99 50.57 55.01 59.61 56.32 62.42 63.93 67.30 69.28 69.04 69.47 70.11 70.91 71.06 71.76 72.49 73.21 73.19 72.94 72.53 72.08 71.17 71.41 72.65 73.22 73.14 72.73 71.86 71.03 70.19 69.00 69.07 69.19 68.75 68.32 68.08 67.91 67.85 67.00 67.60
53.27 49.72 44.08 45.37 45.02 45.80 51.75 52.60 53.45 53.11 54.18 60.62 60.31 55.50 58.10 62.65 67.67 68.97 69.75 68.45 69.29 69.89 70.11 70.73 71.26 71.86 71.60 70.97 71.37 70.87 70.21 71.22 71.57 71.36 70.95 70.04 69.95 70.31 70.27 69.52 69.24 68.96 68.69 67.98 67.48 67.14 66.94 66.50 65.34
56.22 45.78 42.07 44.68 46.35 48.31 52.26 50.79 53.77 56.15 55.42 56.88 57.40 56.71 63.25 66.08 67.68 67.76 67.90 66.10 68.53 69.83 69.42 71.20 71.11 71.05 70.88 69.92 69.97 69.60 69.16 69.06 69.62 68.63 68.45 67.84 67.59 67.77 67.19 67.81 68.33 68.90 68.65 67.63 66.92 66.34 65.80 66.08 65.37
49.64 44.47 44.62 49.64 50.66 49.22 51.33 51.47 52.32 52.92 53.83 53.49 56.23 63.16 65.04 65.77 66.05 66.35 65.19 64.46 66.64 68.04 68.48 70.24 69.89 69.58 70.66 70.45 69.30 67.57 67.19 65.66 64.62 67.09 65.81 65.98 65.09 65.31 67.42 66.19 67.51 68.73 68.67 67.96 67.08 66.36 66.18 64.43 60.69
49.72 44.73 48.89 50.02 52.09 52.82 51.40 51.27 54.19 52.75 51.14 54.02 52.98 57.66 63.73 64.00 65.17 66.06 65.31 64.82 65.45 68.30 68.96 70.26 69.53 69.72 70.40 69.49 68.57 67.73 67.06 67.33 66.94 63.91 63.17 62.67 63.15 63.19 64.12 64.40 64.60 64.95 66.18 65.34 65.74 64.36 62.93 60.57 58.61
45.87 49.79 50.80 50.84 52.95 53.06 50.99 52.96 51.33 52.96 52.46 54.90 55.23 56.98 61.98 62.80 63.36 64.58 65.17 65.51 66.13 68.01 68.55 69.60 69.38 69.50 69.86 70.31 69.29 67.86 66.92 67.85 67.49 66.74 65.83 63.11 62.20 61.08 60.29 62.61 62.73 63.10 64.23 63.51 63.35 63.20 62.74 62.09 61.32
46.17 49.22 51.30 52.30 52.33 52.83 53.83 51.15 50.75 51.38 53.97 55.52 55.70 56.65 56.55 61.04 62.95 64.19 65.20 65.78 66.24 66.52 68.26 68.96 69.39 69.21 69.30 69.52 69.91 68.82 66.68 66.53 68.35 67.78 66.80 65.49 64.45 63.74 63.42 61.06 60.67 61.24 61.82 61.23 61.59 62.03 61.48 61.48 61.52
48.90 49.43 50.44 51.22 50.88 51.71 50.14 49.42 50.51 51.49 53.94 53.91 55.00 54.20 55.03 56.35 59.57 63.14 63.71 64.43 66.07 66.62 66.53 67.94 68.80 68.51 68.71 68.27 69.07 68.50 67.06 68.33 65.95 66.86 66.78 66.79 65.48 64.71 64.33 62.83 61.29 59.83 60.20 60.82 60.94 61.08 62.54 62.89 62.74
49.27 45.79 47.29 48.36 50.43 49.89 51.28 46.81 46.99 51.25 53.36 52.43 53.24 53.33 54.88 55.64 56.63 59.58 64.11 64.49 65.64 66.54 67.16 66.69 67.52 68.18 67.77 68.02 68.13 68.08 68.21 67.46 66.16 66.32 66.61 66.47 65.89 64.73 63.94 63.34 62.72 62.61 61.53 61.26 61.23 62.07 62.71 62.67 63.54
44.51 45.53 40.39 45.27 48.53 50.27 49.00 41.56 48.77 51.76 51.03 50.45 51.70 52.46 53.52 55.02 55.91 56.83 57.45 64.88 66.28 66.15 66.41 67.26 68.96 67.97 67.41 68.21 68.39 68.19 68.04 65.46 65.46 65.67 66.15 66.72 66.46 65.53 64.38 63.57 63.32 64.31 63.73 63.26 62.66 62.40 62.18 62.16 62.18
41.60 37.62 39.53 39.29 45.57 48.12 46.59 43.76 49.48 51.78 51.33 49.96 50.64 51.50 53.13 53.72 55.23 56.18 56.91 59.19 64.95 65.61 66.52 66.65 67.40 66.65 67.19 68.29 68.46 67.71 65.83 65.31 65.19 65.56 66.02 66.71 66.87 66.15 65.11 64.94 64.72 64.97 64.49 63.97 63.95 63.38 62.93 62.05 62.25
35.06 36.66 39.80 37.82 42.44 45.08 44.40 44.10 47.96 49.85 50.93 49.84 50.71 51.91 52.36 53.01 54.15 56.34 57.42 56.11 61.67 65.23 66.35 66.44 66.83 66.66 66.70 66.24 66.52 66.00 66.47 65.74 65.93 65.73 66.05 66.74 66.55 66.45 65.26 65.13 65.19 65.13 65.66 64.95 64.90 64.28 64.41 63.89 63.54
40.40 39.42 38.00 40.72 45.42 43.31 43.70 43.82 44.99 48.48 49.65 49.47 50.38 50.86 51.90 53.37 55.08 56.69 55.70 55.33 56.16 63.42 65.11 66.00 66.06 66.04 66.00 65.47 64.81 64.77 64.54 65.47 65.37 66.10 66.74 66.97 66.26 66.12 65.49 65.34 66.16 65.69 65.11 64.76 64.81 63.96 63.38 62.85 63.61
40.39 38.30 37.75 41.91 45.68 44.48 42.59 41.64 45.30 47.02 47.87 49.11 49.19 49.71 50.63 52.53 54.01 54.12 54.51 54.47 53.92 55.39 63.05 65.07 65.93 66.11 66.15 66.05 65.94 65.87 65.54 66.07 66.35 66.89 67.34 67.13 67.16 66.83 66.02 65.43 65.41 65.78 65.43 65.23 64.83 64.52 63.22 63.06 63.71
38.73 37.14 37.82 38.90 43.60 44.91 42.48 39.25 42.34 46.27 48.06 49.24 50.15 50.78 51.25 50.66 52.81 53.01 52.58 52.98 53.37 53.23 55.56 62.49 65.21 66.03 66.21 66.35 66.19 65.81 65.24 65.33 65.15 65.70 65.72 66.47 66.77 66.63 66.79 66.45 65.99 65.87 65.90 65.25 65.10 64.22 63.26 62.00 62.40
35.99 42.89 42.07 41.00 38.51 33.53 41.76 29.49 39.64 44.00 45.54 48.45 48.21 48.38 49.22 49.80 50.92 53.04 52.53 51.73 52.28 52.45 53.89 54.46 58.90 64.16 65.68 66.24 65.46 64.20 62.40 62.12 63.64 63.86 64.31 61.76 58.79 57.88 58.18 58.97 62.24 65.02 64.70 63.76 62.13 62.69 62.16 62.22 60.75
37.79 42.49 40.74 40.32 37.25 35.76 36.30 30.66 35.46 42.65 40.59 44.29 46.87 48.67 49.02 49.52 50.33 50.69 52.03 52.67 52.55 53.26 52.81 53.55 54.61 56.26 59.88 62.94 64.37 63.06 62.00 62.32 56.43 54.88 54.64 54.27 54.46 55.52 56.36 56.03 55.96 55.97 56.36 56.89 57.72 57.70 58.03 58.30 57.24
44.11 40.95 40.19 39.35 36.50 24.84 32.46 32.25 32.22 36.00 40.13 43.18 47.65 48.44 49.52 49.09 49.69 51.04 52.80 52.81 52.44 53.18 53.44 52.82 53.26 53.78 54.61 55.70 57.39 59.40 60.06 53.87 52.39 52.14 51.93 52.27 53.11 55.15 55.54 55.66 55.04 55.22 55.67 56.06 56.72 57.24 56.82 56.61 55.62
41.43 35.97 26.21 24.30 22.82 22.92 33.98 30.98 33.68 39.70 41.82 42.91 42.62 43.53 44.83 46.98 48.27 49.88 51.52 51.69 51.74 51.51 52.82 52.62 51.76 51.55 53.21 53.55 53.50 54.03 53.82 52.77 52.64 52.11 51.71 51.43 51.35 52.59 54.00 54.07 53.36 53.36 53.88 54.31 54.53 54.74 55.55 55.95 54.49
37.89 35.44 27.72 21.00 20.54 25.60 33.90 26.56 33.81 41.06 43.60 44.65 44.57 43.38 43.17 43.51 45.17 45.33 46.31 49.40 50.67 52.53 52.39 52.22 51.83 51.07 51.87 52.55 52.87 53.28 53.14 52.49 52.05 52.43 51.95 51.15 51.11 51.62 51.60 51.34 51.36 51.37 51.59 51.63 52.36 52.97 54.03 55.25 55.09
36.37 32.04 36.35 30.70 29.24 26.55 29.62 32.88 37.58 41.80 41.46 42.38 42.53 43.32 42.59 43.28 43.82 43.80 44.82 45.70 46.41 51.38 51.90 51.66 51.29 51.49 51.83 52.27 51.64 51.94 52.06 52.03 51.10 52.17 51.28 50.87 50.11 50.04 48.16 49.07 48.92 49.11 49.33 49.99 50.71 51.66 52.29 53.46 52.91
39.96 40.30 30.24 29.70 21.94 21.85 27.26 28.82 30.14 35.93 39.28 41.71 41.59 41.61 42.89 44.47 44.75 44.83 44.87 45.08 46.35 48.37 51.20 52.05 51.29 49.93 50.39 50.34 50.82 50.92 51.46 51.77 51.45 51.13 50.34 49.90 48.13 47.94 47.29 47.13 47.17 47.39 47.76 48.42 48.93 49.89 51.19 51.62 51.21
35.97 35.29 36.55 34.96 29.84 25.07 23.67 26.88 36.73 37.84 39.98 39.93 41.18 42.52 42.52 43.34 44.51 45.01 45.35 45.81 46.39 48.47 49.47 49.68 50.08 49.62 49.27 49.66 48.63 48.92 48.81 49.73 50.06 50.04 48.88 47.99 46.97 46.35 45.99 45.72 45.52 45.37 45.24 45.84 46.67 49.43 49.28 49.25 48.50
40.42 36.67 36.28 29.10 27.58 28.66 26.97 27.93 39.42 40.02 40.49 40.66 42.26 41.87 43.28 44.75 45.40 45.87 45.71 45.58 45.94 46.82 47.69 47.56 47.39 47.47 48.13 48.77 48.48 48.19 48.04 47.51 47.50 47.53 47.37 46.72 46.14 45.52 44.61 44.33 44.14 44.14 43.98 44.06 44.10 45.15 45.38 47.89 47.22

GFSSGP_sfc_wetblb_069.txt.gz
Wetbulb
65.62 65.23 64.19 56.75 47.09 42.06 39.11 43.34 48.52 51.49 51.97 56.24 52.38 54.87 58.89 60.34 57.53 51.61 65.86 70.96 71.56 71.92 73.47 74.47 75.51 75.23 74.77 74.32 73.76 74.09 73.23 73.00 73.68 72.66 71.97 70.31 69.90 70.95 70.71 71.05 72.41 72.47 71.88 71.29 70.51 70.20 69.89 69.38 68.81
65.49 65.54 57.15 51.91 41.51 35.08 37.20 44.95 46.29 52.04 52.42 55.71 55.90 56.81 58.86 58.51 63.19 62.37 66.87 71.10 71.68 72.22 72.99 73.85 75.20 75.11 74.86 74.62 73.93 73.60 72.33 72.37 73.39 73.14 71.88 70.01 69.86 70.21 70.55 70.13 70.63 71.51 71.01 70.07 70.09 70.01 69.76 69.35 68.57
63.74 64.36 50.29 46.35 40.93 36.74 38.89 45.47 46.44 53.55 52.96 53.44 53.98 57.40 60.20 60.64 64.80 64.36 69.81 70.91 71.73 71.56 73.00 74.30 74.89 74.89 74.68 74.40 73.67 72.53 71.96 71.72 73.51 73.46 72.72 70.13 69.66 69.58 69.77 69.96 70.10 70.69 69.69 69.17 69.76 69.75 69.82 69.41 68.58
59.71 56.73 51.79 40.83 39.50 42.78 43.86 47.02 49.54 51.54 52.96 54.00 57.79 56.40 63.29 66.61 66.21 68.28 70.53 71.63 70.55 70.63 72.76 74.21 74.53 74.39 74.54 74.37 73.55 72.08 71.74 71.24 73.03 73.53 72.54 70.43 69.64 69.57 69.37 69.30 69.70 70.18 69.98 69.73 69.58 69.35 69.83 69.17 68.57
58.35 52.71 43.30 40.07 41.46 43.74 47.61 49.87 50.90 49.12 51.09 52.82 56.82 57.36 59.18 66.06 68.77 68.52 69.10 70.85 69.85 71.51 72.95 73.68 74.60 74.60 74.50 74.04 73.20 72.39 71.50 70.89 72.79 73.38 72.27 70.85 69.66 69.70 69.46 69.25 69.32 69.49 69.67 69.60 69.50 68.82 68.88 69.45 68.55
51.71 50.79 39.21 38.63 41.09 46.73 47.58 51.46 50.71 48.71 49.89 52.49 54.54 59.36 61.26 66.68 67.31 68.27 68.38 70.44 71.93 71.85 72.92 73.41 73.74 74.09 73.66 73.45 72.78 72.13 71.42 71.54 72.49 73.61 72.54 71.25 70.03 69.43 69.57 69.27 69.32 69.46 69.46 69.22 69.11 68.77 68.11 68.98 68.92
49.12 45.58 40.80 39.90 39.78 44.54 49.03 51.46 47.93 48.91 48.50 54.45 57.04 57.47 61.79 62.97 67.61 68.68 68.91 70.44 71.12 72.06 72.19 72.46 72.77 72.78 72.62 72.39 72.06 71.27 71.79 72.51 72.80 73.11 72.62 71.57 70.92 69.85 69.28 69.52 69.19 68.89 68.64 68.43 68.36 68.26 67.66 67.35 68.13
51.27 47.83 40.80 41.47 40.98 41.59 50.70 50.96 51.92 51.48 53.30 58.63 58.74 57.36 58.14 61.96 66.91 68.58 68.75 68.41 69.77 70.56 71.11 70.61 71.65 71.98 70.93 70.24 70.56 70.04 71.30 71.51 72.45 72.15 71.26 70.11 69.66 69.87 69.78 69.23 69.58 68.90 68.33 67.94 67.59 67.42 67.13 66.40 65.19
54.88 43.73 40.62 41.66 43.19 45.08 50.87 49.68 51.64 53.96 53.67 56.01 57.25 58.72 62.90 65.57 66.85 66.91 66.82 66.70 67.97 69.30 69.66 70.47 70.56 70.46 69.67 69.11 68.40 68.63 69.86 69.45 69.38 69.19 68.25 67.91 67.73 67.72 67.53 67.17 68.11 69.03 68.37 67.49 66.90 66.69 66.11 65.92 65.27
49.15 43.00 43.22 46.96 47.87 47.57 49.31 49.86 50.95 51.32 51.74 55.73 60.20 63.83 65.43 65.77 65.22 65.10 64.86 64.83 66.31 67.02 69.16 69.84 69.98 69.88 69.00 69.27 66.98 65.51 66.22 66.93 66.81 66.52 66.55 66.09 65.70 65.30 66.99 65.90 67.07 68.56 68.35 67.65 67.05 66.50 66.25 64.33 59.74
49.06 43.62 47.83 48.46 51.03 52.79 50.05 49.08 52.89 50.87 48.93 52.55 58.36 61.19 63.86 64.12 64.54 64.59 64.46 65.85 66.30 67.53 68.92 69.38 69.59 70.24 68.49 67.76 66.77 65.25 64.19 62.88 63.53 65.63 64.84 64.22 63.84 65.14 64.79 64.33 65.22 64.87 65.43 64.67 65.46 63.99 62.57 59.50 58.26
45.19 48.30 49.10 50.27 51.91 52.29 49.50 51.06 50.09 51.44 49.97 53.56 59.18 63.02 63.27 63.61 63.94 64.34 64.18 64.46 66.49 67.10 68.16 68.72 69.07 69.79 68.63 67.38 67.29 66.47 65.44 65.65 64.39 62.60 62.36 59.96 59.93 60.78 61.94 62.53 62.53 62.82 64.19 62.92 62.57 61.54 61.37 60.60 59.04
45.02 47.32 49.95 51.25 52.57 51.52 52.41 49.83 49.21 49.76 52.03 54.00 55.29 62.18 62.01 62.90 63.57 64.13 65.00 64.85 65.35 66.46 67.73 68.30 68.74 69.47 69.41 68.04 67.50 66.94 65.67 65.39 65.83 65.01 63.73 61.87 61.39 60.32 60.47 60.30 61.33 61.49 62.71 61.71 61.76 61.40 60.97 60.59 60.30
46.17 47.37 49.04 50.89 50.87 51.69 49.90 48.90 49.60 50.43 52.66 52.39 53.83 54.40 58.82 61.93 63.05 63.49 63.54 64.11 64.79 65.91 66.81 68.18 68.74 68.97 69.51 69.11 68.74 68.00 65.73 65.03 65.06 66.72 65.53 64.26 63.54 62.81 62.89 60.83 58.56 58.18 59.39 59.49 59.40 59.74 60.06 60.76 60.94
46.38 44.00 46.98 48.98 49.86 48.63 50.21 46.52 45.85 49.85 52.00 51.40 51.57 52.47 54.18 56.12 62.61 62.26 62.69 62.89 65.16 65.87 66.50 67.80 68.46 68.68 68.17 68.03 69.00 68.48 67.71 66.78 64.78 65.67 66.19 65.43 64.57 63.65 63.49 62.21 60.68 60.35 59.10 59.34 59.15 59.82 60.91 61.12 61.96
41.23 43.76 40.20 45.65 49.41 49.49 47.01 40.46 48.05 50.28 49.12 48.88 49.79 50.58 52.56 54.15 55.97 62.32 63.64 64.38 64.22 65.12 66.29 67.27 68.43 67.80 67.50 67.79 68.11 66.82 67.86 66.59 66.54 66.08 65.38 65.56 65.27 64.37 63.02 62.38 61.93 62.22 61.46 60.28 60.57 60.81 60.60 60.69 60.87
39.12 35.40 38.62 40.41 47.93 46.90 46.86 41.27 48.17 50.49 48.84 47.36 47.95 48.74 50.84 52.55 53.55 55.03 60.93 64.52 65.42 64.64 65.64 66.43 67.36 67.19 67.48 67.92 67.40 67.64 67.48 65.70 64.88 65.31 65.16 65.32 65.56 65.11 63.87 63.43 63.04 63.42 62.94 62.32 62.29 62.07 61.55 60.95 61.38
33.76 35.42 39.04 38.51 41.74 45.56 43.50 42.18 46.49 49.88 47.90 47.14 47.46 48.15 49.20 51.04 53.05 54.64 55.89 59.40 65.11 64.40 64.94 65.79 66.70 66.99 66.58 66.10 67.02 67.05 66.31 65.72 64.47 64.07 64.57 65.67 65.67 65.31 64.28 64.34 64.11 63.81 64.57 64.60 64.26 63.82 63.81 63.33 63.40
38.61 37.41 37.79 40.52 43.07 41.62 41.67 41.61 45.00 47.39 46.96 46.21 46.35 47.31 48.45 50.41 53.00 54.77 55.33 55.36 60.90 63.62 64.34 65.26 65.18 65.35 65.49 64.35 63.76 64.24 63.19 63.51 63.77 64.57 65.57 65.82 65.79 65.72 64.36 64.11 64.05 65.08 64.44 64.09 64.12 63.73 62.94 62.58 62.82
39.79 37.36 37.60 41.36 43.98 41.50 40.73 40.03 44.35 46.27 46.02 46.62 47.27 47.29 48.29 49.63 51.72 52.90 52.17 52.92 55.10 62.70 63.84 64.24 65.60 64.37 65.23 64.94 64.77 64.87 64.50 64.71 64.91 65.36 66.16 66.67 66.32 66.22 65.16 64.45 64.47 65.02 64.72 64.48 64.36 63.88 63.44 63.16 63.19
38.23 37.10 37.81 38.17 42.01 43.57 41.45 38.33 41.37 45.84 46.01 47.33 47.74 48.35 49.02 49.14 50.54 51.32 51.88 51.74 52.39 54.56 62.31 64.77 65.22 65.45 65.13 65.54 65.20 64.88 64.61 64.72 64.53 64.73 65.10 65.77 65.98 66.26 66.25 66.11 65.87 65.71 65.61 64.80 64.92 64.20 63.41 61.74 61.30
32.24 40.20 41.28 40.59 38.62 33.60 41.89 31.18 38.92 43.51 43.65 44.73 45.42 46.07 47.93 49.18 49.12 51.10 52.75 50.73 50.52 50.87 53.54 61.49 64.32 65.22 66.05 65.38 64.78 63.28 62.86 61.80 62.90 63.07 64.31 59.74 60.22 58.88 58.03 58.68 61.33 63.87 63.88 62.03 61.12 61.55 60.60 59.27 59.06
38.15 42.56 41.51 41.11 37.33 35.36 36.57 29.90 34.50 41.73 39.61 42.55 44.21 46.06 47.04 49.03 48.74 50.04 50.64 51.55 51.92 52.01 51.76 52.39 58.38 63.37 64.96 65.28 65.01 63.78 61.83 61.98 59.74 58.33 57.08 55.92 54.82 55.69 56.21 56.03 55.81 55.66 56.04 56.05 56.70 56.66 56.61 57.13 56.58
43.19 40.29 39.04 38.32 35.79 24.73 34.56 32.20 30.75 33.89 40.38 41.14 45.17 45.77 47.12 47.35 48.11 49.04 50.45 51.18 51.13 51.58 51.56 50.92 51.90 54.48 58.60 60.78 61.94 62.29 61.24 57.61 53.62 53.06 52.51 52.79 53.87 54.78 55.02 55.08 54.25 54.47 54.67 55.01 55.33 55.44 55.30 55.45 55.32
40.40 34.59 26.65 24.73 23.77 24.27 32.95 31.46 31.69 36.28 39.23 40.83 43.01 42.00 44.41 45.61 45.90 47.30 48.98 48.91 49.60 50.53 51.05 51.31 50.93 51.10 52.38 54.98 56.98 57.93 59.08 53.92 53.54 53.23 51.70 51.44 51.18 52.59 53.04 53.40 52.48 51.97 52.30 52.70 52.83 52.69 53.08 53.80 53.85
34.68 33.79 26.02 20.27 19.32 24.23 32.14 27.67 32.54 37.76 40.47 41.85 42.51 42.32 41.45 40.98 41.57 43.49 45.67 47.87 47.88 50.00 50.92 50.93 50.22 50.05 51.26 51.80 51.96 52.34 53.37 52.54 52.48 52.33 51.66 50.76 51.47 51.70 52.22 51.74 51.07 50.22 50.23 50.04 50.42 50.62 51.51 52.53 52.94
36.67 27.79 34.09 27.09 26.26 22.08 26.78 30.46 36.28 38.16 38.67 39.79 41.01 41.45 40.74 41.44 42.09 42.27 42.93 43.63 45.88 48.82 50.20 50.40 49.92 49.75 51.19 51.99 51.58 51.60 51.60 51.36 51.10 51.72 51.92 51.00 50.34 50.22 49.23 49.15 49.19 48.32 48.30 48.62 48.95 49.24 50.29 50.83 51.51
37.56 37.65 27.13 25.89 17.28 19.97 24.81 25.79 28.36 33.61 35.75 39.25 39.93 40.61 41.89 42.90 43.62 44.04 43.97 43.15 43.71 46.07 50.09 50.21 49.84 49.74 50.18 50.42 50.16 50.69 50.88 51.23 51.30 50.34 50.62 50.31 48.57 48.33 47.41 47.24 46.97 46.45 46.51 46.99 47.28 47.95 49.07 48.77 49.04
35.59 34.11 34.66 32.49 28.63 23.62 20.49 24.13 33.71 34.71 37.46 37.82 39.86 41.56 41.43 41.66 43.15 43.64 44.09 44.36 44.49 46.44 47.74 48.49 48.14 48.43 48.48 50.21 49.80 49.64 49.55 50.18 49.77 49.01 49.04 47.68 47.29 46.90 46.37 45.73 45.18 44.75 44.40 44.54 44.77 46.26 46.88 46.99 46.65
38.17 36.84 36.15 28.55 27.12 27.38 24.96 26.40 36.93 37.57 38.62 40.40 40.92 41.29 41.14 41.58 43.23 43.98 44.08 44.18 44.60 45.03 45.95 46.50 46.16 46.78 47.10 47.49 47.82 47.55 47.83 47.85 47.34 47.30 47.17 46.95 45.19 45.36 44.92 44.23 43.83 43.62 43.37 42.82 42.83 44.42 44.15 45.92 46.77

GFSSGP_sfc_wetblb_072.txt.gz
Wetbulb
65.35 64.31 62.68 55.38 44.45 42.64 37.75 41.74 46.84 49.80 51.57 54.99 54.53 55.73 57.37 59.71 57.12 50.30 66.75 69.69 70.99 72.38 73.49 73.76 74.84 74.75 74.37 73.92 73.16 72.46 72.82 72.94 72.63 70.86 69.88 70.41 70.88 71.65 72.86 72.98 72.50 71.67 71.08 70.53 70.12 69.64 69.60 69.80 70.04
64.87 64.86 58.38 50.88 40.59 34.81 37.80 44.69 44.62 51.24 53.89 56.39 55.54 55.58 57.23 58.27 62.02 66.19 66.95 70.72 71.59 72.59 73.17 73.35 74.81 74.58 74.02 73.69 73.15 72.34 72.94 73.20 72.65 70.44 69.66 70.38 70.31 70.51 71.41 72.45 71.83 70.99 70.39 70.02 69.89 69.34 68.97 69.36 69.67
61.55 63.53 50.48 46.88 39.71 36.30 38.25 44.83 46.70 49.81 53.97 54.82 52.62 56.36 59.86 60.15 64.35 64.55 69.44 70.80 71.30 71.91 73.02 73.59 74.44 74.37 74.13 73.69 72.99 72.15 72.88 73.26 72.70 70.98 69.96 69.73 70.45 70.34 70.48 70.29 70.27 70.23 69.38 69.66 69.72 69.46 68.97 68.91 69.06
58.85 56.07 52.42 41.35 38.93 41.25 43.70 45.37 48.81 49.94 54.31 56.63 56.38 54.76 61.37 65.61 65.72 67.61 70.28 70.88 70.39 70.76 72.25 73.53 73.98 74.15 73.87 73.88 72.78 71.77 73.06 72.66 72.47 70.88 69.80 69.52 69.57 69.94 70.23 70.02 70.32 69.97 69.49 69.40 69.63 69.36 68.85 68.64 68.58
58.08 51.81 44.17 39.82 40.75 41.29 46.17 48.46 49.85 49.13 51.56 53.74 56.45 55.39 57.88 61.88 66.63 68.12 69.74 70.21 69.63 71.33 72.63 72.98 73.93 73.97 73.68 73.18 72.60 72.19 72.28 73.20 72.51 71.24 69.95 69.62 69.45 69.46 69.81 69.73 69.43 69.37 69.50 69.28 69.04 69.34 68.94 68.46 68.22
50.82 50.32 42.00 37.99 40.34 43.88 46.67 48.95 49.10 48.16 50.61 54.55 55.29 56.62 59.20 63.80 66.41 67.40 68.55 69.66 71.59 71.59 72.34 72.38 72.91 73.45 73.35 72.92 72.31 71.97 71.89 73.27 73.02 71.86 70.26 69.56 69.52 69.35 69.26 69.33 69.44 69.49 69.47 69.38 68.71 68.46 68.94 68.77 68.11
49.08 45.87 40.87 41.02 39.08 42.18 47.03 51.22 47.45 49.11 49.30 53.99 58.76 56.18 61.24 63.33 66.42 67.85 67.96 70.03 71.29 72.05 71.77 71.73 72.09 72.16 72.23 71.99 71.66 71.25 71.43 72.66 73.24 72.40 71.48 70.35 69.79 69.42 69.19 69.31 69.36 69.33 69.12 68.90 68.63 67.91 67.91 68.42 67.50
51.43 47.29 41.18 39.85 39.60 40.30 48.53 50.06 51.21 51.08 53.38 57.35 59.30 56.63 57.04 61.58 65.49 68.84 68.90 69.51 70.60 71.16 71.48 70.56 71.01 71.24 69.88 69.49 70.24 71.00 71.70 71.94 72.31 71.68 70.62 69.42 68.82 69.14 69.57 69.51 69.38 68.67 68.32 68.14 67.99 67.68 67.00 66.09 65.33
52.72 43.85 39.59 41.36 40.69 42.76 49.22 48.22 50.87 53.88 54.11 59.22 60.62 60.20 62.41 64.46 66.20 66.81 67.00 67.17 68.07 70.42 70.61 70.97 70.69 69.27 68.45 67.71 67.80 70.15 70.29 70.45 70.59 70.06 68.58 67.88 67.15 67.09 66.77 66.80 68.26 68.83 68.14 67.53 67.16 66.95 66.49 66.06 65.28
47.83 42.97 41.46 46.59 46.95 46.55 48.88 47.56 49.52 50.99 53.67 56.98 60.28 63.49 63.83 64.29 64.90 64.30 65.04 65.15 65.71 67.36 69.28 70.23 69.94 68.75 67.64 67.86 65.31 66.01 67.96 67.29 67.94 67.67 67.11 66.26 65.62 65.61 66.31 65.42 66.94 68.51 68.24 67.70 67.11 66.71 66.24 63.82 58.84
47.59 43.49 46.56 47.63 49.54 51.14 49.59 48.42 51.37 50.24 48.84 55.98 57.75 61.31 63.22 63.97 63.71 64.16 64.81 65.53 66.03 66.32 68.42 69.53 69.66 68.76 67.26 66.35 64.65 63.27 64.42 65.32 65.73 65.90 65.41 64.88 64.85 64.19 64.73 64.09 64.79 64.32 64.93 63.60 64.88 63.41 61.91 58.65 57.30
42.63 47.50 48.00 50.14 51.52 51.94 49.13 50.42 49.74 49.63 49.79 56.66 60.95 63.11 63.43 63.01 63.30 63.57 63.58 62.90 63.27 66.51 67.90 68.81 69.53 68.61 67.24 66.26 65.01 63.85 62.51 61.86 62.72 64.32 64.21 62.07 61.93 63.22 62.84 62.56 62.72 62.36 63.43 61.45 61.38 60.86 60.42 59.76 59.00
42.86 45.36 48.69 50.57 52.02 51.55 52.75 49.95 49.20 48.12 50.80 57.79 62.04 62.60 61.22 63.13 63.63 64.06 64.13 65.37 66.25 66.13 67.62 68.36 68.66 68.72 67.53 66.14 65.81 65.26 64.42 63.81 63.20 61.91 61.94 59.90 60.69 61.42 61.22 61.28 61.14 61.12 61.83 61.61 61.21 60.81 60.77 60.61 60.23
44.26 45.63 47.15 49.79 49.90 51.24 49.70 49.39 49.02 49.45 51.01 53.88 59.86 60.40 60.99 61.90 62.75 62.92 63.93 63.45 65.67 66.45 67.41 67.98 67.75 68.53 67.96 66.57 66.60 66.17 65.53 65.15 64.73 63.88 62.34 60.56 60.81 59.66 59.71 58.45 60.35 60.08 60.79 61.52 59.95 60.80 60.18 58.63 59.29
44.95 42.46 45.67 47.18 48.83 48.97 50.50 47.06 45.40 49.62 51.43 50.35 52.97 56.27 59.47 60.99 62.65 62.79 63.49 64.29 65.40 66.15 67.65 67.72 68.06 68.05 68.15 67.52 67.86 67.55 66.62 65.35 64.18 64.79 65.25 62.58 62.60 62.17 62.11 60.94 57.73 57.94 57.84 59.14 57.90 57.92 59.20 60.23 60.94
41.34 42.26 38.08 45.08 48.06 48.87 48.88 41.76 46.77 48.72 49.07 48.81 48.98 50.69 53.35 57.63 61.74 62.31 62.76 63.96 65.40 65.72 66.23 67.47 68.72 68.40 68.31 68.32 68.42 68.22 67.54 65.08 64.94 64.43 64.73 64.48 64.06 63.45 62.65 61.85 61.00 60.70 59.58 58.11 58.31 59.24 59.27 59.52 59.82
38.77 34.31 37.25 41.08 48.52 48.00 45.50 42.32 47.59 50.77 48.10 46.60 47.33 47.38 49.88 51.11 54.40 60.86 62.88 63.99 64.45 64.98 65.89 66.20 67.46 66.90 67.12 67.42 68.14 67.89 66.93 66.89 65.67 66.02 65.91 65.47 64.66 64.02 62.86 62.15 61.96 62.17 61.51 60.87 60.51 60.65 60.56 60.12 60.87
33.56 34.32 37.68 38.00 43.86 44.04 43.96 42.75 45.12 48.42 47.90 45.65 46.62 47.02 47.21 49.59 51.86 54.80 61.16 63.24 64.30 65.08 65.52 65.84 66.56 66.33 66.91 67.11 67.41 66.75 66.41 65.68 65.16 64.95 65.90 64.93 64.68 64.30 63.27 63.26 63.08 62.67 62.36 62.39 63.24 63.15 63.26 62.91 62.61
36.34 36.49 35.99 39.42 44.23 42.24 42.42 41.87 44.48 46.56 46.74 45.28 44.96 46.27 47.01 48.24 51.35 53.31 54.36 60.80 63.99 63.50 64.49 64.47 65.06 65.72 66.25 64.93 65.15 64.72 63.61 64.51 64.63 64.37 64.39 64.69 64.85 64.53 63.41 63.33 63.42 63.57 64.12 64.13 63.79 63.29 62.81 62.50 62.72
37.26 36.21 37.07 40.59 43.43 42.08 41.54 40.82 43.98 45.99 45.91 45.90 46.74 46.18 47.06 48.04 49.28 51.43 52.93 52.93 60.06 63.42 64.22 64.24 65.08 64.68 65.50 64.92 64.36 64.11 63.41 63.32 63.40 64.75 64.43 64.94 65.99 65.85 63.99 63.39 63.33 63.69 63.94 63.92 63.74 63.58 62.58 61.87 62.44
37.57 36.11 36.86 37.28 41.59 43.22 40.22 38.50 40.63 44.31 46.27 46.71 47.04 47.63 47.49 48.41 49.25 49.29 50.92 51.26 52.16 59.77 62.85 64.69 65.29 65.37 65.48 65.18 64.58 64.28 64.25 63.92 63.62 63.40 63.84 65.54 66.02 65.97 65.32 64.80 64.81 65.31 65.33 64.34 64.45 64.11 63.32 61.55 60.99
33.48 40.89 39.85 38.34 38.14 33.47 40.37 30.64 38.23 41.75 42.99 44.60 45.06 44.59 45.99 46.79 47.83 49.20 50.47 51.44 49.94 53.65 60.84 63.61 64.57 64.73 65.30 64.67 64.21 63.93 63.08 62.24 63.58 62.98 63.58 62.40 63.51 63.93 64.48 64.63 64.94 64.65 63.86 62.47 61.71 61.65 59.97 59.08 57.41
35.78 41.96 40.51 39.02 35.23 34.93 35.28 31.61 34.07 41.29 39.80 42.39 43.08 43.86 45.02 46.56 47.79 49.10 49.83 51.99 51.69 50.59 52.97 58.92 62.44 64.43 65.21 65.14 64.27 63.55 61.46 62.12 61.68 61.76 61.32 58.80 59.30 58.72 57.94 57.30 56.10 56.57 57.40 56.91 56.51 55.66 55.78 56.47 56.40
41.74 39.94 39.48 37.95 35.70 29.25 33.15 33.16 30.86 34.65 40.05 41.79 43.03 43.83 45.30 46.36 46.97 48.20 49.73 50.49 50.10 49.97 49.95 50.57 55.23 59.46 61.04 62.20 63.26 63.35 62.69 61.01 57.91 57.51 57.72 56.18 56.01 57.35 57.63 57.08 56.36 55.46 54.87 54.63 55.12 54.63 53.79 53.85 53.94
39.30 34.06 28.77 27.37 26.56 23.78 34.23 31.81 32.91 36.59 39.04 41.93 42.51 43.71 43.67 43.95 44.84 45.56 47.08 48.39 49.24 49.74 50.18 50.23 50.61 52.71 56.89 59.52 59.92 61.56 61.82 60.38 57.92 56.83 56.65 54.16 54.52 55.29 55.68 54.46 53.19 52.17 52.91 53.03 52.90 52.23 51.76 51.81 52.33
36.00 32.08 25.71 21.87 22.47 23.94 31.52 27.80 33.07 37.74 38.61 40.40 40.35 39.09 39.02 39.62 39.83 42.68 45.29 47.12 47.23 48.41 48.98 49.51 49.52 49.43 50.66 52.22 55.71 56.13 58.00 55.54 55.69 55.48 54.81 54.70 54.25 54.43 54.38 52.95 51.82 51.09 51.29 51.09 50.55 50.24 50.28 50.38 50.81
35.35 31.57 32.49 26.35 25.75 25.33 27.83 31.86 36.17 37.71 37.92 39.29 39.88 40.44 40.05 40.74 41.45 41.62 42.31 42.85 43.80 47.21 48.73 49.38 49.38 49.12 49.72 50.04 50.27 50.49 53.78 53.36 52.85 53.01 51.96 51.88 51.15 51.83 51.84 51.15 50.37 49.10 48.80 48.42 48.44 48.43 48.28 49.71 50.21
36.42 37.22 26.50 24.66 18.80 21.13 24.70 25.31 29.95 33.62 36.05 38.30 38.86 39.27 39.78 41.12 42.52 42.55 42.39 42.72 43.09 43.09 46.02 48.82 48.88 48.85 49.02 49.55 49.46 50.13 49.55 50.26 51.55 51.99 51.38 50.72 49.09 48.45 47.87 47.33 47.03 47.25 47.14 47.15 47.30 46.39 47.52 47.65 48.46
34.07 31.48 32.41 29.78 26.32 20.90 19.77 23.79 32.25 34.12 37.37 36.96 37.82 39.39 39.92 40.86 41.79 42.68 43.00 43.01 43.54 44.24 45.99 46.87 47.65 47.61 47.71 47.87 47.65 48.19 49.14 50.02 49.78 49.33 49.10 48.28 47.28 46.62 46.24 46.03 45.50 45.24 45.12 44.67 44.18 44.55 46.50 46.18 45.94
37.03 34.17 32.22 23.32 22.93 24.78 23.27 26.02 35.34 36.48 37.54 38.31 38.04 39.47 39.42 40.13 41.96 42.68 43.01 43.21 43.35 43.69 44.78 45.33 46.08 46.24 46.74 47.03 47.41 47.81 48.16 48.60 47.71 47.93 48.12 46.58 45.93 45.67 45.58 44.43 44.14 43.52 43.57 42.91 43.08 43.56 45.43 44.81 44.91

GFSSGP_sfc_wetblb_075.txt.gz
Wetbulb
64.16 64.78 62.09 56.37 44.31 40.29 37.70 40.38 46.88 48.99 51.62 55.47 54.97 56.70 56.60 57.89 54.96 48.39 66.41 68.77 71.22 71.72 72.72 72.95 74.48 74.39 74.09 73.26 72.60 71.85 72.31 72.65 71.10 70.15 70.71 72.10 72.87 72.94 73.03 72.70 71.70 71.19 70.22 70.01 70.56 71.17 71.11 70.96 70.77
63.16 63.66 58.66 51.07 40.75 34.19 35.90 43.98 44.13 48.65 54.19 56.45 56.47 57.20 56.83 56.89 63.44 65.32 67.15 70.31 71.66 72.23 72.59 72.34 74.02 73.93 73.43 72.90 72.30 72.83 72.43 71.23 70.12 69.78 70.23 71.29 72.43 72.82 72.88 72.32 71.18 70.44 69.98 69.63 69.81 70.01 70.32 69.92 69.59
60.46 62.73 51.91 46.79 40.21 34.95 36.16 42.63 47.59 51.96 54.86 54.79 53.09 57.81 58.79 59.46 64.07 65.44 68.28 70.87 71.85 71.66 72.40 72.51 73.77 73.64 73.41 72.81 72.21 72.77 72.44 71.31 69.95 69.92 71.30 71.12 71.16 72.52 72.38 71.54 70.28 69.80 69.69 69.45 69.37 69.66 69.43 69.26 69.88
57.03 56.49 52.78 42.76 39.28 40.53 40.12 42.73 47.43 52.09 54.74 55.98 55.44 53.30 60.51 64.65 64.47 67.25 70.47 70.80 70.16 70.46 71.61 72.91 73.56 73.40 73.41 73.17 72.62 72.63 72.24 71.32 69.83 69.46 69.97 70.80 70.15 70.61 70.39 69.96 69.43 69.41 69.48 69.49 69.26 69.12 68.82 68.85 69.80
56.64 52.50 43.83 41.76 39.91 40.87 43.02 45.84 48.34 50.05 51.99 54.61 55.08 52.79 56.84 61.72 67.20 69.55 70.07 70.31 69.93 70.69 71.73 72.03 73.50 73.21 72.77 72.60 72.45 72.73 73.06 71.56 70.15 69.49 69.36 69.74 70.01 70.37 69.74 69.15 68.94 69.25 69.22 69.40 69.00 68.71 68.52 68.44 68.64
47.40 50.51 40.43 37.88 39.38 42.69 44.36 46.61 48.09 46.96 49.74 53.65 53.70 54.83 57.26 62.62 64.08 67.70 68.83 69.58 70.87 71.06 71.62 71.70 72.35 72.97 72.57 72.19 72.09 72.17 72.98 72.35 70.67 69.72 69.43 69.28 69.48 69.85 69.16 68.95 68.91 69.23 69.12 68.80 68.84 68.87 68.55 68.14 67.91
44.56 44.59 41.25 40.33 39.64 40.99 44.78 48.67 45.51 46.40 48.21 51.67 55.97 53.92 59.40 58.93 63.15 67.55 67.46 68.59 70.23 70.74 70.69 70.72 71.26 71.70 71.92 71.77 71.55 71.52 72.44 72.74 71.79 70.68 70.16 69.68 69.44 69.37 69.13 68.59 68.91 69.11 69.10 68.59 67.99 68.21 68.39 67.93 67.04
48.59 47.20 41.77 40.36 39.79 40.12 46.77 49.09 48.60 47.93 50.71 56.30 59.85 54.75 55.41 60.01 63.43 67.88 68.11 68.03 69.43 69.03 69.47 69.75 70.56 70.48 69.40 69.20 70.49 70.40 71.08 71.92 71.50 70.66 69.56 68.89 68.69 69.00 69.47 69.32 69.51 69.06 68.74 68.45 67.90 67.25 66.61 66.46 65.81
50.81 42.58 39.31 41.43 40.42 43.00 46.98 46.35 50.49 53.62 53.99 58.72 58.65 59.79 60.83 62.68 65.49 63.53 62.17 65.88 66.65 67.75 68.35 69.64 70.30 68.65 67.87 67.16 68.26 70.17 70.50 70.62 70.47 69.58 68.02 67.05 65.64 66.60 67.12 66.91 68.09 68.70 68.28 67.79 67.45 67.02 66.36 66.34 64.88
44.54 40.87 40.76 45.94 46.10 43.70 47.74 46.86 49.21 52.10 54.70 56.45 59.65 62.63 63.06 63.01 62.95 60.29 58.98 59.65 64.66 67.60 69.31 70.17 69.84 68.14 67.01 67.19 66.74 67.06 68.09 68.31 69.41 68.05 66.46 65.61 65.00 64.69 65.49 65.25 67.00 68.40 68.17 67.75 67.08 66.80 66.26 63.88 57.94
43.30 40.13 44.44 46.77 48.52 50.28 49.75 48.30 50.19 50.43 50.36 55.90 57.17 59.11 62.03 63.05 61.54 61.12 59.36 62.82 64.55 65.77 68.30 69.93 69.02 67.88 66.34 64.96 64.18 65.14 65.75 65.93 67.02 66.37 65.52 64.72 64.46 63.79 63.71 63.06 64.02 63.63 64.52 63.02 64.41 62.72 61.19 57.96 56.92
40.31 43.66 46.02 47.50 49.43 50.71 48.80 50.93 48.29 49.26 50.65 56.36 60.77 61.16 61.18 62.19 62.94 62.75 63.35 63.33 62.82 65.85 65.97 67.00 67.81 67.68 66.48 64.91 63.41 63.80 64.44 64.77 64.91 65.16 64.91 63.49 62.54 62.30 62.59 62.31 62.21 61.78 62.19 60.21 59.99 59.81 59.38 58.90 57.92
40.82 42.64 46.23 48.39 50.48 51.36 52.35 49.79 48.72 48.23 51.59 60.55 62.31 61.39 60.72 62.27 63.11 64.12 64.60 64.44 65.09 63.71 64.27 66.34 67.95 67.22 66.61 64.90 63.76 62.82 62.98 63.69 64.02 63.99 64.06 62.44 61.46 61.99 62.09 61.62 61.01 60.77 60.79 60.66 59.52 59.64 59.63 59.60 59.68
41.57 42.76 44.05 48.22 48.44 50.53 48.97 49.22 49.43 49.42 51.40 59.12 60.91 60.56 61.15 61.81 62.79 62.17 62.51 62.10 62.55 62.83 63.31 66.77 67.77 68.24 67.20 65.32 64.81 64.32 63.32 62.74 62.44 61.89 62.51 61.64 61.13 61.94 61.81 61.03 60.58 59.94 60.16 60.86 60.21 60.23 60.24 59.86 58.53
41.86 40.00 42.35 45.10 47.33 47.78 50.32 46.31 46.39 49.48 51.17 55.53 57.84 58.78 60.32 61.81 62.39 62.53 63.26 63.32 63.99 65.03 65.95 66.81 67.41 68.45 67.44 65.73 65.47 65.68 65.45 65.15 64.15 63.74 61.94 60.62 60.57 60.50 60.47 58.92 57.91 59.91 59.56 60.11 59.94 57.78 58.12 58.44 59.95
38.71 40.55 34.70 42.92 46.03 48.22 47.96 40.24 48.56 50.14 49.06 49.02 52.64 54.22 57.36 60.12 62.23 62.44 63.72 64.56 65.65 65.97 66.74 67.38 68.10 67.96 67.69 67.14 66.45 66.44 66.09 64.64 64.91 64.72 64.36 62.21 61.27 60.95 60.85 60.74 58.94 57.90 57.36 57.12 57.10 57.23 57.90 58.82 59.11
36.32 33.36 33.92 39.82 46.58 46.72 45.82 41.78 48.78 50.51 48.59 47.96 48.07 47.65 50.39 54.48 58.04 61.35 62.68 63.48 64.88 65.16 65.88 66.82 67.40 67.03 67.53 67.70 67.86 67.07 66.47 65.54 64.48 64.45 64.62 63.95 63.03 62.95 62.47 61.72 61.25 60.35 59.26 58.25 57.88 58.51 59.42 59.18 59.81
31.12 31.66 35.01 37.34 43.08 44.73 43.70 41.74 46.68 48.56 47.29 45.82 45.44 47.53 47.76 49.15 52.99 56.58 62.27 63.68 64.79 64.50 65.40 66.38 66.97 67.29 66.99 67.53 67.96 66.61 66.50 66.25 65.87 65.10 65.56 65.70 65.14 63.67 62.72 62.14 61.66 61.33 61.10 60.83 60.47 60.30 61.26 61.68 62.34
35.42 34.04 34.77 39.25 44.30 42.80 42.86 41.71 44.68 47.25 47.35 45.95 45.10 45.40 46.30 47.68 50.15 53.15 55.16 61.75 62.73 63.05 63.79 65.22 65.37 65.93 66.19 65.43 65.03 64.70 64.92 64.31 64.08 64.01 65.47 65.74 65.41 64.05 62.77 62.41 62.30 62.08 61.61 61.81 62.23 62.84 62.28 62.23 62.64
36.52 34.14 35.85 38.52 42.39 42.70 40.08 40.94 44.36 46.42 46.38 46.72 45.35 46.05 46.04 46.66 47.90 50.21 51.81 53.64 61.34 62.30 63.03 63.58 64.43 64.98 65.67 65.79 65.81 65.08 63.76 63.35 63.40 64.32 64.59 65.43 65.15 64.62 63.59 62.65 62.39 62.63 62.40 63.01 63.05 62.91 62.34 62.36 62.30
36.20 33.86 36.23 36.87 38.73 40.49 39.20 37.48 40.83 44.61 46.44 47.05 46.10 46.48 47.15 47.22 47.85 48.67 49.26 51.55 52.56 59.93 61.90 63.45 64.40 65.37 65.43 64.39 64.04 63.64 63.43 63.23 62.84 63.46 63.82 64.31 64.89 64.69 64.50 64.11 63.19 62.97 64.06 63.41 63.67 63.50 62.65 61.05 59.79
32.82 38.66 39.81 38.57 36.30 33.36 39.04 29.85 38.04 41.55 43.13 44.20 45.16 44.12 45.34 46.65 47.49 48.08 49.28 49.36 50.92 52.78 60.50 62.35 63.62 64.28 64.37 64.03 63.71 63.51 63.19 62.20 62.43 62.60 62.89 63.28 63.93 64.25 64.86 64.30 64.36 64.64 64.30 63.51 62.94 62.50 62.02 59.80 57.38
34.89 41.07 38.16 37.46 34.56 35.20 35.97 31.02 34.37 40.65 39.50 42.69 44.26 43.21 44.38 45.57 46.54 47.38 47.97 50.16 51.34 51.59 55.45 61.41 62.28 63.10 63.71 63.31 63.18 62.29 60.98 61.99 62.00 61.71 61.93 61.14 60.95 60.96 60.98 60.98 60.65 60.31 59.94 59.63 59.69 59.19 58.29 56.90 56.00
41.80 39.88 38.29 37.75 34.46 28.08 33.21 31.32 29.96 35.64 39.53 42.22 43.14 42.92 44.13 45.18 45.39 46.65 48.02 48.89 48.46 47.80 50.15 53.78 58.33 60.79 62.31 63.03 62.77 62.80 62.39 60.67 59.85 59.95 59.92 58.62 57.87 58.77 59.11 58.38 57.53 57.21 56.71 56.68 56.70 55.75 53.92 52.92 52.62
39.51 35.51 28.72 26.67 26.52 26.33 33.82 31.75 32.51 36.24 38.35 40.71 41.45 42.43 43.58 42.93 44.85 45.39 45.25 47.25 46.90 47.64 48.64 49.39 51.61 56.18 58.36 60.15 60.76 61.79 62.68 61.62 60.39 58.97 59.16 57.29 56.44 55.96 56.71 56.61 55.95 54.55 54.07 54.14 53.73 52.57 51.40 51.47 51.36
34.11 32.80 28.16 22.74 22.61 24.66 31.83 28.68 31.98 36.04 38.08 39.40 41.53 39.48 38.55 39.07 40.50 42.68 42.80 46.10 46.47 46.94 48.16 48.43 48.72 48.90 51.04 55.09 57.73 58.40 59.98 59.88 59.78 58.92 58.50 57.41 56.25 55.33 55.30 54.11 52.60 52.01 51.99 51.76 50.95 50.54 49.79 49.26 49.25
33.08 29.06 33.38 27.01 26.97 25.78 26.89 31.14 36.27 38.21 37.55 38.50 37.81 38.88 38.64 39.47 40.15 40.84 41.42 41.67 42.44 43.84 46.51 47.61 48.24 48.57 48.71 49.48 50.85 53.44 55.56 56.20 54.76 54.97 55.14 53.33 53.32 54.10 53.02 51.70 50.86 49.99 49.44 48.71 48.43 48.12 47.79 47.99 48.59
35.69 35.96 27.52 26.21 21.86 20.80 24.36 24.60 29.20 33.39 35.97 37.23 38.05 38.25 39.13 40.04 40.90 41.56 42.06 42.56 42.88 43.03 44.71 46.18 48.13 48.13 48.18 48.54 48.32 48.96 49.53 51.49 52.78 52.30 50.98 51.13 51.36 51.96 50.75 49.34 48.71 48.11 47.68 46.71 46.35 46.12 47.06 47.91 47.78
33.09 32.63 31.77 29.60 26.26 21.33 20.95 25.39 32.19 34.35 37.05 37.15 36.85 38.27 39.00 39.73 40.18 40.85 41.55 42.06 42.11 42.78 43.81 45.23 46.37 46.82 47.08 47.43 47.39 47.52 47.72 48.53 49.10 49.75 49.51 47.95 47.58 47.46 47.78 47.49 46.83 45.94 45.30 44.36 43.69 44.00 44.63 45.64 45.40
35.15 32.34 29.88 23.34 22.93 22.94 21.46 23.54 34.17 35.31 36.95 37.33 37.69 38.37 39.30 39.36 39.43 39.84 41.15 41.68 42.05 42.20 42.66 43.27 44.51 45.60 46.07 46.24 46.47 47.03 47.65 47.98 48.03 48.28 48.46 47.04 46.87 46.13 46.00 45.64 44.42 43.67 43.25 42.66 42.18 42.34 43.65 44.41 44.07

GFSSGP_sfc_wetblb_078.txt.gz
Wetbulb
62.41 63.54 61.60 56.85 45.13 40.75 36.12 38.98 44.87 47.18 51.28 54.36 56.35 56.34 56.60 57.79 53.50 47.45 66.25 69.17 70.37 71.22 72.03 72.53 74.35 74.00 73.88 72.93 72.07 71.81 72.32 71.85 71.40 72.16 73.01 73.32 73.41 73.37 72.96 72.16 71.07 70.57 70.62 70.91 71.58 71.49 70.90 71.13 70.92
61.28 62.24 57.57 50.55 41.82 35.51 35.69 40.04 42.23 45.79 53.28 56.06 55.53 55.93 57.38 57.28 63.12 65.42 66.92 70.50 71.16 71.53 71.86 71.86 73.60 73.88 73.41 72.58 71.52 72.46 71.72 70.41 70.47 71.31 72.53 72.91 73.11 73.21 72.31 71.68 70.73 70.15 70.47 70.96 70.72 70.94 70.31 69.94 70.18
59.27 61.33 50.30 46.48 42.19 36.95 34.60 40.56 44.12 48.61 53.87 55.14 54.18 56.97 58.43 59.09 64.37 65.85 68.21 70.60 71.31 71.00 71.56 71.91 73.47 73.64 72.96 72.09 72.25 72.37 71.17 70.04 70.03 71.27 72.32 72.44 72.88 72.93 72.24 70.89 70.18 69.77 69.91 70.30 70.62 70.04 69.82 70.75 71.62
55.44 53.52 50.68 43.20 39.71 40.43 39.29 41.10 45.30 49.61 53.79 55.07 54.81 52.10 60.77 63.88 64.13 67.04 70.52 70.68 70.02 69.93 70.85 72.26 73.14 73.08 73.25 72.49 72.64 72.14 71.05 69.82 69.68 71.22 71.29 72.09 72.66 72.69 71.46 70.29 69.68 69.57 69.51 69.99 70.07 69.36 69.48 70.09 71.78
54.92 49.26 42.06 41.30 41.00 41.31 41.82 45.14 45.89 47.86 51.31 51.90 54.41 52.10 56.80 62.41 67.70 69.43 70.27 70.52 69.65 69.81 70.45 71.13 72.99 72.98 72.66 72.56 72.44 72.55 71.12 69.72 69.50 70.28 70.33 70.33 71.05 70.74 69.86 69.50 69.37 69.46 69.34 69.62 69.43 68.96 68.96 68.79 69.67
46.35 46.79 40.17 37.78 40.44 43.46 43.70 45.91 45.07 44.92 48.03 52.94 52.72 53.60 56.96 63.14 65.46 67.79 69.77 68.99 70.39 69.84 70.20 70.63 71.57 72.71 72.79 72.22 72.18 72.26 71.74 70.07 69.33 69.51 70.12 70.11 70.49 69.95 69.17 69.04 69.26 69.14 69.17 69.09 68.85 68.56 68.30 68.26 67.91
43.78 41.45 39.51 38.19 39.83 40.56 44.14 48.11 44.01 43.55 46.06 51.17 55.50 51.67 57.72 59.94 65.49 67.97 68.07 68.46 68.92 69.04 69.66 69.36 70.06 71.39 71.54 71.54 71.70 72.02 72.19 71.16 69.92 70.06 69.99 70.13 70.00 69.50 69.04 69.02 69.19 69.20 68.89 68.69 68.73 68.64 68.32 67.75 67.18
46.51 46.56 38.33 40.26 38.64 39.97 45.50 48.01 48.72 46.89 45.50 55.21 57.10 52.96 55.32 58.62 65.68 66.84 66.09 65.93 67.46 67.52 68.08 68.77 68.96 69.92 69.03 68.91 70.55 70.67 71.11 70.94 70.30 69.84 69.19 68.53 68.43 68.77 69.14 68.95 69.40 69.21 68.89 68.41 67.84 67.68 67.60 66.94 66.23
48.93 41.24 36.39 39.42 40.71 42.21 46.27 46.06 50.26 53.12 51.64 55.26 57.85 57.87 59.64 60.97 64.56 61.77 60.44 61.68 62.51 66.27 67.10 68.34 69.41 68.58 67.81 67.41 68.14 69.52 70.53 70.31 69.69 68.81 67.72 66.83 65.17 66.00 66.69 66.74 68.16 69.00 68.51 67.88 67.36 66.81 66.26 65.28 63.74
42.45 37.08 37.60 42.91 44.15 42.36 46.62 47.18 48.13 51.61 52.64 54.11 57.47 60.83 59.93 61.72 59.84 57.47 57.50 58.19 60.14 62.97 66.25 67.82 68.64 68.00 67.03 67.58 67.06 67.12 68.46 69.80 69.07 66.64 65.19 64.40 64.09 64.54 65.51 65.11 66.85 68.17 68.01 67.75 66.66 66.20 66.05 62.11 57.08
41.88 37.69 41.27 42.81 46.24 47.39 47.38 48.44 50.09 50.42 48.95 53.68 55.78 58.39 58.67 60.11 57.16 57.11 57.37 58.26 58.86 61.05 67.00 68.68 69.16 67.36 66.02 65.45 65.69 65.85 66.08 66.99 68.93 65.88 64.77 64.00 63.80 63.10 62.79 62.66 63.94 63.25 64.36 62.34 63.11 61.42 60.28 57.01 56.34
37.72 41.52 42.72 44.28 47.25 47.25 46.21 50.18 48.50 50.33 50.43 52.05 58.09 60.29 58.95 60.12 57.15 56.13 56.13 57.48 59.37 63.37 64.62 65.89 67.80 66.59 65.50 64.19 65.08 64.89 65.41 65.52 66.98 66.70 64.75 63.40 62.08 61.70 61.53 61.36 61.45 61.17 61.45 59.69 59.10 59.02 58.24 57.79 57.42
37.92 39.63 43.59 44.88 45.40 47.24 48.71 48.17 49.31 48.77 50.80 54.47 60.31 60.76 57.87 60.19 58.95 58.13 58.04 58.99 63.06 61.40 61.90 62.65 63.56 65.94 66.02 63.73 63.37 64.53 64.88 65.46 65.91 65.75 64.90 63.45 62.20 61.55 61.69 61.43 61.02 60.40 60.04 59.81 58.11 58.57 58.77 58.47 58.87
38.71 40.28 40.99 43.85 44.94 46.73 46.93 47.73 49.41 49.77 51.03 52.22 59.07 59.71 58.87 61.48 59.76 61.44 60.28 61.47 60.64 61.80 61.31 62.29 61.46 66.72 66.38 65.01 62.97 63.17 64.04 64.51 64.66 64.75 64.79 63.39 62.16 61.75 61.66 61.21 60.43 59.72 59.68 60.13 59.22 59.36 59.54 59.24 58.53
38.85 36.03 39.78 41.62 43.14 45.25 48.31 44.77 46.56 49.21 50.31 50.29 57.07 58.35 59.90 61.40 62.89 62.21 62.57 61.12 60.62 60.26 61.68 62.55 62.79 66.58 66.51 65.68 64.64 64.18 62.95 63.28 63.05 63.61 63.36 63.33 61.36 61.24 61.92 61.31 60.18 59.96 59.51 59.77 59.47 58.40 57.77 58.20 58.55
35.58 35.56 31.93 39.70 43.11 46.21 45.69 38.68 47.41 49.65 48.61 48.45 50.40 54.56 58.47 60.82 62.42 62.46 63.27 62.80 62.01 61.79 62.75 64.50 64.96 66.83 66.82 65.89 65.44 65.59 65.44 64.57 63.04 62.94 62.27 61.68 61.17 60.65 60.57 60.15 58.77 58.25 59.30 58.77 58.36 58.21 56.47 57.29 58.42
32.53 27.49 30.07 35.61 42.96 44.39 44.00 40.99 48.02 49.25 47.40 46.75 48.76 49.84 51.17 56.41 60.07 62.05 63.42 63.11 63.21 63.71 64.64 65.82 66.47 66.44 66.96 66.49 66.40 66.10 65.92 65.25 64.66 64.17 64.08 62.64 61.06 60.50 60.27 60.22 60.33 58.88 57.45 56.54 56.55 56.49 57.65 57.85 58.50
26.58 28.19 34.73 33.48 40.66 42.81 42.59 41.46 47.67 48.49 47.80 45.87 46.66 47.29 48.89 50.37 55.28 60.60 62.68 63.71 64.23 65.16 65.64 65.62 66.37 66.20 66.29 66.84 66.36 66.27 66.29 66.12 65.26 64.44 64.22 64.38 63.03 61.73 61.16 61.57 61.15 60.48 59.08 58.57 58.13 57.58 58.84 59.67 60.61
32.32 31.04 31.37 36.19 42.75 41.26 41.10 40.52 44.05 47.82 47.87 46.35 47.16 47.25 47.40 48.90 52.32 55.15 58.63 62.16 62.82 63.59 63.44 65.20 64.88 65.64 65.55 64.93 64.73 65.16 64.97 65.62 65.33 65.08 65.30 64.71 64.76 64.16 62.93 62.25 61.44 60.77 60.63 60.76 60.43 60.12 60.48 61.65 62.39
32.99 32.12 33.08 38.43 42.61 41.61 39.66 39.76 44.18 46.26 46.64 47.75 47.24 46.37 47.29 47.98 48.82 51.29 53.58 55.70 61.38 62.36 62.60 63.67 64.53 65.10 65.05 65.00 64.58 64.43 64.15 64.73 64.94 64.48 64.44 64.79 65.12 65.00 63.90 63.18 62.44 61.74 61.32 61.13 61.50 62.04 61.78 61.98 62.23
33.00 32.63 33.54 35.38 38.75 39.45 37.54 35.63 38.56 44.21 46.33 48.24 48.23 47.17 47.28 47.51 47.85 49.22 49.01 51.55 54.37 59.34 61.60 63.30 63.99 64.44 65.06 65.41 65.08 63.08 62.98 62.73 62.84 63.39 63.20 63.59 64.78 64.76 64.50 63.73 62.80 62.27 62.79 62.60 62.41 62.60 62.29 61.11 60.51
31.75 37.75 38.45 36.83 34.74 30.75 37.85 29.27 37.11 41.16 43.28 45.09 46.75 47.02 45.98 47.66 47.71 48.44 48.79 48.87 50.34 51.97 59.27 62.45 63.22 63.62 64.02 64.33 64.01 63.79 62.85 61.69 62.32 62.68 62.62 62.93 63.28 63.28 63.61 63.51 63.10 63.10 63.90 63.43 62.59 62.09 62.07 61.38 59.50
35.54 40.18 38.44 36.71 33.53 34.67 34.08 31.59 34.27 40.47 39.42 42.36 45.63 47.63 45.48 47.07 46.91 47.47 48.47 49.30 50.47 50.91 52.33 59.69 61.66 62.01 63.33 63.42 63.80 63.04 62.19 62.11 61.99 61.89 60.94 60.28 60.60 60.67 61.40 62.06 61.99 61.83 61.33 60.51 60.00 59.19 58.51 57.91 57.42
40.93 37.79 37.64 36.61 34.50 26.92 32.64 32.52 30.45 35.78 39.22 42.06 45.10 46.38 46.65 47.59 46.61 46.92 47.26 48.85 48.77 48.11 49.96 55.78 59.11 59.92 61.16 61.44 61.59 61.88 62.02 60.88 60.47 59.75 59.78 59.91 60.16 60.06 59.88 59.99 60.71 60.60 59.38 58.44 58.05 57.22 56.32 55.71 54.56
39.97 34.20 27.27 24.93 25.77 25.69 33.04 32.00 32.76 34.56 36.71 40.45 44.08 44.72 45.01 44.75 45.11 45.89 45.64 47.28 47.80 47.50 47.85 49.52 52.38 54.76 56.84 58.78 60.49 61.21 61.15 60.77 60.05 59.47 59.71 59.21 58.03 56.94 57.71 57.78 57.88 56.87 54.99 54.79 54.48 53.91 53.15 52.90 52.40
36.62 34.48 28.61 22.73 22.64 25.82 31.68 27.36 32.09 34.78 36.67 38.72 40.68 41.51 40.45 40.82 41.66 42.15 43.22 44.07 44.81 46.52 47.43 48.13 48.51 48.83 48.97 51.79 55.43 57.92 59.07 59.38 59.35 59.41 59.03 59.49 59.23 58.43 57.65 56.21 54.37 52.90 53.02 52.66 52.01 51.30 50.43 50.18 49.62
34.46 30.75 34.52 27.74 27.83 25.42 28.38 31.00 35.19 37.63 37.10 38.54 38.08 39.02 38.16 38.69 39.68 40.17 40.79 41.05 41.59 42.62 44.16 45.79 47.83 48.60 48.79 48.50 49.03 50.68 53.69 55.97 56.38 56.01 57.35 57.25 56.78 56.58 55.82 53.97 52.19 51.48 50.93 50.14 49.51 48.64 47.78 47.81 47.49
33.78 35.95 28.06 28.08 22.44 21.29 25.40 24.69 28.60 33.58 34.10 36.64 36.18 36.45 37.38 38.92 39.76 40.23 40.86 41.26 41.93 42.37 43.61 45.46 46.40 46.98 47.66 48.03 48.12 48.69 48.86 51.22 54.00 53.74 53.06 53.21 52.25 52.68 51.08 50.17 49.82 48.96 48.60 47.99 47.30 46.37 46.49 46.56 46.87
32.08 30.43 29.76 29.39 26.79 23.29 21.95 25.57 32.41 33.36 35.94 34.80 35.52 36.93 37.34 37.82 38.59 39.52 40.14 40.77 41.05 41.59 42.48 43.31 44.35 45.65 46.37 46.57 46.81 47.13 47.74 48.61 49.92 50.28 49.80 49.45 49.72 50.80 49.26 48.71 47.45 46.79 46.06 45.72 45.53 44.84 44.66 45.18 45.06
33.87 31.99 28.90 24.24 23.28 22.22 21.21 24.56 33.52 34.15 36.50 37.12 36.12 36.57 37.35 37.55 37.43 37.65 37.94 38.37 38.75 39.31 40.50 41.75 43.07 43.96 44.53 44.97 45.28 45.89 46.63 46.99 47.10 47.34 47.50 47.37 47.24 47.13 46.97 46.43 45.49 44.54 44.32 43.04 42.54 42.14 42.33 43.15 43.19

GFSSGP_sfc_wetblb_081.txt.gz
Wetbulb
63.50 64.32 63.46 58.64 47.68 45.66 41.74 43.67 47.96 49.10 50.54 56.65 57.43 58.46 57.54 59.10 54.77 50.89 68.09 69.28 70.96 71.73 72.67 73.03 74.18 73.99 73.21 72.58 72.14 73.06 71.25 72.30 72.98 74.00 74.36 74.13 74.06 73.57 72.99 71.99 71.42 71.11 71.24 71.54 71.60 71.09 71.37 71.22 71.12
62.56 62.64 58.82 53.09 43.74 37.80 39.73 45.62 44.76 49.33 54.62 57.06 57.83 57.37 55.87 56.75 63.72 65.36 66.65 70.16 71.42 71.97 72.75 72.72 73.73 73.87 73.64 72.46 72.04 72.61 71.18 70.77 72.53 73.16 73.60 73.86 73.70 73.48 72.15 71.28 71.00 70.97 71.83 71.44 70.82 70.55 70.50 70.54 70.86
60.33 61.19 53.32 48.39 43.44 38.27 39.49 44.35 47.28 49.27 55.55 56.35 55.65 57.47 57.24 58.69 64.77 66.01 69.58 71.26 71.69 71.98 72.70 72.64 73.33 73.60 73.30 71.69 72.54 72.10 70.80 70.25 71.75 72.77 73.09 73.53 73.78 72.70 71.83 70.71 70.58 71.72 71.18 70.82 70.43 70.27 70.92 71.59 71.71
57.56 56.04 52.82 43.91 41.01 43.91 43.93 46.62 46.92 48.50 53.44 56.77 56.55 53.65 60.63 64.15 64.40 67.82 70.63 71.11 71.31 71.83 72.71 72.57 72.87 73.32 72.95 72.62 72.63 71.51 70.29 69.88 70.35 72.27 72.43 73.11 73.46 72.38 70.91 70.28 70.79 70.96 70.95 70.58 70.09 70.30 71.48 71.86 71.42
56.81 51.53 43.70 41.27 41.71 44.66 46.25 47.19 48.02 47.55 51.10 54.68 55.98 53.79 56.56 63.59 66.33 68.23 70.06 71.06 70.64 71.50 72.41 72.19 72.92 73.15 72.96 73.20 72.54 71.76 70.17 69.65 69.92 70.88 72.07 72.67 72.90 71.97 70.66 69.93 69.72 69.91 70.56 70.26 69.72 69.77 69.82 70.77 70.92
50.01 49.15 40.56 38.18 40.88 45.55 47.82 48.76 47.96 47.95 50.18 54.22 53.77 54.19 56.21 65.37 66.16 67.42 69.76 70.75 71.30 71.01 71.80 71.72 71.73 72.73 72.78 73.01 72.30 71.98 70.57 69.55 70.24 70.85 71.31 72.30 71.64 70.58 69.75 69.63 69.54 69.69 70.24 69.93 69.40 69.12 68.91 68.73 69.51
46.17 43.89 39.30 40.11 40.71 42.89 46.05 50.31 47.55 48.08 47.78 49.95 55.78 52.51 58.05 61.43 66.15 66.18 67.14 69.90 70.70 71.04 71.15 71.27 71.27 71.67 71.85 71.95 71.65 71.70 70.89 70.21 70.19 69.99 70.55 70.90 70.68 70.03 69.41 69.45 69.37 69.46 69.60 69.39 69.07 68.65 68.29 67.94 67.29
48.95 45.95 39.75 40.68 39.73 41.14 47.68 48.73 50.62 48.80 48.75 54.45 56.87 53.33 54.60 59.82 67.33 67.07 65.42 63.42 67.07 69.19 70.28 70.33 70.74 71.47 70.82 71.34 70.99 71.05 70.67 69.94 69.90 69.43 68.99 68.62 67.67 68.84 69.49 69.27 69.66 69.25 68.94 68.79 68.83 68.62 67.96 67.18 66.24
51.02 40.92 36.57 39.03 40.88 43.12 47.81 46.92 50.43 52.96 50.54 55.89 58.20 57.66 59.80 62.95 64.79 63.09 61.92 61.66 62.05 65.84 67.94 69.04 70.08 70.32 69.80 69.85 70.28 70.59 70.30 69.55 69.08 68.41 67.35 67.37 67.93 68.00 67.81 67.32 68.32 69.30 68.97 68.28 67.82 67.28 66.25 65.02 64.21
44.42 38.53 37.75 43.04 45.19 44.53 47.21 47.45 48.74 49.15 49.80 52.21 57.48 60.04 61.29 63.90 62.12 61.69 60.40 59.89 59.80 60.90 64.93 68.01 68.83 69.00 68.92 68.56 69.54 70.40 70.48 69.92 68.87 68.44 68.04 67.88 68.18 68.44 67.75 66.62 67.14 68.47 68.25 67.91 67.29 66.65 65.12 62.59 62.76
42.88 38.04 41.67 42.53 44.54 47.15 47.50 48.46 50.68 49.48 47.03 50.52 53.77 57.29 60.65 61.77 59.96 60.48 60.79 61.13 60.69 61.04 63.45 67.03 68.01 67.99 67.91 67.50 68.28 68.78 70.18 70.11 69.05 67.94 67.58 67.43 67.26 68.00 67.76 67.91 67.78 67.86 65.61 66.61 66.44 65.90 64.55 62.55 62.67
38.39 41.68 42.53 43.59 45.24 45.48 45.64 49.09 48.36 49.92 50.76 53.16 54.83 59.01 59.97 59.03 57.84 57.90 59.32 59.50 59.78 60.44 64.32 64.70 63.40 66.60 67.12 67.04 67.31 67.78 69.03 69.60 68.42 67.67 67.01 66.46 66.12 66.35 66.12 66.14 66.55 66.33 66.49 64.93 65.02 64.66 63.82 62.90 62.40
38.74 39.55 41.61 43.70 44.90 44.87 45.64 44.63 46.70 48.86 52.58 53.64 54.62 58.91 59.24 57.63 57.55 57.69 58.30 59.10 60.45 61.03 62.96 62.97 63.94 64.06 66.22 65.92 66.82 67.19 67.60 69.24 68.83 67.66 67.18 66.38 65.57 64.99 65.00 64.85 65.12 65.06 65.13 64.62 63.54 63.48 63.15 63.11 63.55
39.17 39.70 39.81 41.37 41.40 43.53 43.69 44.39 47.39 49.36 51.98 52.45 53.70 55.45 58.98 57.23 56.60 57.15 57.41 58.50 59.24 60.51 62.17 62.39 62.71 63.41 66.70 65.26 65.81 66.86 67.33 67.96 68.78 68.53 67.15 66.78 66.30 65.63 65.13 65.35 65.07 64.79 64.62 64.40 63.56 63.01 64.06 64.50 64.47
39.04 35.15 37.60 39.04 41.79 40.07 45.38 42.30 43.54 50.16 51.50 50.90 52.29 54.11 58.03 58.74 58.21 57.45 59.02 60.48 61.18 61.35 62.33 61.57 61.64 62.79 67.11 65.92 64.58 65.59 66.67 66.42 67.25 67.60 68.07 67.21 66.56 66.00 65.55 65.44 65.19 64.81 64.17 63.54 63.69 63.35 63.32 63.16 63.25
34.84 34.87 29.35 36.23 40.18 41.61 43.13 36.34 45.40 50.25 49.95 48.58 50.73 51.98 56.68 59.28 59.59 61.20 61.79 62.22 61.43 61.54 60.64 61.34 61.61 62.48 65.29 66.40 65.55 65.33 65.18 64.79 66.47 67.14 67.61 67.22 66.38 65.72 65.40 65.00 65.12 64.71 63.54 63.27 63.65 63.62 62.43 61.52 61.93
32.28 26.97 28.64 31.23 41.38 40.81 41.29 38.69 45.94 50.38 49.29 48.06 48.76 50.22 52.10 57.35 61.10 62.17 62.65 62.20 60.99 61.75 61.27 61.01 62.12 62.66 66.65 66.46 65.61 65.44 65.68 66.11 65.93 65.38 65.59 66.32 66.24 65.38 64.80 64.47 64.69 63.52 62.29 62.51 62.51 61.80 61.77 61.12 61.92
25.48 27.64 29.87 29.40 37.79 40.10 39.95 40.85 46.95 48.56 48.11 47.96 48.15 49.27 49.88 51.53 55.25 58.57 61.79 62.38 62.11 63.15 61.93 61.95 62.47 64.05 66.81 66.80 66.57 66.85 66.66 66.51 66.70 65.66 65.60 65.04 64.78 64.24 63.86 63.50 63.77 63.24 61.88 61.38 60.53 60.29 60.82 62.17 63.21
32.77 31.45 29.68 34.02 38.42 38.92 38.10 40.48 42.83 44.76 48.14 46.97 48.13 48.51 49.01 49.42 51.90 55.19 57.23 61.39 63.06 63.57 63.71 63.62 64.87 65.16 65.17 64.66 63.90 65.12 64.67 66.12 66.09 66.73 66.09 65.88 66.25 64.64 63.48 63.38 62.86 63.19 62.60 61.61 61.27 61.00 61.20 62.14 63.31
32.33 29.69 30.53 36.20 38.81 39.40 39.52 39.32 41.63 44.51 45.94 48.28 48.47 48.52 48.70 49.15 49.93 51.47 54.12 57.52 61.07 62.29 63.27 63.59 63.91 63.89 65.01 64.02 64.24 63.70 63.95 65.70 66.85 67.05 66.21 65.65 66.11 65.55 64.91 64.17 62.78 63.23 63.58 63.14 62.89 63.08 63.19 63.01 63.67
33.32 30.42 30.64 34.63 38.88 39.79 39.10 36.36 38.16 42.16 44.46 47.68 49.29 49.68 49.01 48.41 48.73 50.18 50.79 54.92 57.53 61.72 61.97 62.75 63.94 64.13 64.37 64.35 64.42 64.12 63.91 63.95 63.55 64.51 65.40 64.71 65.32 65.42 65.00 64.85 64.86 64.04 64.04 63.41 64.14 64.31 63.62 62.28 61.93
31.40 36.50 36.59 36.77 35.24 32.24 37.91 29.20 37.06 40.45 41.71 45.05 47.07 48.53 48.70 48.70 49.28 49.85 51.02 51.06 53.55 56.77 61.68 62.77 63.45 63.98 64.64 64.52 64.39 63.17 62.06 60.81 62.60 63.94 64.42 64.61 64.88 64.16 64.38 64.39 64.20 63.99 63.44 63.46 63.49 64.42 63.98 63.51 62.51
34.79 39.95 38.07 36.93 34.50 34.61 34.13 31.54 35.33 40.23 38.90 42.50 45.57 47.51 49.06 48.78 49.34 48.88 50.07 51.82 52.85 53.03 53.79 60.09 62.34 62.71 63.65 64.46 64.43 63.15 61.31 60.23 62.69 63.05 62.98 62.62 62.37 63.20 63.56 63.85 63.48 62.67 61.95 61.43 61.28 62.36 61.09 61.59 61.07
40.54 38.45 37.61 36.61 34.26 26.20 31.88 32.19 32.04 36.07 39.66 42.23 45.39 47.21 48.70 48.94 49.57 48.76 50.35 51.66 50.74 51.16 52.01 56.79 60.29 61.63 62.29 62.57 62.89 62.59 61.78 61.17 61.31 62.10 61.98 61.49 61.35 61.58 62.59 63.07 62.73 61.74 61.18 60.47 59.75 58.89 58.46 58.81 58.42
39.29 33.91 27.29 25.98 26.22 25.74 34.10 32.53 34.30 36.95 37.84 39.59 44.43 46.20 46.99 48.29 47.78 47.86 47.68 48.03 48.64 49.56 49.98 51.24 53.18 55.27 59.01 61.55 61.53 62.24 61.76 61.84 61.70 61.65 61.65 60.52 61.00 60.61 61.17 61.70 61.88 60.81 60.30 59.95 58.76 57.64 56.83 55.96 54.90
35.38 34.49 27.26 22.62 22.77 26.75 33.00 29.15 32.38 37.19 38.30 39.03 41.17 45.16 44.70 44.24 44.24 43.32 44.01 44.23 45.57 46.77 47.91 49.52 50.75 50.47 50.81 53.09 56.27 58.69 60.14 61.40 61.49 61.21 60.95 61.14 60.83 61.06 61.03 60.54 59.37 57.61 57.34 56.83 55.99 54.73 54.22 54.22 54.50
34.38 31.56 34.70 28.46 29.12 27.45 28.69 32.41 36.94 38.52 37.57 38.90 38.96 40.23 40.40 40.98 41.87 42.82 43.49 44.05 44.78 45.79 46.56 48.26 49.35 49.88 50.66 50.65 51.09 51.37 54.83 58.09 59.13 59.42 60.38 60.25 60.00 58.54 59.26 58.86 57.58 55.54 54.57 52.70 51.89 51.38 51.40 51.69 51.70
35.51 37.83 29.33 30.16 21.71 22.61 27.26 27.19 28.52 33.19 34.90 37.51 37.83 38.29 39.60 40.98 41.68 42.06 42.26 42.61 43.31 44.09 45.29 46.59 47.74 48.48 49.47 49.53 49.82 49.72 50.74 52.05 55.99 56.80 57.20 57.34 57.23 56.98 56.09 53.50 52.47 51.34 50.97 50.89 50.12 49.96 49.77 49.97 50.19
33.17 32.04 30.98 30.38 27.26 25.21 24.07 25.86 34.25 34.10 36.37 35.81 36.53 37.87 38.57 38.84 39.32 39.92 40.56 41.26 41.82 42.84 43.34 44.51 45.74 46.72 47.57 48.10 48.75 49.48 50.10 50.24 52.11 53.76 53.60 53.95 53.81 53.98 52.96 52.09 50.71 49.73 49.07 49.18 49.03 48.44 47.57 47.92 48.48
35.59 32.76 29.88 26.20 24.88 23.50 24.10 26.14 33.75 35.32 37.67 37.04 36.97 37.54 38.12 38.77 39.28 39.95 40.45 41.21 41.65 41.86 42.26 42.52 43.59 44.89 45.70 46.30 47.63 48.28 48.82 50.08 50.47 51.13 51.31 51.28 51.53 52.02 52.28 50.91 49.17 47.95 47.35 46.88 46.83 46.02 46.20 46.84 46.79

GFSSGP_sfc_wetblb_084.txt.gz
Wetbulb
65.08 65.59 66.30 61.70 49.60 48.71 45.13 47.00 51.89 51.04 53.14 59.18 59.13 58.58 58.15 60.87 57.08 55.65 69.95 70.85 71.50 72.25 73.28 73.98 73.98 74.12 73.76 73.15 72.31 72.73 72.78 73.34 74.02 74.22 74.30 74.36 74.44 73.66 72.60 72.24 72.21 72.13 71.75 71.90 72.29 72.65 72.20 70.93 70.90
64.67 63.75 62.94 57.74 46.06 42.14 43.50 50.12 48.68 51.81 55.63 59.26 60.62 60.18 58.92 57.65 64.81 66.61 68.50 70.15 71.58 72.37 73.04 73.41 73.68 73.83 73.69 72.79 72.42 71.85 71.89 72.80 74.06 73.83 74.33 74.09 73.96 73.87 72.28 71.82 71.77 72.76 72.36 71.62 71.14 71.16 71.01 71.09 70.79
63.20 63.04 55.54 50.59 46.48 42.17 43.66 49.53 51.15 53.28 55.90 57.93 58.37 60.94 59.62 59.49 65.61 67.35 70.72 71.65 71.98 72.07 72.92 73.02 73.38 73.75 73.54 72.52 72.96 71.39 71.12 72.23 73.21 73.69 73.67 73.81 74.02 72.39 71.92 71.51 72.31 72.32 72.07 71.46 70.65 70.55 70.83 71.05 70.86
59.97 58.98 55.83 46.50 42.96 46.75 47.70 50.52 51.96 52.36 53.62 55.68 59.25 57.09 61.44 65.96 66.78 69.37 71.14 71.90 71.74 72.14 72.97 72.72 73.09 73.37 73.34 72.76 72.74 71.63 70.63 71.29 72.37 72.91 73.17 73.26 73.85 72.05 71.14 71.87 71.89 71.76 71.56 70.21 70.78 71.51 71.81 72.12 70.40
59.87 55.53 45.52 43.56 43.47 47.53 50.17 52.32 52.57 50.93 51.96 53.16 57.70 56.85 58.98 65.19 68.86 70.03 69.99 71.26 71.09 71.57 72.67 72.93 72.88 73.14 72.77 73.37 72.63 71.81 70.56 70.41 71.52 72.05 72.86 72.90 72.77 71.33 70.66 70.53 70.83 71.02 70.90 70.36 70.69 71.64 71.10 70.62 69.98
50.92 51.99 41.53 39.34 42.83 47.27 50.54 52.91 52.82 52.02 52.84 53.41 53.73 55.95 59.30 66.81 68.02 70.11 71.38 70.70 71.46 71.41 72.05 72.36 71.80 72.67 72.85 73.08 72.26 71.51 70.99 70.50 71.20 71.86 72.40 72.62 72.43 70.82 69.61 69.69 70.33 70.73 70.15 70.03 69.97 69.83 70.43 70.51 69.60
48.49 45.79 40.63 41.29 41.81 44.67 48.49 53.30 51.75 51.77 52.31 52.49 56.30 53.34 59.13 65.77 69.20 70.25 69.55 66.03 68.26 71.49 71.39 71.49 72.10 71.39 71.83 72.03 71.56 70.99 70.73 70.97 71.16 71.33 71.81 71.82 71.02 70.15 69.03 69.26 69.87 70.29 69.90 69.57 69.24 68.96 68.58 68.43 68.36
50.18 47.03 41.52 41.76 40.48 41.76 48.96 51.55 53.22 52.54 51.96 56.77 56.56 53.22 55.11 63.21 67.56 67.11 65.62 64.95 64.85 67.67 71.08 71.16 71.29 71.36 71.13 71.63 70.66 70.23 69.98 70.19 70.32 70.48 70.05 69.05 68.95 69.15 69.56 68.19 68.91 70.19 69.93 69.40 68.99 68.54 68.05 67.32 66.21
51.88 42.39 38.51 40.59 41.44 43.56 48.72 48.09 52.83 54.91 53.39 54.97 55.94 56.69 59.46 64.77 66.71 64.69 64.47 64.84 63.96 63.63 64.06 70.21 70.71 70.88 70.43 71.16 70.76 70.11 69.46 69.22 68.72 68.35 67.48 67.04 69.07 68.65 68.37 67.88 67.93 69.39 69.16 68.78 68.58 68.12 67.00 65.91 65.34
46.01 40.78 40.41 44.91 45.79 45.08 48.00 48.53 50.18 50.76 51.25 52.32 54.11 59.17 63.10 66.13 65.64 64.62 63.35 61.58 60.86 59.75 61.17 65.54 69.58 70.29 69.70 69.82 71.21 71.12 69.60 68.64 67.94 68.53 68.53 68.32 67.67 68.42 67.77 67.15 67.71 69.07 68.88 68.51 67.66 66.85 65.31 63.69 65.02
44.12 39.88 44.38 45.07 46.46 47.60 47.23 48.59 51.47 50.11 48.84 52.13 52.28 55.28 60.72 63.76 64.48 63.53 62.05 59.43 59.99 60.16 62.95 63.38 67.15 69.33 68.33 67.35 70.75 71.02 70.67 69.22 68.25 67.58 67.87 68.12 67.88 68.25 67.75 68.26 68.26 68.06 66.07 66.90 66.82 66.16 65.15 64.46 64.34
38.88 42.46 43.45 44.85 46.68 45.96 45.45 49.23 48.47 50.43 50.97 54.80 54.04 57.02 60.20 61.42 62.48 62.41 61.51 59.83 60.24 60.95 62.62 65.06 66.60 68.01 67.99 68.10 68.20 70.91 70.45 69.98 69.10 67.69 66.80 66.96 67.00 67.37 67.25 67.15 67.24 67.03 66.45 66.11 65.97 65.30 64.71 64.24 64.42
39.17 40.26 41.99 43.57 44.62 45.07 46.46 45.28 46.53 48.83 53.17 56.04 55.38 56.31 57.02 59.13 60.80 62.28 62.07 61.84 62.19 61.44 62.27 64.06 64.40 64.93 67.68 67.94 66.75 68.91 70.45 70.28 69.89 68.74 67.22 66.64 66.31 66.43 66.54 66.03 66.21 65.79 65.97 65.24 64.65 64.56 64.09 63.96 64.69
40.53 41.06 41.52 42.83 42.39 43.31 42.49 43.81 46.27 48.63 52.76 53.34 54.71 55.45 56.11 56.84 60.25 60.98 62.38 61.47 61.84 61.40 62.61 63.59 63.08 63.92 65.43 67.13 66.92 66.60 69.31 70.61 70.41 69.39 68.41 67.43 67.28 66.04 65.27 64.50 65.04 65.66 65.94 65.39 64.39 63.82 64.09 64.72 66.07
40.22 36.33 39.00 40.23 41.52 41.30 42.95 39.40 42.01 48.44 51.62 52.27 53.40 54.41 56.03 56.47 60.05 59.28 60.27 60.18 61.35 61.43 62.58 62.84 62.96 63.44 63.17 67.44 67.75 66.61 67.12 69.14 69.97 69.99 69.77 68.48 68.32 67.27 66.62 66.35 67.06 67.04 66.84 65.49 64.79 63.86 65.97 66.24 66.14
35.27 35.65 30.54 38.49 40.40 41.43 41.60 33.74 42.73 47.90 49.37 50.39 52.33 52.98 55.37 57.05 60.03 59.61 60.01 60.64 61.70 61.64 62.71 63.49 63.75 62.90 63.51 67.65 67.32 67.19 67.94 67.90 68.13 69.75 70.04 69.32 68.80 67.58 67.50 67.76 67.66 67.76 66.64 65.95 65.51 65.15 65.17 64.94 64.79
32.65 27.88 30.65 33.79 40.51 39.93 40.08 35.95 42.50 48.28 48.98 49.73 51.42 52.55 54.19 56.11 60.05 59.84 60.67 60.94 62.40 62.51 63.29 63.00 63.39 62.87 64.79 67.44 67.27 66.73 67.79 68.28 68.44 68.48 68.86 69.05 69.02 68.20 67.58 67.07 67.28 67.84 66.20 65.53 65.25 65.27 64.96 63.92 63.88
27.82 27.51 31.23 31.88 37.57 38.94 38.20 37.59 43.14 48.73 49.69 50.48 51.41 52.05 52.78 54.48 57.16 60.49 60.68 62.12 62.84 62.29 62.78 63.13 62.32 62.69 64.96 66.53 67.30 66.99 66.23 66.04 67.20 67.20 68.13 68.50 68.64 68.84 67.87 66.44 66.84 67.02 65.87 64.83 64.99 64.12 64.55 64.05 64.38
32.97 30.82 30.25 34.70 38.79 37.22 37.20 38.56 41.68 45.84 48.36 49.19 50.49 50.88 50.95 51.84 53.54 58.52 57.99 59.80 62.26 62.16 62.61 63.13 62.71 63.15 65.82 66.61 65.89 65.67 65.98 66.59 66.65 67.03 66.87 67.02 66.80 66.66 66.95 66.08 66.56 66.43 65.57 65.48 65.15 64.43 63.48 63.53 65.55
33.45 30.95 30.72 35.18 38.64 37.70 37.69 37.80 42.73 45.87 45.71 47.33 49.41 51.16 50.98 51.11 51.15 55.88 56.34 58.35 57.79 60.46 62.35 62.72 63.39 64.25 63.39 63.91 65.29 65.36 65.47 66.43 66.73 67.87 67.99 67.96 67.37 67.08 66.68 66.28 66.24 66.16 64.80 66.35 65.29 64.26 63.93 64.72 65.74
32.22 30.13 30.22 32.08 36.68 39.73 38.18 36.07 39.34 44.65 46.11 47.52 49.18 50.91 51.73 50.85 50.27 51.64 54.83 55.80 58.21 59.89 61.09 62.00 62.90 63.04 63.51 64.34 64.66 64.24 64.28 64.86 64.65 65.67 66.16 67.16 67.19 66.34 66.92 66.84 65.93 65.33 64.91 66.04 65.92 65.67 65.14 64.28 64.47
31.61 36.09 34.56 34.09 33.46 29.95 39.88 29.93 38.32 42.83 43.53 45.28 47.26 48.57 47.95 51.43 51.07 51.15 52.40 52.98 57.10 58.96 61.09 61.33 62.64 62.76 63.00 63.48 62.93 62.49 61.89 60.80 62.72 62.50 65.15 65.75 66.13 66.30 65.87 65.46 64.92 64.24 63.98 63.38 63.62 64.03 64.14 64.70 62.77
35.92 38.77 35.90 32.71 35.97 35.90 35.60 33.42 37.50 41.13 40.60 43.68 45.57 47.71 49.58 51.51 51.23 50.30 51.18 52.55 53.71 58.38 61.37 61.50 62.18 62.91 62.92 63.49 63.60 62.50 61.30 62.01 62.27 61.61 63.17 63.93 63.88 65.08 64.30 64.07 63.81 63.70 63.84 62.99 61.99 62.07 61.39 61.40 60.44
42.15 39.81 38.41 38.46 36.39 29.70 33.40 33.78 34.00 38.03 39.32 42.35 46.13 48.94 51.04 50.90 50.84 49.18 50.39 51.72 51.20 52.32 54.11 56.26 59.21 61.88 63.47 63.49 63.13 62.77 61.40 61.53 59.66 60.05 60.83 61.72 62.91 63.10 63.32 63.75 63.82 63.28 62.11 61.23 60.42 59.87 59.08 59.86 59.57
39.69 36.98 30.52 28.49 29.60 27.61 34.65 34.15 35.82 39.43 41.15 41.92 43.24 48.95 50.58 52.06 46.43 46.79 47.31 48.44 49.20 50.81 52.42 53.82 58.50 58.20 62.03 63.32 63.29 63.46 63.05 62.95 60.80 60.90 61.56 62.31 61.80 62.35 62.39 63.39 62.91 62.70 62.27 61.95 60.92 59.96 58.95 59.37 59.08
36.81 36.72 31.48 23.92 26.43 28.14 34.85 31.05 35.66 40.92 42.38 43.00 44.21 49.95 50.18 49.23 45.90 43.35 44.84 47.09 48.55 49.74 51.24 52.46 53.41 52.64 53.52 55.53 59.12 61.56 63.60 63.46 62.61 63.06 63.33 63.22 62.60 62.68 63.19 62.82 62.74 63.12 62.98 61.49 60.57 59.88 59.67 58.91 58.37
36.78 33.91 37.51 32.46 32.44 30.50 32.56 35.16 39.69 42.34 41.78 43.29 45.01 45.73 43.26 44.88 44.80 43.95 44.91 46.18 48.08 49.38 49.73 51.46 52.40 52.63 52.68 53.12 53.70 53.85 57.43 61.52 62.63 63.17 63.67 63.44 63.59 63.16 62.75 62.36 62.95 61.97 60.49 59.36 58.91 57.01 54.58 54.82 54.60
38.20 39.83 32.75 35.09 27.00 25.02 30.02 31.85 33.66 37.83 38.66 41.51 41.92 42.83 42.34 42.23 42.94 42.88 43.67 45.10 46.73 47.82 49.59 50.73 51.54 51.54 52.09 52.85 52.94 52.62 53.31 54.07 57.51 59.81 60.48 61.74 62.63 62.30 62.16 61.13 61.33 59.45 58.21 57.83 56.63 53.92 52.66 52.62 53.28
37.27 36.04 35.14 34.41 32.78 29.90 27.93 30.51 37.80 38.78 39.97 40.44 41.68 42.27 40.95 41.12 41.20 43.37 43.80 45.33 46.64 47.78 47.76 48.15 49.11 50.36 51.24 51.59 52.49 52.70 52.72 53.18 54.15 56.26 57.70 58.40 59.00 59.23 59.38 58.64 56.55 55.92 55.23 54.81 53.88 52.57 51.36 51.18 51.79
39.04 36.69 35.67 33.18 29.89 31.29 33.35 30.98 39.27 41.19 40.91 41.56 40.74 41.58 41.44 41.69 42.24 43.32 43.97 44.81 45.08 45.83 46.99 47.17 47.50 47.90 48.46 50.35 51.69 52.04 52.44 52.61 53.21 53.60 54.30 55.63 57.02 57.24 56.65 55.66 54.35 53.52 52.94 52.28 51.13 49.70 49.79 50.05 49.60

GFSSGP_sfc_wetblb_087.txt.gz
Wetbulb
65.11 66.18 65.68 62.09 50.17 48.93 45.08 47.13 51.92 51.26 52.39 56.87 59.18 58.25 58.25 59.59 57.80 55.32 70.33 71.18 71.64 72.08 73.09 73.46 74.30 73.81 73.58 72.96 72.68 72.97 73.15 73.65 74.49 74.45 74.58 74.32 74.39 74.02 73.39 72.57 71.94 71.64 72.67 73.27 72.75 72.21 71.39 70.91 70.89
64.43 63.36 62.41 56.76 45.88 42.10 43.82 49.80 49.25 51.80 54.89 56.89 57.65 58.98 59.54 58.41 64.89 67.26 68.75 71.10 71.77 72.12 72.59 73.03 73.99 74.07 73.49 73.08 72.72 72.83 72.57 73.07 74.00 74.13 74.35 74.37 74.30 73.47 72.96 72.33 71.87 72.54 72.96 72.86 72.48 71.67 70.43 70.73 70.58
63.32 62.30 55.28 49.57 46.62 42.35 44.25 50.13 50.93 53.78 55.36 56.65 57.30 61.33 60.44 59.54 65.53 68.00 71.00 71.50 71.96 71.52 72.51 72.74 73.61 73.80 73.44 72.81 72.32 72.26 72.49 73.21 73.48 73.70 73.78 74.16 73.98 72.92 72.22 72.41 72.87 72.44 72.43 71.96 71.37 71.00 70.98 70.77 69.69
58.78 57.92 55.69 46.47 42.81 47.18 47.98 50.45 52.57 52.88 54.70 56.70 57.90 56.93 62.13 67.31 66.80 69.62 71.54 71.66 71.53 70.98 71.71 72.72 73.17 73.52 73.31 73.40 72.43 71.52 71.87 72.95 73.31 73.41 73.34 73.32 73.73 72.50 72.15 72.39 72.21 71.70 71.01 70.71 70.71 71.02 71.11 70.76 69.36
58.46 54.50 45.00 43.08 44.02 48.31 50.74 51.80 52.37 52.11 52.75 54.02 55.01 55.10 58.81 66.36 70.04 70.78 71.12 70.30 70.10 70.64 71.52 72.98 73.09 73.33 73.15 73.12 72.79 71.98 71.25 72.21 72.54 72.91 72.97 72.74 73.18 71.72 71.42 71.93 71.63 71.26 70.91 70.80 71.64 71.81 71.27 70.11 68.63
50.91 51.27 42.22 39.81 43.14 47.59 49.91 52.24 52.63 51.89 53.03 53.38 53.29 54.13 57.94 66.86 68.79 70.08 71.31 70.24 70.23 70.34 71.02 72.11 71.71 72.54 72.62 73.16 72.35 71.81 71.30 71.48 71.92 72.49 72.79 72.61 72.57 71.01 71.08 71.48 71.30 71.06 70.56 70.78 71.57 70.99 70.69 69.96 68.33
48.55 46.15 41.12 42.02 42.60 44.77 48.36 52.21 51.16 51.32 51.91 52.07 55.32 52.05 56.49 65.34 68.43 70.41 71.18 71.03 68.62 67.24 69.97 70.53 71.57 71.47 71.50 71.82 71.43 71.27 71.17 71.28 71.43 71.80 72.18 71.84 71.10 70.58 69.64 70.74 71.39 70.93 69.89 70.20 69.92 70.23 70.45 69.88 67.91
50.41 46.98 42.11 43.07 41.25 42.30 48.30 50.36 52.31 51.67 51.28 55.92 56.35 51.60 52.87 60.75 69.21 70.00 69.65 68.71 67.65 65.09 63.83 62.95 70.50 70.76 69.34 71.18 70.47 70.33 70.45 70.90 70.98 70.76 70.44 69.61 69.19 69.11 69.91 69.39 70.65 70.76 69.92 69.78 69.35 68.75 68.18 67.77 66.61
51.96 42.53 38.96 41.02 42.10 43.88 48.40 47.12 51.51 53.86 52.60 53.93 55.17 55.67 57.70 66.01 67.70 66.99 67.38 66.85 66.40 65.41 64.44 63.83 63.35 69.78 69.19 70.38 70.13 69.51 69.45 69.39 69.34 69.17 67.87 67.66 68.38 67.89 67.52 67.88 68.97 69.98 70.12 69.49 68.86 68.38 67.73 67.01 65.87
45.86 40.99 40.49 45.23 45.74 44.77 47.13 47.72 48.79 48.88 50.08 51.12 53.13 56.50 58.93 64.85 63.98 63.91 64.03 64.36 63.20 63.74 63.92 63.54 64.47 63.06 68.19 70.03 70.02 69.10 68.08 68.16 67.19 68.70 67.88 68.29 68.71 68.17 67.36 66.80 67.69 69.12 69.20 69.01 68.48 67.70 66.34 64.69 64.53
44.38 39.89 44.35 45.53 47.20 48.03 46.84 47.60 50.61 48.64 47.50 50.62 51.16 53.75 57.13 61.75 64.08 63.11 63.53 64.03 63.95 64.55 63.01 63.66 62.96 63.52 63.89 69.33 70.21 69.49 67.91 66.76 66.89 66.30 68.11 68.29 68.16 67.31 67.99 67.74 67.19 67.72 66.37 66.37 66.68 65.73 64.39 63.88 64.36
39.16 43.02 43.79 44.91 46.55 45.97 45.32 47.96 46.91 49.02 50.18 53.34 55.14 57.40 57.26 56.97 62.12 62.81 62.80 63.47 63.64 62.91 63.09 62.72 63.14 63.88 65.28 67.33 70.07 69.64 68.98 67.12 66.27 66.71 66.85 68.16 67.13 67.38 66.75 66.74 66.84 66.50 66.04 65.62 65.45 65.20 64.54 64.16 63.94
39.78 41.27 42.79 43.60 43.80 44.36 45.76 44.44 45.26 46.80 51.25 53.88 54.23 56.36 56.58 57.66 59.86 62.21 63.62 63.63 63.43 61.36 62.87 62.29 63.58 63.74 64.60 66.52 67.27 68.87 69.02 68.60 66.92 66.05 66.47 66.76 66.84 66.76 66.62 66.38 66.47 66.38 65.81 65.65 65.16 64.63 63.92 63.21 63.26
41.18 40.97 41.48 43.14 43.03 43.49 41.59 42.42 43.96 46.10 50.21 50.87 52.58 54.00 55.97 57.15 58.32 60.97 61.91 61.38 61.89 61.71 61.83 63.15 64.13 63.53 63.18 64.97 66.83 67.00 68.70 69.56 68.81 67.18 66.05 65.77 66.46 66.63 66.17 65.72 65.75 65.30 65.35 65.00 64.34 63.76 63.45 63.09 63.39
40.57 36.42 39.02 39.93 40.87 40.89 43.72 38.97 39.68 45.05 47.48 48.69 50.63 53.12 55.96 57.28 57.95 57.99 61.33 61.62 60.88 61.27 62.61 62.91 63.65 63.46 62.89 63.01 66.60 66.37 67.83 68.73 69.52 68.55 66.91 65.75 65.78 65.24 64.72 64.31 64.41 64.76 65.23 64.49 64.31 63.36 63.36 63.83 64.59
36.68 36.75 31.10 38.57 40.17 40.99 41.13 33.59 42.06 45.39 44.50 46.05 49.35 51.94 54.41 56.22 57.76 58.15 61.86 62.70 62.96 61.80 62.53 63.34 63.46 63.20 63.62 63.33 65.09 67.10 66.00 67.45 68.00 69.26 68.27 67.30 67.27 66.88 65.93 65.39 65.88 66.70 66.50 65.80 64.12 63.35 62.61 64.35 64.58
34.27 29.12 31.58 34.51 40.41 39.66 39.36 35.35 41.76 44.95 44.81 44.84 47.91 50.42 52.93 55.26 57.66 59.53 61.99 61.88 61.17 61.68 62.46 63.07 63.46 63.19 62.84 62.94 65.35 67.39 66.68 65.94 67.10 68.97 69.52 68.68 67.89 67.98 67.11 67.14 67.31 67.27 66.12 65.16 64.81 64.53 64.08 63.61 63.79
29.28 29.85 32.30 32.21 38.18 39.19 37.14 36.86 41.14 43.87 43.66 46.30 47.45 49.88 52.36 53.94 56.06 59.90 61.47 61.80 61.53 61.96 62.35 63.15 63.67 63.21 62.34 62.70 65.74 66.38 66.57 66.87 67.78 67.82 67.81 68.68 68.55 68.58 68.01 67.02 66.15 66.61 65.99 65.17 64.94 64.10 64.78 64.11 63.72
33.16 31.68 30.67 35.07 38.75 36.87 36.53 36.78 39.65 42.73 47.17 47.27 48.80 50.80 52.04 53.51 56.36 59.48 61.13 61.66 62.35 62.00 62.11 62.49 63.26 61.88 61.86 62.28 63.94 64.53 64.04 65.15 66.13 67.45 67.95 68.02 68.30 68.26 68.38 67.29 65.60 66.12 65.94 65.71 65.15 64.55 63.66 63.39 64.33
32.66 30.47 31.16 35.45 38.62 36.55 36.33 36.07 40.06 42.53 45.88 48.63 48.79 49.69 50.93 52.80 54.32 56.86 57.63 58.42 57.47 58.08 60.09 61.64 61.43 62.21 62.56 62.84 63.57 64.76 65.83 66.86 66.99 67.47 67.52 67.30 67.00 66.86 66.72 66.83 65.82 65.89 65.79 65.74 65.47 65.04 63.38 63.39 64.45
32.57 31.03 30.25 30.79 36.13 38.53 36.58 34.29 37.58 42.37 46.42 48.35 49.90 51.24 52.49 52.10 51.63 54.37 55.60 55.83 56.90 56.87 60.27 61.38 62.06 61.91 62.35 63.04 63.11 63.38 63.76 64.93 64.53 65.95 66.32 66.81 67.35 66.86 67.14 67.01 66.50 66.05 65.55 65.11 65.91 64.73 63.79 62.58 64.95
30.33 35.79 34.40 34.46 32.01 28.06 37.36 26.35 35.34 40.84 43.59 46.47 48.19 49.12 50.95 51.49 51.82 53.24 55.29 55.42 56.17 56.96 58.91 60.99 60.66 62.25 62.48 62.55 62.07 61.84 61.32 60.93 62.81 63.99 65.06 66.45 66.32 66.16 66.48 66.07 66.69 65.94 65.29 63.65 63.13 63.89 64.68 64.25 62.68
34.17 38.78 35.76 35.02 33.25 32.56 33.20 31.63 35.46 41.13 40.79 44.20 47.05 48.93 50.52 50.55 51.87 50.70 53.38 55.60 56.69 58.15 58.38 59.74 60.17 60.99 62.68 62.16 62.02 61.61 60.83 61.62 62.30 61.86 62.39 63.31 64.47 64.27 64.92 65.46 65.11 64.33 64.27 63.39 63.33 62.75 62.11 61.53 60.18
41.57 35.13 34.57 35.25 32.14 28.48 33.62 33.68 33.99 38.29 40.66 43.44 47.40 48.64 50.25 51.20 51.47 49.61 51.43 53.85 53.84 53.94 54.53 55.32 57.77 59.27 61.00 61.77 61.93 61.20 61.04 60.45 59.99 61.25 61.01 61.24 62.01 63.00 63.27 63.87 63.93 63.93 62.99 62.69 61.77 60.56 59.87 59.72 59.83
40.69 36.66 30.60 28.37 29.63 27.91 36.14 33.58 34.71 40.25 42.00 43.35 44.12 48.46 50.10 50.10 49.70 47.77 48.18 49.26 50.33 51.16 52.38 53.72 55.58 56.40 58.79 60.85 62.03 61.27 61.37 61.20 59.81 60.70 60.25 60.48 60.57 61.29 61.74 62.94 63.05 63.13 63.06 62.21 61.10 60.01 59.91 59.73 58.51
38.00 36.86 31.40 24.08 26.58 28.12 35.20 32.29 33.73 41.85 44.03 44.70 46.79 49.70 48.73 45.87 45.40 44.98 46.32 47.84 48.84 50.03 51.87 52.82 54.26 52.64 54.38 57.52 60.09 61.94 62.27 62.15 61.21 61.66 61.39 61.39 61.56 61.66 62.62 62.87 62.60 63.17 62.47 61.81 61.34 60.41 59.82 59.63 59.27
37.30 35.29 37.60 33.36 33.48 31.20 33.25 35.69 40.70 41.71 44.13 45.61 46.51 46.47 44.18 45.05 44.64 44.08 44.27 45.64 47.61 48.96 50.05 51.96 52.49 52.58 52.94 53.48 54.50 55.99 60.38 62.60 62.53 62.30 62.61 62.49 62.95 63.36 63.29 63.22 62.83 62.95 62.31 61.44 60.97 59.34 59.12 59.19 59.00
38.21 39.86 31.87 35.40 27.84 25.76 31.15 31.82 32.02 37.52 39.08 42.46 40.30 41.10 42.27 43.05 43.13 43.65 44.60 44.68 45.91 47.99 49.45 50.41 51.25 51.06 51.77 52.97 53.19 53.10 53.79 54.59 57.89 61.30 62.60 62.90 63.06 63.41 62.40 62.19 62.30 62.35 61.49 60.22 59.90 57.67 57.13 56.45 55.65
37.58 36.53 36.87 35.87 34.28 29.06 28.13 29.61 39.17 39.42 41.01 39.19 38.84 39.44 40.08 41.08 41.87 43.39 44.30 45.50 46.54 47.36 48.25 48.70 48.71 48.54 49.51 51.17 52.33 52.93 53.24 53.95 54.48 55.93 58.13 59.50 60.79 61.79 60.86 60.90 61.03 59.57 58.50 58.57 57.99 56.74 55.36 54.70 53.29
40.40 38.12 38.26 33.04 31.82 34.90 33.90 30.58 41.87 42.31 40.56 40.66 39.61 41.21 41.29 41.69 42.10 42.49 43.43 44.36 44.55 45.04 46.69 47.73 48.31 48.27 48.59 49.43 50.70 51.67 53.02 53.42 53.71 53.87 54.68 56.15 57.14 58.50 59.39 59.38 58.44 57.22 56.46 56.80 56.33 54.94 53.06 52.42 51.39

GFSSGP_sfc_wetblb_090.txt.gz
Wetbulb
62.14 63.57 63.60 59.84 47.45 45.81 41.40 44.20 49.55 48.57 49.24 52.84 53.84 53.67 53.23 56.55 57.89 51.93 67.44 68.73 71.16 71.10 71.94 73.43 74.47 74.06 73.75 73.53 72.76 73.19 73.37 74.65 74.49 74.50 74.52 74.30 74.49 74.11 73.68 72.78 72.59 73.55 73.74 73.21 72.70 72.23 70.92 71.66 71.26
62.30 62.23 59.45 53.50 42.82 38.07 39.46 45.97 46.62 49.33 51.80 53.07 53.84 54.14 54.42 56.32 65.20 64.82 66.35 69.29 70.33 71.60 71.71 72.20 74.11 74.04 73.66 73.30 72.77 72.92 72.59 73.41 74.48 74.24 74.58 75.11 74.32 73.96 73.25 72.48 72.68 73.91 73.91 73.29 71.83 71.08 70.55 70.73 70.48
61.88 61.96 51.91 47.01 43.40 39.12 40.07 46.81 48.04 50.80 52.81 52.61 52.64 55.25 56.80 58.98 65.85 66.54 68.11 69.86 71.22 71.25 71.45 72.37 73.69 73.98 73.67 72.86 72.91 72.84 72.64 73.00 73.91 73.81 74.05 74.17 74.06 74.13 72.92 72.77 73.01 73.30 73.15 72.74 71.45 70.25 70.10 69.96 69.41
55.87 55.22 52.90 43.66 39.85 44.04 45.30 48.16 50.70 50.23 51.64 52.16 51.92 51.75 60.80 65.42 65.77 68.46 69.43 69.99 70.19 70.68 71.14 72.78 73.54 73.43 73.47 73.14 72.86 72.39 72.55 72.64 73.33 73.48 73.67 74.08 73.62 73.22 73.25 72.87 72.18 71.95 71.72 71.92 71.24 71.11 70.79 69.50 68.40
55.61 52.23 42.59 40.69 41.06 45.43 48.06 50.40 50.85 49.10 50.00 51.31 52.52 50.47 55.06 65.90 68.95 69.15 69.28 69.47 69.20 69.64 71.45 72.11 73.24 73.02 73.44 73.30 72.58 72.43 72.17 73.18 73.14 73.22 73.20 73.17 73.33 72.65 72.61 72.12 70.87 70.31 71.20 70.87 70.97 71.16 70.50 69.00 67.64
48.32 48.67 39.76 36.85 39.98 44.71 47.87 49.75 49.54 48.73 49.78 50.95 50.43 51.12 53.59 66.65 67.39 68.58 69.35 68.41 69.51 69.46 70.89 71.05 72.32 72.87 72.75 72.88 72.46 71.86 71.95 72.66 73.26 72.94 72.86 72.87 72.72 72.35 72.08 71.45 69.67 69.60 70.96 71.44 71.91 71.33 70.25 68.65 67.45
46.83 43.51 38.17 39.05 40.17 42.26 45.63 49.81 47.60 47.73 48.57 49.61 51.34 48.13 53.82 63.32 66.77 68.61 68.98 69.23 67.59 68.05 67.49 66.10 69.66 71.16 71.33 72.24 71.85 71.42 71.33 71.63 72.37 72.40 72.17 71.81 71.61 71.74 70.61 69.98 71.05 71.11 70.93 71.75 71.53 70.83 70.17 68.69 67.58
47.55 44.12 39.24 40.36 38.67 39.50 46.12 47.36 48.68 48.20 47.78 52.82 53.15 46.96 48.22 61.34 67.37 68.39 69.05 66.47 65.98 65.10 65.97 66.05 65.95 68.91 68.85 70.38 70.56 70.32 70.27 70.84 71.01 71.22 70.56 69.77 68.98 68.94 68.92 69.96 70.20 70.16 70.77 70.65 70.64 70.54 70.21 68.97 67.61
50.15 39.26 36.37 38.40 39.63 42.12 47.04 44.77 48.10 49.25 48.16 49.87 51.10 50.60 53.16 65.41 66.78 66.01 66.36 66.65 65.24 65.51 65.22 65.36 65.32 64.71 63.03 68.42 69.00 69.41 69.68 69.66 69.76 69.22 68.39 67.51 67.25 66.68 66.95 67.87 68.92 69.52 70.10 70.07 69.44 68.77 68.37 67.27 65.78
43.48 38.22 38.64 43.39 43.65 42.65 45.11 44.84 46.03 46.29 45.76 46.81 49.57 52.81 54.78 64.10 63.19 62.07 62.69 62.81 63.95 64.10 64.34 64.82 64.98 65.25 64.72 65.06 67.18 66.61 67.84 66.80 68.00 68.39 67.81 67.63 66.40 66.23 66.62 66.90 68.11 69.30 69.37 69.22 69.17 68.52 67.69 65.09 60.95
42.20 37.85 42.71 43.65 45.57 46.22 45.11 44.91 47.59 45.45 44.13 47.57 47.62 49.92 52.29 54.23 61.25 60.42 61.66 62.34 61.85 63.02 63.23 64.01 64.90 66.00 64.63 63.91 63.65 66.28 65.52 65.24 65.28 67.03 67.42 67.33 66.82 65.42 65.54 64.96 66.62 67.03 65.80 65.71 66.30 65.25 62.67 60.53 60.24
37.23 41.49 42.25 43.27 44.65 43.63 42.66 45.52 44.35 45.23 45.20 49.53 51.07 53.28 54.85 54.26 57.91 59.26 59.67 61.25 63.05 62.48 62.81 62.74 63.48 62.61 63.61 63.65 64.57 65.85 64.83 63.47 62.97 65.35 66.44 66.48 65.09 64.08 65.25 64.51 64.04 64.51 64.29 62.77 63.04 62.12 60.95 60.20 59.81
38.01 39.77 41.91 42.90 42.89 42.04 42.91 41.50 42.03 43.24 46.76 48.65 49.88 52.33 51.87 53.42 54.65 57.80 61.21 61.58 61.61 61.78 62.40 62.16 62.75 63.14 64.70 65.22 65.10 66.82 66.21 63.71 63.31 63.27 64.62 65.81 63.99 63.07 63.50 63.80 64.33 63.91 63.18 62.48 62.40 61.49 60.58 59.14 59.02
39.10 39.32 39.40 40.79 40.87 42.10 40.42 40.14 41.26 42.36 46.10 46.62 48.13 48.64 50.59 52.35 53.93 55.63 60.79 60.66 59.93 60.62 60.46 61.51 62.93 63.02 64.60 64.15 64.16 64.33 66.00 66.19 63.08 62.79 63.08 64.86 64.14 63.64 62.93 63.07 62.97 62.32 62.16 61.35 61.34 60.39 59.29 58.99 58.98
39.58 34.95 37.24 38.24 39.37 38.54 40.84 36.38 37.70 42.59 44.53 43.80 45.40 48.07 49.46 51.37 54.82 55.14 58.90 60.31 60.03 60.17 60.91 61.79 63.20 63.18 62.49 63.21 64.06 64.35 65.17 66.00 65.23 63.56 62.95 63.26 63.78 63.24 62.53 61.64 61.44 61.02 60.85 60.92 60.03 59.62 59.38 59.12 59.93
34.83 34.89 28.67 36.51 38.44 39.59 38.21 29.37 38.79 43.27 42.86 41.87 43.14 44.99 48.19 51.78 54.71 55.68 57.17 60.17 60.31 60.54 60.83 62.24 63.68 62.56 62.39 62.51 64.01 64.45 64.99 65.42 65.52 65.18 63.78 62.37 62.82 62.64 61.59 60.59 60.55 61.33 61.61 61.17 60.11 59.49 57.89 58.96 60.71
32.07 25.64 28.55 32.25 39.44 38.30 36.63 31.83 38.72 42.05 41.90 41.21 42.27 42.89 46.12 49.60 54.16 55.92 57.33 59.88 60.65 60.98 61.00 60.76 62.58 62.68 62.99 62.96 63.36 64.25 65.18 64.38 66.03 65.81 65.90 63.69 64.23 63.96 62.77 62.33 62.52 63.18 62.89 61.64 61.24 59.68 59.11 59.13 60.17
25.78 27.76 30.53 30.36 36.20 38.25 35.63 34.12 38.49 41.25 40.97 40.50 41.15 42.40 44.98 47.97 53.18 57.30 58.41 60.37 60.72 60.96 61.27 61.69 62.51 62.51 62.76 62.81 62.92 64.22 64.84 63.55 65.00 65.72 65.61 66.48 65.79 65.63 64.50 64.09 63.85 63.67 63.22 61.79 61.58 60.86 60.99 60.89 59.79
32.31 29.89 27.94 31.81 36.59 34.98 34.11 34.52 37.39 40.63 40.91 40.41 41.16 41.55 44.56 47.18 54.53 57.25 58.63 59.13 60.16 60.59 60.93 61.51 61.49 62.12 62.17 61.06 60.93 61.71 62.22 63.55 64.44 65.71 66.11 66.27 66.29 67.45 67.00 65.79 63.19 62.27 63.49 62.61 61.87 61.45 60.52 60.37 60.13
32.66 29.74 29.08 32.55 36.20 35.16 34.36 33.46 37.45 39.67 39.70 41.83 45.03 45.05 48.27 49.99 52.16 55.02 57.19 56.31 56.11 57.65 60.24 60.88 61.63 62.11 61.62 61.25 61.70 62.68 62.90 63.92 63.79 65.02 65.94 66.34 65.75 66.19 65.96 65.32 64.16 62.65 63.60 62.96 63.12 61.65 60.24 60.41 60.47
31.39 29.80 29.87 30.33 34.26 35.16 34.03 31.37 34.71 38.77 40.52 45.56 46.89 48.04 48.49 48.80 50.70 54.77 55.65 54.71 55.22 56.08 57.28 60.21 61.57 61.61 61.76 61.69 62.43 62.30 62.53 63.05 63.45 64.31 63.96 64.28 65.75 65.50 64.95 64.77 64.36 63.70 63.50 63.10 63.08 63.05 62.23 60.32 60.70
29.30 35.93 34.57 33.00 31.20 25.18 34.24 21.13 30.96 35.36 37.10 42.69 44.46 46.02 47.50 49.02 48.50 51.89 55.20 53.98 55.07 55.82 57.45 59.74 60.32 61.67 61.86 62.10 61.63 60.74 59.79 59.66 60.92 62.19 62.86 64.19 65.14 64.69 64.55 64.41 64.36 63.93 63.42 62.22 61.93 62.44 61.86 61.45 60.79
34.53 37.83 36.84 34.77 31.96 30.26 30.96 26.80 27.70 36.04 35.30 39.58 43.57 45.69 47.96 50.12 48.68 50.07 53.73 55.87 56.08 56.38 55.82 58.02 59.99 60.23 61.37 61.44 61.28 60.88 59.69 60.65 61.25 61.04 60.86 60.86 62.75 63.34 63.87 63.75 63.64 63.16 63.05 62.45 61.94 62.13 62.21 61.79 60.28
41.27 35.67 35.40 34.32 32.50 24.90 30.47 28.59 27.37 32.20 37.07 40.58 44.98 46.82 47.82 50.32 48.50 48.10 51.02 53.95 53.54 53.44 53.51 54.85 55.60 57.82 59.68 60.45 61.44 61.07 59.91 59.73 59.86 59.87 59.66 60.41 61.29 61.70 62.38 62.98 63.27 63.79 63.36 62.43 62.04 61.75 61.26 60.87 60.27
39.44 32.41 26.84 23.02 21.90 26.13 33.12 28.00 33.43 37.21 39.99 43.04 44.72 47.52 48.95 49.12 46.59 46.79 47.00 48.37 50.01 50.42 51.41 52.75 54.02 54.95 57.74 58.53 59.20 60.03 59.89 60.15 58.63 57.49 59.61 59.83 59.90 60.33 61.07 61.57 62.49 62.95 62.52 61.93 61.86 60.55 59.73 59.83 59.30
36.83 35.87 29.38 21.84 24.38 27.10 33.33 29.71 32.78 40.62 40.42 43.26 47.70 46.58 44.86 44.33 44.70 45.52 45.91 47.50 48.34 49.39 50.47 51.95 53.08 52.19 52.71 54.85 56.24 59.40 60.61 60.11 60.02 58.98 59.19 60.21 59.83 59.83 60.08 61.43 61.60 62.34 61.74 62.03 61.27 60.23 59.54 59.55 58.64
35.61 33.53 36.91 32.07 32.47 30.30 32.03 33.21 38.14 42.06 40.82 44.25 44.17 44.23 43.73 43.24 42.89 43.53 44.64 45.36 47.26 48.23 48.69 50.03 50.94 50.96 51.34 51.67 52.57 53.98 59.81 59.93 60.36 60.41 60.27 60.28 60.68 61.21 60.70 61.02 60.87 60.59 60.66 61.35 61.15 60.21 59.49 59.02 58.25
37.45 39.30 29.82 31.77 25.15 24.85 29.33 29.23 32.15 36.47 36.64 38.25 38.67 40.26 41.49 42.69 43.24 44.07 44.66 45.34 45.72 46.59 46.92 47.39 47.57 48.34 49.11 50.27 50.85 51.25 51.97 54.27 55.50 58.11 60.34 60.95 61.14 61.08 61.47 60.64 61.40 60.95 60.98 61.40 60.71 60.22 59.34 58.43 57.46
35.99 34.43 35.17 34.29 31.81 27.62 24.57 27.82 38.93 37.51 37.41 36.81 38.52 39.77 40.40 41.20 42.28 43.37 44.41 45.06 44.77 45.39 45.99 46.24 46.31 46.26 46.45 47.45 49.22 49.81 50.57 51.13 51.61 51.93 53.70 56.46 58.12 58.88 60.01 60.41 59.82 60.31 61.18 61.06 59.77 58.37 56.81 56.65 55.00
38.41 36.00 34.71 25.94 26.90 28.45 26.55 28.59 39.96 39.20 38.90 39.55 38.70 39.27 40.75 41.37 41.39 41.92 42.52 42.75 42.26 42.19 42.47 42.64 43.74 44.04 45.26 46.51 46.70 47.89 49.45 49.99 50.11 50.39 51.09 52.11 52.72 55.18 56.65 58.20 59.25 59.22 58.85 58.83 58.24 56.58 55.77 55.21 53.48

GFSSGP_sfc_wetblb_093.txt.gz
Wetbulb
60.29 59.33 59.07 55.46 44.66 41.85 38.13 42.70 44.95 45.95 46.43 49.14 50.17 48.80 50.23 55.28 55.33 49.77 64.79 69.43 70.91 71.01 72.54 73.10 74.40 74.11 73.92 73.40 73.03 73.51 74.67 74.48 74.53 75.08 74.56 74.69 74.50 74.21 73.46 72.84 72.92 73.82 73.76 73.66 73.33 72.94 71.92 71.53 71.27
59.47 61.00 55.44 49.67 39.64 34.57 36.13 41.99 42.52 46.85 49.40 50.89 49.90 51.63 50.67 58.30 63.45 63.94 64.39 70.43 70.98 71.55 72.32 72.62 74.30 74.20 73.74 73.32 72.48 72.74 73.41 74.55 74.28 74.14 75.04 75.13 74.45 73.93 73.73 72.61 73.42 74.00 73.65 72.94 72.60 71.60 71.02 70.69 70.73
60.01 60.41 48.18 43.78 39.69 35.79 36.00 42.89 43.99 47.30 49.51 49.53 49.02 52.49 55.14 60.07 64.31 64.52 66.60 70.26 70.67 71.01 71.89 72.54 74.08 74.15 73.65 72.97 72.53 72.23 72.22 73.63 74.54 74.32 74.35 74.39 74.34 73.70 73.16 73.24 74.02 73.41 72.90 72.31 71.34 70.85 70.49 70.24 70.16
52.80 51.20 48.57 41.30 37.12 40.37 43.14 46.11 48.39 48.03 50.55 50.58 50.17 48.32 60.27 65.51 65.28 66.87 68.69 70.59 69.90 70.07 71.04 72.96 73.77 74.01 73.54 73.47 73.05 72.67 72.12 72.50 73.83 74.11 73.64 74.40 73.86 73.92 73.61 73.27 73.22 72.55 71.82 71.43 70.41 70.10 69.79 69.09 68.82
51.45 47.81 39.40 37.21 38.68 41.43 44.84 47.04 48.30 46.26 47.08 48.19 49.74 47.13 53.07 65.15 67.56 67.97 67.76 69.59 69.29 69.42 71.25 72.23 73.88 73.85 73.54 73.29 73.00 72.90 72.65 72.87 73.11 73.51 73.42 73.85 73.66 73.41 73.33 72.63 72.43 71.87 72.00 71.69 70.93 70.62 69.49 68.20 67.88
45.16 45.08 35.88 34.99 37.14 41.91 43.52 46.28 46.58 45.45 45.94 47.04 48.74 47.19 53.67 64.68 66.38 67.60 67.97 67.89 69.15 70.14 71.15 71.83 72.67 73.05 73.23 72.82 72.62 72.47 72.49 73.48 73.32 73.35 73.15 73.22 73.39 73.00 72.63 72.27 71.13 69.73 70.29 70.85 70.99 70.63 69.04 67.68 67.45
43.36 40.55 35.10 35.27 36.36 38.39 42.27 45.62 42.89 44.32 44.72 46.03 47.86 44.90 55.32 62.35 65.76 66.74 67.19 66.91 67.59 69.14 69.00 70.16 71.20 71.64 72.02 72.18 71.75 71.43 71.92 72.16 73.02 72.44 72.28 72.03 71.93 72.09 71.72 70.95 69.43 70.55 71.31 72.07 71.87 70.40 68.99 67.80 66.87
44.09 43.00 36.56 35.59 36.17 37.14 43.90 44.86 45.98 43.42 44.07 49.41 49.24 44.16 44.86 59.37 65.93 66.13 65.71 64.60 65.21 66.12 66.04 66.30 67.58 67.23 67.41 70.22 70.66 70.17 70.07 70.37 71.34 71.39 70.68 69.80 69.83 70.10 69.08 69.79 69.38 69.05 72.05 71.78 71.47 70.69 69.18 68.20 67.37
46.29 36.13 33.61 36.03 37.38 39.29 44.69 42.64 45.47 47.03 43.75 45.46 47.84 48.57 56.31 63.79 66.16 64.38 63.86 64.58 65.15 64.85 64.83 66.10 65.35 64.39 65.25 66.89 68.94 69.15 69.18 69.33 69.34 69.47 68.29 67.76 67.32 67.77 67.00 67.72 68.27 69.95 70.46 70.63 70.77 70.58 70.01 68.01 66.32
39.96 34.54 36.50 41.60 41.25 40.07 42.95 42.30 43.44 43.81 43.71 44.78 46.99 50.12 55.67 63.47 62.76 61.93 61.35 61.44 64.21 63.31 63.99 64.25 64.26 64.02 64.50 65.55 64.13 65.83 67.38 67.34 67.65 67.74 67.60 67.29 66.52 66.53 66.66 66.67 67.13 69.05 69.45 69.29 69.45 68.91 67.96 64.93 60.52
38.73 35.59 40.63 42.30 43.93 44.50 42.33 41.26 43.96 42.47 40.90 43.43 43.49 46.29 48.84 54.25 58.64 59.98 60.28 61.12 62.86 64.21 63.87 64.09 64.32 64.40 63.77 64.04 63.73 64.43 65.65 64.88 66.49 66.73 67.64 67.23 66.24 65.52 65.72 67.27 66.87 66.93 66.10 66.26 66.93 66.12 63.52 60.35 58.91
34.48 38.83 39.98 41.24 42.52 41.53 39.55 41.49 39.77 42.15 42.56 45.65 45.45 47.30 48.33 49.52 53.65 58.36 58.83 59.82 59.97 61.60 63.15 63.23 63.76 62.85 62.90 64.42 64.11 63.73 63.88 64.43 63.13 66.55 67.64 66.70 65.39 64.77 64.86 65.62 66.44 66.15 64.30 63.45 63.10 62.20 60.98 59.53 59.02
34.24 36.96 40.42 41.19 41.08 40.55 41.74 39.70 38.83 39.62 43.01 45.18 46.45 47.69 46.38 48.12 50.22 56.45 59.47 59.23 59.52 61.09 61.99 61.92 61.59 61.25 62.50 63.04 63.38 62.76 64.28 65.40 64.18 65.66 66.80 67.08 65.35 64.78 64.91 64.07 63.98 63.82 63.61 62.29 61.84 61.10 59.91 59.03 58.72
35.99 37.21 37.60 39.35 39.19 39.98 38.31 38.31 39.72 40.02 42.76 43.80 44.89 44.68 45.11 46.93 48.34 53.08 57.40 57.62 59.57 61.35 60.67 61.39 61.58 62.32 62.75 62.52 62.74 62.43 63.87 65.67 63.62 64.73 65.54 65.92 64.94 64.73 64.46 63.86 63.70 63.38 62.95 62.23 61.60 60.30 59.41 58.56 57.82
37.63 33.14 35.63 36.89 38.05 37.16 39.48 34.47 35.42 40.12 42.53 42.33 43.16 44.14 44.94 46.20 48.90 49.56 57.21 58.26 59.18 60.90 61.52 61.64 61.38 62.21 63.18 62.97 62.49 62.55 63.34 65.98 64.83 62.72 63.74 64.24 64.32 63.93 63.34 63.07 62.90 62.98 62.13 60.65 60.00 59.48 58.44 57.63 57.70
33.26 31.89 26.10 34.65 37.26 38.29 36.94 27.84 36.32 40.31 40.33 40.47 41.98 42.99 43.93 44.84 46.59 49.92 55.10 58.15 57.82 59.87 60.81 62.60 63.30 61.51 61.67 62.14 62.91 62.05 63.31 65.10 65.21 65.17 62.12 63.25 64.72 63.48 61.63 61.08 61.80 61.56 60.62 59.41 58.23 57.75 56.71 56.59 57.59
28.70 20.80 25.77 30.37 38.05 37.65 35.11 30.56 37.09 40.18 39.92 39.38 40.78 41.11 42.78 43.69 45.57 49.42 54.82 56.60 59.30 59.02 60.43 61.61 61.74 61.24 60.92 61.65 62.24 63.85 62.84 64.45 64.91 64.96 64.55 61.52 63.21 63.23 61.62 59.88 60.15 60.36 60.26 59.95 59.68 57.72 57.40 56.55 58.68
21.29 22.71 27.62 27.46 33.93 35.12 33.13 32.58 37.75 39.08 38.36 37.91 39.18 38.96 40.33 42.26 44.17 49.73 56.22 57.75 59.43 59.00 59.25 59.66 61.49 61.63 61.72 62.52 62.69 63.12 63.32 64.14 64.93 64.73 64.82 63.70 62.85 62.62 61.67 60.98 60.65 61.35 61.10 60.25 60.29 58.70 58.72 58.19 58.84
30.28 27.93 27.10 31.08 35.43 33.32 31.59 32.11 35.66 39.12 39.33 38.28 37.30 38.50 39.78 41.03 45.15 55.18 56.49 58.27 58.59 58.06 58.97 59.54 60.01 61.07 61.59 61.19 60.76 61.13 61.18 62.58 63.31 64.58 64.84 64.58 64.41 63.72 63.20 63.19 62.66 62.62 62.59 61.47 60.91 60.20 59.47 59.19 59.74
30.70 28.11 28.00 31.89 35.74 34.70 32.68 31.69 35.68 38.41 38.59 39.41 39.06 38.47 40.45 41.69 51.04 54.11 54.26 54.28 56.79 57.61 58.40 59.56 60.01 60.51 61.45 61.77 61.30 61.37 61.31 61.93 63.08 64.24 64.51 65.15 64.67 65.12 65.45 64.16 62.93 61.56 62.58 61.78 60.98 60.24 59.44 59.62 59.67
29.41 27.17 29.14 29.77 33.61 35.17 32.98 29.55 31.95 36.72 39.44 40.54 41.24 44.75 46.36 47.93 50.28 52.36 54.00 53.49 52.95 54.62 56.58 58.77 60.32 60.43 61.58 61.70 61.53 61.52 61.60 61.28 61.27 62.23 63.51 64.48 65.57 65.04 65.29 64.39 64.31 62.90 62.82 62.25 61.78 62.52 60.65 58.69 59.59
29.25 35.05 34.77 34.69 32.92 21.76 32.49 19.74 28.13 32.29 35.10 37.48 40.99 45.57 45.27 47.01 48.95 51.11 52.56 54.39 54.16 53.37 55.05 57.93 59.45 61.12 61.61 61.56 60.82 60.06 59.05 58.43 60.50 61.64 62.17 62.71 64.06 64.27 63.72 63.74 63.20 63.21 62.99 62.35 62.17 62.15 61.58 61.26 59.43
32.99 38.20 36.60 35.73 31.53 29.69 27.80 26.51 26.04 31.06 31.45 34.14 39.00 44.08 46.76 46.55 46.80 48.41 50.81 55.64 56.33 55.49 54.08 57.54 58.87 59.71 61.06 61.54 61.29 60.12 59.36 60.04 60.88 60.94 61.09 61.09 61.61 62.87 63.98 63.67 62.95 62.38 62.57 62.37 61.94 61.24 60.95 60.77 59.86
38.48 35.22 34.14 33.61 31.94 20.75 28.70 23.16 24.39 29.32 33.24 35.90 40.25 44.37 46.79 46.43 45.97 46.54 49.91 51.50 52.15 53.35 52.00 54.32 55.25 56.29 59.14 59.54 60.27 60.46 59.95 59.72 59.71 59.77 59.76 59.89 60.61 61.15 61.22 62.28 62.35 62.61 62.36 61.62 61.30 61.19 61.35 61.63 60.80
38.02 33.65 25.35 22.64 21.84 20.98 32.35 26.78 28.68 36.62 39.84 40.38 42.39 46.60 45.66 44.58 45.44 45.44 47.60 48.55 49.81 50.69 50.21 52.77 53.13 54.26 56.64 58.67 58.70 59.68 59.79 60.02 59.71 58.53 59.04 59.39 59.64 59.69 60.66 60.39 60.60 62.17 62.45 61.40 60.93 60.78 60.59 60.61 60.47
35.70 34.26 29.08 21.72 24.10 26.69 32.13 28.04 32.56 39.92 44.37 45.51 45.47 44.99 44.35 44.38 44.90 44.81 46.47 47.31 48.07 48.86 49.80 51.35 51.71 51.97 52.84 53.65 54.32 56.33 59.84 59.95 59.03 57.93 58.65 59.26 59.96 60.30 60.79 60.92 60.74 61.36 62.31 61.66 60.87 60.39 60.06 60.01 59.80
35.62 33.44 36.85 31.57 32.32 26.46 29.77 32.66 37.19 38.56 38.55 42.73 42.93 42.54 42.28 43.02 43.74 44.35 45.12 45.94 46.44 46.68 46.73 47.93 49.12 49.65 51.08 51.81 52.00 52.88 54.61 59.78 58.98 59.25 58.26 58.34 59.87 60.19 60.20 59.99 60.36 60.72 61.56 60.76 60.76 59.78 59.59 59.53 59.37
37.90 39.36 27.73 29.32 24.01 25.02 28.25 29.25 30.87 33.14 33.46 38.04 38.66 39.98 41.32 42.79 43.53 44.25 44.50 44.57 45.96 46.58 46.70 46.66 46.66 46.31 47.38 49.19 50.38 50.95 51.82 54.61 55.37 56.61 58.43 59.62 59.70 60.55 60.55 59.84 60.10 60.23 60.56 60.50 60.37 59.84 59.62 58.96 58.76
34.46 33.19 33.43 31.76 28.95 25.20 22.23 27.56 36.05 33.87 35.94 36.98 38.82 39.84 39.84 40.55 42.39 42.77 42.97 43.28 43.02 43.28 43.54 43.58 43.58 43.55 44.85 46.10 47.31 48.65 49.34 50.37 51.09 51.20 52.62 55.12 57.39 58.01 58.45 59.68 60.10 60.19 59.97 60.07 59.96 59.37 59.27 58.45 58.36
35.77 34.17 31.86 24.77 24.92 25.73 26.23 28.64 38.80 38.61 39.02 39.01 39.06 40.27 40.76 40.90 41.31 42.13 42.43 42.17 41.50 41.04 41.27 41.55 41.65 41.18 42.12 43.61 45.50 45.70 46.19 46.68 47.82 48.89 49.62 50.19 50.20 51.72 54.16 55.58 57.07 58.86 59.49 59.79 59.89 59.30 58.76 57.95 56.58

GFSSGP_sfc_wetblb_096.txt.gz
Wetbulb
59.44 59.57 57.15 54.09 43.74 40.87 36.40 41.34 44.19 44.47 44.70 46.90 47.93 46.51 46.70 52.30 52.03 48.07 63.89 68.66 70.04 70.97 72.30 72.69 74.14 74.11 74.00 73.94 73.97 75.04 75.08 74.81 75.16 75.05 74.27 73.89 74.45 73.95 72.91 72.18 73.16 73.60 73.69 73.66 73.40 73.07 72.83 72.10 71.58
57.99 60.15 53.82 48.01 38.08 34.56 35.33 41.71 43.58 45.42 46.89 48.32 48.87 48.99 48.54 54.47 62.70 62.69 65.03 69.69 70.51 71.39 72.04 72.10 74.13 74.10 73.57 73.14 72.91 74.19 74.72 74.79 74.72 74.94 75.00 74.76 74.31 73.80 73.11 72.74 73.41 73.61 73.47 73.11 72.88 71.85 71.14 71.18 70.85
58.02 59.55 47.71 43.67 37.37 33.98 35.24 40.97 43.17 45.68 48.55 48.21 46.99 51.16 53.88 59.46 63.35 63.57 66.51 70.23 70.81 70.84 71.63 72.36 74.10 74.02 73.65 72.79 72.37 72.42 73.93 74.51 74.49 74.49 74.55 74.21 74.04 73.59 73.05 73.49 73.92 73.44 72.93 72.54 72.15 70.27 70.98 70.65 70.41
51.63 50.11 47.25 39.69 36.06 39.51 40.65 43.45 45.30 46.49 48.23 47.70 47.76 45.63 60.72 64.49 64.99 66.28 69.10 70.31 70.24 70.46 71.06 73.07 73.84 73.90 73.59 73.21 72.61 71.78 72.45 73.73 74.30 74.29 73.83 74.03 73.59 73.51 73.71 73.76 73.26 72.54 71.98 71.80 70.92 70.08 70.26 70.00 69.43
50.36 46.30 38.81 35.87 37.32 40.15 42.31 45.05 45.68 45.00 45.08 46.35 45.73 45.29 54.70 64.31 66.69 67.85 68.96 69.85 69.15 69.50 70.97 72.41 74.03 73.87 73.63 73.41 73.17 72.80 72.18 72.71 73.39 73.86 73.39 73.39 73.71 73.18 73.45 73.10 72.66 71.87 71.59 71.00 70.11 70.02 69.40 68.63 68.47
43.92 43.87 34.70 33.29 35.58 39.93 41.43 42.86 42.92 43.09 44.08 45.40 44.97 44.10 51.38 63.17 65.02 66.34 68.78 68.28 69.11 69.52 71.20 72.04 73.05 73.33 73.27 73.19 72.95 72.81 72.50 72.75 73.15 73.38 73.67 73.52 73.77 72.74 72.87 72.50 72.40 71.92 71.68 70.62 70.38 69.47 68.45 67.86 67.89
42.09 39.05 33.83 33.37 35.03 36.60 40.22 42.92 40.66 41.51 41.49 42.47 46.49 43.18 48.87 60.97 63.87 65.84 66.40 67.22 68.55 69.92 70.07 70.80 71.56 71.92 71.99 72.27 72.14 72.15 72.00 72.72 73.13 72.77 72.80 72.38 72.28 71.77 72.47 71.93 71.84 70.88 69.95 71.44 70.89 69.35 67.73 67.61 67.51
43.04 39.92 34.21 33.41 34.87 36.11 42.37 43.04 44.07 42.07 41.92 46.70 46.70 42.41 44.89 53.58 64.84 64.50 64.59 65.01 65.54 65.63 67.08 68.38 69.39 70.23 70.39 69.82 70.54 70.12 70.16 70.78 71.64 71.44 70.85 70.10 69.95 70.23 71.31 70.22 69.57 70.24 71.03 71.31 71.20 69.48 67.97 67.59 67.20
44.84 35.32 32.11 34.84 36.21 37.99 42.28 40.25 43.27 45.48 42.82 44.89 45.98 44.97 47.94 55.04 63.97 63.09 62.68 62.88 64.97 65.32 65.57 65.24 65.28 65.82 67.62 68.72 68.70 68.98 68.97 69.12 68.98 69.15 68.36 67.85 68.67 68.75 67.82 66.86 68.02 68.95 71.11 71.56 70.94 69.81 68.97 67.97 66.48
39.12 33.64 35.29 40.21 39.37 38.56 41.70 40.58 40.58 40.77 40.88 42.50 44.16 47.13 48.73 51.49 53.47 59.10 60.10 60.71 61.70 64.18 64.95 65.32 63.72 63.68 64.77 66.74 64.97 66.12 67.33 66.89 67.08 67.38 67.27 66.59 66.79 67.05 66.72 65.95 66.98 69.01 70.09 70.27 70.90 70.31 68.99 65.37 60.21
37.49 34.41 39.24 40.87 42.50 43.05 39.95 39.46 40.77 38.88 38.02 41.48 41.41 43.77 46.17 48.18 49.47 53.72 58.77 59.42 60.97 63.02 64.78 64.68 64.70 64.50 63.50 63.53 62.83 63.17 63.95 65.23 66.43 66.38 65.82 65.53 66.22 65.75 66.07 66.13 66.32 67.27 66.21 66.53 67.17 66.40 63.25 59.32 57.88
32.75 37.69 38.35 39.71 41.42 40.06 37.91 40.54 38.13 39.28 39.32 43.62 43.61 44.96 45.92 45.30 47.18 50.87 55.22 58.76 59.65 61.62 63.15 64.13 64.39 64.37 64.03 64.10 62.73 62.31 62.21 63.82 64.98 66.43 66.73 65.24 65.60 65.10 65.16 65.96 65.36 66.00 66.24 64.25 63.74 62.67 61.20 59.44 58.32
32.90 34.82 37.72 38.84 39.04 38.52 39.48 37.72 37.59 38.64 41.78 42.56 43.23 44.89 43.89 44.39 45.85 48.01 53.95 58.57 59.18 59.52 61.32 63.02 63.08 63.84 62.83 62.87 62.47 61.81 62.47 63.67 63.39 65.54 66.31 66.10 65.88 64.75 65.20 64.81 65.61 65.05 65.39 64.11 62.19 61.48 60.08 58.37 57.93
34.47 36.37 36.58 38.21 37.92 38.55 36.91 36.90 37.51 38.20 41.55 42.35 43.27 43.13 42.65 43.62 44.52 47.65 51.89 55.48 57.42 59.42 60.63 60.82 61.31 61.70 62.38 62.00 61.42 61.30 62.28 63.86 65.03 64.56 65.60 66.13 65.85 65.15 64.76 64.35 64.16 63.66 64.90 63.70 62.39 60.73 59.23 57.90 57.69
36.70 32.17 34.36 35.53 36.80 35.98 38.28 33.27 34.00 38.87 40.29 40.04 41.10 42.25 43.66 43.59 44.65 45.13 48.60 54.03 56.71 58.77 60.45 60.59 61.12 61.95 62.28 62.52 62.22 61.29 61.58 62.90 63.84 63.90 65.70 65.09 65.12 65.20 64.98 64.07 63.92 64.14 64.15 63.36 60.66 59.83 59.38 57.97 57.71
31.97 30.38 25.66 32.99 36.15 37.31 35.77 26.89 35.12 39.04 38.01 37.41 39.04 40.51 41.83 43.29 44.10 44.65 46.15 51.48 56.69 58.53 59.63 60.82 62.20 62.01 62.05 61.69 61.27 61.49 61.76 62.48 64.37 64.25 63.13 63.66 63.96 64.12 64.73 64.03 63.63 64.12 63.39 62.12 60.17 59.36 57.21 56.27 55.86
26.44 20.07 24.13 28.75 36.70 36.22 33.92 29.18 35.97 38.78 38.49 37.19 38.28 39.26 40.76 42.43 43.96 45.24 45.85 50.33 56.35 58.15 59.42 60.50 61.53 61.39 61.93 62.05 61.69 60.87 61.47 62.10 63.42 64.14 63.95 62.11 63.70 64.11 64.23 63.49 63.01 62.66 61.32 60.39 59.50 57.25 56.84 55.23 56.33
20.46 21.12 25.57 26.54 32.31 34.21 32.35 31.70 36.02 37.93 37.85 35.60 36.56 37.74 38.15 39.92 42.06 45.08 45.68 51.68 56.37 57.91 58.90 60.21 61.19 60.90 60.59 61.25 61.06 61.57 61.42 62.28 63.72 63.82 63.98 63.23 63.46 64.01 63.33 62.41 62.24 61.27 60.42 59.78 58.91 57.34 57.03 56.06 56.53
28.37 26.19 25.26 29.88 34.24 32.79 31.49 31.89 34.40 37.38 37.19 37.17 36.06 36.59 37.41 38.75 42.35 43.82 48.82 55.79 57.07 56.99 58.15 59.69 60.00 60.63 60.26 60.61 60.27 60.41 61.10 61.44 62.12 63.71 64.16 64.34 62.27 63.26 62.83 62.02 60.62 60.95 60.42 60.12 60.02 58.22 57.27 57.63 57.60
29.53 27.81 27.44 30.99 34.48 33.62 32.54 31.87 35.15 37.13 37.09 38.16 38.22 37.07 36.52 38.69 39.71 49.67 53.30 54.18 55.93 56.74 58.05 58.13 59.22 60.08 60.43 60.39 59.58 60.08 61.43 61.65 62.53 63.08 63.39 64.17 63.83 62.87 62.41 61.94 60.77 60.88 60.79 60.43 60.20 59.87 58.26 58.21 58.70
26.17 23.76 27.23 27.42 33.19 35.82 33.58 29.65 31.09 35.44 37.45 38.79 40.00 40.20 39.50 39.87 42.18 49.88 52.43 52.18 53.27 54.73 56.00 57.62 58.46 58.81 59.44 60.07 59.70 59.54 60.62 61.00 60.66 61.56 62.21 63.32 64.10 63.84 62.94 62.50 62.36 61.57 61.97 61.09 60.57 60.03 59.15 58.06 58.83
27.32 33.30 33.13 32.74 32.48 25.90 31.95 20.43 27.88 30.16 33.39 36.07 37.47 38.56 39.57 43.83 45.92 49.03 51.01 51.94 52.49 52.46 55.08 57.99 58.56 59.63 59.36 59.72 59.26 58.72 58.63 58.14 59.42 59.85 61.74 62.59 63.59 63.34 63.44 63.67 63.42 62.58 62.43 62.29 61.58 61.36 60.75 59.90 58.27
30.17 36.94 35.04 36.06 32.60 29.50 28.64 24.59 24.96 30.43 30.12 33.70 34.90 37.73 42.96 45.38 46.92 50.09 52.25 52.39 55.39 55.29 54.61 55.90 56.62 58.47 60.16 61.20 60.83 59.85 59.06 59.34 60.35 60.72 60.99 61.42 61.82 62.73 62.89 63.41 62.78 61.56 61.04 61.28 61.02 60.67 60.71 60.79 59.83
37.53 34.58 35.14 34.49 32.32 18.08 27.11 22.96 22.95 30.33 35.38 37.53 38.88 44.53 45.73 46.36 46.79 47.64 50.28 51.45 51.66 53.68 53.78 54.69 55.78 56.14 58.07 59.66 59.76 60.30 58.74 58.74 59.41 59.84 59.53 59.96 60.73 61.07 62.24 62.67 62.73 62.34 61.70 61.60 61.02 60.54 60.10 60.42 59.58
35.32 32.56 23.51 16.60 22.22 20.33 32.35 22.77 23.41 36.64 40.62 40.81 40.60 43.95 44.78 45.04 45.54 46.83 47.33 48.12 49.33 50.32 52.01 53.19 52.59 52.92 54.95 55.45 56.91 58.52 59.57 59.43 59.46 59.69 59.44 59.22 59.51 59.49 60.08 61.03 61.26 61.19 61.54 61.34 61.47 60.37 60.31 60.61 60.60
34.47 34.46 27.96 20.66 23.36 25.17 31.91 25.61 32.16 38.83 41.82 43.33 44.18 43.66 43.94 44.35 44.77 45.23 45.83 46.08 46.76 47.72 49.75 51.41 51.03 50.95 52.50 52.91 53.26 54.29 55.55 59.78 58.96 59.00 59.44 59.40 59.44 59.57 60.40 60.67 60.63 60.57 61.09 61.14 61.18 60.67 60.63 60.61 60.53
35.55 33.38 37.53 30.80 32.13 22.23 28.57 32.84 36.51 38.10 37.62 41.02 41.72 41.99 42.21 43.10 43.74 44.43 45.13 45.77 46.00 46.19 46.57 46.42 47.53 48.23 49.44 51.22 52.00 51.98 53.23 56.54 58.54 58.58 58.36 58.29 59.50 60.17 59.84 59.91 60.02 60.58 60.68 60.96 61.28 60.53 59.68 59.43 59.69
37.98 39.11 30.38 29.81 20.23 24.00 28.23 29.20 29.52 32.61 32.90 38.57 38.99 40.09 41.65 42.82 43.08 43.25 43.37 43.17 43.64 43.97 44.24 44.23 44.54 45.11 46.76 48.20 49.73 50.65 51.02 52.02 53.56 55.24 56.00 57.76 58.75 59.26 59.61 59.66 59.75 59.75 59.88 60.24 60.44 59.72 59.31 58.98 59.05
33.97 32.57 32.94 32.48 29.99 25.01 22.41 27.83 34.86 33.36 34.34 36.10 38.84 39.76 40.48 41.43 42.16 42.36 42.04 42.85 42.90 43.11 43.13 42.76 42.85 42.84 43.20 45.77 46.29 46.33 46.86 48.37 50.20 50.49 50.75 51.21 53.53 55.22 56.70 57.76 58.73 59.41 59.51 59.72 59.65 59.65 59.27 58.61 58.39
35.36 33.07 30.95 24.44 25.14 25.50 24.57 28.85 38.25 37.54 37.80 38.66 39.60 40.11 40.50 40.85 40.93 41.55 41.73 41.58 41.60 41.63 41.72 41.39 41.63 41.77 42.05 42.66 43.70 44.01 44.72 45.18 45.25 45.76 47.15 48.87 48.72 49.64 50.09 52.60 54.76 57.24 58.91 59.33 59.20 58.96 59.10 58.46 57.83

GFSSGP_sfc_wetblb_099.txt.gz
Wetbulb
58.88 58.76 56.67 52.10 42.04 39.99 34.89 38.89 42.28 43.59 42.55 44.73 46.83 45.40 45.88 47.15 46.48 45.74 62.81 68.48 69.84 70.75 72.11 72.76 74.23 74.55 75.24 75.50 75.66 75.40 75.39 75.27 75.02 74.85 73.82 73.99 74.03 72.87 72.55 73.27 73.29 73.21 73.41 73.44 73.48 73.25 72.91 71.42 70.76
57.46 58.74 52.56 45.99 36.32 31.82 32.02 40.14 42.51 44.19 45.79 46.99 47.43 47.73 45.67 48.05 61.54 61.98 64.37 68.75 70.45 71.24 71.88 71.79 74.06 74.20 73.94 74.49 74.89 74.95 74.69 74.77 74.87 74.83 74.40 74.39 73.90 73.46 72.47 73.02 73.54 73.84 73.48 73.29 73.19 72.83 71.66 71.05 70.81
56.94 57.68 46.90 42.00 35.91 32.18 32.81 39.69 40.64 44.81 47.34 46.63 45.65 46.87 48.50 56.60 62.64 62.97 65.13 69.59 70.33 70.53 71.24 71.65 73.95 74.02 73.58 73.13 74.15 74.30 74.45 74.35 74.58 74.61 74.63 74.51 74.03 73.59 72.56 73.10 74.12 73.40 73.35 72.97 72.42 70.90 70.99 70.41 69.91
51.06 49.93 46.41 38.00 34.54 38.28 38.32 40.77 43.94 44.69 46.37 46.30 44.85 43.78 50.32 63.68 63.39 65.10 69.17 69.85 69.72 69.76 70.58 72.79 73.78 73.88 73.51 73.26 73.00 73.79 73.81 73.83 74.10 74.38 73.63 73.60 73.94 73.69 73.40 73.94 72.89 72.80 72.47 72.11 71.58 71.21 70.59 70.18 69.80
49.66 45.49 37.45 34.45 35.24 39.02 41.31 43.88 43.76 42.06 43.04 44.03 44.14 42.91 45.32 62.21 65.98 67.52 68.59 69.86 69.27 69.52 70.79 72.40 73.96 73.89 73.48 73.12 72.81 72.66 73.47 73.72 73.59 73.53 73.20 73.22 73.79 73.58 73.43 73.10 72.41 72.18 72.15 71.54 70.72 70.25 70.31 69.43 69.28
43.64 43.16 33.24 31.07 33.75 38.75 40.83 41.90 41.56 40.36 41.42 42.98 42.44 42.49 44.79 61.94 61.96 66.12 67.51 67.49 69.64 69.52 70.98 71.98 72.96 73.40 73.35 73.03 72.92 72.55 72.44 72.93 73.65 73.90 73.80 73.54 73.38 73.25 72.64 72.48 72.26 71.93 71.10 70.60 70.25 70.08 69.10 68.47 68.47
41.57 37.81 32.73 31.68 34.51 36.15 39.40 41.45 38.24 38.64 40.09 40.37 43.42 40.03 45.61 50.01 53.41 64.89 66.33 66.96 66.61 68.50 69.73 70.40 71.53 71.85 72.21 72.40 72.54 72.58 72.69 72.37 73.14 73.30 73.35 72.84 72.10 72.24 72.46 72.00 72.09 71.64 70.98 70.61 69.86 69.12 68.10 67.95 68.43
42.60 39.17 33.89 33.78 34.08 35.65 40.85 41.49 41.85 41.16 40.21 45.49 44.47 40.35 41.89 46.61 61.21 64.14 65.59 66.34 67.02 67.24 67.20 67.49 68.69 69.71 69.62 69.82 71.08 70.94 71.01 71.74 72.39 71.91 71.34 70.48 70.03 70.62 71.07 70.78 71.12 71.49 71.14 71.16 70.21 68.61 67.64 68.04 68.38
43.71 34.89 30.53 33.33 35.13 36.82 40.52 39.44 42.33 43.63 40.43 42.06 43.92 42.99 46.20 48.11 54.17 58.25 62.40 63.60 64.64 65.41 66.95 66.55 67.19 67.93 68.55 68.36 68.52 69.08 69.39 69.38 69.36 69.55 68.75 68.25 68.52 68.74 68.66 68.58 68.95 69.56 70.03 70.72 70.08 68.70 68.49 67.59 66.18
38.68 32.90 34.16 38.81 38.46 37.35 40.48 38.25 38.48 38.15 38.05 39.22 43.02 45.88 46.70 47.83 48.51 49.12 54.13 59.46 61.36 63.20 65.27 64.51 64.28 65.36 67.30 68.44 66.21 66.22 67.08 65.73 66.59 67.18 66.88 67.23 67.74 67.72 67.84 65.62 66.96 68.71 69.35 70.58 70.49 69.49 68.72 65.84 60.75
37.04 33.94 37.76 39.81 41.18 41.21 38.90 37.68 39.53 36.66 35.43 39.49 39.20 42.56 44.06 45.71 45.90 47.27 48.75 54.90 59.64 61.54 63.94 64.57 63.46 64.06 64.74 64.79 64.07 64.06 64.73 64.91 65.92 65.14 65.35 65.49 66.48 65.89 66.03 65.68 65.82 66.17 67.07 68.93 68.88 68.03 64.22 60.02 57.89
31.56 36.08 36.89 38.26 39.55 37.91 36.19 38.80 36.99 37.98 36.97 41.36 41.17 42.80 43.59 43.83 44.52 46.06 47.17 48.89 56.22 60.60 63.06 64.77 63.61 63.60 64.55 64.96 64.21 63.02 63.57 63.68 64.74 65.40 65.60 65.19 64.30 65.36 65.70 65.19 64.93 65.89 66.50 66.27 65.25 63.35 61.81 59.37 57.01
31.76 33.57 36.96 37.85 38.16 37.36 38.10 36.12 36.03 36.80 39.63 41.54 41.67 43.28 42.40 43.13 43.97 44.75 47.46 50.43 54.07 58.65 60.96 63.22 64.45 63.08 63.88 63.82 63.44 62.80 61.49 61.72 62.65 64.74 65.62 65.71 65.13 64.68 65.06 65.28 64.32 64.96 65.41 65.28 63.84 62.20 60.25 58.56 57.47
33.68 35.47 35.58 37.07 36.86 37.37 35.77 35.92 36.13 36.42 39.33 40.58 41.12 41.12 41.44 42.06 43.64 44.23 45.90 46.67 50.71 56.53 59.66 61.42 63.61 63.44 63.42 63.10 62.84 62.75 62.97 62.73 62.16 62.51 65.26 65.22 65.47 64.85 65.04 65.15 64.69 64.12 65.01 64.47 64.09 62.66 60.64 58.22 57.09
35.77 31.37 33.18 34.34 35.50 34.88 37.07 32.20 32.59 37.93 38.23 37.65 38.73 40.03 41.13 42.03 43.47 43.63 44.94 45.56 48.55 51.32 58.77 59.97 61.56 62.48 62.52 62.78 62.16 62.17 62.13 61.87 62.94 62.80 63.76 65.53 65.25 64.89 65.08 64.79 64.60 64.42 64.28 63.79 62.96 62.05 60.66 58.02 56.91
30.68 29.31 24.88 31.56 34.87 36.23 34.80 27.26 33.84 38.03 36.80 36.27 37.85 39.16 40.02 40.62 42.63 43.50 44.36 45.48 46.71 52.15 57.75 59.79 62.20 61.06 61.01 61.45 61.71 61.50 62.06 61.87 62.28 61.93 63.23 64.68 65.25 64.88 64.82 64.32 64.44 64.65 63.89 63.72 62.51 60.93 59.98 57.80 56.41
25.22 19.42 23.19 27.81 35.41 34.68 33.07 28.70 35.05 37.66 37.51 36.76 38.17 37.99 38.50 39.25 41.90 43.76 44.69 44.36 45.95 50.06 57.56 59.08 60.08 59.91 60.03 59.96 60.80 60.78 60.69 60.78 60.91 62.20 62.04 62.64 64.37 65.01 63.74 63.82 64.15 64.00 63.77 62.95 62.35 60.28 59.09 56.77 55.96
19.05 19.88 24.80 25.05 31.26 33.39 31.15 30.69 35.49 38.23 37.55 36.37 36.41 36.71 35.84 37.39 39.77 42.85 44.40 44.80 46.87 50.89 57.40 58.71 60.05 59.80 60.00 60.40 62.06 60.43 60.44 60.66 61.24 61.83 62.64 62.54 62.95 64.01 63.99 63.21 63.29 63.47 62.73 62.16 60.32 60.28 57.71 56.31 57.07
25.56 24.48 24.19 28.77 33.36 31.40 30.42 30.90 33.92 37.21 37.38 36.39 36.41 36.04 37.59 37.69 40.52 42.22 43.75 45.67 46.90 51.66 56.28 58.80 59.76 59.35 59.38 58.73 59.87 61.10 60.17 59.91 60.24 62.19 63.22 62.78 63.14 63.02 63.79 63.79 63.32 63.09 61.81 61.10 60.44 59.42 57.19 56.78 56.20
27.64 25.20 26.06 29.92 33.66 33.89 32.46 32.13 35.76 37.60 37.20 37.90 37.40 36.46 36.76 37.03 38.33 41.10 44.43 48.79 52.84 54.53 56.15 58.17 59.73 59.81 59.50 59.41 59.65 60.05 60.28 61.09 60.64 61.21 62.64 63.71 63.76 62.45 63.12 62.68 61.96 61.89 61.09 60.31 59.92 59.16 57.31 57.42 57.43
26.28 24.10 25.79 26.48 33.54 35.96 33.02 28.87 29.32 33.74 35.27 37.23 38.77 38.67 37.95 37.97 38.36 40.01 45.39 51.40 54.35 55.49 56.16 56.85 58.20 59.13 59.43 59.26 59.48 58.87 59.02 59.16 59.80 60.80 61.61 62.53 63.18 63.47 62.10 62.35 61.94 60.96 61.04 60.09 59.91 59.56 58.84 57.38 57.81
24.89 31.25 30.80 30.75 32.58 28.19 33.74 22.28 26.79 29.62 31.51 36.53 35.90 36.54 37.74 38.49 40.64 47.35 50.52 51.69 53.29 55.06 56.98 58.17 59.25 58.93 59.15 59.61 59.70 58.47 57.53 57.61 58.38 60.24 61.23 61.83 62.77 63.23 63.60 62.57 62.14 61.00 60.70 60.12 60.10 60.21 59.56 59.21 57.42
28.88 35.22 33.38 33.83 33.09 31.48 28.76 23.46 24.45 33.17 34.23 37.74 38.00 34.90 39.12 44.59 46.54 49.39 51.12 53.48 54.17 53.19 53.09 54.81 56.27 58.13 59.20 60.53 58.84 59.45 58.65 59.03 58.29 58.39 58.97 60.75 61.64 62.39 63.02 62.95 62.19 61.57 60.61 60.48 60.42 59.83 59.77 59.81 58.07
36.26 32.43 33.59 33.60 31.10 18.02 25.94 25.36 24.07 32.17 36.27 39.19 41.64 41.85 44.11 45.11 46.29 47.90 49.26 50.92 52.21 53.11 51.55 54.13 53.87 54.84 55.99 56.98 57.80 59.43 59.96 59.21 58.96 59.25 59.47 59.57 60.57 61.11 61.63 62.18 62.24 61.58 60.82 59.65 59.48 59.30 59.38 59.93 58.99
34.16 32.21 20.91 18.17 15.94 19.08 31.16 25.53 24.27 36.59 38.86 41.24 42.09 42.62 44.06 45.48 45.96 45.95 45.91 46.81 48.32 50.64 51.17 53.26 51.82 50.59 52.78 53.83 54.71 54.93 55.78 57.96 59.41 59.42 59.47 59.52 59.66 59.92 60.60 61.64 61.57 61.53 61.33 60.59 60.20 59.71 60.03 59.88 59.78
32.52 34.88 27.50 20.12 16.69 24.45 30.78 23.17 31.22 38.10 39.99 42.59 43.14 43.65 43.85 44.11 44.81 44.97 45.30 45.34 45.55 46.03 46.85 49.13 49.66 49.62 49.88 51.41 52.75 53.24 54.20 56.56 59.39 59.06 59.57 59.96 59.73 59.95 60.61 61.15 61.53 61.37 61.24 61.12 60.29 59.60 59.80 59.58 59.96
33.65 32.16 37.85 31.31 29.38 27.19 27.75 32.46 37.77 37.04 36.87 40.56 41.10 41.81 41.97 42.83 43.28 42.42 42.73 42.71 42.70 43.25 44.01 44.43 46.01 47.01 47.93 49.83 51.34 51.07 52.02 52.49 53.34 54.52 57.11 57.82 58.13 59.88 59.71 59.54 59.42 59.96 60.45 60.45 59.82 59.45 59.46 59.81 59.59
35.94 38.39 30.29 29.71 22.64 22.46 27.86 29.14 28.91 32.25 33.13 37.77 38.60 39.74 41.01 41.58 41.67 42.04 42.13 42.40 42.81 43.30 43.64 44.17 44.95 44.22 45.73 46.90 47.43 48.48 48.79 49.62 50.37 51.08 50.87 51.60 53.19 55.27 58.17 58.60 58.88 59.13 59.47 59.74 59.91 59.58 59.75 59.63 59.59
32.68 31.30 32.66 31.32 28.94 25.30 22.84 27.83 35.12 33.39 34.36 35.86 38.24 39.48 40.06 40.54 41.06 41.25 42.04 42.69 42.92 42.96 42.90 42.77 42.96 42.88 43.13 44.20 44.74 45.00 45.89 46.73 46.85 46.95 47.89 49.10 50.23 50.84 52.14 54.36 56.20 57.39 58.78 59.41 59.30 59.38 59.30 58.65 58.64
34.36 31.88 30.25 22.53 23.22 25.44 26.06 29.53 39.30 37.68 37.83 37.67 37.36 38.34 40.37 40.66 41.18 41.48 41.69 42.05 41.87 41.50 42.13 41.73 41.69 41.43 41.91 42.74 42.99 43.14 43.56 43.94 43.91 43.91 44.32 45.52 45.83 47.69 48.26 49.31 50.97 52.93 54.55 57.33 58.63 58.61 58.71 58.32 57.89

GFSSGP_sfc_wetblb_102.txt.gz
Wetbulb
58.56 58.01 56.24 50.18 39.70 37.55 33.30 36.18 40.34 42.03 41.94 43.59 44.90 43.91 44.39 45.40 45.16 42.30 62.29 67.95 69.15 70.56 72.16 72.85 74.44 75.14 75.38 75.08 75.01 74.95 75.07 74.95 74.60 73.74 73.04 73.38 73.33 72.55 72.76 72.74 72.06 71.94 72.20 73.34 73.49 73.10 71.96 70.83 70.42
56.85 57.34 51.76 43.96 35.63 27.82 29.64 38.04 40.67 43.03 44.67 46.20 46.19 45.25 43.42 45.54 52.33 61.18 62.72 68.48 70.06 71.11 71.66 71.66 74.46 74.93 75.26 75.05 74.65 74.91 74.42 74.95 74.82 74.47 73.94 74.64 73.47 72.81 73.05 73.29 73.10 73.97 73.60 73.19 73.34 72.46 71.25 70.47 70.18
56.26 55.42 46.06 39.99 34.25 29.50 30.05 38.02 40.18 44.03 46.26 45.10 44.47 44.95 45.67 52.96 61.62 62.23 65.10 69.22 70.43 70.21 70.89 71.70 74.08 74.38 74.78 74.43 74.83 74.59 74.27 74.06 74.33 74.48 73.98 74.04 73.74 73.15 72.88 73.26 74.14 73.42 73.10 73.15 73.09 71.91 71.08 70.62 70.21
50.81 49.48 45.32 36.21 33.14 36.66 36.22 39.21 43.01 42.85 44.81 44.97 43.22 41.34 47.31 61.08 59.34 65.27 67.39 69.21 69.46 69.36 69.90 72.51 73.78 73.98 73.96 74.39 74.61 74.57 74.10 74.06 74.27 73.98 74.02 73.59 73.78 73.54 72.98 73.92 73.60 73.20 72.61 72.81 72.14 70.98 70.39 70.24 69.67
48.60 44.23 36.08 32.73 33.35 37.99 40.06 42.55 41.62 40.11 40.45 41.96 41.77 41.29 42.80 59.06 54.29 59.83 67.81 69.08 68.16 68.58 70.07 71.85 73.93 73.94 73.60 73.42 73.93 74.30 74.26 74.06 73.72 73.66 73.46 73.16 73.51 73.47 73.65 73.05 73.10 72.73 72.40 72.16 71.25 70.80 70.17 69.05 69.85
42.76 41.35 30.24 28.80 32.39 38.16 39.90 41.13 39.97 38.15 39.12 41.09 41.30 40.11 43.47 53.88 49.88 61.33 66.18 67.36 68.62 68.63 70.42 71.56 72.85 73.48 73.31 73.07 72.87 73.00 73.84 74.00 73.92 73.61 73.76 73.51 73.32 73.52 73.08 72.52 72.91 72.43 72.04 71.55 70.55 70.40 69.78 68.72 68.96
40.90 34.89 30.05 30.26 32.78 35.89 38.09 40.62 36.47 37.15 38.09 38.80 41.80 38.01 43.59 46.73 49.09 55.28 65.14 66.08 66.78 68.51 69.83 70.15 71.29 71.84 72.16 72.23 72.29 72.25 72.38 72.93 73.50 73.46 73.20 72.97 72.05 72.31 72.74 72.30 72.37 72.03 71.90 71.47 70.71 70.19 69.12 68.54 68.53
42.54 39.07 33.49 31.19 32.11 34.53 39.18 40.78 40.42 39.18 38.27 43.57 43.04 39.28 40.24 45.14 48.56 52.90 63.09 65.15 65.85 67.06 67.57 68.33 69.09 69.82 69.92 69.98 71.00 71.32 71.48 71.61 72.23 72.28 71.50 70.62 70.22 70.55 71.62 71.06 71.00 71.47 71.41 71.10 70.62 69.35 68.38 68.81 68.56
43.27 34.23 30.28 32.79 34.34 35.88 39.64 38.79 41.83 41.56 38.91 39.63 42.17 41.93 44.76 46.67 49.66 49.31 51.45 58.15 63.66 65.03 65.55 66.08 67.07 68.07 68.50 68.97 69.22 69.93 69.71 70.37 70.63 70.09 69.18 68.57 68.48 69.02 68.76 68.75 69.58 70.57 70.96 70.85 69.82 68.82 68.62 68.34 67.16
38.17 31.43 32.29 37.99 37.78 36.80 39.42 37.38 37.39 37.46 37.22 36.66 40.69 44.56 44.90 45.08 46.20 46.09 46.83 48.73 53.85 61.16 64.35 65.82 65.38 66.26 67.21 68.64 67.21 66.12 67.03 66.19 66.44 67.12 67.07 67.18 67.54 67.57 68.27 67.14 68.13 69.79 69.96 70.09 69.93 68.86 68.45 65.84 61.21
36.95 33.19 37.00 38.50 40.34 38.68 37.30 36.09 38.16 35.18 33.56 37.20 37.64 40.83 42.32 43.22 44.13 45.06 45.41 46.82 49.30 57.07 62.11 64.72 64.65 64.72 66.70 66.14 64.58 64.60 64.80 64.57 65.36 65.51 65.72 65.91 66.81 65.57 65.39 65.23 67.26 66.39 65.78 67.65 68.82 67.12 63.63 59.84 58.41
30.45 34.93 35.58 36.76 37.81 36.63 34.77 37.15 35.28 36.40 35.79 40.82 40.31 40.93 41.32 41.89 42.91 44.16 44.63 45.62 47.02 51.47 59.12 63.17 64.45 64.25 65.22 65.72 64.74 63.88 64.23 63.77 63.92 64.79 65.11 64.69 64.20 63.92 64.37 64.80 64.95 65.45 67.04 67.47 67.24 65.22 63.36 59.43 56.94
30.80 32.56 36.10 37.15 37.19 36.45 37.09 34.96 34.35 34.75 39.31 40.42 40.28 41.33 40.40 41.42 42.28 43.67 45.24 46.22 47.43 48.48 55.90 62.36 63.77 64.24 64.33 64.65 64.48 64.12 63.71 63.78 63.98 64.33 64.62 64.17 63.73 63.44 64.94 65.25 64.99 65.33 65.74 65.28 65.37 64.61 61.87 59.61 56.95
32.72 34.67 34.76 36.00 35.79 36.30 34.70 34.21 34.83 34.67 37.98 38.68 39.58 39.83 39.15 40.24 42.01 43.13 44.20 45.03 45.53 47.78 51.92 59.13 63.40 63.64 63.58 63.94 63.91 63.62 63.34 63.15 62.97 63.98 64.46 64.35 64.53 63.16 63.30 63.69 64.77 64.67 65.51 64.56 64.45 63.72 61.58 59.79 57.23
34.32 30.17 31.73 32.22 34.06 33.77 35.70 30.58 31.49 36.51 37.17 36.54 37.50 38.71 39.14 39.73 41.25 42.05 43.94 43.91 44.37 46.17 49.63 55.50 61.90 63.59 62.96 61.93 62.69 63.27 63.27 63.47 62.72 62.31 62.97 64.35 63.95 63.69 63.52 63.55 63.42 63.36 64.98 64.68 63.64 63.08 61.04 59.15 57.81
29.20 27.84 24.25 30.53 33.69 35.27 33.63 26.78 32.52 36.09 35.53 36.10 36.97 38.14 38.72 39.50 40.33 41.92 43.20 43.95 44.42 45.20 46.59 55.29 61.18 62.40 62.35 61.68 61.56 61.66 62.25 61.58 61.87 62.93 63.05 63.85 64.39 63.59 63.13 63.35 63.53 64.09 64.23 64.38 63.30 62.65 61.30 59.16 58.30
24.21 18.98 22.61 27.41 34.34 33.70 31.52 28.10 33.88 37.02 36.55 35.50 37.47 38.46 39.59 40.53 39.74 41.29 42.71 43.13 44.27 47.22 46.63 53.58 58.81 59.79 61.13 61.08 60.92 60.99 60.81 61.11 60.99 61.57 61.65 62.71 64.36 64.27 63.82 63.69 63.40 64.29 64.16 64.03 63.45 61.94 61.49 58.94 58.54
18.81 19.07 24.20 24.46 30.60 32.28 30.37 30.23 35.06 37.67 37.10 36.53 37.63 38.58 38.56 38.07 38.91 41.52 42.78 43.89 45.40 46.53 48.48 52.78 58.69 59.06 59.31 59.90 59.57 59.95 59.39 59.69 59.65 59.95 61.39 61.54 63.54 64.53 63.89 62.39 62.57 62.73 61.15 62.17 62.74 62.40 60.06 59.91 59.50
24.47 21.95 22.36 27.46 32.44 30.44 29.65 30.32 33.35 36.90 37.03 36.66 37.45 37.98 37.64 37.88 39.99 40.75 42.17 43.50 44.10 46.04 48.72 53.58 57.59 58.59 58.85 59.52 59.45 59.68 58.97 58.52 58.50 60.11 61.25 61.90 61.83 62.39 63.55 63.25 61.60 62.54 60.56 60.40 61.51 61.57 60.38 57.51 57.16
26.45 23.28 23.66 28.26 32.45 32.68 31.90 32.16 35.51 37.37 36.51 36.74 36.49 36.90 36.93 36.53 36.79 39.97 41.54 42.19 43.45 44.67 49.10 53.94 57.81 59.06 58.94 58.73 58.35 58.89 58.79 59.39 59.33 59.99 61.42 62.33 62.23 61.93 61.93 63.09 62.95 62.68 61.85 61.41 61.09 60.99 59.59 59.42 57.89
23.91 22.08 23.80 24.74 32.22 34.88 33.47 29.96 29.91 33.03 34.43 36.02 39.20 37.85 37.16 36.59 37.02 38.68 40.67 43.02 47.09 51.11 53.44 55.36 57.61 58.81 59.18 58.62 58.96 58.46 58.50 59.31 59.20 60.13 60.17 60.63 62.02 62.81 62.56 62.81 62.74 62.13 62.03 61.16 61.05 60.67 60.05 57.81 57.18
24.83 29.95 29.87 30.29 29.94 26.27 34.91 22.64 26.23 29.66 34.67 39.10 40.11 37.06 35.94 36.96 38.70 39.87 46.70 49.24 51.52 54.21 56.70 57.11 57.16 58.47 58.42 59.94 59.73 58.21 56.99 57.29 57.57 58.37 59.37 60.34 61.44 62.24 62.76 62.26 62.31 62.08 61.44 61.19 60.93 60.54 59.88 58.60 56.24
28.99 33.37 32.35 33.06 31.65 30.64 27.17 25.02 24.23 31.33 34.75 37.32 40.19 40.74 42.74 45.64 46.45 46.21 50.35 51.94 52.62 53.73 54.06 56.01 58.34 57.81 59.11 59.78 59.52 58.94 58.36 58.69 58.98 58.12 57.53 58.35 59.66 60.88 61.64 62.49 62.27 61.64 61.32 60.91 60.91 60.08 59.35 59.41 58.75
35.32 32.58 33.86 33.64 30.52 18.32 24.58 24.48 23.70 32.19 35.53 38.04 41.53 42.33 43.29 45.50 46.68 46.70 47.95 49.30 50.42 52.54 52.69 52.06 54.18 54.37 54.68 57.64 57.12 56.55 56.67 57.76 58.34 58.35 58.45 59.27 59.18 59.99 60.94 61.72 62.12 62.24 61.95 61.31 60.78 60.43 59.80 59.43 59.24
34.37 32.04 19.66 14.92 13.09 17.24 29.14 24.50 27.00 35.36 36.63 40.27 40.99 42.27 43.96 44.95 44.83 44.80 44.86 45.30 46.04 47.04 49.40 51.74 50.43 50.39 52.28 52.13 53.44 53.82 53.80 55.12 57.28 58.90 59.05 59.33 59.54 59.66 60.06 60.81 60.75 60.87 61.29 61.22 60.81 60.03 59.71 59.16 58.73
33.53 34.36 27.74 17.29 14.69 20.67 29.03 20.24 30.26 36.66 38.45 41.79 42.44 42.64 42.94 42.84 42.84 42.57 42.58 43.57 43.92 44.81 45.74 46.62 47.72 47.69 50.06 51.76 51.58 51.98 52.65 53.25 54.18 54.31 57.77 58.35 57.86 59.14 60.52 60.82 61.05 61.09 61.41 61.24 60.73 60.07 59.99 59.95 59.89
32.28 31.30 37.30 30.10 28.90 25.41 23.58 32.22 37.58 37.69 36.38 38.85 40.14 40.79 40.32 41.11 41.60 41.64 42.15 42.36 42.87 43.48 43.68 44.41 45.24 46.00 46.69 47.51 49.32 49.00 49.75 50.11 50.86 51.37 52.04 52.25 52.85 53.77 55.47 58.91 59.32 59.73 60.74 60.93 60.72 60.02 59.09 59.47 59.26
34.60 35.80 26.18 29.07 17.24 16.19 22.43 26.15 29.40 32.83 33.46 36.58 37.41 37.92 38.38 40.61 41.12 41.83 41.95 42.11 42.34 42.78 43.10 43.55 43.89 43.75 44.67 45.50 45.79 46.43 46.89 47.56 47.51 47.83 47.62 48.56 50.10 50.84 51.41 52.57 54.64 56.77 58.29 59.28 59.54 59.30 59.38 58.90 58.81
31.12 28.98 30.51 29.99 26.89 23.35 21.96 23.81 36.24 34.51 35.74 35.49 37.10 37.67 37.43 39.28 41.06 41.56 42.09 42.25 42.31 42.63 42.62 42.40 42.18 42.58 43.25 43.83 43.74 43.47 43.87 44.72 44.93 44.46 44.81 45.48 46.70 47.40 48.27 49.32 50.76 52.09 53.62 55.36 57.63 58.74 58.77 58.48 58.28
32.41 29.91 28.78 22.43 21.89 24.06 25.25 24.36 38.20 38.93 38.39 37.16 36.23 37.89 37.82 39.99 41.13 41.40 41.68 41.88 41.16 41.02 41.34 41.21 41.57 41.16 41.62 42.13 41.58 41.18 41.57 41.87 42.15 42.47 42.92 43.63 43.34 44.38 44.78 45.88 46.77 47.62 48.66 50.05 51.77 52.71 55.34 58.04 57.68

GFSSGP_sfc_wetblb_105.txt.gz
Wetbulb
59.61 59.71 58.95 53.10 44.44 42.30 37.93 39.21 46.77 45.74 46.49 48.41 48.95 48.13 48.23 49.23 48.55 47.79 66.51 68.17 70.68 71.39 73.76 73.93 75.40 75.90 75.65 75.23 75.24 75.05 75.12 74.99 75.05 75.14 74.74 74.08 73.33 72.87 72.12 71.90 71.91 72.03 73.06 73.65 73.62 72.89 72.18 71.51 70.42
58.90 58.71 54.90 47.39 40.13 35.19 35.88 42.30 43.53 46.52 48.81 49.34 49.19 48.73 47.67 48.52 57.06 62.44 66.45 69.67 70.84 72.25 73.54 73.06 74.84 75.72 75.46 75.16 74.84 74.82 74.95 74.89 74.54 73.71 73.55 73.89 73.12 72.92 72.61 72.34 72.15 73.08 73.97 73.51 73.56 72.70 71.41 70.42 70.21
58.32 55.50 50.09 42.67 38.59 35.31 35.62 42.18 44.58 47.07 48.07 48.39 47.66 48.97 48.84 53.96 57.37 62.04 66.03 69.85 71.41 72.37 72.90 72.96 74.72 75.30 75.17 75.13 74.95 74.75 74.82 74.77 74.65 74.31 73.54 74.12 73.44 73.10 73.28 73.30 73.57 73.68 73.18 72.93 72.94 72.06 71.36 70.70 69.98
54.11 52.53 48.36 40.37 36.33 39.33 40.27 44.22 45.47 45.07 46.88 47.41 46.25 45.70 52.43 52.05 51.05 57.84 63.68 70.46 71.22 71.88 72.58 73.07 74.06 74.57 74.98 74.78 74.91 74.85 74.35 74.20 74.45 74.26 74.14 73.31 73.67 73.10 73.84 73.99 73.31 72.35 72.79 72.83 72.13 71.89 71.31 71.18 70.69
51.36 46.88 39.58 36.93 37.55 40.83 43.68 45.70 45.64 43.60 44.01 44.74 45.22 45.03 46.03 53.55 52.45 54.57 64.37 68.57 70.19 71.07 72.05 72.78 73.96 73.79 74.26 74.45 74.23 74.34 74.26 73.91 74.18 74.01 73.57 73.29 73.35 73.37 73.63 73.55 73.10 72.76 72.59 72.78 71.61 70.88 70.15 69.44 69.75
45.67 43.62 34.91 33.13 35.73 40.76 42.88 44.32 44.14 42.42 43.49 44.55 44.87 44.36 47.46 53.30 50.79 53.76 61.60 66.39 68.58 70.47 71.69 72.51 72.76 73.48 73.22 73.43 73.53 73.74 73.61 73.41 73.63 73.91 73.71 73.24 73.17 73.15 72.94 73.03 73.21 72.98 72.66 72.10 71.26 70.46 69.53 69.46 69.30
42.95 37.21 33.01 34.22 35.55 38.74 41.42 43.45 41.78 41.90 42.55 43.76 45.35 43.59 47.94 50.32 50.45 53.71 57.23 66.51 67.27 69.49 70.97 71.85 72.38 72.24 72.23 72.36 72.36 72.52 73.05 73.02 73.22 73.05 73.42 73.15 72.71 72.67 72.49 72.44 72.51 72.52 72.14 72.05 71.61 70.33 69.51 69.25 69.21
44.63 41.09 36.36 36.62 35.42 36.38 41.43 43.01 43.36 42.39 42.14 46.14 46.70 43.95 45.71 48.53 49.93 52.96 55.41 58.48 64.72 66.31 68.41 70.62 71.80 72.11 71.89 71.88 71.19 71.21 71.42 71.65 72.29 72.37 72.00 71.00 70.55 70.98 71.64 71.29 71.38 71.48 71.33 71.39 71.22 70.72 69.52 69.74 69.11
45.65 35.56 32.67 35.20 36.34 38.09 42.04 40.82 43.65 44.01 42.54 43.23 45.25 46.72 48.82 48.60 50.24 51.30 52.25 54.60 56.25 60.66 65.40 67.50 69.37 70.79 71.03 71.15 70.49 70.43 70.40 70.42 70.38 70.81 69.52 69.76 72.17 71.75 70.90 69.27 69.50 70.51 70.80 71.21 70.99 70.36 69.52 69.07 67.55
40.40 33.16 33.95 39.55 40.49 39.83 41.53 40.41 40.65 40.49 39.90 40.45 42.89 46.14 47.94 47.51 48.00 48.06 49.09 50.17 52.40 54.15 58.44 65.22 66.85 68.97 69.95 70.26 70.70 70.68 69.98 70.86 71.26 71.31 71.19 71.47 71.53 71.25 70.51 68.21 68.10 70.12 70.17 70.29 70.46 69.68 68.83 67.78 67.15
39.78 34.77 38.60 40.47 41.65 39.02 38.09 38.09 40.69 38.60 37.04 40.24 41.17 43.75 45.26 45.92 46.86 47.32 48.05 48.87 49.94 52.52 56.79 60.56 65.97 66.00 68.49 69.67 69.46 68.43 67.74 68.65 68.96 69.25 69.95 70.32 70.37 70.46 70.30 70.11 70.09 70.16 67.82 69.78 69.39 68.36 67.20 65.88 65.68
34.72 36.91 37.30 38.36 38.58 37.77 36.48 38.71 37.45 38.67 40.01 43.25 43.32 43.99 43.55 43.97 45.28 46.59 46.84 47.97 48.82 51.12 53.32 58.64 65.48 64.93 65.62 68.41 67.82 67.50 66.22 67.26 67.88 68.56 68.82 69.17 69.40 69.34 69.43 69.21 69.90 69.19 69.28 68.56 69.15 68.18 66.79 63.96 63.77
34.46 34.55 36.96 38.15 37.89 37.50 38.15 36.37 36.55 37.41 41.02 42.37 42.34 42.59 42.29 43.17 44.33 45.80 47.32 47.81 48.99 49.24 51.74 54.20 62.04 64.96 64.63 65.45 66.45 65.73 65.46 65.61 66.28 67.71 68.00 68.35 68.60 67.76 68.03 67.55 68.26 68.89 68.62 68.61 68.35 67.70 66.14 64.66 62.65
35.36 35.84 35.77 36.76 36.32 36.80 35.28 35.61 36.76 38.03 40.10 39.90 40.58 41.29 41.81 42.25 43.34 44.49 45.66 46.43 47.54 49.11 50.88 53.03 56.56 64.25 64.64 64.47 64.70 66.33 64.80 64.77 64.63 65.81 67.18 67.52 67.64 66.26 67.41 67.30 66.63 67.09 67.47 67.62 67.80 67.34 66.68 64.58 63.62
35.76 31.96 33.29 34.29 35.76 35.21 36.90 32.26 33.10 39.23 39.04 38.15 39.15 40.08 41.38 42.28 42.97 43.21 45.16 45.55 46.96 48.22 49.96 50.39 52.99 60.28 64.38 63.37 64.40 65.99 64.58 64.40 63.65 63.95 65.84 66.59 67.21 66.85 66.25 66.47 66.74 67.02 67.42 66.62 66.01 66.87 65.49 65.13 63.77
30.14 30.20 27.99 32.75 34.81 36.16 35.58 30.72 35.56 39.20 37.85 38.35 39.52 40.55 41.39 42.41 42.90 44.53 45.06 45.63 46.69 47.30 47.89 50.04 52.24 59.69 63.70 63.75 63.79 64.88 64.01 64.47 64.09 63.49 64.07 64.10 66.17 66.72 66.61 66.29 66.44 66.96 66.88 67.08 66.66 63.94 64.00 62.65 63.63
27.28 25.78 26.20 29.80 35.33 35.09 34.47 31.76 35.93 39.63 39.50 38.58 39.91 40.80 41.52 42.50 44.20 45.35 45.16 45.62 46.33 47.01 48.44 49.56 52.82 57.37 61.79 63.12 63.28 64.23 63.99 63.84 63.62 64.00 63.77 64.38 64.83 65.77 65.93 66.16 66.42 66.70 66.40 66.19 65.99 64.38 63.40 61.91 60.93
24.82 24.96 26.38 26.42 32.46 33.41 31.85 31.62 36.45 39.37 39.18 38.78 39.41 40.24 41.18 41.98 42.94 45.15 45.10 45.65 46.42 47.15 49.18 50.12 51.30 56.30 61.27 61.71 62.19 62.34 62.73 62.98 63.32 63.36 63.15 63.73 64.30 65.19 65.61 65.05 65.04 65.81 64.99 64.61 65.12 63.94 62.06 61.61 61.55
26.81 26.01 24.94 28.16 32.97 31.13 30.81 31.63 34.96 38.35 39.37 39.31 39.80 40.28 41.09 41.67 43.77 44.24 44.07 45.66 46.44 47.25 47.51 49.32 52.21 56.71 60.47 60.76 60.86 60.71 59.83 60.84 61.91 62.75 62.49 63.09 63.29 63.94 64.95 64.58 63.94 64.64 63.60 63.13 63.52 63.88 62.27 60.69 60.05
28.52 25.95 25.38 29.64 32.30 33.22 33.39 32.87 36.80 38.37 38.47 38.85 38.78 39.67 41.03 40.45 41.10 41.90 43.64 44.82 45.69 46.40 47.51 48.61 52.19 58.67 60.64 61.48 60.69 61.47 61.55 62.09 62.04 62.37 62.69 62.91 63.24 63.58 64.01 64.37 63.52 63.35 63.72 62.60 62.12 62.28 61.15 60.80 59.06
26.20 25.39 25.81 27.96 31.74 35.10 33.49 32.30 32.20 35.25 36.83 39.51 42.62 42.79 42.71 41.33 42.10 43.51 42.83 44.23 46.09 46.65 49.14 50.24 53.04 58.13 59.57 61.09 60.96 60.60 61.14 61.35 61.24 61.53 61.99 62.47 63.16 63.86 63.64 63.79 64.49 64.38 63.66 63.41 61.81 61.24 60.04 58.81 59.34
25.11 30.00 30.18 29.96 30.70 27.31 34.97 24.03 29.64 32.31 33.94 39.27 41.68 42.43 43.72 44.84 46.31 47.29 48.48 49.03 50.58 51.76 53.94 56.18 57.31 59.54 60.17 60.43 60.54 59.19 58.44 57.53 59.73 61.07 61.91 62.31 62.86 62.95 63.88 63.91 63.81 64.01 63.84 63.04 61.77 61.54 60.73 59.79 57.17
30.70 33.87 32.53 33.03 31.51 30.98 29.23 26.89 29.32 32.60 34.40 36.74 41.22 42.62 44.55 45.71 46.43 46.55 47.75 49.12 51.52 52.92 54.37 57.78 58.99 59.38 59.86 59.99 59.78 59.26 57.98 58.98 59.83 60.11 60.10 60.55 61.42 62.52 63.02 63.60 63.49 63.54 63.68 63.37 62.86 61.12 60.43 60.53 59.33
35.35 34.22 34.66 33.79 30.67 22.04 24.19 27.00 28.84 31.96 34.15 36.54 41.60 42.97 43.63 45.11 45.36 45.36 46.87 47.30 47.55 49.75 52.31 53.16 54.60 54.58 55.89 56.49 56.25 56.18 56.12 56.27 58.07 59.23 59.07 59.96 60.83 61.32 61.66 62.24 63.01 63.38 63.10 62.61 62.19 61.81 61.35 60.48 59.94
34.70 33.09 24.58 18.46 17.29 21.20 28.09 26.94 28.75 35.43 36.77 37.84 40.49 41.33 42.05 42.89 43.07 42.97 43.67 44.78 45.86 46.20 48.01 49.71 50.49 51.29 53.12 53.19 53.25 53.20 53.80 53.95 54.38 54.32 58.12 59.13 59.73 60.13 60.26 60.87 61.27 61.64 62.53 62.49 62.26 61.55 61.20 60.77 59.67
34.48 34.23 27.82 20.49 18.66 22.37 30.43 24.87 29.90 37.90 38.69 39.50 41.27 40.50 41.16 41.31 42.12 41.90 42.45 43.10 43.82 44.74 45.46 46.48 47.11 47.24 49.13 49.83 50.01 50.42 50.47 50.58 50.17 50.64 51.61 51.88 52.19 53.19 54.51 55.40 59.11 60.38 60.83 60.95 61.07 60.86 60.60 60.66 60.09
34.66 31.28 37.09 30.56 28.57 25.21 24.73 29.32 37.02 39.51 36.38 37.55 38.43 38.23 38.10 40.54 41.36 41.30 41.89 42.06 42.29 42.67 43.08 43.72 44.89 45.59 46.07 45.82 46.63 47.21 47.57 47.33 46.61 47.14 48.04 49.10 50.00 51.12 51.81 52.64 53.47 54.57 55.74 57.39 59.86 60.42 59.95 59.97 59.77
35.74 36.83 26.89 29.59 21.82 18.82 22.91 26.06 29.62 34.47 34.57 36.69 36.55 35.72 36.63 40.08 41.18 41.63 41.58 41.77 42.23 42.62 42.78 43.08 43.45 43.40 44.12 44.43 44.26 44.57 45.03 45.64 45.78 45.55 45.17 45.57 46.55 46.94 47.89 48.98 50.43 51.12 51.83 52.18 54.13 57.09 59.21 58.95 59.63
33.38 30.85 31.88 30.95 28.91 22.92 22.10 25.16 36.67 36.22 37.11 36.09 36.15 36.49 37.04 39.84 40.69 41.33 41.67 41.55 41.74 41.97 42.16 42.18 42.09 42.08 42.22 42.26 41.83 41.51 42.16 43.21 43.69 43.34 43.16 43.18 43.90 43.87 44.48 45.64 46.59 47.13 48.01 49.24 50.08 51.28 52.51 53.31 57.14
33.98 31.68 29.62 24.99 23.42 25.71 25.03 26.25 38.17 38.94 38.55 37.82 37.07 37.67 39.00 40.69 40.88 40.96 40.95 40.68 40.31 39.85 40.32 40.62 40.85 40.82 40.75 39.99 39.17 38.91 38.97 39.30 39.64 40.01 40.42 41.27 40.85 41.60 42.15 42.55 42.84 43.53 44.60 46.66 46.88 47.46 48.43 48.64 50.11

GFSSGP_sfc_wetblb_108.txt.gz
Wetbulb
61.19 64.05 66.27 60.48 48.71 47.79 43.94 44.35 51.31 49.05 49.91 52.86 53.43 51.87 51.82 52.95 51.36 50.47 69.39 70.93 72.63 72.40 74.00 73.89 75.52 75.80 75.60 75.74 75.67 75.44 75.61 75.49 75.44 75.34 74.31 74.06 73.67 72.98 72.35 72.07 71.69 72.83 74.15 73.35 72.84 72.71 72.26 71.89 70.78
63.49 62.49 62.20 56.19 46.13 42.20 43.26 47.43 47.53 50.55 51.97 53.50 53.03 52.52 51.60 51.53 62.31 62.32 68.34 68.68 72.48 72.78 74.19 73.61 75.37 75.40 75.43 75.31 75.20 75.16 75.27 75.35 75.21 75.22 75.28 74.30 73.65 73.05 72.28 72.14 71.98 72.60 73.89 73.82 73.98 73.37 72.54 71.25 70.55
61.81 59.97 55.43 50.23 46.17 43.17 43.59 46.79 48.71 50.22 51.41 51.21 51.08 52.37 52.62 54.12 56.97 59.10 62.63 67.20 72.25 73.02 74.22 73.62 74.66 74.45 75.09 75.04 75.01 74.88 75.03 74.97 74.64 74.40 74.24 74.69 73.46 73.12 72.59 72.40 72.91 73.29 72.79 73.11 73.28 72.39 71.66 70.94 70.35
60.88 59.08 53.99 46.17 42.48 44.19 45.88 48.84 49.20 48.86 50.20 50.61 50.11 49.53 55.35 54.39 54.01 56.26 62.96 68.03 71.70 72.76 73.72 73.52 74.30 74.38 74.09 73.97 74.42 74.54 74.70 74.78 74.58 74.30 74.03 74.24 73.42 73.34 73.37 73.73 73.29 73.43 72.53 72.64 71.82 71.00 70.78 70.91 70.22
59.98 55.34 46.35 43.49 42.92 45.32 48.26 49.97 49.85 47.73 48.19 48.98 49.80 48.74 50.58 54.49 55.54 56.69 60.84 67.79 68.60 72.06 73.24 73.28 73.50 73.46 73.99 74.15 73.84 73.68 73.87 73.39 73.63 73.71 73.54 73.27 73.26 73.66 73.39 72.93 72.83 72.39 72.52 72.25 71.61 70.93 70.54 70.41 70.58
51.94 51.49 42.77 41.16 42.06 45.04 47.38 48.67 48.53 47.44 48.22 48.89 49.01 49.18 51.85 55.40 54.27 55.88 58.78 66.98 68.65 69.78 72.61 72.79 72.30 72.99 72.72 73.14 73.20 73.32 73.72 73.40 73.57 73.42 73.54 73.44 72.98 73.29 72.83 73.06 73.42 72.65 72.56 72.27 71.79 71.05 70.21 69.44 69.32
47.80 45.43 41.59 41.20 41.30 42.76 45.10 47.84 46.90 46.84 47.30 47.80 49.79 47.54 52.31 54.28 54.78 56.16 57.88 59.91 68.37 69.25 71.96 72.22 72.16 72.15 71.85 72.60 72.65 73.09 73.43 73.27 73.38 72.94 73.01 72.96 72.58 72.62 72.86 72.96 73.22 72.86 72.89 71.87 71.90 70.88 69.51 69.67 69.46
51.38 47.67 40.83 42.00 41.05 40.88 45.89 46.82 47.28 46.92 46.86 50.52 50.41 47.65 49.63 54.05 54.73 55.88 57.63 59.00 59.11 62.99 68.22 70.77 71.91 71.46 71.65 71.60 71.42 71.36 71.74 72.19 72.79 72.32 71.78 70.93 71.15 71.55 71.87 71.55 71.97 72.10 72.05 72.02 71.41 71.08 69.93 69.89 69.88
50.54 42.65 40.05 40.46 40.57 42.13 45.93 44.57 47.08 47.98 46.11 47.67 49.41 50.15 52.73 53.48 53.84 54.17 55.30 57.10 58.00 58.13 58.90 63.44 69.58 71.53 71.37 71.20 70.62 70.55 70.36 70.36 70.45 70.95 70.13 70.46 72.08 71.85 71.60 69.90 69.87 70.57 71.00 71.03 71.18 71.02 70.26 69.53 68.26
45.83 41.45 39.57 43.76 44.80 43.66 45.00 44.04 44.44 43.48 44.20 44.67 46.03 48.84 50.39 51.76 51.47 50.97 51.68 53.01 55.17 56.26 57.18 58.58 61.99 68.96 71.16 71.00 71.30 70.93 70.65 70.73 69.95 69.95 70.54 71.42 71.25 71.22 70.50 68.67 68.13 70.07 70.11 70.02 70.78 70.72 69.73 68.36 67.67
44.59 41.09 42.39 43.86 44.98 43.91 42.55 42.34 43.71 42.19 41.40 44.31 44.12 45.96 48.02 48.84 49.40 49.69 49.99 51.35 52.96 54.90 56.46 57.73 58.46 67.00 67.31 71.06 71.30 71.12 70.60 70.42 70.19 70.60 71.12 70.69 70.35 71.11 71.05 70.91 70.84 71.72 67.95 70.46 70.18 70.17 68.82 67.00 67.17
39.65 41.91 42.63 42.50 42.25 41.69 40.91 42.84 41.13 42.40 43.46 46.28 46.51 47.05 47.18 47.13 47.99 48.85 49.22 49.97 50.44 52.26 54.38 56.91 57.99 60.51 66.44 67.48 70.11 71.17 70.09 69.47 68.98 69.80 70.26 69.61 69.44 70.26 70.01 69.81 70.76 70.97 70.53 70.23 69.99 69.61 67.76 67.26 66.91
39.05 39.36 40.44 41.68 41.28 41.28 42.03 40.42 40.85 41.56 45.21 46.38 46.21 46.08 46.22 46.85 47.64 48.96 50.05 50.31 50.96 50.73 52.69 54.72 56.85 57.98 63.41 66.09 67.32 69.66 69.91 67.92 67.15 68.58 70.03 69.89 69.56 69.86 70.00 70.45 70.69 71.11 71.15 70.22 70.14 68.86 68.08 66.15 63.93
40.13 39.76 40.00 40.15 39.59 40.11 38.42 40.11 39.35 43.46 44.22 44.31 44.79 45.86 47.09 47.83 48.58 49.18 49.70 49.79 50.54 51.17 52.08 53.38 54.80 56.60 60.31 64.57 66.04 66.85 69.12 68.54 65.87 65.49 67.06 68.94 69.93 70.18 70.08 70.01 69.78 70.02 70.62 69.26 68.41 68.32 67.50 65.19 64.02
39.53 37.07 38.56 38.84 39.61 39.23 40.51 39.50 38.43 44.05 44.26 44.58 46.60 47.35 48.02 48.23 49.10 49.09 49.94 49.91 50.89 51.64 51.94 52.20 52.92 54.85 57.38 62.52 65.87 65.72 67.89 68.78 67.41 65.22 65.50 66.35 68.57 69.32 69.07 69.34 69.10 69.47 70.14 67.88 67.62 68.03 66.87 67.04 64.56
36.72 37.52 36.20 37.82 39.53 39.44 40.16 38.14 42.79 43.87 43.90 45.00 46.01 46.58 46.84 48.05 48.99 50.11 50.39 50.23 50.90 51.31 51.70 52.27 52.19 52.80 56.48 60.51 65.46 65.38 67.91 66.69 65.42 65.50 64.57 65.43 66.39 67.60 68.15 67.95 68.09 68.90 68.83 68.61 68.20 67.56 66.08 66.23 65.19
37.03 35.03 34.30 36.47 39.31 38.91 38.88 38.11 43.54 45.53 44.94 44.31 45.45 46.17 47.25 48.25 49.29 50.33 50.93 51.06 51.21 51.25 51.45 52.12 52.84 52.67 54.87 59.59 64.76 64.99 66.06 66.42 65.85 66.47 64.66 64.32 64.64 65.43 66.81 67.08 67.28 67.72 67.28 67.36 67.58 67.48 66.84 64.59 64.95
32.67 33.70 33.96 33.99 37.97 38.41 38.18 38.77 43.13 45.46 44.70 44.09 45.14 46.83 47.34 47.74 48.09 48.99 49.73 50.51 50.77 50.95 51.20 51.55 51.99 52.97 54.69 59.44 63.47 64.31 64.01 64.92 66.65 66.31 65.91 64.61 64.58 65.26 65.90 66.35 66.51 66.42 65.52 66.11 66.82 65.97 66.03 65.60 65.50
33.91 32.77 32.58 36.97 38.01 36.80 38.64 39.55 42.19 44.52 44.04 43.74 45.55 46.29 47.33 47.59 49.88 51.47 51.43 50.27 50.02 50.37 50.62 51.35 51.73 52.82 53.53 57.85 59.63 60.67 60.52 63.29 63.63 64.55 65.44 64.60 63.26 64.09 64.95 65.31 65.41 64.55 63.86 64.66 64.77 64.32 64.03 63.11 64.79
33.80 32.48 34.63 37.35 37.15 38.04 39.26 38.13 41.92 42.00 42.78 44.29 45.02 46.26 46.84 47.49 48.62 50.04 51.93 52.19 50.07 50.10 50.68 51.41 52.07 52.77 53.56 58.95 60.32 62.49 62.72 62.52 64.23 65.82 65.34 65.34 64.36 65.18 64.60 64.48 64.84 65.14 63.85 63.44 63.21 63.46 62.56 62.54 64.38
33.55 31.46 32.95 33.11 37.38 41.04 38.13 38.48 38.02 40.14 42.30 44.59 46.21 47.10 47.45 46.52 46.02 49.20 49.79 52.50 54.22 53.16 51.95 51.71 52.47 53.40 53.82 59.03 61.56 62.03 63.36 63.94 63.25 63.44 64.13 64.42 64.60 64.69 64.96 64.60 64.88 64.64 64.43 62.88 63.77 64.44 63.62 61.67 62.74
30.76 35.80 34.64 34.20 34.49 31.63 38.11 30.47 37.82 38.63 39.90 43.11 44.46 44.33 44.64 45.91 47.22 48.41 48.78 49.40 51.86 53.09 55.47 56.48 55.31 56.15 55.62 60.16 61.22 60.01 61.36 60.61 61.36 62.80 63.93 64.40 64.65 64.53 64.68 64.48 64.01 64.24 64.23 64.02 64.76 65.02 63.88 62.53 59.64
35.19 36.65 35.86 35.66 33.48 32.16 33.19 29.90 36.68 37.86 38.36 40.13 42.95 42.69 44.52 44.45 45.28 45.12 47.48 47.67 49.41 50.37 53.57 57.58 57.81 58.12 59.28 59.21 58.99 60.41 59.44 60.29 60.63 60.47 59.98 62.10 63.20 63.78 64.02 64.24 63.77 63.83 64.06 64.07 64.34 64.11 63.73 63.09 59.57
38.38 36.81 36.58 35.36 32.62 27.16 31.65 31.24 35.95 37.04 35.92 38.27 40.85 41.59 42.60 42.58 43.17 43.59 45.80 46.59 47.13 49.16 50.72 53.68 54.75 55.04 56.55 56.08 56.13 56.72 56.66 57.51 57.33 56.99 58.56 59.82 60.85 62.60 62.39 62.63 62.82 63.43 63.78 63.70 64.16 63.44 62.81 62.73 60.80
36.90 35.77 30.62 29.26 28.43 30.09 32.07 29.15 35.08 38.37 38.64 38.87 39.60 39.82 41.24 42.06 42.26 42.18 42.76 43.06 44.75 45.94 47.25 48.74 49.21 49.62 51.90 52.75 52.92 53.78 53.12 52.68 51.67 52.01 53.06 52.94 53.01 53.74 53.99 55.27 58.25 60.63 61.67 62.79 62.76 62.15 61.53 61.38 61.39
37.29 36.18 29.62 24.11 27.73 29.65 32.50 28.35 37.17 40.33 40.58 40.40 40.79 39.98 40.15 41.21 41.63 41.50 41.86 42.20 42.78 43.95 46.54 46.85 46.66 46.55 47.78 48.70 49.41 50.15 50.26 49.68 48.96 48.88 49.44 49.46 49.84 50.75 51.18 52.21 53.48 54.43 55.75 56.32 57.31 59.21 61.07 61.56 60.97
36.93 34.01 37.63 31.22 32.53 27.93 33.57 35.83 39.47 41.53 40.31 38.60 38.62 38.81 38.31 40.21 41.00 41.14 41.59 42.02 42.12 42.61 43.04 44.52 45.03 44.78 45.40 46.16 46.20 47.20 47.62 46.64 46.10 46.42 46.87 47.29 47.02 47.77 48.25 49.23 50.11 50.92 51.90 51.90 53.45 55.00 55.93 59.16 60.23
39.16 39.79 31.68 33.38 24.96 24.88 31.02 31.23 34.45 36.22 36.65 38.26 37.83 37.18 37.57 40.59 41.17 41.45 41.15 41.38 41.99 42.54 42.72 43.09 43.41 42.67 42.57 42.79 43.06 43.82 44.09 45.11 44.88 44.40 43.66 43.98 44.28 44.60 45.49 45.97 46.54 46.97 47.93 49.50 50.17 50.75 51.57 52.16 53.33
36.50 35.44 35.75 34.75 32.65 27.48 26.82 32.57 39.96 37.40 37.98 37.09 37.77 37.78 38.39 40.31 40.68 41.00 41.08 41.19 40.94 41.48 41.90 42.22 41.85 40.90 40.65 40.15 40.29 40.10 40.35 41.34 41.83 42.33 41.45 41.58 42.29 42.82 42.74 43.15 43.62 43.99 45.02 46.87 47.19 47.79 48.69 48.63 49.08
38.67 36.63 36.46 31.09 27.82 32.21 30.62 31.53 41.35 39.92 39.20 38.75 38.50 38.47 39.98 41.03 41.24 41.23 40.76 40.56 40.05 39.34 40.23 39.79 40.74 39.64 39.07 39.32 38.58 38.09 38.19 38.22 38.40 38.70 38.93 40.03 39.24 39.97 40.19 40.60 41.14 41.67 42.23 43.81 44.49 44.93 46.16 46.15 46.56

GFSSGP_sfc_wetblb_111.txt.gz
Wetbulb
62.86 64.98 65.97 60.99 50.23 48.86 46.13 47.13 52.21 50.29 50.71 54.85 55.01 53.97 53.34 54.26 52.77 52.18 68.24 68.41 70.74 71.85 73.34 72.88 75.39 75.73 75.52 75.40 75.21 75.62 75.61 75.19 75.37 75.18 74.39 74.47 73.58 73.03 72.08 71.78 71.35 72.24 72.59 72.83 72.08 73.12 72.95 72.12 71.36
64.05 63.70 62.39 57.01 47.88 44.11 46.15 49.84 49.17 52.00 53.67 54.40 53.99 53.93 52.91 53.92 61.13 61.08 65.18 64.45 71.08 72.56 73.70 73.12 75.08 75.04 74.85 75.20 75.04 75.43 75.44 75.20 75.02 74.82 74.37 74.13 73.80 73.06 72.28 72.02 71.49 72.48 73.34 73.79 73.52 73.35 72.93 72.14 70.94
64.06 62.90 55.84 51.05 46.80 45.06 46.26 49.05 51.32 52.31 53.22 53.01 52.20 54.07 54.18 54.34 57.69 58.03 60.93 68.50 71.14 72.79 73.00 73.49 74.69 74.68 74.42 74.30 74.22 73.84 74.50 75.09 74.86 74.94 74.69 73.95 73.51 73.29 72.48 72.08 72.20 73.10 73.19 72.74 72.96 72.92 71.98 71.06 70.62
60.61 58.92 54.81 47.98 45.24 47.15 48.62 50.37 50.47 50.96 52.12 52.56 52.34 51.03 55.56 56.42 55.72 58.23 62.26 69.37 70.63 71.59 72.68 73.16 74.42 74.43 74.25 74.30 74.59 74.39 74.16 74.25 73.81 73.75 74.03 74.33 73.50 73.31 72.90 73.23 73.05 73.20 72.65 72.71 72.87 71.66 70.91 71.03 70.53
61.03 56.36 47.95 45.21 46.05 47.25 50.58 51.82 51.15 49.18 49.97 50.44 51.55 50.66 52.69 55.88 57.98 58.57 60.46 66.24 69.02 70.47 72.02 73.18 73.93 73.35 74.04 73.82 73.81 73.58 73.32 73.51 73.69 73.57 73.39 73.46 73.17 73.34 73.25 73.02 73.60 73.41 72.26 72.38 71.90 71.04 70.57 70.12 70.07
52.61 52.97 44.90 43.75 45.48 47.52 49.24 51.04 50.32 48.96 49.78 50.43 50.26 50.33 53.05 57.15 56.88 57.70 59.78 61.69 69.13 69.36 71.41 72.33 72.58 73.10 73.31 73.50 73.46 73.30 73.45 73.31 73.24 73.24 72.88 72.38 73.06 72.92 72.79 73.01 73.18 72.96 72.15 72.08 71.76 71.09 70.47 70.04 69.98
50.58 47.13 44.98 45.20 44.87 45.19 47.24 49.49 48.09 48.39 48.63 49.17 51.21 48.58 54.15 56.58 56.99 57.50 58.89 60.93 62.46 66.97 70.18 71.72 71.78 71.86 71.91 72.53 72.62 72.74 73.06 73.38 73.54 73.31 73.26 72.77 72.45 72.57 72.58 72.46 72.84 72.86 72.90 72.59 72.12 71.50 70.88 69.92 69.65
51.28 47.89 43.41 44.53 43.07 43.92 47.61 48.17 49.04 48.42 48.38 52.10 51.82 47.93 49.90 56.01 56.05 56.70 58.24 59.90 61.13 61.60 62.23 66.02 70.99 71.28 70.87 71.55 71.39 71.64 72.28 72.40 72.80 72.51 71.99 71.35 71.16 71.32 71.74 71.39 71.44 72.54 72.48 72.27 71.81 71.10 70.57 70.21 70.26
51.62 44.05 42.75 42.91 42.70 44.83 47.61 46.29 48.92 49.91 47.75 48.48 50.08 50.57 52.58 53.74 53.67 54.21 55.08 57.23 59.11 60.48 60.45 60.80 62.64 70.12 70.73 70.53 70.60 70.49 70.36 70.45 70.54 70.72 69.91 70.37 71.25 70.80 70.80 69.79 69.67 71.25 71.78 71.47 71.11 70.76 70.45 69.94 69.09
47.29 43.69 42.72 45.89 46.69 45.76 46.55 45.42 46.04 44.95 45.78 46.23 47.32 49.62 50.50 51.06 51.27 50.67 51.25 52.56 54.91 56.72 58.93 59.46 59.90 62.20 69.08 70.49 70.78 70.93 70.11 69.71 69.17 68.83 69.44 70.44 69.84 69.70 69.33 68.20 68.27 70.40 70.95 70.35 70.82 70.56 69.99 68.57 67.47
46.04 43.63 44.67 45.47 46.87 45.78 44.25 43.81 45.35 43.67 42.83 45.12 44.67 46.62 48.54 49.15 49.74 49.87 50.15 50.85 51.96 54.65 56.24 58.23 59.18 60.22 65.18 68.62 70.36 70.45 70.63 71.12 70.49 69.97 69.46 69.22 69.15 69.51 69.70 70.16 70.26 70.81 67.84 70.85 69.79 69.59 69.05 67.48 66.11
42.40 44.59 44.75 44.68 44.35 43.30 42.39 44.24 42.97 44.10 44.96 47.31 47.34 47.87 47.94 48.08 48.99 49.83 49.78 50.49 51.14 52.39 54.62 57.26 57.87 59.31 60.71 67.27 68.21 69.93 69.69 70.48 69.67 69.29 69.21 69.35 69.18 69.72 68.42 69.01 70.26 70.51 70.55 70.23 70.82 70.01 69.07 68.14 66.47
41.77 42.08 42.66 43.53 43.09 42.83 43.23 42.02 42.44 43.31 46.51 47.67 47.58 47.83 48.40 49.14 50.11 51.49 52.47 52.47 52.45 51.83 53.77 54.59 56.58 58.56 59.72 61.66 67.25 68.86 69.28 69.89 69.95 69.21 69.02 68.97 68.89 69.21 68.95 69.18 70.15 70.03 70.81 70.32 70.11 69.94 68.36 67.74 66.59
42.77 42.08 41.96 42.13 41.57 41.99 40.50 42.14 42.04 44.79 46.14 46.32 47.91 49.21 50.27 50.53 51.06 51.48 51.92 52.20 52.59 53.20 53.52 54.42 54.13 55.96 58.44 59.62 63.39 67.27 68.58 69.21 69.22 68.35 67.81 67.82 67.66 67.93 68.92 69.76 70.27 70.29 70.98 70.74 69.76 69.06 69.22 67.39 66.07
41.86 39.33 40.80 40.97 41.44 41.39 42.34 41.22 41.14 45.89 46.23 46.23 48.08 49.37 50.08 50.01 50.39 50.20 51.20 51.11 51.54 51.93 52.82 53.45 54.38 53.97 54.77 58.00 59.99 64.67 67.51 68.28 68.20 67.79 66.73 66.62 65.56 66.35 67.24 68.17 69.30 69.64 70.57 69.98 70.22 69.24 68.83 67.39 65.99
39.69 39.29 37.94 40.39 41.41 41.88 41.76 38.41 45.42 46.16 45.85 46.13 47.98 48.80 48.91 49.68 50.46 51.49 51.76 51.78 52.46 52.70 52.36 52.79 53.20 54.03 53.41 53.78 58.24 61.93 66.30 67.43 68.76 68.19 67.72 66.28 66.20 66.22 66.17 66.60 67.90 68.47 68.59 68.68 68.20 67.19 65.57 66.29 65.06
39.07 37.53 37.27 38.67 41.80 41.18 41.34 39.83 45.33 47.99 47.36 46.95 47.81 48.16 48.60 49.53 50.77 52.28 52.60 52.43 52.02 52.35 52.57 52.67 53.33 53.30 53.93 53.59 55.18 59.88 65.97 66.61 67.96 67.71 65.52 65.37 65.42 65.55 65.16 64.52 65.24 66.58 67.05 67.13 67.11 67.43 67.16 65.79 66.08
36.76 36.23 37.01 36.74 40.77 40.69 39.83 40.25 44.76 47.45 47.60 47.06 47.04 48.11 48.68 49.71 50.80 52.22 53.18 54.11 54.99 52.65 52.41 52.46 52.78 52.93 53.47 54.31 55.82 59.76 64.46 66.22 66.77 66.16 65.43 65.12 64.73 64.52 64.85 64.96 64.47 64.35 65.43 66.06 66.04 65.96 66.46 65.53 64.84
37.03 36.14 36.20 39.40 41.08 38.93 40.77 41.31 43.89 46.82 45.99 45.31 46.57 47.46 48.61 49.61 51.59 51.93 52.75 53.72 54.20 55.02 52.36 52.00 51.96 52.45 53.47 53.84 53.86 58.49 60.91 62.56 64.86 66.66 66.00 65.62 65.60 65.44 65.39 64.38 64.25 64.86 64.34 64.07 64.85 64.44 63.86 63.84 64.70
36.69 35.56 37.40 40.02 40.01 40.59 41.04 40.36 44.73 44.27 44.26 45.09 45.91 47.04 47.46 47.76 49.20 49.81 51.24 52.24 52.18 53.23 55.22 53.38 52.13 52.57 53.25 54.46 55.04 59.48 60.47 61.50 62.74 64.14 65.01 65.57 65.37 65.04 64.91 64.10 63.88 64.97 64.50 63.84 63.67 63.35 62.53 62.95 63.50
36.56 34.88 36.02 35.24 39.88 43.10 40.35 40.92 40.78 43.19 43.74 45.45 47.31 48.15 46.90 45.93 45.87 48.11 48.56 48.84 50.39 50.74 52.57 53.87 55.03 52.95 53.59 54.58 56.50 60.00 61.73 61.72 61.74 63.01 64.39 64.86 65.01 65.36 65.24 64.77 64.47 63.80 64.49 63.55 63.60 62.96 61.94 60.76 62.80
34.44 38.32 37.64 37.40 36.18 34.19 40.15 33.05 41.12 42.41 42.14 43.94 45.97 45.69 43.86 44.58 46.60 46.88 46.43 46.67 48.92 49.28 52.07 54.29 56.06 56.01 55.17 56.39 55.11 58.36 58.85 59.89 62.50 62.57 63.02 64.16 64.07 63.85 63.88 64.88 64.56 64.05 63.93 63.16 63.30 64.16 63.52 62.71 60.88
37.21 39.40 38.66 37.56 34.04 33.82 35.93 33.48 39.84 41.21 40.67 43.32 43.35 43.03 43.21 44.18 45.00 44.56 45.16 44.93 46.53 48.23 50.09 52.31 56.06 56.46 56.84 56.93 58.13 58.99 58.40 59.26 59.53 60.89 61.28 61.99 62.25 63.11 62.70 63.38 63.69 63.60 63.66 63.24 63.36 63.14 63.41 63.42 62.06
40.52 39.32 37.54 37.09 35.31 30.43 34.39 33.79 36.84 40.66 40.10 40.61 41.59 41.93 42.31 42.99 43.77 44.46 45.34 45.58 44.60 46.75 48.69 50.13 52.10 53.05 55.99 56.38 56.11 55.31 54.92 53.68 53.89 55.66 57.60 57.06 56.32 55.53 55.51 56.85 58.63 61.87 61.87 61.76 62.18 62.68 62.38 62.44 62.33
40.30 38.05 33.47 30.99 31.14 31.44 34.25 31.53 35.73 42.11 42.08 41.06 39.50 40.28 40.97 42.10 42.39 42.45 42.79 43.09 43.08 43.76 46.59 48.21 48.69 49.26 51.42 52.13 51.72 51.68 51.83 52.48 51.64 51.98 52.48 52.91 52.56 52.14 51.88 53.44 54.64 55.47 55.72 55.76 57.12 59.14 61.06 61.71 60.63
38.96 37.85 31.11 24.09 29.08 31.41 34.55 29.49 38.32 43.40 44.18 42.75 41.25 40.23 40.65 40.97 42.11 41.99 41.83 42.21 42.27 42.74 44.03 45.81 46.34 47.04 48.45 49.07 48.69 48.77 48.78 48.64 48.53 48.63 48.96 48.51 48.58 48.94 49.38 50.45 51.32 51.32 51.78 52.43 53.26 55.82 55.48 55.05 59.24
38.28 34.75 39.06 31.85 33.97 28.45 33.81 37.44 42.72 43.44 42.81 41.40 40.19 39.90 39.13 39.89 41.51 41.69 41.68 41.91 41.81 42.37 42.16 43.71 43.42 43.38 44.46 45.53 46.48 46.38 46.87 45.61 44.76 45.04 45.60 45.13 45.33 45.38 46.20 47.18 47.33 47.86 48.63 49.69 50.48 51.29 50.85 51.51 53.22
40.34 41.44 32.15 33.84 25.15 25.30 33.15 34.51 36.10 38.68 37.91 40.27 39.32 38.25 38.82 41.01 41.31 41.55 41.38 41.18 41.33 42.04 42.77 42.30 41.28 41.16 40.75 40.91 41.33 41.83 42.19 43.01 43.43 43.02 41.56 41.72 42.54 43.08 43.72 43.89 44.29 44.78 45.70 47.26 47.75 48.35 48.89 49.00 49.73
37.05 36.22 36.27 36.23 34.04 27.70 27.39 33.77 42.41 39.55 40.25 39.18 39.58 38.96 39.56 40.72 41.01 41.21 41.24 41.49 40.93 40.97 41.02 41.02 40.42 39.27 40.02 39.24 38.71 38.68 39.07 39.49 39.55 39.52 40.08 40.13 40.73 40.59 40.51 41.09 41.51 42.10 42.24 43.65 44.50 44.03 45.34 45.29 46.17
41.20 39.24 38.76 32.26 30.49 33.58 32.15 31.15 43.71 42.63 42.00 41.06 39.98 39.94 40.84 41.70 41.89 41.89 41.19 40.58 40.28 39.57 39.66 38.84 39.50 38.81 38.71 38.44 38.25 38.18 38.73 38.58 38.12 38.17 38.04 39.25 39.43 40.05 39.59 39.66 39.84 39.97 41.00 41.76 41.82 41.27 42.24 42.28 42.28

GFSSGP_sfc_wetblb_114.txt.gz
Wetbulb
63.10 61.85 62.98 58.23 46.25 44.30 41.36 44.09 48.68 47.83 47.11 50.77 51.98 50.55 48.50 52.80 51.95 50.69 60.30 64.18 69.46 70.72 73.16 73.41 75.67 75.43 75.09 75.12 75.49 74.66 75.05 75.18 74.96 74.20 74.54 74.19 73.97 73.03 71.87 71.29 70.85 71.23 71.81 71.74 71.08 72.66 73.03 72.28 71.74
61.64 62.42 60.15 53.99 42.73 38.29 40.74 46.25 46.96 49.65 50.88 50.95 50.79 51.20 49.89 53.13 55.05 55.99 55.94 64.17 69.81 71.61 73.44 72.05 75.17 75.08 75.05 75.15 75.09 75.17 74.90 75.04 74.57 73.95 73.82 73.97 73.60 73.26 72.30 71.83 71.15 72.20 72.79 73.38 73.37 73.12 73.13 71.70 71.34
61.27 62.66 53.22 47.60 42.10 39.51 41.16 46.98 49.09 50.29 50.46 50.54 49.30 50.48 53.25 51.45 54.59 53.36 57.87 66.97 69.60 70.24 72.13 73.29 74.43 74.59 74.77 74.46 74.38 74.31 74.84 74.50 74.57 74.16 74.14 74.00 73.30 73.44 72.54 72.17 72.30 72.80 73.13 72.98 73.18 73.38 72.25 71.41 71.42
59.25 56.87 53.13 43.22 41.97 43.52 45.92 46.93 48.73 49.53 49.16 49.51 49.21 48.91 53.16 54.99 54.68 55.25 58.68 62.85 68.53 69.84 71.54 71.83 73.55 74.37 74.37 74.26 74.26 74.10 74.07 74.25 74.18 74.05 74.17 73.51 73.44 73.31 72.93 73.14 72.80 72.72 72.99 72.71 72.92 72.29 71.34 71.47 71.34
58.40 53.84 44.00 40.78 42.59 44.07 48.74 49.75 48.83 46.95 47.22 47.96 48.31 46.65 49.79 54.00 56.44 56.57 57.67 60.73 67.19 68.83 70.83 72.24 73.43 73.49 73.28 73.72 73.68 73.95 73.90 73.82 73.79 73.70 73.68 73.48 73.41 72.82 72.84 73.43 73.16 72.97 73.12 72.26 72.24 71.71 70.92 70.55 70.72
50.31 50.20 40.92 39.27 42.24 45.47 47.38 48.90 47.64 46.12 46.50 47.49 46.12 46.34 49.13 54.11 54.04 54.97 57.71 58.73 61.28 65.69 69.70 71.63 72.25 73.30 73.27 73.37 73.38 73.37 73.44 73.44 73.68 73.46 73.42 73.49 73.18 72.90 72.46 72.39 72.74 73.36 73.07 71.86 72.26 71.55 70.69 70.27 70.18
48.54 43.76 41.32 41.17 42.16 43.00 45.33 47.04 43.54 45.17 44.86 45.47 46.35 43.11 50.25 52.76 53.37 54.42 55.71 57.99 59.72 60.99 61.62 65.88 70.75 71.23 71.55 72.20 72.56 72.81 72.96 73.11 73.12 73.45 73.17 72.78 72.41 72.60 72.47 72.81 72.54 72.47 72.99 71.93 72.30 71.53 71.10 70.25 70.29
48.81 44.17 40.59 40.58 40.92 41.76 45.68 46.72 47.44 45.49 44.92 47.57 47.04 42.96 44.27 47.55 50.32 52.82 54.11 55.49 57.42 59.02 59.24 59.44 61.10 69.61 70.19 70.40 71.12 71.45 71.71 72.03 72.26 72.29 71.70 70.96 70.56 70.96 71.89 71.53 71.36 72.15 72.37 72.38 71.81 71.33 71.07 70.91 70.34
50.60 40.43 38.51 39.87 41.14 42.31 45.75 44.31 46.70 46.49 43.38 44.70 44.95 45.33 47.26 48.67 50.60 49.54 49.87 52.29 54.14 57.24 57.90 57.42 58.10 59.01 66.07 69.38 70.34 70.38 70.42 70.63 70.65 70.62 69.55 69.38 69.62 69.29 69.41 69.20 69.38 70.84 71.82 72.08 71.86 71.35 70.56 69.74 68.95
44.28 39.17 40.42 44.53 44.25 43.73 45.50 42.86 42.95 41.59 42.04 42.08 44.04 46.64 47.32 48.03 47.74 46.86 46.39 46.77 49.24 51.25 54.16 55.94 56.76 57.26 58.18 67.89 68.58 69.32 69.67 67.90 67.82 68.33 68.55 69.23 68.55 68.41 68.55 67.95 67.93 70.24 70.73 70.78 71.27 70.66 69.82 68.68 66.53
43.87 40.28 43.57 44.54 45.60 44.81 43.67 42.06 43.93 40.51 39.35 41.24 40.82 43.39 45.28 45.81 45.82 46.51 46.02 46.02 46.57 49.01 51.43 53.63 54.86 56.28 56.61 59.48 66.48 68.42 69.01 68.95 68.55 67.41 66.39 66.07 67.09 66.62 66.14 66.70 67.77 68.36 67.42 69.08 69.22 68.50 68.03 66.12 64.42
40.02 43.74 43.92 44.90 43.95 43.17 41.25 42.47 40.19 41.31 40.94 44.29 43.20 44.67 44.59 44.70 46.04 47.04 46.97 47.18 47.18 48.27 49.82 51.67 52.94 53.61 55.72 56.45 64.47 66.08 67.56 68.54 67.74 67.48 67.35 67.02 65.47 66.34 66.69 66.22 68.09 67.81 67.86 67.89 67.65 67.52 67.10 66.12 64.69
40.27 40.74 42.75 43.18 42.64 40.99 41.86 39.58 39.38 40.08 43.22 44.49 45.14 46.53 45.58 46.37 47.43 48.33 49.53 49.85 49.49 48.96 50.28 51.01 51.79 51.67 54.01 55.43 57.40 64.78 66.50 67.34 68.35 67.53 66.70 66.74 66.71 65.19 65.80 65.12 66.58 68.17 67.91 67.68 67.53 67.31 67.35 66.29 65.21
41.25 42.09 41.48 41.66 41.25 41.32 39.72 39.77 41.07 41.24 43.23 44.66 46.07 46.28 46.39 47.34 47.49 47.32 47.78 47.81 47.92 48.80 48.97 50.19 51.49 51.49 52.43 52.75 54.40 58.82 65.43 66.92 66.83 66.89 66.39 66.07 65.89 65.33 65.75 66.48 66.82 67.16 67.87 67.73 67.37 67.04 66.86 65.81 65.81
41.00 37.28 38.93 39.61 40.85 40.37 41.51 38.28 38.59 42.57 44.17 43.69 44.97 46.38 47.47 47.48 47.71 46.67 48.30 47.61 47.78 48.86 49.78 49.37 49.64 50.53 50.41 50.11 51.45 53.72 61.05 66.13 66.20 65.38 64.64 64.44 64.59 65.59 64.97 66.06 66.53 67.10 67.59 67.60 67.02 66.63 66.67 65.59 64.78
37.41 35.74 31.86 38.10 40.43 40.88 39.63 33.30 42.03 43.81 42.44 42.66 44.93 46.24 47.11 47.10 47.31 49.24 50.25 50.25 51.12 50.09 48.07 50.02 52.00 50.46 49.62 49.10 49.06 51.54 54.50 63.67 65.41 66.28 64.81 63.89 64.63 64.30 64.14 65.70 64.78 66.57 66.39 66.56 66.46 66.04 65.19 65.34 64.39
33.92 29.29 32.63 35.39 41.50 40.59 38.20 35.00 41.92 44.56 44.62 43.37 44.46 44.21 45.16 46.51 49.35 50.04 50.42 50.31 50.79 52.07 50.44 48.68 49.70 49.79 49.73 49.98 49.82 49.05 50.88 61.75 64.32 65.50 65.19 63.95 63.52 63.84 63.52 64.03 63.29 63.60 63.48 64.57 65.10 64.83 64.69 63.21 63.36
29.72 29.51 33.38 31.55 38.12 39.13 36.51 36.42 41.20 43.90 44.28 42.65 42.62 42.12 44.33 46.56 47.88 49.84 49.91 51.15 51.45 51.15 51.64 51.99 49.75 49.52 49.68 49.48 49.62 49.70 51.66 60.49 63.08 64.55 63.37 62.79 63.10 63.54 62.62 62.50 62.75 62.92 62.30 62.08 63.72 63.49 63.45 63.34 63.12
34.92 32.90 32.20 36.35 39.42 36.57 36.33 37.85 40.71 43.73 42.08 41.33 40.47 42.16 43.63 44.66 47.55 48.85 50.21 49.62 49.52 50.02 50.30 51.03 51.96 50.95 49.18 47.99 47.63 47.44 48.87 58.81 60.76 62.27 63.93 63.01 63.58 63.46 62.45 62.82 63.07 61.71 61.46 61.32 62.99 62.76 61.97 62.20 63.30
34.90 31.47 32.50 37.52 40.17 38.71 37.36 37.78 41.47 43.78 42.34 41.29 41.20 42.18 42.82 43.78 44.78 47.13 47.57 47.32 47.57 48.48 49.08 49.72 51.32 52.35 52.24 49.04 49.46 49.63 53.25 57.36 58.70 61.02 62.79 63.00 63.40 64.04 63.22 62.84 61.75 61.83 62.18 61.63 61.95 61.75 61.29 61.74 62.44
33.01 29.71 32.33 33.05 38.50 40.20 37.55 35.19 37.27 40.72 41.64 43.66 43.84 44.03 43.07 42.11 42.60 44.58 45.52 45.60 45.82 46.40 47.29 49.38 50.99 52.75 54.51 50.38 50.26 51.09 53.99 56.54 57.17 59.14 60.83 62.08 63.04 63.20 63.46 62.03 61.72 61.80 61.59 61.19 61.02 61.68 61.56 59.92 60.53
32.19 37.47 37.31 36.79 32.71 27.43 36.72 23.82 35.69 37.81 38.89 41.77 41.72 40.90 40.93 41.62 43.35 44.70 44.94 45.13 44.97 45.87 47.81 49.73 51.17 53.97 55.09 52.71 50.31 49.61 51.66 52.82 55.20 57.19 60.23 61.81 63.16 62.99 63.03 63.18 62.17 61.19 60.83 60.37 60.36 62.06 61.47 60.43 59.22
35.79 39.17 37.44 36.77 33.44 30.43 32.10 25.44 33.62 37.69 36.85 38.69 39.48 40.05 40.64 41.41 42.58 43.22 44.04 45.15 45.48 45.67 46.86 49.10 50.37 51.92 52.05 54.29 52.65 52.05 50.94 52.00 54.61 54.30 56.45 58.42 57.85 58.57 59.10 59.65 61.22 61.15 60.32 59.56 59.82 61.22 60.14 60.90 59.69
40.47 37.58 38.50 37.22 33.25 26.27 28.91 27.60 29.49 34.73 35.94 37.83 39.81 39.56 40.79 41.67 42.73 43.75 44.36 44.84 44.03 44.76 45.61 47.78 47.98 48.91 50.82 51.57 51.57 50.90 51.93 51.91 52.05 51.58 52.40 53.74 53.48 53.83 54.71 56.42 56.71 56.93 56.40 56.52 58.02 59.56 59.74 59.64 59.83
38.79 33.55 23.55 22.93 28.45 22.27 31.88 25.01 30.02 37.67 39.45 38.37 38.26 38.04 40.01 41.69 42.36 42.77 42.22 42.40 42.84 42.70 43.70 46.00 44.80 45.35 48.12 48.54 48.06 48.24 47.33 48.12 48.40 49.06 47.46 48.28 48.61 48.63 49.50 50.97 51.38 51.71 52.50 53.25 53.56 55.89 55.68 54.38 56.35
36.43 34.28 22.00 16.62 18.60 22.06 31.88 21.53 31.61 40.58 41.32 41.32 40.37 38.45 39.25 40.59 41.97 42.25 42.06 42.19 42.29 42.68 42.59 41.76 43.03 42.30 44.35 45.79 46.48 46.44 45.64 45.26 45.15 44.59 44.52 44.49 45.40 45.55 46.67 46.79 47.64 48.33 49.41 50.29 51.48 52.30 51.19 51.57 52.44
35.94 32.27 35.70 25.97 27.84 22.07 26.02 32.34 39.02 41.20 39.69 39.45 37.99 38.97 38.90 40.23 41.58 41.86 41.98 41.94 41.55 42.13 41.98 41.17 40.51 39.91 39.96 40.15 41.86 41.78 43.59 43.34 42.52 42.03 42.53 42.78 42.43 43.28 43.80 44.18 44.71 45.35 46.79 47.59 48.66 49.05 48.53 49.70 49.94
37.65 38.77 27.96 31.01 15.60 18.04 23.90 29.15 29.21 35.83 35.93 39.20 37.65 36.30 38.49 40.79 41.56 42.02 41.77 41.66 41.72 41.69 41.83 41.66 40.47 39.67 39.51 39.04 38.76 38.86 39.33 39.92 40.40 40.74 39.92 40.04 39.32 39.74 40.43 40.89 42.30 42.41 43.54 44.97 45.39 45.39 46.67 46.04 47.45
34.66 33.34 33.76 32.65 28.88 20.47 20.20 23.28 38.72 36.85 38.23 38.46 37.99 38.24 38.74 40.81 41.51 41.86 41.80 41.94 41.45 41.02 40.56 40.29 40.15 39.32 38.83 38.42 38.42 37.82 38.00 38.66 38.11 37.28 37.81 38.17 39.63 39.16 39.32 39.78 40.54 40.59 41.24 42.76 42.83 42.50 42.94 42.69 43.24
37.16 35.86 34.60 25.46 24.91 27.36 25.71 25.80 41.43 40.73 40.66 40.35 39.51 39.57 39.37 41.36 41.87 42.67 42.31 41.69 41.08 39.84 39.96 39.15 39.22 39.05 38.93 38.41 37.64 37.83 38.07 37.89 37.47 36.95 36.74 37.36 36.74 37.28 36.08 35.64 35.97 37.31 38.11 39.27 39.71 39.05 40.00 40.82 40.65

GFSSGP_sfc_wetblb_117.txt.gz
Wetbulb
62.48 60.11 56.97 53.83 42.15 39.27 36.36 40.81 42.41 44.18 45.22 46.83 49.07 48.36 48.97 50.44 51.18 49.40 58.20 61.75 68.41 70.34 72.57 73.69 75.42 75.24 75.05 75.21 75.16 74.75 74.96 74.75 74.31 74.15 73.92 73.81 73.64 72.81 71.54 70.71 70.63 71.67 71.20 70.82 71.03 72.18 72.62 72.22 72.02
59.39 60.01 55.08 48.59 38.70 32.25 36.08 41.84 43.28 45.30 47.09 48.71 49.62 49.09 49.08 49.18 52.52 52.31 53.89 60.20 68.73 70.73 72.45 72.63 75.03 74.87 75.21 75.22 75.20 74.75 74.71 74.54 74.56 74.33 73.90 73.52 73.03 73.21 72.17 71.43 70.75 71.36 71.80 72.57 72.53 72.96 73.10 71.62 71.48
58.86 60.41 49.22 43.48 36.34 35.19 37.35 43.53 44.39 46.69 48.37 47.92 47.12 50.73 50.91 49.31 52.22 51.25 54.75 60.67 68.64 69.65 71.66 72.26 73.94 73.99 73.95 73.73 74.53 74.88 74.75 74.59 74.48 74.29 73.95 73.71 73.25 73.05 72.67 72.19 71.90 72.42 72.87 73.13 73.11 72.65 72.16 71.55 71.38
55.16 52.91 47.96 39.68 36.42 40.88 41.51 41.62 46.19 46.42 47.81 48.50 46.18 46.74 50.77 53.65 53.09 53.12 56.05 60.63 66.85 69.17 70.41 72.31 73.19 73.71 73.70 73.71 74.07 74.09 73.98 73.52 73.84 74.04 73.78 73.77 72.94 72.82 72.96 73.04 72.74 72.19 72.54 72.80 73.29 72.26 71.57 71.73 71.42
53.70 48.37 39.44 35.38 38.39 41.91 43.54 46.44 46.31 44.39 44.70 44.83 45.50 44.16 46.85 52.88 54.52 55.36 56.02 58.51 61.82 65.51 69.69 71.87 73.31 73.75 73.66 72.88 73.32 73.45 73.53 73.57 73.39 73.55 73.52 73.40 73.02 73.02 72.88 73.18 72.84 72.64 72.70 72.71 72.50 71.97 71.34 70.79 70.85
47.17 45.31 36.21 34.96 37.73 41.83 42.00 44.09 44.45 43.62 44.29 44.61 44.50 43.01 46.48 51.11 51.81 52.62 56.13 56.78 59.14 59.06 63.09 69.16 71.70 72.94 73.18 73.21 73.10 73.16 73.20 73.34 73.43 73.40 73.40 73.41 73.16 73.35 72.92 73.02 72.85 73.19 72.86 72.77 71.99 72.18 71.32 70.51 70.35
44.93 39.39 36.62 35.86 38.40 39.59 41.82 44.27 41.02 41.51 42.29 43.13 43.97 40.53 46.94 48.02 50.40 52.32 53.90 54.51 57.32 59.09 59.20 60.44 63.03 70.75 71.01 71.62 72.06 72.48 72.82 72.70 72.74 73.13 73.09 72.61 72.41 72.63 72.66 72.97 72.80 72.77 73.20 72.68 71.96 72.21 71.61 70.55 70.39
44.72 40.33 36.40 35.72 37.72 38.17 43.19 44.80 44.90 43.30 41.66 45.87 45.18 40.42 41.47 42.75 47.64 49.42 50.03 51.48 53.86 56.90 56.85 56.68 57.62 59.96 63.33 70.00 70.66 70.95 71.45 71.59 72.00 71.94 71.46 70.51 70.11 70.50 71.73 71.52 71.71 72.47 72.34 72.27 71.99 72.10 71.32 70.89 70.59
46.09 36.82 34.75 36.75 38.89 40.20 43.66 42.08 45.11 44.46 40.69 42.55 42.16 41.56 44.22 45.65 47.77 46.80 46.55 47.23 49.44 53.10 55.09 55.08 55.87 56.32 56.73 60.43 69.51 69.58 70.10 70.11 70.31 70.17 69.24 68.85 69.35 69.31 69.16 68.95 69.31 70.75 71.71 71.92 72.16 71.86 71.06 70.06 69.21
41.24 35.25 37.38 41.77 40.79 40.58 42.70 40.97 40.48 39.74 39.25 39.14 41.27 43.78 44.89 45.42 45.05 44.33 43.92 44.00 45.11 46.63 49.46 52.09 53.70 54.73 55.94 57.37 63.32 67.54 68.91 69.00 68.75 69.03 68.94 68.88 68.80 68.89 68.98 67.43 67.51 69.49 70.52 70.62 71.90 71.51 70.39 68.58 66.83
40.40 37.01 41.51 42.02 43.30 43.23 41.90 39.91 42.05 38.19 36.97 38.97 38.48 41.26 43.09 44.06 44.44 45.20 44.75 44.00 44.91 46.35 48.32 49.75 49.83 51.32 52.42 54.58 56.37 65.14 66.90 67.68 67.78 66.40 66.71 67.26 68.76 67.83 67.64 65.64 66.58 67.68 67.23 68.53 69.63 69.43 68.31 66.54 65.73
37.59 40.78 41.97 43.20 42.04 41.11 38.98 40.36 38.14 39.16 39.53 41.96 41.54 43.43 43.82 43.90 44.76 45.39 45.68 46.51 46.47 47.33 48.63 49.75 50.20 50.42 50.83 53.40 53.79 60.07 64.02 66.56 67.08 67.65 67.33 65.69 65.86 64.76 65.37 64.64 66.16 67.13 67.82 67.45 67.20 66.96 66.73 66.05 65.64
37.53 38.04 40.94 41.51 40.93 39.08 40.23 37.57 36.81 38.05 41.24 42.57 43.56 45.34 43.59 44.02 45.82 46.49 47.36 47.25 46.55 46.10 47.54 48.37 49.22 49.45 49.99 50.16 52.27 54.04 61.48 64.54 66.49 67.30 67.01 65.81 65.00 65.83 65.94 64.75 65.50 66.91 67.59 67.26 66.80 66.62 66.47 65.84 64.90
38.01 39.67 39.49 39.67 39.38 39.85 38.69 38.09 39.11 39.29 40.96 42.90 43.82 43.68 43.89 45.19 45.89 44.88 46.77 46.56 47.21 48.12 47.98 48.00 48.80 48.78 49.22 49.42 49.35 51.02 55.64 63.11 65.05 65.94 66.65 66.35 64.00 64.87 64.86 64.50 65.14 65.59 67.21 67.11 67.29 66.75 66.47 66.12 65.52
38.68 35.32 36.34 37.18 38.86 38.50 39.65 35.45 36.26 40.00 42.01 42.29 43.01 44.01 45.14 46.22 46.06 46.23 47.75 47.98 48.41 49.57 49.70 48.63 49.29 49.85 48.45 47.71 47.91 48.17 50.40 57.22 63.98 65.05 65.30 63.60 64.43 63.52 64.31 64.20 64.32 65.38 66.49 66.50 65.98 65.61 66.32 65.58 64.74
34.71 33.12 28.29 35.83 38.46 39.52 37.23 30.32 39.42 42.20 40.90 40.18 41.74 43.51 45.14 46.11 47.78 47.99 48.67 48.81 49.45 49.32 49.48 50.81 52.34 50.34 48.37 47.37 47.31 47.46 48.54 50.40 58.03 63.91 64.73 63.68 63.00 63.41 62.85 63.76 64.71 65.27 65.61 65.74 65.23 66.00 65.35 65.31 64.63
30.94 25.84 28.84 33.18 39.78 38.91 35.90 31.85 39.70 41.71 41.53 40.27 41.44 40.93 44.30 46.09 47.27 47.86 48.72 48.53 48.95 49.15 49.66 49.98 51.13 51.73 51.13 49.08 47.89 47.75 48.01 47.46 54.46 61.96 63.91 63.85 63.19 62.25 62.17 63.31 63.18 63.23 63.30 63.45 63.67 63.51 63.65 63.25 64.08
25.09 25.55 30.78 30.19 36.27 37.29 34.27 34.20 39.12 41.33 41.05 40.32 40.42 40.35 42.30 43.86 45.62 47.80 48.41 48.32 48.64 48.22 49.37 49.58 50.18 51.17 51.97 52.00 48.92 47.52 48.23 49.47 52.90 58.81 62.67 63.21 63.16 62.43 60.92 61.88 61.94 62.03 61.35 61.11 61.78 62.00 62.12 62.82 62.69
32.09 29.34 28.01 33.34 37.93 36.00 34.08 34.64 38.62 41.32 40.84 40.23 39.08 40.18 41.33 42.63 45.15 46.90 47.37 46.89 46.97 46.98 47.79 47.95 48.83 50.23 51.18 51.42 50.16 45.88 45.65 47.67 51.45 58.85 61.12 61.81 61.48 61.29 61.77 61.49 60.98 60.98 60.28 60.29 60.50 60.87 59.67 59.61 62.08
32.99 28.67 29.83 34.24 39.25 37.46 35.53 35.63 39.75 41.58 41.09 40.63 40.36 40.18 40.59 41.17 42.30 45.12 45.67 45.46 44.96 45.26 45.85 47.14 48.91 50.24 52.24 53.67 53.76 48.31 47.30 50.49 55.46 57.48 58.36 59.56 60.88 61.75 62.30 61.91 61.14 60.41 58.97 59.24 60.35 61.43 60.92 61.29 62.36
31.06 28.94 29.18 30.63 36.41 37.68 35.40 31.93 35.53 38.97 40.34 42.30 42.36 42.06 40.79 40.35 40.78 42.19 44.09 43.86 43.95 43.89 44.75 46.85 48.75 50.00 51.30 52.17 53.30 50.74 49.78 52.12 53.88 54.30 55.49 57.19 59.41 60.23 61.59 62.10 62.15 60.79 59.91 60.12 60.17 60.43 60.50 58.41 59.06
29.06 35.94 36.02 35.49 29.37 22.87 34.19 20.99 32.00 35.70 36.97 39.11 39.13 38.85 38.24 39.05 40.77 42.53 43.32 43.33 43.47 43.66 44.77 45.96 48.05 49.82 50.52 51.52 51.01 49.97 47.71 48.52 51.24 52.14 53.85 56.50 56.13 56.20 56.65 60.60 61.83 61.07 61.02 59.02 59.64 59.75 58.71 57.99 56.78
33.97 37.82 35.79 35.19 29.74 26.37 28.50 22.59 29.72 34.52 33.82 36.85 36.22 37.17 37.89 38.79 40.71 41.72 42.10 43.23 44.29 43.48 43.65 44.94 46.20 48.12 49.36 49.94 49.78 50.10 50.54 50.83 51.31 51.46 52.72 53.42 52.95 52.53 52.21 54.11 59.06 60.94 60.69 60.13 59.28 59.22 59.16 59.04 59.64
39.17 36.20 36.56 37.38 33.86 23.16 25.80 26.10 26.45 31.70 35.19 37.16 37.99 36.76 38.74 39.67 40.59 42.43 43.00 43.11 43.58 43.64 43.97 42.84 43.51 44.28 47.24 48.64 47.99 47.53 48.10 48.38 47.66 48.11 48.31 50.14 49.11 49.08 48.84 50.28 52.75 53.59 55.37 55.59 56.52 57.61 56.48 56.37 58.70
36.90 31.31 17.52 23.01 21.84 20.24 29.77 21.46 28.54 35.11 37.68 38.38 37.70 35.18 35.13 38.25 39.28 42.68 42.07 41.65 42.57 43.09 43.00 42.70 41.82 40.72 42.41 44.45 45.76 45.47 45.68 44.66 43.50 43.51 43.85 44.74 44.47 43.53 44.17 46.41 47.75 49.57 50.51 52.30 53.68 53.10 52.02 52.68 52.63
34.83 31.43 18.48 12.83 14.18 19.56 26.95 20.26 28.41 38.17 39.28 39.44 39.32 37.36 35.95 37.88 38.89 39.99 42.15 41.14 42.08 42.67 42.59 41.90 41.07 39.60 40.14 40.34 41.26 43.15 43.73 42.52 41.70 41.68 42.14 41.01 42.17 42.09 43.28 44.19 44.54 46.34 47.37 48.49 50.14 49.29 49.97 50.54 50.29
34.47 27.68 34.17 22.30 21.47 16.35 19.81 28.21 36.31 38.88 37.31 37.49 37.18 37.37 34.28 35.42 41.13 41.76 39.83 40.23 41.59 39.73 41.94 41.24 40.02 40.01 39.53 38.95 39.24 39.04 39.63 40.43 40.49 41.01 41.33 40.75 40.46 40.89 41.42 42.34 42.77 43.20 43.73 44.91 44.93 46.39 45.74 47.67 48.56
36.14 37.46 26.01 25.71 13.18 15.93 18.62 24.00 27.57 33.90 35.22 38.19 36.70 36.17 36.31 38.14 39.84 41.03 40.36 41.26 40.84 41.65 41.29 41.80 40.73 39.32 39.27 38.97 38.36 38.30 38.57 38.85 38.54 38.31 37.55 38.14 38.68 39.44 39.61 39.77 40.11 40.68 41.63 42.93 42.62 41.97 42.16 42.01 44.13
33.02 31.32 32.80 30.35 26.43 18.93 18.58 20.58 34.51 35.54 37.14 36.86 37.94 37.58 36.76 37.85 39.66 40.32 41.93 41.63 41.04 41.51 41.08 39.97 40.14 39.36 38.87 38.44 38.06 37.74 37.66 38.00 37.71 36.90 36.65 35.00 36.05 37.09 36.77 36.73 37.10 37.17 37.65 38.89 39.04 39.30 39.80 40.61 41.67
36.35 33.71 32.21 23.75 23.25 24.72 23.03 22.60 36.97 39.51 39.36 39.63 38.47 38.63 37.75 39.02 39.96 40.76 40.61 40.70 40.47 39.61 40.53 37.91 36.46 36.98 36.71 37.62 35.64 35.07 35.34 36.15 35.99 35.55 35.21 35.49 35.12 35.91 35.88 35.92 34.51 34.68 34.76 34.71 35.08 35.22 36.80 36.31 36.19